GEFSCGP_prec_meanprecacc_012.txt.gz
Total_Precipitation_Accumulation
0.01 0.00 0.04 0.06 0.05 0.07 0.06 0.04 0.04 0.06 0.07 0.06 0.05 0.04 0.04 0.04 0.03 0.02 0.02 0.02 0.01 0.01 0.00 0.00 0.00 0.00 0.00 0.00 0.00 0.00 0.01 0.03 0.07 0.09 0.12 0.27 0.47 0.43 0.46 0.42 0.25 0.22 0.26 0.26
0.00 0.00 0.00 0.00 0.01 0.03 0.05 0.06 0.05 0.05 0.04 0.05 0.05 0.04 0.03 0.04 0.05 0.04 0.03 0.02 0.01 0.01 0.00 0.00 0.00 0.00 0.00 0.00 0.00 0.00 0.01 0.04 0.06 0.08 0.10 0.18 0.24 0.15 0.20 0.28 0.31 0.26 0.23 0.27
0.00 0.00 0.00 0.00 0.01 0.03 0.06 0.08 0.10 0.10 0.06 0.04 0.04 0.03 0.01 0.02 0.03 0.03 0.03 0.02 0.01 0.01 0.00 0.00 0.00 0.00 0.00 0.00 0.00 0.00 0.01 0.05 0.07 0.06 0.06 0.08 0.10 0.13 0.24 0.27 0.32 0.31 0.25 0.22
0.00 0.00 0.00 0.01 0.02 0.03 0.06 0.05 0.06 0.09 0.13 0.12 0.13 0.13 0.04 0.03 0.04 0.03 0.03 0.03 0.02 0.01 0.01 0.01 0.01 0.00 0.00 0.00 0.00 0.00 0.02 0.04 0.04 0.03 0.04 0.07 0.10 0.17 0.19 0.23 0.24 0.16 0.15 0.15
0.00 0.00 0.00 0.00 0.01 0.01 0.02 0.01 0.03 0.06 0.11 0.09 0.08 0.12 0.05 0.04 0.06 0.06 0.04 0.03 0.02 0.01 0.02 0.03 0.03 0.03 0.02 0.02 0.01 0.01 0.02 0.03 0.01 0.02 0.04 0.08 0.09 0.12 0.14 0.14 0.12 0.13 0.11 0.08
0.00 0.00 0.00 0.00 0.00 0.00 0.01 0.02 0.05 0.08 0.10 0.06 0.05 0.07 0.05 0.03 0.03 0.02 0.02 0.02 0.02 0.03 0.07 0.11 0.11 0.11 0.10 0.08 0.07 0.04 0.03 0.01 0.01 0.01 0.01 0.03 0.06 0.11 0.12 0.08 0.07 0.08 0.11 0.13
0.00 0.00 0.00 0.00 0.00 0.00 0.01 0.04 0.09 0.11 0.11 0.08 0.06 0.10 0.08 0.03 0.01 0.01 0.01 0.01 0.03 0.06 0.12 0.20 0.22 0.22 0.18 0.16 0.12 0.05 0.01 0.00 0.00 0.00 0.00 0.01 0.03 0.06 0.08 0.07 0.05 0.04 0.05 0.07
0.00 0.00 0.00 0.00 0.01 0.01 0.02 0.06 0.15 0.17 0.14 0.11 0.07 0.09 0.07 0.06 0.03 0.02 0.01 0.02 0.06 0.12 0.17 0.19 0.18 0.19 0.17 0.12 0.06 0.02 0.00 0.00 0.00 0.00 0.00 0.01 0.02 0.02 0.02 0.02 0.03 0.03 0.03 0.02
0.00 0.00 0.00 0.00 0.01 0.02 0.04 0.05 0.08 0.15 0.12 0.08 0.06 0.08 0.08 0.07 0.07 0.05 0.04 0.06 0.12 0.24 0.31 0.29 0.29 0.30 0.19 0.08 0.03 0.01 0.00 0.00 0.00 0.00 0.00 0.00 0.01 0.00 0.01 0.01 0.03 0.02 0.01 0.01
0.00 0.01 0.00 0.00 0.00 0.02 0.07 0.11 0.14 0.23 0.24 0.16 0.13 0.15 0.16 0.16 0.17 0.17 0.20 0.25 0.29 0.38 0.46 0.51 0.55 0.46 0.20 0.06 0.02 0.01 0.00 0.00 0.00 0.00 0.00 0.00 0.00 0.00 0.00 0.01 0.02 0.01 0.01 0.01
0.00 0.02 0.00 0.00 0.01 0.05 0.11 0.17 0.21 0.27 0.30 0.30 0.29 0.34 0.32 0.35 0.38 0.44 0.49 0.44 0.37 0.41 0.45 0.53 0.54 0.39 0.16 0.05 0.02 0.01 0.00 0.00 0.00 0.00 0.00 0.01 0.01 0.01 0.01 0.01 0.01 0.01 0.01 0.01
0.00 0.04 0.02 0.01 0.05 0.09 0.16 0.24 0.36 0.44 0.34 0.32 0.31 0.38 0.33 0.28 0.29 0.35 0.43 0.33 0.20 0.19 0.20 0.21 0.19 0.14 0.09 0.05 0.02 0.01 0.01 0.01 0.02 0.02 0.02 0.02 0.02 0.03 0.02 0.02 0.01 0.01 0.00 0.00
0.02 0.09 0.10 0.09 0.20 0.25 0.28 0.29 0.25 0.24 0.20 0.18 0.21 0.22 0.14 0.11 0.15 0.19 0.23 0.21 0.14 0.07 0.06 0.05 0.04 0.04 0.04 0.04 0.04 0.04 0.05 0.06 0.08 0.09 0.06 0.04 0.04 0.03 0.03 0.02 0.01 0.01 0.01 0.00
0.01 0.08 0.13 0.18 0.22 0.25 0.31 0.29 0.21 0.13 0.11 0.10 0.11 0.07 0.03 0.04 0.07 0.08 0.09 0.08 0.06 0.04 0.03 0.02 0.02 0.02 0.03 0.04 0.05 0.07 0.09 0.11 0.17 0.22 0.20 0.13 0.08 0.06 0.04 0.03 0.04 0.03 0.02 0.01
0.00 0.01 0.02 0.04 0.05 0.10 0.21 0.27 0.18 0.08 0.05 0.08 0.08 0.04 0.02 0.01 0.02 0.05 0.08 0.07 0.04 0.04 0.03 0.02 0.02 0.03 0.02 0.03 0.04 0.06 0.09 0.15 0.26 0.39 0.40 0.27 0.18 0.11 0.09 0.10 0.09 0.06 0.04 0.02
0.00 0.00 0.00 0.01 0.02 0.04 0.11 0.14 0.11 0.06 0.07 0.12 0.11 0.07 0.04 0.03 0.09 0.15 0.17 0.15 0.10 0.08 0.08 0.07 0.07 0.06 0.05 0.05 0.05 0.06 0.09 0.15 0.25 0.39 0.44 0.38 0.28 0.17 0.13 0.15 0.16 0.12 0.10 0.07
0.00 0.00 0.01 0.01 0.02 0.03 0.10 0.10 0.09 0.11 0.10 0.06 0.06 0.05 0.06 0.14 0.38 0.45 0.37 0.32 0.21 0.15 0.14 0.14 0.14 0.14 0.13 0.12 0.10 0.10 0.12 0.16 0.24 0.35 0.41 0.37 0.30 0.22 0.18 0.21 0.22 0.18 0.15 0.14
0.00 0.02 0.06 0.05 0.08 0.18 0.23 0.18 0.24 0.29 0.18 0.09 0.09 0.12 0.21 0.55 0.84 0.57 0.38 0.35 0.28 0.19 0.16 0.15 0.15 0.14 0.12 0.11 0.10 0.10 0.13 0.15 0.16 0.20 0.23 0.24 0.24 0.22 0.23 0.24 0.24 0.23 0.21 0.20
0.00 0.03 0.08 0.10 0.13 0.39 0.36 0.18 0.30 0.33 0.24 0.15 0.19 0.22 0.26 0.35 0.33 0.20 0.13 0.14 0.17 0.12 0.09 0.08 0.07 0.06 0.04 0.04 0.04 0.04 0.04 0.05 0.05 0.06 0.08 0.10 0.11 0.13 0.16 0.17 0.19 0.27 0.30 0.30
0.00 0.02 0.06 0.07 0.08 0.23 0.27 0.10 0.17 0.25 0.28 0.10 0.11 0.12 0.07 0.04 0.04 0.09 0.09 0.06 0.05 0.03 0.02 0.02 0.01 0.01 0.01 0.00 0.00 0.00 0.00 0.00 0.00 0.00 0.00 0.01 0.01 0.02 0.05 0.08 0.10 0.16 0.22 0.28
0.00 0.01 0.02 0.02 0.04 0.07 0.05 0.05 0.10 0.24 0.26 0.07 0.03 0.03 0.01 0.00 0.00 0.05 0.09 0.05 0.03 0.01 0.00 0.00 0.00 0.00 0.00 0.00 0.00 0.00 0.00 0.00 0.00 0.00 0.00 0.00 0.00 0.00 0.00 0.01 0.02 0.04 0.08 0.11
0.00 0.01 0.01 0.01 0.02 0.03 0.01 0.04 0.10 0.10 0.05 0.02 0.01 0.01 0.00 0.00 0.00 0.02 0.05 0.03 0.02 0.00 0.00 0.00 0.00 0.00 0.00 0.00 0.00 0.00 0.00 0.00 0.00 0.00 0.00 0.00 0.00 0.00 0.00 0.00 0.00 0.01 0.02 0.03
0.00 0.01 0.01 0.01 0.02 0.01 0.01 0.02 0.03 0.02 0.01 0.00 0.00 0.00 0.00 0.00 0.00 0.00 0.01 0.02 0.01 0.00 0.00 0.00 0.00 0.00 0.00 0.00 0.00 0.00 0.00 0.00 0.00 0.00 0.00 0.00 0.00 0.00 0.00 0.01 0.01 0.01 0.02 0.03
0.00 0.00 0.01 0.01 0.01 0.00 0.00 0.01 0.00 0.01 0.01 0.00 0.00 0.00 0.00 0.00 0.00 0.00 0.00 0.01 0.01 0.00 0.00 0.00 0.00 0.00 0.00 0.00 0.00 0.00 0.00 0.00 0.00 0.00 0.00 0.00 0.00 0.00 0.00 0.01 0.01 0.01 0.02 0.03
0.00 0.01 0.01 0.01 0.00 0.00 0.00 0.00 0.00 0.00 0.00 0.00 0.00 0.00 0.00 0.00 0.00 0.00 0.00 0.01 0.00 0.00 0.00 0.00 0.00 0.00 0.00 0.00 0.00 0.00 0.00 0.00 0.00 0.00 0.00 0.00 0.00 0.00 0.00 0.01 0.01 0.01 0.01 0.03
0.00 0.00 0.01 0.00 0.00 0.00 0.00 0.00 0.00 0.01 0.00 0.00 0.00 0.00 0.00 0.00 0.00 0.00 0.00 0.00 0.00 0.00 0.00 0.00 0.00 0.00 0.00 0.00 0.00 0.00 0.00 0.00 0.00 0.00 0.00 0.00 0.01 0.01 0.00 0.00 0.00 0.00 0.00 0.01

GEFSCGP_prec_meanprecacc_018.txt.gz
Total_Precipitation_Accumulation
0.01 0.00 0.04 0.06 0.05 0.07 0.06 0.04 0.04 0.06 0.07 0.06 0.05 0.04 0.05 0.06 0.05 0.04 0.04 0.04 0.04 0.03 0.03 0.03 0.03 0.02 0.02 0.01 0.00 0.00 0.01 0.03 0.07 0.09 0.13 0.27 0.48 0.44 0.47 0.46 0.31 0.33 0.40 0.42
0.00 0.00 0.00 0.00 0.01 0.03 0.05 0.06 0.05 0.05 0.04 0.05 0.05 0.04 0.04 0.05 0.06 0.05 0.05 0.04 0.03 0.03 0.03 0.02 0.03 0.02 0.01 0.01 0.01 0.01 0.02 0.04 0.07 0.09 0.13 0.21 0.26 0.17 0.23 0.31 0.36 0.33 0.31 0.37
0.00 0.00 0.00 0.00 0.01 0.03 0.06 0.08 0.10 0.10 0.06 0.04 0.04 0.03 0.01 0.02 0.03 0.04 0.04 0.04 0.03 0.03 0.02 0.02 0.02 0.02 0.02 0.02 0.02 0.02 0.04 0.09 0.11 0.12 0.13 0.13 0.15 0.17 0.28 0.31 0.38 0.38 0.33 0.31
0.00 0.00 0.00 0.01 0.02 0.03 0.06 0.05 0.06 0.09 0.13 0.12 0.13 0.13 0.04 0.03 0.04 0.03 0.04 0.04 0.03 0.03 0.02 0.02 0.02 0.02 0.02 0.03 0.03 0.05 0.11 0.17 0.20 0.19 0.16 0.16 0.17 0.22 0.24 0.29 0.31 0.23 0.21 0.22
0.00 0.00 0.00 0.00 0.01 0.01 0.02 0.02 0.03 0.07 0.11 0.10 0.09 0.12 0.05 0.04 0.06 0.06 0.04 0.03 0.02 0.02 0.03 0.04 0.05 0.06 0.07 0.08 0.10 0.15 0.27 0.38 0.39 0.33 0.24 0.21 0.19 0.20 0.21 0.20 0.18 0.20 0.18 0.14
0.00 0.00 0.00 0.00 0.00 0.00 0.01 0.02 0.05 0.08 0.11 0.06 0.05 0.08 0.06 0.04 0.03 0.03 0.02 0.02 0.02 0.03 0.09 0.15 0.22 0.28 0.32 0.36 0.48 0.61 0.73 0.72 0.58 0.40 0.26 0.19 0.18 0.19 0.18 0.14 0.13 0.14 0.16 0.18
0.00 0.00 0.00 0.00 0.00 0.00 0.01 0.04 0.10 0.11 0.12 0.09 0.08 0.15 0.12 0.06 0.03 0.01 0.01 0.01 0.04 0.10 0.20 0.33 0.49 0.61 0.69 0.78 0.85 0.89 0.94 0.89 0.63 0.37 0.22 0.15 0.12 0.13 0.13 0.11 0.08 0.07 0.07 0.09
0.00 0.00 0.00 0.00 0.01 0.01 0.02 0.06 0.16 0.19 0.16 0.13 0.11 0.17 0.15 0.12 0.08 0.05 0.03 0.04 0.10 0.21 0.34 0.44 0.52 0.65 0.77 0.84 0.80 0.76 0.73 0.62 0.44 0.28 0.17 0.12 0.09 0.07 0.06 0.04 0.04 0.04 0.04 0.03
0.00 0.00 0.00 0.00 0.01 0.02 0.04 0.05 0.11 0.20 0.16 0.12 0.10 0.17 0.17 0.12 0.13 0.11 0.10 0.10 0.18 0.34 0.51 0.62 0.72 0.85 0.88 0.85 0.78 0.61 0.51 0.39 0.27 0.19 0.13 0.09 0.06 0.03 0.02 0.02 0.03 0.02 0.02 0.01
0.00 0.01 0.00 0.00 0.00 0.03 0.08 0.14 0.20 0.31 0.32 0.23 0.23 0.26 0.24 0.22 0.22 0.23 0.27 0.31 0.34 0.45 0.63 0.83 1.04 1.17 1.02 0.73 0.55 0.43 0.32 0.25 0.18 0.15 0.11 0.08 0.06 0.03 0.02 0.02 0.02 0.01 0.01 0.01
0.00 0.02 0.00 0.00 0.03 0.07 0.13 0.21 0.28 0.35 0.41 0.44 0.47 0.54 0.43 0.41 0.44 0.51 0.55 0.49 0.44 0.49 0.55 0.71 0.89 1.00 0.84 0.55 0.33 0.25 0.24 0.22 0.18 0.15 0.12 0.09 0.06 0.05 0.03 0.02 0.02 0.02 0.01 0.01
0.00 0.04 0.02 0.02 0.08 0.14 0.23 0.30 0.42 0.52 0.45 0.48 0.54 0.58 0.43 0.34 0.34 0.39 0.48 0.40 0.29 0.28 0.28 0.32 0.42 0.50 0.46 0.34 0.23 0.18 0.21 0.23 0.22 0.20 0.15 0.11 0.09 0.08 0.06 0.04 0.03 0.02 0.01 0.01
0.02 0.09 0.10 0.09 0.22 0.33 0.47 0.50 0.40 0.35 0.35 0.39 0.48 0.40 0.20 0.13 0.18 0.22 0.27 0.28 0.22 0.12 0.11 0.12 0.14 0.19 0.20 0.17 0.16 0.18 0.27 0.34 0.37 0.33 0.22 0.16 0.12 0.09 0.07 0.06 0.04 0.04 0.02 0.01
0.01 0.08 0.13 0.19 0.27 0.38 0.59 0.66 0.49 0.34 0.35 0.32 0.31 0.19 0.07 0.06 0.09 0.11 0.13 0.12 0.10 0.09 0.09 0.10 0.09 0.10 0.11 0.13 0.15 0.19 0.27 0.36 0.45 0.50 0.42 0.29 0.21 0.16 0.12 0.09 0.09 0.07 0.05 0.03
0.00 0.01 0.02 0.06 0.08 0.16 0.35 0.45 0.36 0.24 0.18 0.16 0.14 0.09 0.07 0.08 0.11 0.13 0.11 0.10 0.08 0.10 0.11 0.12 0.12 0.11 0.10 0.11 0.12 0.15 0.21 0.33 0.48 0.63 0.61 0.43 0.31 0.25 0.21 0.19 0.18 0.15 0.12 0.08
0.00 0.00 0.00 0.02 0.03 0.07 0.16 0.20 0.15 0.08 0.09 0.15 0.17 0.16 0.14 0.15 0.23 0.26 0.22 0.17 0.12 0.12 0.14 0.16 0.15 0.14 0.10 0.09 0.11 0.11 0.15 0.25 0.38 0.53 0.59 0.53 0.43 0.31 0.23 0.24 0.26 0.23 0.20 0.15
0.00 0.00 0.01 0.01 0.02 0.04 0.11 0.11 0.11 0.13 0.12 0.10 0.13 0.18 0.23 0.33 0.55 0.55 0.42 0.35 0.23 0.16 0.16 0.16 0.17 0.17 0.16 0.15 0.13 0.13 0.15 0.21 0.30 0.42 0.50 0.48 0.41 0.33 0.27 0.28 0.29 0.26 0.22 0.20
0.00 0.02 0.06 0.05 0.08 0.18 0.23 0.18 0.25 0.32 0.22 0.15 0.19 0.27 0.42 0.77 0.98 0.63 0.41 0.37 0.30 0.19 0.16 0.16 0.16 0.15 0.13 0.12 0.11 0.11 0.14 0.16 0.18 0.22 0.25 0.27 0.26 0.25 0.27 0.28 0.27 0.26 0.24 0.22
0.00 0.03 0.08 0.10 0.13 0.39 0.36 0.18 0.31 0.35 0.28 0.21 0.28 0.34 0.38 0.44 0.38 0.23 0.14 0.15 0.17 0.12 0.09 0.08 0.07 0.06 0.05 0.04 0.04 0.04 0.05 0.05 0.05 0.06 0.08 0.10 0.12 0.13 0.16 0.17 0.20 0.28 0.31 0.31
0.00 0.02 0.06 0.07 0.08 0.23 0.27 0.10 0.17 0.25 0.29 0.12 0.13 0.15 0.10 0.06 0.05 0.09 0.09 0.06 0.05 0.03 0.02 0.02 0.01 0.01 0.01 0.00 0.00 0.00 0.00 0.00 0.00 0.00 0.00 0.01 0.01 0.02 0.05 0.08 0.10 0.16 0.22 0.28
0.00 0.01 0.02 0.02 0.04 0.07 0.05 0.05 0.10 0.24 0.26 0.07 0.03 0.03 0.01 0.00 0.00 0.05 0.09 0.05 0.03 0.01 0.00 0.00 0.00 0.00 0.00 0.00 0.00 0.00 0.00 0.00 0.00 0.00 0.00 0.00 0.00 0.00 0.00 0.01 0.02 0.04 0.08 0.11
0.00 0.01 0.01 0.01 0.02 0.03 0.01 0.04 0.10 0.10 0.05 0.02 0.01 0.01 0.00 0.00 0.00 0.02 0.05 0.03 0.02 0.00 0.00 0.00 0.00 0.00 0.00 0.00 0.00 0.00 0.00 0.00 0.00 0.00 0.00 0.00 0.00 0.00 0.00 0.00 0.00 0.01 0.02 0.03
0.00 0.01 0.01 0.01 0.02 0.01 0.01 0.02 0.03 0.02 0.01 0.00 0.00 0.00 0.00 0.00 0.00 0.00 0.01 0.02 0.01 0.00 0.00 0.00 0.00 0.00 0.00 0.00 0.00 0.00 0.00 0.00 0.00 0.00 0.00 0.00 0.00 0.00 0.00 0.01 0.01 0.01 0.02 0.03
0.00 0.00 0.01 0.01 0.01 0.00 0.00 0.01 0.00 0.01 0.01 0.00 0.00 0.00 0.00 0.00 0.00 0.00 0.00 0.01 0.01 0.00 0.00 0.00 0.00 0.00 0.00 0.00 0.00 0.00 0.00 0.00 0.00 0.00 0.00 0.00 0.00 0.00 0.00 0.01 0.01 0.01 0.02 0.03
0.00 0.01 0.01 0.01 0.00 0.00 0.00 0.00 0.00 0.00 0.00 0.00 0.00 0.00 0.00 0.00 0.00 0.00 0.00 0.01 0.00 0.00 0.00 0.00 0.00 0.00 0.00 0.00 0.00 0.00 0.00 0.00 0.00 0.00 0.00 0.00 0.00 0.00 0.00 0.01 0.01 0.01 0.01 0.04
0.00 0.00 0.01 0.00 0.00 0.00 0.00 0.00 0.00 0.01 0.00 0.00 0.00 0.00 0.00 0.00 0.00 0.00 0.00 0.00 0.00 0.00 0.00 0.00 0.00 0.00 0.00 0.00 0.00 0.00 0.00 0.00 0.00 0.00 0.00 0.00 0.01 0.01 0.00 0.00 0.00 0.00 0.01 0.01

GEFSCGP_prec_meanprecacc_024.txt.gz
Total_Precipitation_Accumulation
0.01 0.00 0.04 0.06 0.06 0.07 0.06 0.05 0.05 0.06 0.07 0.06 0.05 0.04 0.05 0.06 0.05 0.04 0.05 0.04 0.04 0.04 0.06 0.08 0.11 0.11 0.09 0.04 0.01 0.00 0.01 0.03 0.08 0.12 0.17 0.33 0.54 0.49 0.51 0.48 0.33 0.36 0.51 0.67
0.00 0.00 0.00 0.01 0.02 0.03 0.05 0.07 0.05 0.05 0.04 0.05 0.05 0.04 0.04 0.05 0.06 0.05 0.05 0.04 0.03 0.03 0.03 0.04 0.06 0.09 0.09 0.06 0.03 0.02 0.03 0.06 0.10 0.14 0.22 0.32 0.37 0.27 0.31 0.37 0.40 0.37 0.40 0.56
0.00 0.00 0.00 0.00 0.01 0.03 0.06 0.08 0.10 0.10 0.06 0.04 0.04 0.03 0.01 0.02 0.03 0.04 0.04 0.04 0.03 0.03 0.02 0.03 0.04 0.05 0.06 0.06 0.05 0.04 0.06 0.11 0.18 0.25 0.34 0.35 0.33 0.34 0.42 0.43 0.48 0.48 0.42 0.42
0.00 0.00 0.00 0.01 0.02 0.03 0.06 0.05 0.06 0.09 0.13 0.13 0.13 0.13 0.04 0.03 0.04 0.03 0.04 0.04 0.03 0.03 0.02 0.02 0.02 0.03 0.04 0.05 0.05 0.07 0.13 0.24 0.38 0.49 0.54 0.55 0.55 0.53 0.49 0.48 0.48 0.37 0.33 0.32
0.00 0.00 0.00 0.00 0.01 0.01 0.02 0.02 0.03 0.07 0.11 0.10 0.09 0.12 0.05 0.04 0.07 0.06 0.04 0.03 0.02 0.02 0.03 0.05 0.05 0.07 0.08 0.09 0.12 0.19 0.36 0.56 0.74 0.83 0.83 0.80 0.68 0.58 0.48 0.39 0.34 0.32 0.28 0.22
0.00 0.00 0.00 0.00 0.00 0.00 0.01 0.02 0.05 0.08 0.11 0.07 0.05 0.09 0.07 0.04 0.03 0.03 0.02 0.02 0.02 0.04 0.09 0.16 0.23 0.29 0.34 0.38 0.51 0.70 0.92 1.04 1.07 1.07 0.98 0.86 0.72 0.60 0.48 0.34 0.26 0.23 0.24 0.24
0.00 0.00 0.00 0.00 0.00 0.00 0.01 0.04 0.10 0.12 0.12 0.09 0.09 0.17 0.14 0.06 0.03 0.02 0.01 0.02 0.05 0.11 0.22 0.34 0.51 0.64 0.75 0.86 0.96 1.09 1.24 1.32 1.22 1.08 0.93 0.79 0.66 0.54 0.43 0.32 0.23 0.16 0.14 0.15
0.00 0.00 0.00 0.00 0.01 0.01 0.02 0.07 0.17 0.20 0.18 0.16 0.15 0.22 0.17 0.13 0.08 0.05 0.04 0.05 0.12 0.23 0.36 0.46 0.56 0.69 0.84 0.96 0.98 0.98 1.05 1.11 1.05 0.95 0.82 0.67 0.56 0.46 0.35 0.24 0.18 0.13 0.10 0.08
0.00 0.00 0.00 0.00 0.01 0.02 0.04 0.06 0.13 0.24 0.19 0.15 0.16 0.26 0.22 0.15 0.14 0.12 0.11 0.12 0.20 0.36 0.54 0.64 0.76 0.91 0.95 0.97 0.97 0.87 0.85 0.86 0.82 0.74 0.64 0.56 0.48 0.40 0.29 0.21 0.16 0.10 0.06 0.03
0.00 0.01 0.00 0.00 0.01 0.03 0.09 0.15 0.23 0.38 0.38 0.29 0.31 0.35 0.31 0.26 0.25 0.26 0.29 0.34 0.39 0.49 0.67 0.89 1.13 1.25 1.11 0.86 0.75 0.72 0.66 0.63 0.63 0.64 0.59 0.53 0.46 0.38 0.29 0.20 0.16 0.09 0.04 0.02
0.00 0.02 0.00 0.00 0.03 0.08 0.15 0.25 0.32 0.41 0.48 0.54 0.62 0.71 0.58 0.56 0.57 0.62 0.65 0.61 0.58 0.67 0.68 0.83 1.01 1.11 0.96 0.69 0.51 0.50 0.55 0.55 0.53 0.54 0.51 0.46 0.40 0.33 0.25 0.19 0.14 0.09 0.04 0.02
0.00 0.04 0.02 0.02 0.08 0.15 0.27 0.36 0.49 0.64 0.56 0.59 0.73 0.82 0.65 0.55 0.53 0.59 0.71 0.70 0.67 0.57 0.50 0.51 0.56 0.62 0.58 0.49 0.41 0.38 0.43 0.47 0.49 0.52 0.49 0.44 0.36 0.28 0.25 0.19 0.12 0.07 0.04 0.02
0.02 0.09 0.10 0.09 0.23 0.34 0.52 0.58 0.46 0.42 0.46 0.55 0.70 0.60 0.37 0.27 0.35 0.43 0.53 0.59 0.53 0.42 0.44 0.43 0.39 0.39 0.35 0.32 0.32 0.35 0.46 0.54 0.58 0.60 0.48 0.39 0.34 0.28 0.24 0.18 0.11 0.07 0.05 0.03
0.01 0.08 0.13 0.20 0.28 0.40 0.62 0.70 0.54 0.42 0.46 0.44 0.46 0.34 0.18 0.16 0.24 0.29 0.30 0.32 0.32 0.35 0.37 0.36 0.35 0.32 0.30 0.30 0.31 0.35 0.46 0.57 0.67 0.73 0.64 0.48 0.36 0.31 0.25 0.18 0.14 0.11 0.08 0.06
0.00 0.01 0.03 0.06 0.08 0.17 0.36 0.47 0.38 0.26 0.23 0.26 0.24 0.22 0.22 0.26 0.33 0.32 0.25 0.21 0.20 0.22 0.22 0.24 0.24 0.24 0.23 0.22 0.22 0.26 0.35 0.50 0.67 0.83 0.79 0.58 0.43 0.37 0.30 0.25 0.23 0.20 0.16 0.11
0.00 0.00 0.00 0.02 0.04 0.07 0.17 0.20 0.15 0.09 0.11 0.20 0.24 0.27 0.30 0.34 0.41 0.39 0.31 0.24 0.18 0.17 0.18 0.20 0.19 0.18 0.14 0.12 0.14 0.14 0.21 0.35 0.49 0.63 0.69 0.62 0.50 0.38 0.30 0.29 0.30 0.27 0.24 0.18
0.00 0.00 0.01 0.01 0.02 0.04 0.11 0.11 0.11 0.15 0.14 0.14 0.22 0.33 0.42 0.53 0.72 0.63 0.46 0.37 0.24 0.17 0.16 0.17 0.18 0.18 0.17 0.15 0.14 0.13 0.16 0.23 0.33 0.45 0.53 0.51 0.44 0.35 0.29 0.31 0.32 0.28 0.25 0.23
0.00 0.02 0.06 0.05 0.08 0.18 0.23 0.19 0.26 0.34 0.26 0.21 0.27 0.36 0.49 0.82 1.01 0.65 0.42 0.37 0.30 0.19 0.16 0.16 0.16 0.15 0.13 0.12 0.11 0.11 0.14 0.16 0.18 0.22 0.26 0.27 0.27 0.26 0.27 0.28 0.28 0.27 0.25 0.23
0.00 0.03 0.08 0.10 0.13 0.39 0.36 0.18 0.31 0.36 0.30 0.23 0.31 0.36 0.39 0.45 0.39 0.24 0.14 0.16 0.18 0.12 0.09 0.08 0.07 0.06 0.05 0.04 0.04 0.04 0.05 0.05 0.05 0.06 0.08 0.10 0.12 0.13 0.16 0.17 0.20 0.28 0.31 0.31
0.00 0.02 0.06 0.07 0.08 0.23 0.27 0.10 0.17 0.25 0.29 0.12 0.14 0.16 0.11 0.07 0.06 0.10 0.09 0.06 0.05 0.03 0.02 0.02 0.01 0.01 0.01 0.00 0.00 0.00 0.00 0.00 0.00 0.00 0.00 0.01 0.01 0.02 0.05 0.08 0.10 0.16 0.22 0.28
0.00 0.01 0.02 0.02 0.04 0.07 0.05 0.05 0.10 0.24 0.26 0.07 0.04 0.03 0.01 0.00 0.00 0.05 0.09 0.05 0.03 0.01 0.00 0.00 0.00 0.00 0.00 0.00 0.00 0.00 0.00 0.00 0.00 0.00 0.00 0.00 0.00 0.00 0.00 0.01 0.02 0.04 0.08 0.11
0.00 0.01 0.01 0.01 0.02 0.03 0.01 0.04 0.10 0.10 0.05 0.02 0.01 0.01 0.00 0.00 0.00 0.02 0.05 0.03 0.02 0.00 0.00 0.00 0.00 0.00 0.00 0.00 0.00 0.00 0.00 0.00 0.00 0.00 0.00 0.00 0.00 0.00 0.00 0.00 0.00 0.01 0.02 0.03
0.00 0.01 0.01 0.01 0.02 0.01 0.01 0.02 0.03 0.02 0.01 0.00 0.00 0.00 0.00 0.00 0.00 0.00 0.01 0.02 0.01 0.00 0.00 0.00 0.00 0.00 0.00 0.00 0.00 0.00 0.00 0.00 0.00 0.00 0.00 0.00 0.00 0.00 0.00 0.01 0.01 0.01 0.02 0.03
0.00 0.00 0.01 0.01 0.01 0.00 0.00 0.01 0.00 0.01 0.01 0.00 0.00 0.00 0.00 0.00 0.00 0.00 0.00 0.01 0.01 0.00 0.00 0.00 0.00 0.00 0.00 0.00 0.00 0.00 0.00 0.00 0.00 0.00 0.00 0.00 0.00 0.00 0.00 0.01 0.01 0.01 0.02 0.04
0.00 0.01 0.01 0.01 0.00 0.00 0.00 0.00 0.00 0.00 0.00 0.00 0.00 0.00 0.00 0.00 0.00 0.00 0.00 0.01 0.00 0.00 0.00 0.00 0.00 0.00 0.00 0.00 0.00 0.00 0.00 0.00 0.00 0.00 0.00 0.00 0.00 0.00 0.01 0.01 0.01 0.01 0.02 0.04
0.00 0.00 0.01 0.00 0.00 0.00 0.00 0.00 0.00 0.01 0.00 0.00 0.00 0.00 0.00 0.00 0.00 0.00 0.00 0.00 0.00 0.00 0.00 0.00 0.00 0.00 0.00 0.00 0.00 0.00 0.00 0.00 0.00 0.00 0.00 0.00 0.01 0.01 0.00 0.00 0.00 0.01 0.01 0.01

GEFSCGP_prec_meanprecacc_030.txt.gz
Total_Precipitation_Accumulation
0.01 0.00 0.04 0.06 0.06 0.07 0.06 0.05 0.05 0.07 0.08 0.07 0.06 0.05 0.06 0.07 0.06 0.05 0.05 0.04 0.04 0.04 0.06 0.09 0.11 0.13 0.12 0.07 0.03 0.02 0.02 0.04 0.10 0.14 0.20 0.38 0.59 0.55 0.58 0.52 0.34 0.37 0.53 0.70
0.00 0.00 0.00 0.01 0.02 0.03 0.05 0.07 0.06 0.05 0.05 0.05 0.05 0.04 0.04 0.05 0.06 0.06 0.05 0.04 0.04 0.03 0.03 0.04 0.06 0.09 0.09 0.08 0.04 0.04 0.05 0.08 0.12 0.18 0.27 0.37 0.44 0.33 0.39 0.45 0.45 0.41 0.45 0.62
0.00 0.00 0.00 0.00 0.01 0.03 0.06 0.09 0.10 0.10 0.06 0.04 0.04 0.04 0.02 0.03 0.04 0.04 0.05 0.05 0.04 0.03 0.02 0.03 0.04 0.05 0.06 0.06 0.06 0.06 0.08 0.14 0.22 0.32 0.46 0.54 0.57 0.56 0.60 0.57 0.61 0.58 0.52 0.52
0.00 0.00 0.00 0.01 0.02 0.03 0.06 0.05 0.06 0.09 0.13 0.13 0.14 0.15 0.06 0.05 0.08 0.06 0.05 0.04 0.04 0.03 0.02 0.02 0.02 0.04 0.05 0.05 0.05 0.08 0.14 0.27 0.43 0.58 0.74 0.88 0.93 0.85 0.70 0.65 0.60 0.46 0.43 0.44
0.00 0.00 0.00 0.00 0.01 0.01 0.02 0.02 0.03 0.07 0.12 0.10 0.09 0.13 0.09 0.12 0.17 0.16 0.12 0.07 0.03 0.03 0.03 0.05 0.06 0.08 0.09 0.10 0.12 0.19 0.38 0.61 0.83 0.99 1.15 1.32 1.21 1.00 0.78 0.61 0.51 0.47 0.41 0.36
0.00 0.00 0.00 0.00 0.00 0.00 0.01 0.02 0.05 0.08 0.11 0.07 0.05 0.10 0.16 0.18 0.14 0.12 0.10 0.07 0.05 0.06 0.10 0.16 0.23 0.30 0.35 0.39 0.51 0.72 0.95 1.11 1.18 1.27 1.33 1.37 1.27 1.12 0.93 0.68 0.52 0.46 0.43 0.42
0.00 0.00 0.00 0.00 0.00 0.00 0.01 0.04 0.10 0.12 0.14 0.11 0.11 0.23 0.29 0.20 0.12 0.08 0.06 0.05 0.07 0.13 0.23 0.35 0.52 0.66 0.77 0.88 0.98 1.12 1.28 1.39 1.32 1.27 1.26 1.25 1.17 1.06 0.91 0.73 0.56 0.43 0.37 0.35
0.00 0.00 0.00 0.00 0.01 0.01 0.02 0.07 0.18 0.22 0.20 0.22 0.24 0.40 0.40 0.28 0.17 0.11 0.07 0.07 0.14 0.25 0.39 0.49 0.59 0.73 0.88 0.98 1.01 1.02 1.11 1.18 1.16 1.12 1.07 1.02 0.98 0.89 0.76 0.59 0.49 0.42 0.36 0.31
0.00 0.00 0.00 0.00 0.01 0.02 0.04 0.06 0.14 0.26 0.22 0.20 0.29 0.50 0.44 0.27 0.22 0.16 0.13 0.15 0.23 0.40 0.59 0.71 0.83 0.97 1.00 1.01 1.01 0.93 0.92 0.95 0.96 0.90 0.84 0.80 0.75 0.69 0.60 0.52 0.48 0.41 0.34 0.26
0.00 0.01 0.00 0.00 0.01 0.03 0.09 0.16 0.24 0.42 0.44 0.38 0.44 0.52 0.46 0.38 0.34 0.33 0.37 0.43 0.46 0.57 0.77 1.00 1.24 1.34 1.18 0.94 0.82 0.79 0.74 0.74 0.78 0.80 0.77 0.72 0.66 0.59 0.52 0.46 0.44 0.36 0.28 0.21
0.00 0.02 0.00 0.00 0.03 0.08 0.15 0.26 0.34 0.45 0.54 0.65 0.80 0.88 0.74 0.75 0.75 0.78 0.84 0.86 0.84 0.92 0.89 1.00 1.17 1.27 1.09 0.81 0.62 0.61 0.66 0.67 0.67 0.69 0.68 0.65 0.58 0.50 0.44 0.40 0.37 0.32 0.24 0.19
0.00 0.04 0.02 0.02 0.08 0.16 0.27 0.38 0.51 0.69 0.63 0.68 0.86 0.99 0.88 0.84 0.83 0.89 1.02 1.07 1.03 0.92 0.82 0.82 0.85 0.88 0.84 0.68 0.56 0.53 0.59 0.62 0.63 0.68 0.68 0.64 0.54 0.46 0.43 0.38 0.33 0.27 0.20 0.14
0.02 0.09 0.10 0.09 0.23 0.35 0.53 0.60 0.48 0.46 0.51 0.61 0.81 0.78 0.57 0.50 0.63 0.76 0.88 0.94 0.86 0.79 0.84 0.82 0.75 0.67 0.61 0.57 0.55 0.55 0.66 0.74 0.79 0.79 0.67 0.55 0.49 0.45 0.42 0.33 0.28 0.24 0.17 0.11
0.01 0.08 0.13 0.20 0.29 0.41 0.62 0.71 0.55 0.44 0.49 0.49 0.54 0.46 0.31 0.36 0.51 0.57 0.59 0.57 0.55 0.58 0.61 0.59 0.55 0.51 0.48 0.48 0.51 0.55 0.67 0.76 0.86 0.94 0.83 0.67 0.55 0.47 0.40 0.32 0.30 0.26 0.19 0.16
0.00 0.01 0.03 0.06 0.08 0.17 0.36 0.47 0.38 0.27 0.24 0.30 0.31 0.31 0.34 0.43 0.52 0.49 0.42 0.36 0.32 0.32 0.31 0.32 0.32 0.31 0.30 0.28 0.29 0.36 0.47 0.64 0.82 0.98 0.95 0.77 0.63 0.56 0.48 0.42 0.40 0.35 0.30 0.22
0.00 0.00 0.00 0.02 0.04 0.07 0.17 0.20 0.16 0.09 0.12 0.23 0.28 0.35 0.40 0.46 0.52 0.48 0.39 0.30 0.24 0.21 0.21 0.22 0.21 0.19 0.15 0.13 0.15 0.16 0.24 0.40 0.56 0.71 0.76 0.70 0.60 0.49 0.42 0.42 0.42 0.39 0.35 0.30
0.00 0.00 0.01 0.01 0.02 0.04 0.11 0.11 0.12 0.15 0.15 0.16 0.25 0.37 0.46 0.57 0.75 0.66 0.48 0.39 0.25 0.18 0.18 0.17 0.18 0.18 0.17 0.15 0.14 0.13 0.17 0.24 0.34 0.46 0.55 0.53 0.46 0.38 0.32 0.34 0.36 0.34 0.31 0.31
0.00 0.02 0.06 0.05 0.08 0.19 0.24 0.19 0.26 0.34 0.26 0.21 0.28 0.36 0.50 0.82 1.02 0.65 0.42 0.38 0.30 0.20 0.17 0.16 0.16 0.15 0.13 0.12 0.11 0.11 0.14 0.16 0.18 0.22 0.26 0.27 0.27 0.26 0.28 0.29 0.29 0.28 0.26 0.25
0.00 0.03 0.08 0.10 0.13 0.39 0.36 0.18 0.31 0.36 0.30 0.24 0.31 0.37 0.39 0.45 0.40 0.24 0.14 0.16 0.18 0.12 0.09 0.08 0.07 0.06 0.05 0.04 0.04 0.04 0.05 0.05 0.05 0.06 0.08 0.10 0.12 0.13 0.17 0.17 0.20 0.29 0.31 0.31
0.00 0.02 0.06 0.07 0.08 0.23 0.27 0.10 0.17 0.25 0.30 0.12 0.14 0.16 0.11 0.07 0.08 0.10 0.09 0.06 0.05 0.03 0.02 0.02 0.01 0.01 0.01 0.00 0.00 0.00 0.00 0.00 0.00 0.00 0.00 0.01 0.01 0.02 0.05 0.08 0.10 0.16 0.22 0.28
0.00 0.01 0.02 0.02 0.04 0.07 0.05 0.05 0.10 0.24 0.27 0.07 0.04 0.03 0.01 0.00 0.01 0.05 0.09 0.05 0.03 0.01 0.00 0.00 0.00 0.00 0.00 0.00 0.00 0.00 0.00 0.00 0.00 0.00 0.00 0.00 0.00 0.00 0.01 0.01 0.02 0.04 0.09 0.12
0.00 0.01 0.01 0.01 0.02 0.03 0.01 0.04 0.10 0.10 0.05 0.02 0.01 0.01 0.00 0.00 0.00 0.02 0.05 0.03 0.02 0.00 0.00 0.00 0.00 0.00 0.00 0.00 0.00 0.00 0.00 0.00 0.00 0.00 0.00 0.00 0.00 0.00 0.00 0.01 0.01 0.01 0.02 0.03
0.00 0.01 0.01 0.01 0.02 0.01 0.01 0.02 0.03 0.02 0.01 0.00 0.00 0.00 0.00 0.00 0.00 0.00 0.01 0.02 0.01 0.00 0.00 0.00 0.00 0.00 0.00 0.00 0.00 0.00 0.00 0.00 0.00 0.00 0.00 0.00 0.00 0.00 0.00 0.01 0.01 0.01 0.02 0.03
0.00 0.00 0.01 0.01 0.01 0.00 0.00 0.01 0.00 0.01 0.01 0.00 0.00 0.00 0.00 0.00 0.00 0.00 0.00 0.01 0.01 0.00 0.00 0.00 0.00 0.00 0.00 0.00 0.00 0.00 0.00 0.00 0.00 0.00 0.00 0.00 0.01 0.01 0.01 0.01 0.01 0.02 0.02 0.04
0.00 0.01 0.01 0.01 0.00 0.00 0.00 0.00 0.00 0.00 0.00 0.00 0.00 0.00 0.00 0.00 0.00 0.00 0.00 0.01 0.00 0.00 0.00 0.00 0.00 0.00 0.00 0.00 0.00 0.00 0.00 0.00 0.00 0.00 0.00 0.00 0.01 0.01 0.01 0.01 0.01 0.01 0.02 0.04
0.00 0.00 0.01 0.00 0.00 0.00 0.00 0.00 0.00 0.01 0.00 0.00 0.00 0.00 0.00 0.00 0.00 0.00 0.00 0.00 0.00 0.00 0.00 0.00 0.00 0.00 0.00 0.00 0.00 0.00 0.00 0.00 0.00 0.00 0.00 0.00 0.01 0.01 0.01 0.02 0.01 0.01 0.01 0.01

GEFSCGP_prec_meanprecacc_036.txt.gz
Total_Precipitation_Accumulation
0.01 0.00 0.04 0.06 0.06 0.07 0.06 0.05 0.05 0.07 0.09 0.08 0.09 0.10 0.12 0.12 0.11 0.10 0.10 0.10 0.09 0.07 0.09 0.11 0.15 0.17 0.17 0.16 0.18 0.22 0.22 0.25 0.29 0.32 0.39 0.55 0.74 0.68 0.69 0.61 0.43 0.44 0.58 0.75
0.00 0.00 0.00 0.01 0.02 0.03 0.05 0.07 0.06 0.05 0.05 0.06 0.07 0.07 0.08 0.10 0.11 0.11 0.10 0.09 0.07 0.06 0.05 0.05 0.08 0.10 0.12 0.13 0.14 0.18 0.25 0.32 0.37 0.43 0.55 0.64 0.72 0.61 0.63 0.65 0.63 0.57 0.56 0.70
0.00 0.00 0.00 0.00 0.01 0.03 0.06 0.09 0.11 0.11 0.07 0.04 0.05 0.07 0.06 0.08 0.10 0.09 0.10 0.09 0.07 0.05 0.03 0.04 0.04 0.06 0.07 0.08 0.09 0.12 0.18 0.28 0.39 0.53 0.74 0.91 1.01 1.03 1.04 0.91 0.88 0.80 0.69 0.67
0.00 0.00 0.00 0.01 0.02 0.03 0.06 0.05 0.06 0.09 0.14 0.14 0.14 0.17 0.11 0.13 0.16 0.15 0.15 0.13 0.10 0.08 0.06 0.04 0.04 0.05 0.05 0.06 0.06 0.10 0.18 0.32 0.51 0.71 0.95 1.18 1.35 1.34 1.18 1.09 1.00 0.80 0.71 0.67
0.00 0.00 0.00 0.00 0.01 0.01 0.02 0.02 0.03 0.07 0.12 0.11 0.10 0.15 0.14 0.20 0.28 0.29 0.26 0.22 0.17 0.13 0.11 0.09 0.08 0.10 0.10 0.10 0.13 0.20 0.38 0.62 0.85 1.06 1.29 1.56 1.56 1.43 1.28 1.17 1.06 0.97 0.87 0.77
0.00 0.00 0.00 0.00 0.00 0.00 0.01 0.02 0.05 0.08 0.11 0.07 0.06 0.12 0.22 0.27 0.30 0.34 0.34 0.27 0.20 0.15 0.18 0.23 0.27 0.32 0.35 0.39 0.52 0.72 0.95 1.11 1.18 1.30 1.41 1.54 1.54 1.55 1.46 1.25 1.10 1.02 0.96 0.91
0.00 0.00 0.00 0.00 0.00 0.00 0.01 0.04 0.10 0.12 0.14 0.12 0.12 0.27 0.37 0.32 0.27 0.26 0.26 0.22 0.17 0.20 0.28 0.40 0.54 0.67 0.78 0.89 0.99 1.12 1.29 1.39 1.32 1.29 1.31 1.35 1.36 1.35 1.34 1.26 1.11 0.99 0.93 0.90
0.00 0.00 0.00 0.00 0.01 0.01 0.02 0.07 0.18 0.22 0.21 0.23 0.27 0.47 0.51 0.40 0.29 0.20 0.14 0.13 0.21 0.31 0.44 0.54 0.63 0.75 0.89 0.99 1.02 1.03 1.12 1.19 1.17 1.13 1.11 1.08 1.08 1.07 1.00 0.91 0.88 0.88 0.88 0.84
0.00 0.00 0.00 0.00 0.01 0.02 0.04 0.06 0.14 0.27 0.23 0.23 0.35 0.60 0.56 0.36 0.30 0.23 0.18 0.21 0.33 0.50 0.69 0.80 0.88 1.00 1.02 1.03 1.03 0.94 0.93 0.97 0.98 0.93 0.87 0.84 0.83 0.82 0.77 0.72 0.72 0.68 0.65 0.58
0.00 0.01 0.00 0.00 0.01 0.03 0.09 0.16 0.24 0.42 0.46 0.45 0.52 0.62 0.56 0.44 0.41 0.42 0.47 0.55 0.60 0.71 0.93 1.17 1.35 1.43 1.25 0.99 0.86 0.82 0.77 0.77 0.81 0.83 0.80 0.76 0.72 0.67 0.63 0.61 0.62 0.57 0.48 0.40
0.00 0.02 0.00 0.00 0.03 0.08 0.15 0.26 0.34 0.46 0.56 0.69 0.86 0.96 0.82 0.83 0.84 0.90 1.01 1.03 1.02 1.12 1.09 1.21 1.36 1.44 1.24 0.90 0.69 0.68 0.72 0.72 0.70 0.72 0.72 0.69 0.64 0.56 0.51 0.51 0.53 0.51 0.45 0.38
0.00 0.04 0.02 0.02 0.08 0.16 0.27 0.38 0.52 0.69 0.63 0.69 0.89 1.05 0.94 0.93 0.94 1.02 1.19 1.24 1.21 1.12 1.01 0.99 1.02 1.04 1.01 0.82 0.65 0.61 0.66 0.68 0.68 0.72 0.72 0.68 0.59 0.52 0.50 0.45 0.42 0.37 0.31 0.28
0.02 0.09 0.10 0.09 0.23 0.35 0.53 0.60 0.48 0.46 0.51 0.61 0.83 0.82 0.61 0.56 0.72 0.86 1.00 1.07 1.00 0.94 1.00 0.97 0.90 0.80 0.76 0.71 0.66 0.64 0.74 0.81 0.85 0.85 0.73 0.61 0.55 0.52 0.51 0.42 0.36 0.33 0.27 0.24
0.01 0.08 0.13 0.20 0.29 0.41 0.62 0.71 0.55 0.44 0.49 0.50 0.56 0.50 0.35 0.41 0.57 0.64 0.66 0.66 0.65 0.70 0.72 0.67 0.63 0.57 0.53 0.55 0.59 0.63 0.74 0.83 0.93 1.02 0.90 0.74 0.62 0.55 0.48 0.41 0.39 0.37 0.33 0.34
0.00 0.01 0.03 0.06 0.08 0.17 0.36 0.47 0.38 0.27 0.24 0.31 0.32 0.33 0.37 0.45 0.55 0.53 0.47 0.41 0.38 0.38 0.36 0.35 0.35 0.33 0.32 0.31 0.32 0.40 0.52 0.68 0.85 1.02 1.01 0.83 0.70 0.64 0.56 0.52 0.51 0.49 0.51 0.47
0.00 0.00 0.00 0.02 0.04 0.07 0.17 0.20 0.16 0.09 0.12 0.23 0.29 0.35 0.40 0.46 0.53 0.50 0.42 0.34 0.27 0.25 0.24 0.23 0.22 0.20 0.15 0.13 0.15 0.17 0.25 0.41 0.58 0.73 0.79 0.75 0.66 0.54 0.48 0.50 0.51 0.48 0.46 0.41
0.00 0.00 0.01 0.01 0.02 0.04 0.11 0.11 0.12 0.15 0.15 0.16 0.25 0.37 0.46 0.58 0.76 0.67 0.49 0.40 0.27 0.20 0.19 0.18 0.19 0.18 0.17 0.15 0.14 0.13 0.17 0.24 0.34 0.47 0.56 0.54 0.49 0.42 0.36 0.37 0.39 0.37 0.33 0.34
0.00 0.02 0.06 0.05 0.08 0.19 0.24 0.19 0.26 0.34 0.26 0.21 0.28 0.36 0.50 0.83 1.03 0.65 0.42 0.38 0.31 0.21 0.18 0.16 0.16 0.15 0.13 0.12 0.11 0.11 0.14 0.17 0.18 0.22 0.26 0.27 0.27 0.26 0.28 0.30 0.30 0.30 0.27 0.26
0.00 0.03 0.08 0.10 0.13 0.39 0.36 0.18 0.31 0.36 0.30 0.24 0.31 0.37 0.39 0.45 0.41 0.24 0.14 0.16 0.18 0.12 0.09 0.08 0.07 0.06 0.05 0.04 0.04 0.04 0.05 0.05 0.05 0.06 0.08 0.10 0.12 0.13 0.17 0.17 0.20 0.29 0.32 0.32
0.00 0.02 0.06 0.07 0.08 0.23 0.27 0.10 0.17 0.25 0.30 0.12 0.14 0.16 0.11 0.07 0.08 0.10 0.09 0.06 0.05 0.03 0.02 0.02 0.01 0.01 0.01 0.00 0.00 0.00 0.00 0.00 0.00 0.00 0.00 0.01 0.01 0.02 0.05 0.08 0.10 0.16 0.22 0.29
0.00 0.01 0.02 0.02 0.04 0.07 0.05 0.05 0.10 0.24 0.27 0.07 0.04 0.03 0.01 0.00 0.01 0.05 0.09 0.05 0.03 0.01 0.00 0.00 0.00 0.00 0.00 0.00 0.00 0.00 0.00 0.00 0.00 0.00 0.00 0.00 0.00 0.00 0.01 0.01 0.02 0.04 0.09 0.12
0.00 0.01 0.01 0.01 0.02 0.03 0.01 0.04 0.10 0.10 0.05 0.02 0.01 0.01 0.00 0.00 0.00 0.02 0.05 0.03 0.02 0.00 0.00 0.00 0.00 0.00 0.00 0.00 0.00 0.00 0.00 0.00 0.00 0.00 0.00 0.00 0.00 0.00 0.00 0.01 0.01 0.01 0.02 0.03
0.00 0.01 0.01 0.01 0.02 0.01 0.01 0.02 0.03 0.02 0.01 0.00 0.00 0.00 0.00 0.00 0.00 0.00 0.01 0.02 0.01 0.00 0.00 0.00 0.00 0.00 0.00 0.00 0.00 0.00 0.00 0.00 0.00 0.00 0.00 0.00 0.00 0.01 0.00 0.01 0.01 0.01 0.02 0.03
0.00 0.00 0.01 0.01 0.01 0.00 0.00 0.01 0.00 0.01 0.01 0.00 0.00 0.00 0.00 0.00 0.00 0.00 0.00 0.01 0.01 0.00 0.00 0.00 0.00 0.00 0.00 0.00 0.00 0.00 0.00 0.00 0.00 0.00 0.00 0.00 0.01 0.01 0.01 0.01 0.01 0.02 0.02 0.04
0.00 0.01 0.01 0.01 0.00 0.00 0.00 0.00 0.00 0.00 0.00 0.00 0.00 0.00 0.00 0.00 0.00 0.00 0.00 0.01 0.00 0.00 0.00 0.00 0.00 0.00 0.00 0.00 0.00 0.00 0.00 0.00 0.00 0.00 0.00 0.00 0.01 0.01 0.01 0.01 0.01 0.01 0.02 0.04
0.00 0.00 0.01 0.00 0.00 0.00 0.00 0.00 0.00 0.01 0.00 0.00 0.00 0.00 0.00 0.00 0.00 0.00 0.00 0.00 0.00 0.00 0.00 0.00 0.00 0.00 0.00 0.00 0.00 0.00 0.00 0.00 0.00 0.00 0.00 0.00 0.01 0.01 0.01 0.02 0.01 0.01 0.01 0.01

GEFSCGP_prec_meanprecacc_042.txt.gz
Total_Precipitation_Accumulation
0.01 0.00 0.04 0.06 0.06 0.07 0.06 0.05 0.05 0.07 0.09 0.09 0.09 0.11 0.13 0.13 0.12 0.11 0.11 0.11 0.12 0.12 0.13 0.15 0.19 0.21 0.22 0.22 0.24 0.30 0.33 0.40 0.47 0.53 0.66 0.83 1.01 1.00 1.07 1.02 0.79 0.70 0.78 0.93
0.00 0.00 0.00 0.01 0.02 0.03 0.05 0.07 0.06 0.05 0.05 0.06 0.07 0.08 0.08 0.10 0.11 0.11 0.11 0.10 0.09 0.08 0.07 0.07 0.09 0.12 0.14 0.15 0.16 0.21 0.29 0.38 0.46 0.54 0.70 0.85 0.96 0.89 0.98 1.10 1.02 0.87 0.81 0.92
0.00 0.00 0.00 0.00 0.01 0.03 0.06 0.09 0.11 0.11 0.07 0.05 0.06 0.07 0.07 0.09 0.11 0.11 0.12 0.11 0.09 0.08 0.06 0.06 0.06 0.07 0.09 0.10 0.11 0.14 0.20 0.30 0.43 0.58 0.81 1.01 1.18 1.23 1.25 1.14 1.17 1.12 0.98 0.94
0.00 0.00 0.00 0.01 0.02 0.03 0.06 0.05 0.06 0.09 0.14 0.14 0.15 0.18 0.12 0.14 0.18 0.18 0.17 0.15 0.13 0.11 0.08 0.06 0.05 0.06 0.06 0.06 0.07 0.10 0.18 0.32 0.53 0.73 0.98 1.23 1.42 1.43 1.29 1.30 1.28 1.10 0.97 0.92
0.00 0.00 0.00 0.00 0.01 0.01 0.02 0.02 0.03 0.07 0.12 0.11 0.10 0.16 0.14 0.21 0.30 0.32 0.29 0.25 0.19 0.15 0.13 0.11 0.09 0.11 0.11 0.11 0.13 0.20 0.39 0.62 0.86 1.06 1.30 1.58 1.59 1.47 1.37 1.33 1.29 1.20 1.12 1.05
0.00 0.00 0.00 0.00 0.00 0.00 0.01 0.02 0.05 0.08 0.11 0.07 0.06 0.13 0.23 0.28 0.33 0.36 0.36 0.29 0.22 0.18 0.21 0.25 0.29 0.33 0.36 0.40 0.52 0.73 0.96 1.12 1.19 1.30 1.42 1.55 1.55 1.57 1.51 1.31 1.21 1.17 1.17 1.18
0.00 0.00 0.00 0.00 0.00 0.00 0.01 0.04 0.10 0.12 0.14 0.12 0.12 0.27 0.37 0.33 0.28 0.28 0.29 0.24 0.19 0.22 0.32 0.43 0.58 0.69 0.79 0.90 1.00 1.14 1.31 1.41 1.34 1.30 1.32 1.36 1.37 1.36 1.36 1.30 1.16 1.08 1.07 1.08
0.00 0.00 0.00 0.00 0.01 0.01 0.02 0.07 0.18 0.22 0.21 0.23 0.27 0.47 0.51 0.41 0.30 0.22 0.16 0.15 0.23 0.36 0.50 0.60 0.69 0.79 0.92 1.02 1.05 1.06 1.15 1.22 1.19 1.15 1.13 1.09 1.10 1.08 1.02 0.94 0.93 0.96 0.98 0.98
0.00 0.00 0.00 0.00 0.01 0.02 0.04 0.06 0.14 0.27 0.23 0.23 0.35 0.61 0.57 0.37 0.31 0.24 0.21 0.24 0.37 0.56 0.77 0.90 0.99 1.09 1.09 1.08 1.08 0.98 0.98 1.01 1.01 0.96 0.89 0.86 0.84 0.84 0.80 0.75 0.76 0.74 0.73 0.69
0.00 0.01 0.00 0.00 0.01 0.03 0.09 0.16 0.24 0.42 0.46 0.45 0.54 0.65 0.58 0.45 0.42 0.45 0.51 0.60 0.66 0.76 1.01 1.28 1.50 1.61 1.40 1.10 0.97 0.91 0.83 0.83 0.86 0.86 0.83 0.79 0.74 0.69 0.66 0.65 0.66 0.63 0.55 0.49
0.00 0.02 0.00 0.00 0.03 0.08 0.15 0.26 0.34 0.46 0.56 0.70 0.87 0.97 0.83 0.85 0.87 0.94 1.05 1.09 1.08 1.18 1.15 1.29 1.47 1.60 1.46 1.11 0.86 0.82 0.82 0.78 0.75 0.76 0.75 0.72 0.67 0.59 0.55 0.55 0.56 0.55 0.50 0.46
0.00 0.04 0.02 0.02 0.08 0.16 0.27 0.38 0.52 0.69 0.63 0.69 0.89 1.06 0.95 0.94 0.96 1.05 1.22 1.28 1.26 1.18 1.08 1.05 1.10 1.14 1.13 0.97 0.79 0.73 0.78 0.78 0.76 0.78 0.76 0.72 0.63 0.56 0.53 0.49 0.45 0.40 0.36 0.33
0.02 0.09 0.10 0.09 0.23 0.35 0.53 0.60 0.48 0.46 0.51 0.61 0.83 0.83 0.62 0.57 0.73 0.88 1.04 1.12 1.04 0.99 1.05 1.01 0.93 0.85 0.85 0.82 0.75 0.72 0.82 0.89 0.93 0.91 0.77 0.65 0.59 0.56 0.55 0.45 0.39 0.37 0.31 0.29
0.01 0.08 0.13 0.20 0.29 0.41 0.62 0.71 0.55 0.44 0.49 0.50 0.56 0.50 0.36 0.42 0.58 0.65 0.68 0.69 0.69 0.73 0.75 0.69 0.64 0.59 0.58 0.61 0.65 0.69 0.79 0.86 0.97 1.05 0.94 0.77 0.65 0.58 0.52 0.45 0.43 0.41 0.38 0.39
0.00 0.01 0.03 0.06 0.08 0.17 0.36 0.47 0.38 0.27 0.24 0.31 0.32 0.33 0.37 0.45 0.55 0.53 0.47 0.42 0.40 0.40 0.37 0.36 0.36 0.34 0.32 0.32 0.34 0.42 0.54 0.69 0.87 1.05 1.03 0.85 0.73 0.65 0.58 0.54 0.54 0.52 0.55 0.51
0.00 0.00 0.00 0.02 0.04 0.07 0.17 0.20 0.16 0.09 0.12 0.23 0.29 0.35 0.40 0.46 0.53 0.50 0.42 0.34 0.27 0.25 0.25 0.24 0.22 0.20 0.16 0.13 0.15 0.17 0.25 0.42 0.58 0.74 0.80 0.76 0.66 0.55 0.49 0.51 0.52 0.49 0.47 0.43
0.00 0.00 0.01 0.01 0.02 0.04 0.11 0.11 0.12 0.15 0.15 0.16 0.25 0.37 0.46 0.58 0.76 0.67 0.49 0.41 0.27 0.20 0.19 0.18 0.19 0.18 0.17 0.15 0.14 0.13 0.17 0.24 0.34 0.47 0.56 0.54 0.49 0.42 0.36 0.38 0.40 0.38 0.34 0.35
0.00 0.02 0.06 0.05 0.08 0.19 0.24 0.19 0.26 0.34 0.26 0.21 0.28 0.36 0.50 0.83 1.03 0.65 0.42 0.38 0.31 0.21 0.18 0.16 0.16 0.15 0.13 0.12 0.11 0.11 0.14 0.17 0.18 0.22 0.26 0.27 0.27 0.26 0.28 0.30 0.30 0.30 0.28 0.27
0.00 0.03 0.08 0.10 0.13 0.39 0.36 0.18 0.31 0.36 0.30 0.24 0.31 0.37 0.39 0.45 0.41 0.24 0.14 0.16 0.18 0.12 0.09 0.08 0.07 0.06 0.05 0.04 0.04 0.04 0.05 0.05 0.05 0.06 0.08 0.10 0.12 0.13 0.17 0.17 0.20 0.29 0.32 0.32
0.00 0.02 0.06 0.07 0.08 0.23 0.27 0.10 0.17 0.25 0.30 0.12 0.14 0.16 0.11 0.07 0.08 0.10 0.09 0.06 0.05 0.03 0.02 0.02 0.01 0.01 0.01 0.00 0.00 0.00 0.00 0.00 0.00 0.00 0.00 0.01 0.01 0.02 0.05 0.08 0.10 0.16 0.22 0.29
0.00 0.01 0.02 0.02 0.04 0.07 0.05 0.05 0.10 0.24 0.27 0.07 0.04 0.03 0.01 0.00 0.01 0.05 0.09 0.05 0.03 0.01 0.00 0.00 0.00 0.00 0.00 0.00 0.00 0.00 0.00 0.00 0.00 0.00 0.00 0.00 0.00 0.00 0.01 0.01 0.02 0.04 0.09 0.12
0.00 0.01 0.01 0.01 0.02 0.03 0.01 0.04 0.10 0.10 0.05 0.02 0.01 0.01 0.00 0.00 0.00 0.02 0.05 0.03 0.02 0.00 0.00 0.00 0.00 0.00 0.00 0.00 0.00 0.00 0.00 0.00 0.00 0.00 0.00 0.00 0.00 0.00 0.00 0.01 0.01 0.01 0.02 0.03
0.00 0.01 0.01 0.01 0.02 0.01 0.01 0.02 0.03 0.02 0.01 0.00 0.00 0.00 0.00 0.00 0.00 0.00 0.01 0.02 0.01 0.00 0.00 0.00 0.00 0.00 0.00 0.00 0.00 0.00 0.00 0.00 0.00 0.00 0.00 0.00 0.00 0.01 0.00 0.01 0.01 0.01 0.02 0.04
0.00 0.00 0.01 0.01 0.01 0.00 0.00 0.01 0.00 0.01 0.01 0.00 0.00 0.00 0.00 0.00 0.00 0.00 0.00 0.01 0.01 0.00 0.00 0.00 0.00 0.00 0.00 0.00 0.00 0.00 0.00 0.00 0.00 0.00 0.00 0.00 0.01 0.01 0.01 0.01 0.01 0.02 0.02 0.04
0.00 0.01 0.01 0.01 0.00 0.00 0.00 0.00 0.00 0.00 0.00 0.00 0.00 0.00 0.00 0.00 0.00 0.00 0.00 0.01 0.00 0.00 0.00 0.00 0.00 0.00 0.00 0.00 0.00 0.00 0.00 0.00 0.00 0.00 0.00 0.00 0.01 0.01 0.01 0.01 0.01 0.01 0.02 0.04
0.00 0.00 0.01 0.00 0.00 0.00 0.00 0.00 0.00 0.01 0.00 0.00 0.00 0.00 0.00 0.00 0.00 0.00 0.00 0.00 0.00 0.00 0.00 0.00 0.00 0.00 0.00 0.00 0.00 0.00 0.00 0.00 0.00 0.00 0.00 0.00 0.01 0.01 0.01 0.02 0.01 0.01 0.01 0.01

GEFSCGP_prec_meanprecacc_048.txt.gz
Total_Precipitation_Accumulation
0.01 0.00 0.04 0.06 0.06 0.07 0.06 0.05 0.05 0.07 0.09 0.09 0.09 0.11 0.13 0.13 0.12 0.12 0.11 0.12 0.12 0.12 0.13 0.15 0.19 0.21 0.22 0.22 0.25 0.30 0.34 0.41 0.50 0.57 0.71 0.93 1.18 1.26 1.33 1.25 1.02 0.93 1.00 1.14
0.00 0.00 0.00 0.01 0.02 0.03 0.05 0.07 0.06 0.05 0.05 0.06 0.07 0.08 0.09 0.10 0.12 0.11 0.11 0.10 0.09 0.09 0.07 0.07 0.10 0.13 0.14 0.15 0.16 0.22 0.29 0.39 0.47 0.56 0.73 0.89 1.03 1.01 1.15 1.27 1.20 1.07 1.05 1.16
0.00 0.00 0.00 0.00 0.01 0.03 0.06 0.09 0.11 0.11 0.07 0.05 0.06 0.08 0.07 0.09 0.11 0.11 0.12 0.11 0.10 0.08 0.06 0.06 0.06 0.08 0.09 0.10 0.11 0.15 0.20 0.31 0.44 0.59 0.82 1.03 1.22 1.28 1.32 1.23 1.28 1.25 1.15 1.16
0.00 0.00 0.00 0.01 0.02 0.03 0.06 0.05 0.06 0.09 0.14 0.14 0.15 0.18 0.13 0.14 0.18 0.18 0.18 0.15 0.13 0.12 0.08 0.06 0.06 0.07 0.07 0.07 0.08 0.11 0.19 0.33 0.53 0.74 0.99 1.24 1.44 1.46 1.34 1.37 1.38 1.24 1.13 1.08
0.00 0.00 0.00 0.00 0.01 0.01 0.02 0.02 0.03 0.07 0.12 0.11 0.10 0.16 0.15 0.21 0.30 0.32 0.30 0.25 0.19 0.16 0.13 0.11 0.10 0.12 0.12 0.13 0.15 0.21 0.40 0.64 0.87 1.08 1.32 1.60 1.61 1.50 1.40 1.39 1.35 1.27 1.22 1.18
0.00 0.00 0.00 0.00 0.00 0.00 0.01 0.02 0.05 0.08 0.11 0.07 0.06 0.13 0.23 0.28 0.33 0.36 0.36 0.30 0.22 0.18 0.21 0.26 0.30 0.36 0.40 0.42 0.55 0.75 1.00 1.17 1.24 1.35 1.46 1.58 1.58 1.59 1.53 1.34 1.25 1.22 1.23 1.26
0.00 0.00 0.00 0.00 0.00 0.00 0.01 0.04 0.10 0.12 0.14 0.12 0.12 0.27 0.38 0.34 0.29 0.29 0.29 0.25 0.20 0.23 0.32 0.44 0.59 0.72 0.83 0.93 1.04 1.18 1.35 1.47 1.40 1.35 1.36 1.41 1.42 1.40 1.39 1.33 1.20 1.11 1.11 1.13
0.00 0.00 0.00 0.00 0.01 0.01 0.02 0.07 0.18 0.22 0.21 0.23 0.27 0.47 0.52 0.41 0.31 0.22 0.16 0.16 0.24 0.37 0.51 0.62 0.71 0.82 0.98 1.09 1.14 1.14 1.23 1.31 1.26 1.22 1.19 1.16 1.16 1.14 1.07 0.98 0.96 0.99 1.02 1.02
0.00 0.00 0.00 0.00 0.01 0.02 0.04 0.06 0.14 0.27 0.23 0.23 0.35 0.61 0.57 0.37 0.31 0.25 0.22 0.25 0.38 0.58 0.79 0.93 1.03 1.16 1.19 1.20 1.24 1.16 1.12 1.15 1.14 1.06 0.97 0.96 0.94 0.90 0.86 0.82 0.81 0.78 0.77 0.72
0.00 0.01 0.00 0.00 0.01 0.03 0.09 0.16 0.24 0.42 0.46 0.45 0.54 0.65 0.58 0.46 0.43 0.45 0.52 0.61 0.67 0.78 1.03 1.32 1.56 1.73 1.55 1.26 1.14 1.08 0.98 0.96 1.03 1.01 0.91 0.87 0.85 0.80 0.77 0.75 0.73 0.68 0.60 0.54
0.00 0.02 0.00 0.00 0.03 0.08 0.15 0.26 0.34 0.46 0.56 0.70 0.87 0.97 0.83 0.86 0.88 0.95 1.06 1.10 1.10 1.20 1.18 1.34 1.53 1.70 1.58 1.26 1.02 1.02 1.01 0.94 0.90 0.89 0.85 0.81 0.75 0.66 0.64 0.63 0.63 0.61 0.55 0.52
0.00 0.04 0.02 0.02 0.08 0.16 0.27 0.38 0.52 0.69 0.63 0.69 0.89 1.06 0.95 0.94 0.96 1.05 1.23 1.30 1.29 1.20 1.10 1.08 1.13 1.19 1.20 1.05 0.86 0.81 0.92 0.93 0.88 0.86 0.84 0.79 0.69 0.61 0.59 0.56 0.50 0.44 0.39 0.36
0.02 0.09 0.10 0.09 0.23 0.35 0.53 0.60 0.48 0.46 0.51 0.61 0.83 0.83 0.62 0.57 0.73 0.89 1.04 1.13 1.05 1.00 1.06 1.03 0.95 0.88 0.90 0.87 0.79 0.75 0.86 0.97 1.01 0.97 0.82 0.69 0.63 0.59 0.58 0.48 0.43 0.41 0.34 0.31
0.01 0.08 0.13 0.20 0.29 0.41 0.62 0.71 0.55 0.44 0.49 0.50 0.56 0.50 0.36 0.42 0.58 0.65 0.69 0.69 0.70 0.74 0.76 0.70 0.65 0.60 0.59 0.63 0.67 0.72 0.82 0.89 1.00 1.09 0.98 0.82 0.71 0.63 0.57 0.48 0.46 0.43 0.40 0.40
0.00 0.01 0.03 0.06 0.08 0.17 0.36 0.47 0.38 0.27 0.24 0.31 0.32 0.33 0.37 0.45 0.55 0.53 0.48 0.42 0.40 0.41 0.38 0.37 0.36 0.34 0.33 0.33 0.34 0.43 0.55 0.70 0.88 1.07 1.05 0.89 0.82 0.75 0.62 0.56 0.56 0.54 0.57 0.53
0.00 0.00 0.00 0.02 0.04 0.07 0.17 0.20 0.16 0.09 0.12 0.23 0.29 0.35 0.40 0.46 0.53 0.50 0.42 0.34 0.27 0.26 0.25 0.24 0.22 0.20 0.16 0.14 0.16 0.17 0.25 0.42 0.59 0.74 0.81 0.76 0.68 0.59 0.56 0.55 0.53 0.50 0.48 0.44
0.00 0.00 0.01 0.01 0.02 0.04 0.11 0.11 0.12 0.15 0.15 0.16 0.25 0.37 0.46 0.58 0.76 0.67 0.49 0.41 0.28 0.20 0.19 0.18 0.19 0.18 0.17 0.16 0.14 0.14 0.17 0.24 0.35 0.47 0.56 0.54 0.49 0.43 0.39 0.43 0.44 0.40 0.36 0.38
0.00 0.02 0.06 0.05 0.08 0.19 0.24 0.19 0.26 0.34 0.26 0.21 0.28 0.36 0.50 0.83 1.03 0.65 0.42 0.38 0.31 0.21 0.18 0.16 0.16 0.15 0.13 0.12 0.11 0.11 0.14 0.17 0.18 0.22 0.26 0.27 0.27 0.27 0.28 0.31 0.31 0.31 0.29 0.28
0.00 0.03 0.08 0.10 0.13 0.39 0.36 0.18 0.31 0.36 0.30 0.24 0.31 0.37 0.39 0.45 0.41 0.24 0.14 0.16 0.18 0.12 0.09 0.08 0.07 0.06 0.05 0.04 0.04 0.04 0.05 0.05 0.05 0.06 0.08 0.10 0.12 0.14 0.17 0.17 0.21 0.29 0.32 0.32
0.00 0.02 0.06 0.07 0.08 0.23 0.27 0.10 0.17 0.25 0.30 0.12 0.14 0.16 0.11 0.07 0.08 0.10 0.09 0.06 0.05 0.03 0.02 0.02 0.01 0.01 0.01 0.00 0.00 0.00 0.00 0.00 0.00 0.00 0.00 0.01 0.01 0.02 0.05 0.08 0.10 0.16 0.23 0.29
0.00 0.01 0.02 0.02 0.04 0.07 0.05 0.05 0.10 0.24 0.27 0.07 0.04 0.03 0.01 0.00 0.01 0.05 0.09 0.05 0.03 0.01 0.00 0.00 0.00 0.00 0.00 0.00 0.00 0.00 0.00 0.00 0.00 0.00 0.00 0.00 0.00 0.00 0.01 0.02 0.02 0.05 0.09 0.12
0.00 0.01 0.01 0.01 0.02 0.03 0.01 0.04 0.10 0.10 0.05 0.02 0.01 0.01 0.00 0.00 0.00 0.02 0.05 0.03 0.02 0.00 0.00 0.00 0.00 0.00 0.00 0.00 0.00 0.00 0.00 0.00 0.00 0.00 0.00 0.00 0.00 0.00 0.00 0.01 0.01 0.01 0.02 0.04
0.00 0.01 0.01 0.01 0.02 0.01 0.01 0.02 0.03 0.02 0.01 0.00 0.00 0.00 0.00 0.00 0.00 0.00 0.01 0.02 0.01 0.00 0.00 0.00 0.00 0.00 0.00 0.00 0.00 0.00 0.00 0.00 0.00 0.00 0.00 0.00 0.00 0.01 0.00 0.01 0.01 0.01 0.02 0.04
0.00 0.00 0.01 0.01 0.01 0.00 0.00 0.01 0.00 0.01 0.01 0.00 0.00 0.00 0.00 0.00 0.00 0.00 0.00 0.01 0.01 0.00 0.00 0.00 0.00 0.00 0.00 0.00 0.00 0.00 0.00 0.00 0.00 0.00 0.00 0.00 0.01 0.01 0.01 0.01 0.01 0.02 0.02 0.04
0.00 0.01 0.01 0.01 0.00 0.00 0.00 0.00 0.00 0.00 0.00 0.00 0.00 0.00 0.00 0.00 0.00 0.00 0.00 0.01 0.00 0.00 0.00 0.00 0.00 0.00 0.00 0.00 0.00 0.00 0.00 0.00 0.00 0.00 0.00 0.00 0.01 0.01 0.01 0.01 0.01 0.02 0.02 0.04
0.00 0.00 0.01 0.00 0.00 0.00 0.00 0.00 0.00 0.01 0.00 0.00 0.00 0.00 0.00 0.00 0.00 0.00 0.00 0.00 0.00 0.00 0.00 0.00 0.00 0.00 0.00 0.00 0.00 0.00 0.00 0.00 0.00 0.00 0.00 0.00 0.01 0.01 0.01 0.02 0.01 0.01 0.01 0.02

GEFSCGP_prec_meanprecacc_054.txt.gz
Total_Precipitation_Accumulation
0.01 0.00 0.04 0.06 0.06 0.07 0.06 0.05 0.06 0.07 0.09 0.09 0.10 0.11 0.13 0.13 0.12 0.12 0.11 0.12 0.13 0.12 0.13 0.15 0.19 0.22 0.22 0.22 0.25 0.31 0.34 0.42 0.50 0.58 0.72 0.94 1.21 1.30 1.39 1.32 1.13 1.05 1.13 1.31
0.00 0.00 0.00 0.01 0.02 0.03 0.05 0.07 0.06 0.05 0.05 0.06 0.07 0.08 0.09 0.10 0.12 0.11 0.11 0.10 0.10 0.09 0.07 0.07 0.10 0.13 0.15 0.15 0.17 0.22 0.30 0.39 0.48 0.57 0.74 0.90 1.05 1.05 1.21 1.35 1.30 1.18 1.15 1.26
0.00 0.00 0.00 0.00 0.01 0.03 0.06 0.09 0.11 0.11 0.07 0.05 0.06 0.08 0.07 0.09 0.11 0.11 0.12 0.11 0.10 0.08 0.06 0.06 0.06 0.08 0.09 0.10 0.12 0.15 0.21 0.32 0.45 0.60 0.84 1.05 1.23 1.31 1.37 1.28 1.35 1.32 1.22 1.24
0.00 0.00 0.00 0.01 0.02 0.03 0.06 0.05 0.06 0.09 0.14 0.14 0.15 0.19 0.13 0.14 0.18 0.18 0.18 0.15 0.14 0.12 0.09 0.06 0.06 0.07 0.07 0.08 0.08 0.12 0.20 0.35 0.56 0.77 1.02 1.27 1.47 1.50 1.39 1.43 1.45 1.30 1.21 1.16
0.00 0.00 0.00 0.00 0.01 0.01 0.02 0.02 0.03 0.07 0.12 0.11 0.10 0.17 0.16 0.21 0.30 0.32 0.30 0.26 0.20 0.16 0.13 0.12 0.11 0.12 0.13 0.14 0.16 0.23 0.43 0.67 0.93 1.14 1.38 1.66 1.67 1.55 1.45 1.44 1.41 1.35 1.32 1.28
0.00 0.00 0.00 0.00 0.00 0.00 0.01 0.02 0.05 0.08 0.11 0.07 0.06 0.13 0.24 0.28 0.33 0.37 0.36 0.30 0.23 0.19 0.22 0.27 0.31 0.37 0.41 0.44 0.58 0.78 1.04 1.24 1.32 1.44 1.58 1.69 1.67 1.68 1.61 1.41 1.32 1.30 1.32 1.36
0.00 0.00 0.00 0.00 0.00 0.00 0.01 0.04 0.10 0.12 0.14 0.12 0.12 0.27 0.38 0.34 0.29 0.29 0.30 0.25 0.20 0.24 0.33 0.45 0.61 0.74 0.84 0.96 1.08 1.22 1.40 1.55 1.49 1.46 1.49 1.53 1.53 1.51 1.49 1.43 1.30 1.22 1.22 1.23
0.00 0.00 0.00 0.00 0.01 0.01 0.02 0.07 0.18 0.23 0.21 0.23 0.27 0.47 0.52 0.41 0.31 0.22 0.17 0.16 0.24 0.38 0.52 0.63 0.72 0.83 1.00 1.14 1.19 1.19 1.30 1.39 1.34 1.31 1.29 1.25 1.28 1.27 1.23 1.13 1.11 1.13 1.17 1.15
0.00 0.00 0.00 0.00 0.01 0.02 0.04 0.06 0.14 0.27 0.23 0.23 0.35 0.61 0.57 0.37 0.31 0.25 0.22 0.25 0.38 0.58 0.79 0.94 1.04 1.17 1.21 1.25 1.30 1.21 1.20 1.25 1.24 1.15 1.05 1.05 1.06 1.06 1.06 1.01 0.99 0.97 0.94 0.87
0.00 0.01 0.00 0.00 0.01 0.03 0.09 0.16 0.24 0.42 0.46 0.45 0.54 0.65 0.58 0.46 0.43 0.45 0.52 0.61 0.67 0.78 1.03 1.32 1.57 1.74 1.57 1.30 1.18 1.13 1.05 1.05 1.13 1.10 1.01 0.95 1.00 1.00 0.97 0.96 0.91 0.88 0.81 0.70
0.00 0.02 0.00 0.00 0.03 0.08 0.15 0.26 0.34 0.46 0.56 0.70 0.88 0.97 0.83 0.86 0.88 0.95 1.06 1.10 1.10 1.21 1.19 1.34 1.53 1.70 1.60 1.28 1.05 1.05 1.05 1.00 0.97 0.98 0.97 0.95 0.91 0.82 0.81 0.81 0.80 0.78 0.72 0.66
0.00 0.04 0.02 0.02 0.08 0.16 0.27 0.38 0.52 0.69 0.63 0.69 0.89 1.06 0.95 0.94 0.96 1.05 1.23 1.30 1.29 1.20 1.10 1.09 1.13 1.20 1.21 1.06 0.87 0.83 0.95 0.99 0.93 0.91 0.93 0.92 0.81 0.75 0.72 0.67 0.64 0.57 0.53 0.49
0.02 0.09 0.10 0.09 0.23 0.35 0.53 0.60 0.48 0.46 0.51 0.61 0.83 0.83 0.62 0.57 0.73 0.89 1.04 1.13 1.05 1.00 1.07 1.03 0.95 0.88 0.91 0.88 0.80 0.76 0.89 1.02 1.04 1.00 0.86 0.77 0.72 0.68 0.66 0.56 0.52 0.50 0.44 0.41
0.01 0.08 0.13 0.20 0.29 0.41 0.62 0.71 0.55 0.44 0.49 0.50 0.56 0.50 0.36 0.42 0.58 0.65 0.69 0.70 0.70 0.74 0.77 0.71 0.66 0.61 0.60 0.63 0.67 0.73 0.83 0.90 1.02 1.11 1.01 0.86 0.76 0.68 0.62 0.53 0.51 0.48 0.46 0.45
0.00 0.01 0.03 0.06 0.08 0.17 0.36 0.47 0.38 0.27 0.24 0.31 0.32 0.33 0.37 0.45 0.55 0.53 0.48 0.42 0.40 0.41 0.38 0.37 0.36 0.34 0.33 0.33 0.34 0.43 0.55 0.70 0.89 1.09 1.07 0.92 0.85 0.78 0.64 0.58 0.59 0.56 0.59 0.55
0.00 0.00 0.00 0.02 0.04 0.07 0.17 0.20 0.16 0.09 0.12 0.23 0.29 0.35 0.40 0.46 0.53 0.50 0.42 0.34 0.27 0.26 0.25 0.24 0.22 0.20 0.16 0.14 0.16 0.17 0.25 0.42 0.59 0.75 0.81 0.77 0.69 0.61 0.58 0.57 0.55 0.52 0.50 0.46
0.00 0.00 0.01 0.01 0.02 0.04 0.11 0.11 0.12 0.15 0.15 0.16 0.25 0.37 0.46 0.58 0.76 0.67 0.49 0.41 0.28 0.20 0.19 0.18 0.19 0.18 0.17 0.16 0.14 0.14 0.17 0.24 0.35 0.47 0.56 0.55 0.49 0.43 0.40 0.45 0.45 0.43 0.39 0.40
0.00 0.02 0.06 0.05 0.08 0.19 0.24 0.19 0.26 0.34 0.26 0.21 0.28 0.36 0.50 0.83 1.03 0.65 0.42 0.38 0.31 0.21 0.18 0.16 0.16 0.15 0.13 0.12 0.11 0.11 0.14 0.17 0.18 0.22 0.26 0.27 0.28 0.27 0.29 0.31 0.32 0.32 0.31 0.30
0.00 0.03 0.08 0.10 0.13 0.39 0.36 0.18 0.31 0.36 0.30 0.24 0.31 0.37 0.39 0.45 0.41 0.24 0.14 0.16 0.18 0.12 0.09 0.08 0.07 0.06 0.05 0.04 0.04 0.04 0.05 0.05 0.05 0.06 0.08 0.10 0.12 0.14 0.17 0.18 0.21 0.29 0.33 0.33
0.00 0.02 0.06 0.07 0.08 0.23 0.27 0.10 0.17 0.25 0.30 0.12 0.14 0.16 0.11 0.07 0.08 0.10 0.09 0.06 0.05 0.03 0.02 0.02 0.01 0.01 0.01 0.00 0.00 0.00 0.00 0.00 0.00 0.00 0.00 0.01 0.01 0.02 0.05 0.08 0.11 0.17 0.23 0.30
0.00 0.01 0.02 0.02 0.04 0.07 0.05 0.05 0.10 0.24 0.27 0.07 0.04 0.03 0.01 0.00 0.01 0.05 0.09 0.05 0.03 0.01 0.00 0.00 0.00 0.00 0.00 0.00 0.00 0.00 0.00 0.00 0.00 0.00 0.00 0.00 0.00 0.00 0.01 0.02 0.03 0.06 0.10 0.14
0.00 0.01 0.01 0.01 0.02 0.03 0.01 0.04 0.10 0.10 0.05 0.02 0.01 0.01 0.00 0.00 0.00 0.02 0.05 0.03 0.02 0.00 0.00 0.00 0.00 0.00 0.00 0.00 0.00 0.00 0.00 0.00 0.00 0.00 0.00 0.00 0.00 0.00 0.01 0.01 0.02 0.02 0.03 0.06
0.00 0.01 0.01 0.01 0.02 0.01 0.01 0.02 0.03 0.02 0.01 0.00 0.00 0.00 0.00 0.00 0.00 0.00 0.01 0.02 0.01 0.00 0.00 0.00 0.00 0.00 0.00 0.00 0.00 0.00 0.00 0.00 0.00 0.00 0.00 0.00 0.00 0.01 0.01 0.01 0.01 0.02 0.03 0.05
0.00 0.00 0.01 0.01 0.01 0.00 0.00 0.01 0.00 0.01 0.01 0.00 0.00 0.00 0.00 0.00 0.00 0.00 0.00 0.01 0.01 0.00 0.00 0.00 0.00 0.00 0.00 0.00 0.00 0.00 0.00 0.00 0.00 0.00 0.00 0.00 0.01 0.01 0.01 0.01 0.02 0.02 0.02 0.05
0.00 0.01 0.01 0.01 0.00 0.00 0.00 0.00 0.00 0.00 0.00 0.00 0.00 0.00 0.00 0.00 0.00 0.00 0.00 0.01 0.00 0.00 0.00 0.00 0.00 0.00 0.00 0.00 0.00 0.00 0.00 0.00 0.00 0.00 0.00 0.00 0.01 0.01 0.01 0.01 0.01 0.02 0.02 0.04
0.00 0.00 0.01 0.00 0.00 0.00 0.00 0.00 0.00 0.01 0.00 0.00 0.00 0.00 0.00 0.00 0.00 0.00 0.00 0.00 0.00 0.00 0.00 0.00 0.00 0.00 0.00 0.00 0.00 0.00 0.00 0.00 0.00 0.00 0.00 0.00 0.01 0.01 0.01 0.02 0.02 0.01 0.01 0.02

GEFSCGP_prec_meanprecacc_060.txt.gz
Total_Precipitation_Accumulation
0.01 0.00 0.04 0.06 0.06 0.07 0.06 0.05 0.06 0.08 0.09 0.09 0.10 0.12 0.13 0.14 0.13 0.12 0.11 0.12 0.13 0.12 0.13 0.15 0.19 0.22 0.22 0.22 0.25 0.31 0.34 0.42 0.50 0.58 0.72 0.94 1.21 1.31 1.39 1.34 1.16 1.10 1.20 1.41
0.00 0.00 0.00 0.01 0.02 0.03 0.05 0.07 0.06 0.05 0.05 0.06 0.08 0.09 0.09 0.10 0.12 0.12 0.11 0.10 0.10 0.09 0.07 0.07 0.10 0.13 0.15 0.15 0.17 0.22 0.30 0.39 0.48 0.57 0.74 0.90 1.05 1.05 1.21 1.35 1.31 1.22 1.20 1.34
0.00 0.00 0.00 0.00 0.01 0.03 0.06 0.09 0.11 0.11 0.07 0.05 0.06 0.09 0.07 0.09 0.11 0.11 0.12 0.11 0.10 0.08 0.06 0.06 0.06 0.08 0.09 0.10 0.12 0.15 0.22 0.32 0.45 0.61 0.84 1.05 1.24 1.32 1.37 1.29 1.36 1.36 1.27 1.30
0.00 0.00 0.00 0.01 0.02 0.03 0.06 0.05 0.06 0.09 0.14 0.14 0.15 0.19 0.14 0.15 0.18 0.18 0.18 0.15 0.14 0.12 0.09 0.06 0.06 0.07 0.07 0.08 0.08 0.12 0.20 0.35 0.56 0.77 1.03 1.28 1.48 1.51 1.40 1.44 1.46 1.33 1.25 1.21
0.00 0.00 0.00 0.00 0.01 0.01 0.02 0.02 0.03 0.07 0.12 0.11 0.10 0.17 0.16 0.21 0.30 0.32 0.30 0.26 0.20 0.16 0.13 0.12 0.11 0.12 0.13 0.14 0.16 0.23 0.43 0.67 0.93 1.14 1.40 1.68 1.69 1.57 1.47 1.47 1.44 1.37 1.36 1.33
0.00 0.00 0.00 0.00 0.00 0.00 0.01 0.02 0.05 0.08 0.11 0.07 0.06 0.13 0.24 0.28 0.33 0.37 0.36 0.30 0.23 0.19 0.22 0.27 0.31 0.37 0.41 0.44 0.58 0.79 1.05 1.24 1.33 1.45 1.60 1.72 1.69 1.70 1.64 1.45 1.35 1.33 1.36 1.40
0.00 0.00 0.00 0.00 0.00 0.00 0.01 0.04 0.10 0.12 0.14 0.12 0.12 0.27 0.38 0.34 0.29 0.29 0.30 0.25 0.20 0.24 0.33 0.45 0.61 0.74 0.84 0.96 1.08 1.22 1.41 1.56 1.50 1.47 1.52 1.55 1.56 1.55 1.53 1.46 1.35 1.29 1.29 1.29
0.00 0.00 0.00 0.00 0.01 0.01 0.02 0.07 0.18 0.23 0.21 0.23 0.27 0.47 0.52 0.41 0.31 0.22 0.17 0.16 0.24 0.38 0.52 0.63 0.72 0.83 1.00 1.14 1.19 1.19 1.30 1.40 1.35 1.33 1.30 1.28 1.32 1.34 1.29 1.20 1.18 1.21 1.28 1.25
0.00 0.00 0.00 0.00 0.01 0.02 0.04 0.06 0.14 0.27 0.23 0.23 0.35 0.61 0.57 0.37 0.31 0.25 0.22 0.25 0.38 0.58 0.79 0.94 1.04 1.17 1.21 1.25 1.30 1.22 1.20 1.25 1.25 1.17 1.08 1.09 1.13 1.16 1.17 1.10 1.11 1.09 1.08 1.02
0.00 0.01 0.00 0.00 0.01 0.03 0.09 0.16 0.24 0.42 0.46 0.45 0.54 0.65 0.58 0.46 0.43 0.45 0.52 0.61 0.67 0.78 1.03 1.32 1.57 1.74 1.57 1.30 1.18 1.13 1.06 1.06 1.14 1.11 1.03 1.00 1.08 1.07 1.06 1.08 1.05 1.03 1.01 0.90
0.00 0.02 0.00 0.00 0.03 0.08 0.15 0.26 0.34 0.46 0.56 0.70 0.88 0.97 0.83 0.86 0.88 0.95 1.06 1.10 1.10 1.21 1.19 1.34 1.53 1.70 1.60 1.28 1.05 1.05 1.05 1.01 0.99 0.99 1.01 1.00 0.98 0.88 0.87 0.92 0.93 0.91 0.89 0.87
0.00 0.04 0.02 0.02 0.08 0.16 0.27 0.38 0.52 0.69 0.63 0.69 0.89 1.06 0.95 0.94 0.96 1.05 1.23 1.30 1.29 1.20 1.10 1.09 1.13 1.20 1.21 1.06 0.87 0.83 0.96 1.01 0.95 0.92 0.95 0.94 0.85 0.80 0.76 0.73 0.71 0.64 0.61 0.60
0.02 0.09 0.10 0.09 0.23 0.35 0.53 0.60 0.48 0.46 0.51 0.61 0.83 0.83 0.62 0.57 0.73 0.89 1.04 1.13 1.05 1.00 1.07 1.03 0.95 0.88 0.91 0.88 0.80 0.76 0.89 1.03 1.05 1.00 0.86 0.78 0.74 0.70 0.68 0.59 0.55 0.53 0.48 0.45
0.01 0.08 0.13 0.20 0.29 0.41 0.62 0.71 0.55 0.44 0.49 0.50 0.56 0.50 0.36 0.42 0.58 0.65 0.69 0.70 0.70 0.74 0.77 0.71 0.66 0.61 0.60 0.63 0.67 0.73 0.83 0.90 1.02 1.11 1.01 0.86 0.77 0.69 0.63 0.55 0.53 0.51 0.48 0.49
0.00 0.01 0.03 0.06 0.08 0.17 0.36 0.47 0.38 0.27 0.24 0.31 0.32 0.33 0.37 0.45 0.55 0.53 0.48 0.42 0.40 0.41 0.38 0.37 0.36 0.34 0.33 0.33 0.34 0.43 0.55 0.70 0.89 1.09 1.07 0.92 0.86 0.78 0.65 0.59 0.60 0.57 0.60 0.56
0.00 0.00 0.00 0.02 0.04 0.07 0.17 0.20 0.16 0.09 0.12 0.23 0.29 0.35 0.40 0.46 0.53 0.50 0.42 0.34 0.27 0.26 0.25 0.24 0.22 0.20 0.16 0.14 0.16 0.17 0.25 0.42 0.59 0.75 0.81 0.77 0.69 0.61 0.58 0.57 0.55 0.52 0.50 0.46
0.00 0.00 0.01 0.01 0.02 0.04 0.11 0.11 0.12 0.15 0.15 0.16 0.25 0.37 0.46 0.58 0.76 0.67 0.49 0.41 0.28 0.20 0.19 0.18 0.19 0.18 0.17 0.16 0.14 0.14 0.17 0.24 0.35 0.47 0.56 0.55 0.49 0.43 0.40 0.45 0.45 0.43 0.39 0.40
0.00 0.02 0.06 0.05 0.08 0.19 0.24 0.19 0.26 0.34 0.26 0.21 0.28 0.36 0.50 0.83 1.03 0.65 0.42 0.38 0.31 0.21 0.18 0.16 0.16 0.15 0.13 0.12 0.11 0.11 0.14 0.17 0.18 0.22 0.26 0.27 0.28 0.27 0.29 0.31 0.32 0.32 0.31 0.30
0.00 0.03 0.08 0.10 0.13 0.39 0.36 0.18 0.31 0.36 0.30 0.24 0.31 0.37 0.39 0.45 0.41 0.24 0.14 0.16 0.18 0.12 0.09 0.08 0.07 0.06 0.05 0.04 0.04 0.04 0.05 0.05 0.05 0.06 0.08 0.10 0.12 0.14 0.17 0.18 0.21 0.29 0.33 0.34
0.00 0.02 0.06 0.07 0.08 0.23 0.27 0.10 0.17 0.25 0.30 0.12 0.14 0.16 0.11 0.07 0.08 0.10 0.09 0.06 0.05 0.03 0.02 0.02 0.01 0.01 0.01 0.00 0.00 0.00 0.00 0.00 0.00 0.00 0.00 0.01 0.01 0.02 0.05 0.08 0.11 0.17 0.24 0.30
0.00 0.01 0.02 0.02 0.04 0.07 0.05 0.05 0.10 0.24 0.27 0.07 0.04 0.03 0.01 0.00 0.01 0.05 0.09 0.05 0.03 0.01 0.00 0.00 0.00 0.00 0.00 0.00 0.00 0.00 0.00 0.00 0.00 0.00 0.00 0.00 0.00 0.00 0.01 0.02 0.03 0.06 0.11 0.14
0.00 0.01 0.01 0.01 0.02 0.03 0.01 0.04 0.10 0.10 0.05 0.02 0.01 0.01 0.00 0.00 0.00 0.02 0.05 0.03 0.02 0.00 0.00 0.00 0.00 0.00 0.00 0.00 0.00 0.00 0.00 0.00 0.00 0.00 0.00 0.00 0.00 0.00 0.01 0.01 0.02 0.02 0.04 0.06
0.00 0.01 0.01 0.01 0.02 0.01 0.01 0.02 0.03 0.02 0.01 0.00 0.00 0.00 0.00 0.00 0.00 0.00 0.01 0.02 0.01 0.00 0.00 0.00 0.00 0.00 0.00 0.00 0.00 0.00 0.00 0.00 0.00 0.00 0.00 0.00 0.00 0.01 0.01 0.01 0.01 0.02 0.03 0.05
0.00 0.00 0.01 0.01 0.01 0.00 0.00 0.01 0.00 0.01 0.01 0.00 0.00 0.00 0.00 0.00 0.00 0.00 0.00 0.01 0.01 0.00 0.00 0.00 0.00 0.00 0.00 0.00 0.00 0.00 0.00 0.00 0.00 0.00 0.00 0.00 0.01 0.01 0.01 0.01 0.02 0.02 0.02 0.05
0.00 0.01 0.01 0.01 0.00 0.00 0.00 0.00 0.00 0.00 0.00 0.00 0.00 0.00 0.00 0.00 0.00 0.00 0.00 0.01 0.00 0.00 0.00 0.00 0.00 0.00 0.00 0.00 0.00 0.00 0.00 0.00 0.00 0.00 0.00 0.00 0.01 0.01 0.01 0.01 0.01 0.02 0.02 0.04
0.00 0.00 0.01 0.00 0.00 0.00 0.00 0.00 0.00 0.01 0.00 0.00 0.00 0.00 0.00 0.00 0.00 0.00 0.00 0.00 0.00 0.00 0.00 0.00 0.00 0.00 0.00 0.00 0.00 0.00 0.00 0.00 0.00 0.00 0.00 0.00 0.01 0.01 0.01 0.02 0.02 0.01 0.01 0.02

GEFSCGP_prec_meanprecacc_066.txt.gz
Total_Precipitation_Accumulation
0.01 0.00 0.04 0.06 0.06 0.07 0.06 0.05 0.06 0.08 0.09 0.09 0.10 0.12 0.14 0.14 0.13 0.12 0.11 0.12 0.13 0.12 0.13 0.15 0.19 0.22 0.22 0.22 0.25 0.31 0.34 0.42 0.50 0.58 0.72 0.94 1.21 1.31 1.39 1.34 1.16 1.11 1.22 1.44
0.00 0.00 0.00 0.01 0.02 0.03 0.05 0.07 0.06 0.05 0.05 0.06 0.08 0.09 0.09 0.11 0.12 0.12 0.11 0.10 0.10 0.09 0.07 0.07 0.10 0.13 0.15 0.15 0.17 0.22 0.30 0.39 0.48 0.57 0.74 0.90 1.05 1.05 1.21 1.35 1.31 1.22 1.21 1.35
0.00 0.00 0.00 0.00 0.01 0.03 0.06 0.09 0.11 0.11 0.07 0.05 0.06 0.09 0.08 0.09 0.11 0.11 0.12 0.11 0.10 0.08 0.06 0.06 0.06 0.08 0.09 0.10 0.12 0.15 0.22 0.32 0.45 0.61 0.84 1.05 1.24 1.32 1.37 1.29 1.36 1.36 1.28 1.31
0.00 0.00 0.00 0.01 0.02 0.03 0.06 0.05 0.06 0.09 0.14 0.14 0.15 0.19 0.14 0.15 0.18 0.18 0.18 0.15 0.14 0.12 0.09 0.06 0.06 0.07 0.07 0.08 0.08 0.12 0.20 0.35 0.56 0.77 1.03 1.28 1.49 1.51 1.40 1.45 1.47 1.34 1.26 1.22
0.00 0.00 0.00 0.00 0.01 0.01 0.02 0.02 0.03 0.07 0.12 0.11 0.10 0.17 0.16 0.22 0.30 0.32 0.30 0.26 0.20 0.16 0.13 0.12 0.11 0.12 0.13 0.14 0.16 0.23 0.43 0.68 0.93 1.14 1.40 1.69 1.69 1.57 1.48 1.47 1.44 1.38 1.37 1.34
0.00 0.00 0.00 0.00 0.00 0.00 0.01 0.02 0.05 0.08 0.11 0.07 0.06 0.13 0.24 0.28 0.33 0.37 0.36 0.30 0.23 0.19 0.22 0.27 0.31 0.37 0.41 0.44 0.58 0.79 1.05 1.24 1.33 1.45 1.60 1.72 1.70 1.71 1.65 1.46 1.37 1.35 1.37 1.42
0.00 0.00 0.00 0.00 0.00 0.00 0.01 0.04 0.10 0.12 0.14 0.12 0.12 0.27 0.38 0.34 0.29 0.29 0.30 0.25 0.20 0.24 0.33 0.45 0.61 0.74 0.84 0.96 1.08 1.22 1.42 1.56 1.50 1.47 1.52 1.55 1.57 1.56 1.55 1.48 1.38 1.32 1.32 1.32
0.00 0.00 0.00 0.00 0.01 0.01 0.02 0.07 0.18 0.23 0.21 0.23 0.27 0.47 0.52 0.41 0.31 0.22 0.17 0.16 0.24 0.38 0.52 0.63 0.72 0.83 1.00 1.14 1.19 1.19 1.30 1.40 1.35 1.33 1.31 1.28 1.34 1.36 1.32 1.23 1.22 1.25 1.31 1.28
0.00 0.00 0.00 0.00 0.01 0.02 0.04 0.06 0.14 0.27 0.23 0.23 0.35 0.61 0.57 0.37 0.31 0.25 0.22 0.25 0.38 0.58 0.79 0.94 1.04 1.17 1.21 1.25 1.30 1.22 1.21 1.25 1.25 1.17 1.09 1.09 1.14 1.19 1.22 1.16 1.17 1.14 1.12 1.05
0.00 0.01 0.00 0.00 0.01 0.03 0.09 0.16 0.24 0.42 0.46 0.45 0.54 0.65 0.58 0.46 0.43 0.45 0.52 0.61 0.67 0.78 1.03 1.32 1.57 1.74 1.57 1.30 1.18 1.13 1.06 1.06 1.14 1.11 1.04 1.01 1.09 1.10 1.09 1.12 1.10 1.08 1.06 0.96
0.00 0.02 0.00 0.00 0.03 0.08 0.15 0.26 0.34 0.46 0.56 0.70 0.88 0.97 0.83 0.86 0.88 0.95 1.06 1.10 1.10 1.21 1.19 1.34 1.53 1.70 1.60 1.28 1.05 1.05 1.06 1.01 0.99 0.99 1.01 1.00 0.98 0.90 0.88 0.93 0.95 0.94 0.93 0.93
0.00 0.04 0.02 0.02 0.08 0.16 0.27 0.38 0.52 0.69 0.63 0.69 0.89 1.06 0.95 0.94 0.96 1.05 1.23 1.30 1.29 1.20 1.10 1.09 1.13 1.20 1.21 1.06 0.87 0.83 0.96 1.01 0.95 0.92 0.95 0.94 0.85 0.80 0.77 0.75 0.72 0.65 0.63 0.64
0.02 0.09 0.10 0.09 0.23 0.35 0.53 0.60 0.48 0.46 0.51 0.61 0.83 0.83 0.62 0.57 0.73 0.89 1.04 1.13 1.05 1.00 1.07 1.03 0.95 0.88 0.91 0.88 0.80 0.76 0.89 1.03 1.05 1.00 0.86 0.78 0.74 0.70 0.69 0.60 0.56 0.54 0.49 0.48
0.01 0.08 0.13 0.20 0.29 0.41 0.62 0.71 0.55 0.44 0.49 0.50 0.56 0.50 0.36 0.42 0.58 0.65 0.69 0.70 0.70 0.74 0.77 0.71 0.66 0.61 0.60 0.63 0.67 0.73 0.83 0.90 1.02 1.11 1.01 0.86 0.77 0.69 0.63 0.55 0.53 0.51 0.49 0.49
0.00 0.01 0.03 0.06 0.08 0.17 0.36 0.47 0.38 0.27 0.24 0.31 0.32 0.33 0.37 0.45 0.55 0.53 0.48 0.42 0.40 0.41 0.38 0.37 0.36 0.34 0.33 0.33 0.34 0.43 0.55 0.70 0.89 1.09 1.07 0.92 0.86 0.78 0.65 0.59 0.60 0.57 0.60 0.56
0.00 0.00 0.00 0.02 0.04 0.07 0.17 0.20 0.16 0.09 0.12 0.23 0.29 0.35 0.40 0.46 0.53 0.50 0.42 0.34 0.27 0.26 0.25 0.24 0.22 0.20 0.16 0.14 0.16 0.17 0.25 0.42 0.59 0.75 0.81 0.77 0.69 0.61 0.58 0.57 0.55 0.52 0.50 0.47
0.00 0.00 0.01 0.01 0.02 0.04 0.11 0.11 0.12 0.15 0.15 0.16 0.25 0.37 0.46 0.58 0.76 0.67 0.49 0.41 0.28 0.20 0.19 0.18 0.19 0.18 0.17 0.16 0.14 0.14 0.17 0.24 0.35 0.47 0.56 0.55 0.49 0.43 0.40 0.45 0.45 0.43 0.39 0.40
0.00 0.02 0.06 0.05 0.08 0.19 0.24 0.19 0.26 0.34 0.26 0.21 0.28 0.36 0.50 0.83 1.03 0.65 0.42 0.38 0.31 0.21 0.18 0.16 0.16 0.15 0.13 0.12 0.11 0.11 0.14 0.17 0.18 0.22 0.26 0.27 0.28 0.27 0.29 0.31 0.32 0.33 0.32 0.30
0.00 0.03 0.08 0.10 0.13 0.39 0.36 0.18 0.31 0.36 0.30 0.24 0.31 0.37 0.39 0.45 0.41 0.24 0.14 0.16 0.18 0.12 0.09 0.08 0.07 0.06 0.05 0.04 0.04 0.04 0.05 0.05 0.05 0.06 0.08 0.10 0.12 0.14 0.17 0.18 0.21 0.30 0.33 0.34
0.00 0.02 0.06 0.07 0.08 0.23 0.27 0.10 0.17 0.25 0.30 0.12 0.14 0.16 0.11 0.07 0.08 0.10 0.09 0.06 0.05 0.03 0.02 0.02 0.01 0.01 0.01 0.00 0.00 0.00 0.00 0.00 0.00 0.00 0.00 0.01 0.01 0.02 0.05 0.08 0.11 0.17 0.24 0.31
0.00 0.01 0.02 0.02 0.04 0.07 0.05 0.05 0.10 0.24 0.27 0.07 0.04 0.03 0.01 0.00 0.01 0.05 0.09 0.05 0.03 0.01 0.00 0.00 0.00 0.00 0.00 0.00 0.00 0.00 0.00 0.00 0.00 0.00 0.00 0.00 0.00 0.00 0.01 0.02 0.03 0.06 0.11 0.15
0.00 0.01 0.01 0.01 0.02 0.03 0.01 0.04 0.10 0.10 0.05 0.02 0.01 0.01 0.00 0.00 0.00 0.02 0.05 0.03 0.02 0.00 0.00 0.00 0.00 0.00 0.00 0.00 0.00 0.00 0.00 0.00 0.00 0.00 0.00 0.00 0.00 0.00 0.01 0.01 0.02 0.02 0.04 0.06
0.00 0.01 0.01 0.01 0.02 0.01 0.01 0.02 0.03 0.02 0.01 0.00 0.00 0.00 0.00 0.00 0.00 0.00 0.01 0.02 0.01 0.00 0.00 0.00 0.00 0.00 0.00 0.00 0.00 0.00 0.00 0.00 0.00 0.00 0.00 0.00 0.00 0.01 0.01 0.01 0.01 0.02 0.03 0.06
0.00 0.00 0.01 0.01 0.01 0.00 0.00 0.01 0.00 0.01 0.01 0.00 0.00 0.00 0.00 0.00 0.00 0.00 0.00 0.01 0.01 0.00 0.00 0.00 0.00 0.00 0.00 0.00 0.00 0.00 0.00 0.00 0.00 0.00 0.00 0.00 0.01 0.01 0.01 0.01 0.02 0.02 0.02 0.05
0.00 0.01 0.01 0.01 0.00 0.00 0.00 0.00 0.00 0.00 0.00 0.00 0.00 0.00 0.00 0.00 0.00 0.00 0.00 0.01 0.00 0.00 0.00 0.00 0.00 0.00 0.00 0.00 0.00 0.00 0.00 0.00 0.00 0.00 0.00 0.00 0.01 0.01 0.01 0.01 0.01 0.02 0.02 0.04
0.00 0.00 0.01 0.00 0.00 0.00 0.00 0.00 0.00 0.01 0.00 0.00 0.00 0.00 0.00 0.00 0.00 0.00 0.00 0.00 0.00 0.00 0.00 0.00 0.00 0.00 0.00 0.00 0.00 0.00 0.00 0.00 0.00 0.00 0.00 0.00 0.01 0.01 0.01 0.02 0.02 0.01 0.01 0.02

GEFSCGP_prec_meanprecacc_072.txt.gz
Total_Precipitation_Accumulation
0.02 0.01 0.04 0.06 0.06 0.07 0.07 0.05 0.06 0.08 0.09 0.09 0.10 0.12 0.14 0.14 0.13 0.12 0.11 0.12 0.13 0.12 0.13 0.15 0.19 0.22 0.22 0.22 0.25 0.31 0.34 0.42 0.50 0.58 0.72 0.94 1.21 1.31 1.40 1.35 1.17 1.12 1.24 1.48
0.01 0.00 0.00 0.01 0.02 0.03 0.05 0.07 0.06 0.05 0.05 0.06 0.08 0.09 0.09 0.11 0.12 0.12 0.11 0.10 0.10 0.09 0.07 0.07 0.10 0.13 0.15 0.15 0.17 0.22 0.30 0.39 0.48 0.57 0.75 0.91 1.05 1.05 1.22 1.36 1.33 1.23 1.22 1.37
0.00 0.00 0.00 0.00 0.01 0.03 0.06 0.09 0.11 0.11 0.07 0.05 0.06 0.09 0.08 0.09 0.11 0.11 0.12 0.11 0.10 0.08 0.06 0.06 0.06 0.08 0.09 0.10 0.12 0.15 0.22 0.32 0.45 0.61 0.85 1.06 1.25 1.33 1.38 1.30 1.37 1.37 1.28 1.31
0.00 0.00 0.00 0.01 0.02 0.03 0.06 0.05 0.06 0.09 0.14 0.14 0.15 0.19 0.14 0.15 0.18 0.18 0.18 0.15 0.14 0.12 0.09 0.06 0.06 0.07 0.07 0.08 0.09 0.12 0.20 0.35 0.56 0.77 1.03 1.29 1.49 1.53 1.42 1.45 1.48 1.35 1.26 1.22
0.00 0.00 0.00 0.00 0.01 0.01 0.02 0.02 0.03 0.07 0.12 0.11 0.10 0.17 0.16 0.22 0.30 0.32 0.30 0.26 0.20 0.16 0.13 0.12 0.11 0.12 0.13 0.14 0.16 0.23 0.43 0.68 0.93 1.14 1.40 1.70 1.70 1.58 1.49 1.48 1.45 1.39 1.37 1.35
0.00 0.00 0.00 0.00 0.00 0.00 0.01 0.02 0.05 0.08 0.11 0.07 0.06 0.13 0.24 0.28 0.33 0.37 0.36 0.30 0.23 0.19 0.22 0.27 0.31 0.37 0.41 0.44 0.58 0.79 1.05 1.24 1.33 1.45 1.60 1.73 1.70 1.72 1.66 1.47 1.38 1.36 1.39 1.43
0.00 0.00 0.00 0.00 0.00 0.00 0.01 0.04 0.10 0.12 0.14 0.12 0.12 0.27 0.38 0.34 0.29 0.29 0.30 0.25 0.20 0.24 0.33 0.45 0.61 0.74 0.84 0.96 1.08 1.22 1.42 1.56 1.50 1.47 1.52 1.56 1.57 1.57 1.55 1.49 1.39 1.33 1.33 1.35
0.00 0.00 0.00 0.00 0.01 0.01 0.02 0.07 0.18 0.23 0.21 0.23 0.27 0.47 0.52 0.41 0.31 0.22 0.17 0.16 0.24 0.38 0.52 0.63 0.72 0.83 1.00 1.14 1.19 1.19 1.30 1.40 1.36 1.33 1.31 1.28 1.34 1.37 1.33 1.25 1.24 1.27 1.33 1.31
0.00 0.00 0.00 0.00 0.01 0.02 0.04 0.06 0.14 0.27 0.23 0.23 0.35 0.61 0.57 0.37 0.31 0.25 0.22 0.25 0.38 0.58 0.79 0.94 1.04 1.17 1.21 1.25 1.30 1.22 1.21 1.25 1.25 1.17 1.09 1.09 1.15 1.20 1.22 1.17 1.19 1.16 1.15 1.07
0.00 0.01 0.00 0.00 0.01 0.03 0.09 0.16 0.24 0.42 0.46 0.45 0.54 0.65 0.58 0.46 0.43 0.45 0.52 0.61 0.67 0.78 1.03 1.32 1.57 1.74 1.57 1.30 1.18 1.13 1.06 1.06 1.14 1.11 1.04 1.01 1.10 1.11 1.09 1.13 1.10 1.09 1.08 0.98
0.00 0.02 0.00 0.00 0.03 0.08 0.15 0.26 0.34 0.46 0.56 0.70 0.88 0.97 0.83 0.86 0.88 0.95 1.06 1.10 1.10 1.21 1.19 1.34 1.53 1.70 1.60 1.28 1.05 1.05 1.06 1.01 0.99 0.99 1.01 1.00 0.99 0.90 0.89 0.94 0.95 0.94 0.94 0.96
0.00 0.04 0.02 0.02 0.08 0.16 0.27 0.38 0.52 0.69 0.63 0.69 0.89 1.06 0.95 0.94 0.96 1.05 1.23 1.30 1.29 1.20 1.10 1.09 1.13 1.20 1.21 1.06 0.87 0.83 0.96 1.01 0.95 0.92 0.95 0.94 0.85 0.81 0.77 0.76 0.73 0.66 0.63 0.66
0.02 0.09 0.10 0.09 0.23 0.35 0.53 0.60 0.48 0.46 0.51 0.61 0.83 0.83 0.62 0.57 0.73 0.89 1.04 1.13 1.05 1.00 1.07 1.03 0.95 0.88 0.91 0.88 0.80 0.76 0.89 1.03 1.05 1.00 0.86 0.78 0.74 0.71 0.69 0.61 0.57 0.55 0.49 0.49
0.01 0.08 0.13 0.20 0.29 0.41 0.62 0.71 0.55 0.44 0.49 0.50 0.56 0.50 0.36 0.42 0.58 0.65 0.69 0.70 0.70 0.74 0.77 0.71 0.66 0.61 0.60 0.63 0.67 0.73 0.83 0.90 1.02 1.11 1.01 0.86 0.77 0.70 0.64 0.56 0.54 0.51 0.49 0.50
0.00 0.01 0.03 0.06 0.08 0.17 0.36 0.47 0.38 0.27 0.24 0.31 0.32 0.33 0.37 0.45 0.55 0.53 0.48 0.42 0.40 0.41 0.38 0.37 0.36 0.34 0.33 0.33 0.34 0.43 0.55 0.70 0.89 1.09 1.07 0.92 0.86 0.78 0.65 0.60 0.60 0.57 0.61 0.56
0.00 0.00 0.00 0.02 0.04 0.07 0.17 0.20 0.16 0.09 0.12 0.23 0.29 0.35 0.40 0.46 0.53 0.50 0.42 0.34 0.27 0.26 0.25 0.24 0.22 0.20 0.16 0.14 0.16 0.17 0.25 0.42 0.59 0.75 0.81 0.77 0.69 0.61 0.58 0.57 0.55 0.52 0.50 0.47
0.00 0.00 0.01 0.01 0.02 0.04 0.11 0.11 0.12 0.15 0.15 0.16 0.25 0.37 0.46 0.58 0.76 0.67 0.49 0.41 0.28 0.20 0.19 0.18 0.19 0.18 0.17 0.16 0.14 0.14 0.17 0.24 0.35 0.47 0.56 0.55 0.49 0.43 0.40 0.45 0.45 0.43 0.39 0.40
0.00 0.02 0.06 0.05 0.08 0.19 0.24 0.19 0.26 0.34 0.26 0.21 0.28 0.36 0.50 0.83 1.03 0.65 0.42 0.38 0.31 0.21 0.18 0.16 0.16 0.15 0.13 0.12 0.11 0.11 0.14 0.17 0.18 0.22 0.26 0.27 0.28 0.27 0.29 0.31 0.32 0.33 0.32 0.30
0.00 0.03 0.08 0.10 0.13 0.39 0.36 0.18 0.31 0.36 0.30 0.24 0.31 0.37 0.39 0.45 0.41 0.24 0.14 0.16 0.18 0.12 0.09 0.08 0.07 0.06 0.05 0.04 0.04 0.04 0.05 0.05 0.05 0.06 0.08 0.10 0.12 0.14 0.17 0.18 0.21 0.30 0.33 0.34
0.00 0.02 0.06 0.07 0.08 0.23 0.27 0.10 0.17 0.25 0.30 0.12 0.14 0.16 0.11 0.07 0.08 0.10 0.09 0.06 0.05 0.03 0.02 0.02 0.01 0.01 0.01 0.00 0.00 0.00 0.00 0.00 0.00 0.00 0.00 0.01 0.01 0.02 0.05 0.08 0.11 0.17 0.24 0.31
0.00 0.01 0.02 0.02 0.04 0.07 0.05 0.05 0.10 0.24 0.27 0.07 0.04 0.03 0.01 0.00 0.01 0.05 0.09 0.05 0.03 0.01 0.00 0.00 0.00 0.00 0.00 0.00 0.00 0.00 0.00 0.00 0.00 0.00 0.00 0.00 0.00 0.00 0.01 0.02 0.03 0.06 0.11 0.15
0.00 0.01 0.01 0.01 0.02 0.03 0.01 0.04 0.10 0.10 0.05 0.02 0.01 0.01 0.00 0.00 0.00 0.02 0.05 0.03 0.02 0.00 0.00 0.00 0.00 0.00 0.00 0.00 0.00 0.00 0.00 0.00 0.00 0.00 0.00 0.00 0.00 0.00 0.01 0.01 0.02 0.02 0.04 0.06
0.00 0.01 0.01 0.01 0.02 0.01 0.01 0.02 0.03 0.02 0.01 0.00 0.00 0.00 0.00 0.00 0.00 0.00 0.01 0.02 0.01 0.00 0.00 0.00 0.00 0.00 0.00 0.00 0.00 0.00 0.00 0.00 0.00 0.00 0.00 0.00 0.00 0.01 0.01 0.01 0.01 0.02 0.03 0.06
0.00 0.00 0.01 0.01 0.01 0.00 0.00 0.01 0.00 0.01 0.01 0.00 0.00 0.00 0.00 0.00 0.00 0.00 0.00 0.01 0.01 0.00 0.00 0.00 0.00 0.00 0.00 0.00 0.00 0.00 0.00 0.00 0.00 0.00 0.00 0.00 0.01 0.01 0.01 0.01 0.02 0.02 0.02 0.05
0.00 0.01 0.01 0.01 0.00 0.00 0.00 0.00 0.00 0.00 0.00 0.00 0.00 0.00 0.00 0.00 0.00 0.00 0.00 0.01 0.00 0.00 0.00 0.00 0.00 0.00 0.00 0.00 0.00 0.00 0.00 0.00 0.00 0.00 0.00 0.00 0.01 0.01 0.01 0.01 0.01 0.02 0.02 0.04
0.00 0.00 0.01 0.00 0.00 0.00 0.00 0.00 0.00 0.01 0.00 0.00 0.00 0.00 0.00 0.00 0.00 0.00 0.00 0.00 0.00 0.00 0.00 0.00 0.00 0.00 0.00 0.00 0.00 0.00 0.00 0.00 0.00 0.00 0.00 0.00 0.01 0.01 0.01 0.02 0.02 0.01 0.01 0.02

GEFSCGP_prec_meanprecacc_078.txt.gz
Total_Precipitation_Accumulation
0.02 0.01 0.04 0.08 0.09 0.11 0.08 0.06 0.06 0.08 0.09 0.09 0.10 0.12 0.14 0.14 0.13 0.12 0.12 0.12 0.13 0.12 0.13 0.15 0.19 0.22 0.22 0.22 0.25 0.31 0.34 0.42 0.50 0.58 0.73 0.95 1.22 1.33 1.42 1.37 1.20 1.14 1.26 1.49
0.01 0.01 0.02 0.04 0.06 0.07 0.07 0.07 0.06 0.05 0.05 0.06 0.08 0.09 0.09 0.11 0.12 0.12 0.11 0.10 0.10 0.09 0.07 0.07 0.10 0.13 0.15 0.15 0.17 0.22 0.30 0.39 0.48 0.57 0.75 0.91 1.06 1.07 1.23 1.39 1.36 1.27 1.25 1.39
0.01 0.01 0.01 0.01 0.03 0.04 0.07 0.09 0.11 0.11 0.07 0.05 0.06 0.09 0.08 0.09 0.11 0.11 0.12 0.11 0.10 0.08 0.06 0.06 0.06 0.08 0.09 0.10 0.12 0.15 0.22 0.32 0.45 0.61 0.85 1.07 1.26 1.34 1.40 1.32 1.41 1.41 1.33 1.35
0.03 0.02 0.01 0.01 0.02 0.03 0.06 0.05 0.06 0.09 0.14 0.14 0.15 0.19 0.14 0.15 0.18 0.18 0.18 0.15 0.14 0.12 0.09 0.06 0.06 0.07 0.07 0.08 0.09 0.12 0.20 0.35 0.56 0.78 1.04 1.30 1.50 1.53 1.43 1.47 1.50 1.37 1.29 1.25
0.02 0.01 0.00 0.00 0.01 0.01 0.02 0.02 0.03 0.07 0.12 0.11 0.10 0.17 0.16 0.22 0.30 0.32 0.30 0.26 0.20 0.16 0.13 0.12 0.11 0.12 0.13 0.14 0.16 0.23 0.43 0.68 0.93 1.14 1.41 1.70 1.70 1.59 1.50 1.49 1.46 1.40 1.39 1.37
0.01 0.00 0.00 0.00 0.00 0.00 0.01 0.02 0.05 0.08 0.11 0.07 0.06 0.13 0.24 0.28 0.33 0.37 0.36 0.30 0.23 0.19 0.22 0.27 0.31 0.37 0.41 0.44 0.58 0.79 1.05 1.24 1.33 1.46 1.61 1.73 1.71 1.72 1.66 1.48 1.38 1.37 1.41 1.47
0.01 0.00 0.00 0.00 0.00 0.00 0.01 0.04 0.10 0.12 0.14 0.12 0.12 0.27 0.38 0.34 0.29 0.29 0.30 0.25 0.20 0.24 0.33 0.45 0.61 0.74 0.84 0.96 1.08 1.22 1.42 1.56 1.50 1.47 1.52 1.56 1.57 1.57 1.56 1.50 1.40 1.34 1.35 1.36
0.00 0.00 0.00 0.00 0.01 0.01 0.02 0.07 0.18 0.23 0.21 0.23 0.27 0.47 0.52 0.41 0.31 0.22 0.17 0.16 0.24 0.38 0.52 0.63 0.72 0.83 1.00 1.14 1.19 1.19 1.30 1.40 1.36 1.33 1.31 1.28 1.34 1.37 1.34 1.26 1.25 1.28 1.34 1.32
0.00 0.00 0.00 0.00 0.01 0.02 0.04 0.06 0.14 0.27 0.23 0.23 0.35 0.61 0.57 0.37 0.31 0.25 0.22 0.25 0.38 0.58 0.79 0.94 1.04 1.17 1.21 1.25 1.30 1.22 1.21 1.25 1.25 1.17 1.09 1.09 1.15 1.20 1.23 1.17 1.19 1.17 1.16 1.08
0.01 0.01 0.00 0.00 0.01 0.03 0.09 0.16 0.24 0.42 0.46 0.45 0.54 0.65 0.58 0.46 0.43 0.45 0.52 0.61 0.67 0.78 1.03 1.32 1.57 1.74 1.57 1.30 1.18 1.13 1.06 1.06 1.14 1.11 1.04 1.01 1.10 1.11 1.10 1.13 1.10 1.10 1.09 1.00
0.00 0.02 0.01 0.00 0.03 0.08 0.15 0.26 0.34 0.46 0.56 0.70 0.88 0.97 0.83 0.86 0.88 0.95 1.06 1.10 1.10 1.21 1.19 1.34 1.53 1.70 1.60 1.28 1.05 1.05 1.06 1.01 0.99 0.99 1.01 1.00 0.99 0.90 0.89 0.94 0.95 0.94 0.95 0.98
0.00 0.04 0.02 0.02 0.08 0.16 0.27 0.38 0.52 0.69 0.63 0.69 0.89 1.06 0.95 0.94 0.96 1.05 1.23 1.30 1.29 1.20 1.10 1.09 1.13 1.20 1.21 1.06 0.87 0.83 0.96 1.01 0.95 0.92 0.95 0.94 0.85 0.81 0.77 0.76 0.73 0.66 0.64 0.67
0.02 0.09 0.10 0.09 0.23 0.35 0.53 0.60 0.48 0.46 0.51 0.61 0.83 0.83 0.62 0.57 0.73 0.89 1.04 1.13 1.05 1.00 1.07 1.03 0.95 0.88 0.91 0.88 0.80 0.76 0.89 1.03 1.05 1.00 0.86 0.78 0.74 0.71 0.69 0.61 0.57 0.55 0.50 0.50
0.01 0.08 0.13 0.20 0.29 0.41 0.62 0.71 0.55 0.44 0.49 0.50 0.56 0.50 0.36 0.42 0.58 0.65 0.69 0.70 0.70 0.74 0.77 0.71 0.66 0.61 0.60 0.63 0.67 0.73 0.83 0.90 1.02 1.11 1.01 0.86 0.77 0.70 0.64 0.57 0.54 0.51 0.49 0.51
0.00 0.01 0.03 0.06 0.08 0.17 0.36 0.47 0.38 0.27 0.24 0.31 0.32 0.33 0.37 0.45 0.55 0.53 0.48 0.42 0.40 0.41 0.38 0.37 0.36 0.34 0.33 0.33 0.34 0.43 0.55 0.70 0.89 1.09 1.07 0.92 0.86 0.78 0.65 0.60 0.60 0.58 0.61 0.57
0.00 0.00 0.00 0.02 0.04 0.07 0.17 0.20 0.16 0.09 0.12 0.23 0.29 0.35 0.40 0.46 0.53 0.50 0.42 0.34 0.27 0.26 0.25 0.24 0.22 0.20 0.16 0.14 0.16 0.17 0.25 0.42 0.59 0.75 0.81 0.77 0.69 0.61 0.58 0.57 0.55 0.52 0.51 0.47
0.00 0.00 0.01 0.01 0.02 0.04 0.11 0.11 0.12 0.15 0.15 0.16 0.25 0.37 0.46 0.58 0.76 0.67 0.49 0.41 0.28 0.20 0.19 0.18 0.19 0.18 0.17 0.16 0.14 0.14 0.17 0.24 0.35 0.47 0.56 0.55 0.49 0.43 0.40 0.45 0.45 0.43 0.39 0.40
0.00 0.02 0.06 0.05 0.08 0.19 0.24 0.19 0.26 0.34 0.26 0.21 0.28 0.36 0.50 0.83 1.03 0.65 0.42 0.38 0.31 0.21 0.18 0.16 0.16 0.15 0.13 0.12 0.11 0.11 0.14 0.17 0.18 0.22 0.26 0.27 0.28 0.27 0.29 0.31 0.32 0.33 0.32 0.30
0.00 0.03 0.08 0.10 0.13 0.39 0.36 0.18 0.31 0.36 0.30 0.24 0.31 0.37 0.39 0.45 0.41 0.24 0.14 0.16 0.18 0.12 0.09 0.08 0.07 0.06 0.05 0.04 0.04 0.04 0.05 0.05 0.05 0.06 0.08 0.10 0.12 0.14 0.17 0.18 0.21 0.30 0.33 0.34
0.00 0.02 0.06 0.07 0.08 0.23 0.27 0.10 0.17 0.25 0.30 0.12 0.14 0.16 0.11 0.07 0.08 0.10 0.09 0.06 0.05 0.03 0.02 0.02 0.01 0.01 0.01 0.00 0.00 0.00 0.00 0.00 0.00 0.00 0.00 0.01 0.01 0.02 0.05 0.08 0.11 0.17 0.24 0.31
0.00 0.01 0.02 0.02 0.04 0.07 0.05 0.05 0.10 0.24 0.27 0.07 0.04 0.03 0.01 0.00 0.01 0.05 0.09 0.05 0.03 0.01 0.00 0.00 0.00 0.00 0.00 0.00 0.00 0.00 0.00 0.00 0.00 0.00 0.00 0.00 0.00 0.00 0.01 0.02 0.03 0.06 0.11 0.15
0.00 0.01 0.01 0.01 0.02 0.03 0.01 0.04 0.10 0.10 0.05 0.02 0.01 0.01 0.00 0.00 0.00 0.02 0.05 0.03 0.02 0.00 0.00 0.00 0.00 0.00 0.00 0.00 0.00 0.00 0.00 0.00 0.00 0.00 0.00 0.00 0.00 0.00 0.01 0.01 0.02 0.02 0.04 0.06
0.00 0.01 0.01 0.01 0.02 0.01 0.01 0.02 0.03 0.02 0.01 0.00 0.00 0.00 0.00 0.00 0.00 0.00 0.01 0.02 0.01 0.00 0.00 0.00 0.00 0.00 0.00 0.00 0.00 0.00 0.00 0.00 0.00 0.00 0.00 0.00 0.00 0.01 0.01 0.01 0.01 0.02 0.03 0.06
0.00 0.00 0.01 0.01 0.01 0.00 0.00 0.01 0.00 0.01 0.01 0.00 0.00 0.00 0.00 0.00 0.00 0.00 0.00 0.01 0.01 0.00 0.00 0.00 0.00 0.00 0.00 0.00 0.00 0.00 0.00 0.00 0.00 0.00 0.00 0.00 0.01 0.01 0.01 0.01 0.02 0.02 0.02 0.05
0.00 0.01 0.01 0.01 0.00 0.00 0.00 0.00 0.00 0.00 0.00 0.00 0.00 0.00 0.00 0.00 0.00 0.00 0.00 0.01 0.00 0.00 0.00 0.00 0.00 0.00 0.00 0.00 0.00 0.00 0.00 0.00 0.00 0.00 0.00 0.00 0.01 0.01 0.01 0.01 0.01 0.02 0.02 0.04
0.00 0.00 0.01 0.00 0.00 0.00 0.00 0.00 0.00 0.01 0.00 0.00 0.00 0.00 0.00 0.00 0.00 0.00 0.00 0.00 0.00 0.00 0.00 0.00 0.00 0.00 0.00 0.00 0.00 0.00 0.00 0.00 0.00 0.00 0.00 0.00 0.01 0.01 0.01 0.02 0.02 0.01 0.01 0.02

GEFSCGP_prec_meanprecacc_084.txt.gz
Total_Precipitation_Accumulation
0.04 0.05 0.10 0.16 0.19 0.20 0.15 0.10 0.08 0.09 0.10 0.11 0.11 0.12 0.14 0.14 0.13 0.12 0.12 0.12 0.13 0.12 0.13 0.15 0.19 0.22 0.22 0.22 0.25 0.31 0.34 0.42 0.50 0.58 0.73 0.95 1.22 1.33 1.42 1.38 1.20 1.15 1.27 1.50
0.06 0.05 0.07 0.11 0.14 0.15 0.13 0.10 0.07 0.06 0.06 0.07 0.08 0.09 0.09 0.11 0.13 0.12 0.11 0.11 0.10 0.09 0.07 0.07 0.10 0.13 0.15 0.15 0.17 0.22 0.30 0.39 0.48 0.57 0.75 0.91 1.06 1.07 1.24 1.40 1.37 1.28 1.27 1.41
0.07 0.05 0.06 0.07 0.08 0.09 0.11 0.11 0.11 0.11 0.07 0.05 0.06 0.09 0.08 0.09 0.11 0.11 0.12 0.11 0.10 0.08 0.06 0.06 0.06 0.08 0.09 0.10 0.12 0.15 0.22 0.32 0.45 0.61 0.85 1.07 1.26 1.34 1.40 1.33 1.42 1.42 1.34 1.36
0.13 0.09 0.06 0.06 0.06 0.07 0.09 0.06 0.07 0.10 0.14 0.14 0.15 0.19 0.14 0.15 0.18 0.18 0.18 0.15 0.14 0.12 0.09 0.06 0.06 0.07 0.07 0.08 0.09 0.12 0.20 0.35 0.56 0.78 1.04 1.30 1.50 1.53 1.43 1.47 1.50 1.38 1.30 1.25
0.12 0.07 0.04 0.04 0.04 0.04 0.04 0.02 0.03 0.07 0.12 0.11 0.10 0.17 0.16 0.22 0.30 0.32 0.30 0.26 0.20 0.16 0.13 0.12 0.11 0.12 0.13 0.14 0.16 0.23 0.43 0.68 0.93 1.14 1.41 1.70 1.70 1.59 1.50 1.50 1.46 1.40 1.40 1.37
0.08 0.05 0.03 0.02 0.02 0.01 0.01 0.02 0.05 0.08 0.11 0.07 0.06 0.13 0.24 0.28 0.33 0.37 0.36 0.30 0.23 0.19 0.22 0.27 0.31 0.37 0.41 0.44 0.58 0.79 1.05 1.24 1.33 1.46 1.61 1.73 1.71 1.72 1.66 1.48 1.38 1.37 1.41 1.47
0.05 0.03 0.01 0.01 0.01 0.01 0.01 0.04 0.10 0.12 0.14 0.12 0.12 0.27 0.38 0.34 0.29 0.29 0.30 0.25 0.20 0.24 0.33 0.45 0.61 0.74 0.84 0.96 1.08 1.22 1.42 1.56 1.50 1.47 1.52 1.56 1.57 1.57 1.56 1.50 1.40 1.34 1.35 1.36
0.04 0.02 0.01 0.00 0.01 0.01 0.02 0.07 0.18 0.23 0.21 0.23 0.27 0.47 0.52 0.41 0.31 0.22 0.17 0.16 0.24 0.38 0.52 0.63 0.72 0.83 1.00 1.14 1.19 1.19 1.30 1.40 1.36 1.33 1.31 1.28 1.34 1.37 1.34 1.26 1.25 1.28 1.34 1.32
0.02 0.01 0.00 0.00 0.01 0.02 0.04 0.06 0.14 0.27 0.23 0.23 0.35 0.61 0.57 0.37 0.31 0.25 0.22 0.25 0.38 0.58 0.79 0.94 1.04 1.17 1.21 1.25 1.30 1.22 1.21 1.25 1.25 1.17 1.09 1.09 1.15 1.20 1.23 1.18 1.19 1.17 1.16 1.08
0.02 0.02 0.00 0.00 0.01 0.03 0.09 0.16 0.24 0.42 0.46 0.45 0.54 0.65 0.58 0.46 0.43 0.45 0.52 0.61 0.67 0.78 1.03 1.32 1.57 1.74 1.57 1.30 1.18 1.13 1.06 1.06 1.14 1.11 1.04 1.01 1.10 1.11 1.10 1.13 1.10 1.10 1.09 1.00
0.01 0.03 0.01 0.01 0.03 0.08 0.15 0.26 0.34 0.46 0.56 0.70 0.88 0.97 0.83 0.86 0.88 0.95 1.06 1.10 1.10 1.21 1.19 1.34 1.53 1.70 1.60 1.28 1.05 1.05 1.06 1.01 0.99 0.99 1.01 1.00 0.99 0.90 0.89 0.94 0.95 0.94 0.95 0.98
0.00 0.04 0.02 0.02 0.08 0.16 0.27 0.38 0.52 0.69 0.63 0.69 0.89 1.06 0.95 0.94 0.96 1.05 1.23 1.30 1.29 1.20 1.10 1.09 1.13 1.20 1.21 1.06 0.87 0.83 0.96 1.01 0.95 0.92 0.95 0.94 0.85 0.81 0.77 0.76 0.73 0.66 0.64 0.67
0.02 0.09 0.10 0.09 0.23 0.35 0.53 0.60 0.48 0.46 0.51 0.61 0.83 0.83 0.62 0.57 0.73 0.89 1.04 1.13 1.05 1.00 1.07 1.03 0.95 0.88 0.91 0.88 0.80 0.76 0.89 1.03 1.05 1.00 0.86 0.78 0.74 0.71 0.69 0.61 0.57 0.55 0.50 0.50
0.01 0.08 0.13 0.20 0.29 0.41 0.62 0.71 0.55 0.44 0.49 0.50 0.56 0.50 0.36 0.42 0.58 0.65 0.69 0.70 0.70 0.74 0.77 0.71 0.66 0.61 0.60 0.63 0.67 0.73 0.83 0.90 1.02 1.11 1.01 0.86 0.77 0.70 0.64 0.57 0.54 0.51 0.49 0.51
0.00 0.01 0.03 0.06 0.08 0.17 0.36 0.47 0.38 0.27 0.24 0.31 0.32 0.33 0.37 0.45 0.55 0.53 0.48 0.42 0.40 0.41 0.38 0.37 0.36 0.34 0.33 0.33 0.34 0.43 0.55 0.70 0.89 1.09 1.07 0.92 0.86 0.78 0.65 0.60 0.60 0.58 0.61 0.57
0.00 0.00 0.00 0.02 0.04 0.07 0.17 0.20 0.16 0.09 0.12 0.23 0.29 0.35 0.40 0.46 0.53 0.50 0.42 0.34 0.27 0.26 0.25 0.24 0.22 0.20 0.16 0.14 0.16 0.17 0.25 0.42 0.59 0.75 0.81 0.77 0.69 0.61 0.58 0.57 0.55 0.52 0.51 0.47
0.00 0.00 0.01 0.01 0.02 0.04 0.11 0.11 0.12 0.15 0.15 0.16 0.25 0.37 0.46 0.58 0.76 0.67 0.49 0.41 0.28 0.20 0.19 0.18 0.19 0.18 0.17 0.16 0.14 0.14 0.17 0.24 0.35 0.47 0.56 0.55 0.49 0.43 0.40 0.45 0.45 0.43 0.39 0.40
0.00 0.02 0.06 0.05 0.08 0.19 0.24 0.19 0.26 0.34 0.26 0.21 0.28 0.36 0.50 0.83 1.03 0.65 0.42 0.38 0.31 0.21 0.18 0.16 0.16 0.15 0.13 0.12 0.11 0.11 0.14 0.17 0.18 0.22 0.26 0.27 0.28 0.27 0.29 0.31 0.32 0.33 0.32 0.30
0.00 0.03 0.08 0.10 0.13 0.39 0.36 0.18 0.31 0.36 0.30 0.24 0.31 0.37 0.39 0.45 0.41 0.24 0.14 0.16 0.18 0.12 0.09 0.08 0.07 0.06 0.05 0.04 0.04 0.04 0.05 0.05 0.05 0.06 0.08 0.10 0.12 0.14 0.17 0.18 0.21 0.30 0.33 0.34
0.00 0.02 0.06 0.07 0.08 0.23 0.27 0.10 0.17 0.25 0.30 0.12 0.14 0.16 0.11 0.07 0.08 0.10 0.09 0.06 0.05 0.03 0.02 0.02 0.01 0.01 0.01 0.00 0.00 0.00 0.00 0.00 0.00 0.00 0.00 0.01 0.01 0.02 0.05 0.08 0.11 0.17 0.24 0.31
0.00 0.01 0.02 0.02 0.04 0.07 0.05 0.05 0.10 0.24 0.27 0.07 0.04 0.03 0.01 0.00 0.01 0.05 0.09 0.05 0.03 0.01 0.00 0.00 0.00 0.00 0.00 0.00 0.00 0.00 0.00 0.00 0.00 0.00 0.00 0.00 0.00 0.00 0.01 0.02 0.03 0.06 0.11 0.15
0.00 0.01 0.01 0.01 0.02 0.03 0.01 0.04 0.10 0.10 0.05 0.02 0.01 0.01 0.00 0.00 0.00 0.02 0.05 0.03 0.02 0.00 0.00 0.00 0.00 0.00 0.00 0.00 0.00 0.00 0.00 0.00 0.00 0.00 0.00 0.00 0.00 0.00 0.01 0.01 0.02 0.02 0.04 0.06
0.00 0.01 0.01 0.01 0.02 0.01 0.01 0.02 0.03 0.02 0.01 0.00 0.00 0.00 0.00 0.00 0.00 0.00 0.01 0.02 0.01 0.00 0.00 0.00 0.00 0.00 0.00 0.00 0.00 0.00 0.00 0.00 0.00 0.00 0.00 0.00 0.00 0.01 0.01 0.01 0.01 0.02 0.03 0.06
0.00 0.00 0.01 0.01 0.01 0.00 0.00 0.01 0.00 0.01 0.01 0.00 0.00 0.00 0.00 0.00 0.00 0.00 0.00 0.01 0.01 0.00 0.00 0.00 0.00 0.00 0.00 0.00 0.00 0.00 0.00 0.00 0.00 0.00 0.00 0.00 0.01 0.01 0.01 0.01 0.02 0.02 0.02 0.05
0.00 0.01 0.01 0.01 0.00 0.00 0.00 0.00 0.00 0.00 0.00 0.00 0.00 0.00 0.00 0.00 0.00 0.00 0.00 0.01 0.00 0.00 0.00 0.00 0.00 0.00 0.00 0.00 0.00 0.00 0.00 0.00 0.00 0.00 0.00 0.00 0.01 0.01 0.01 0.01 0.01 0.02 0.02 0.04
0.00 0.00 0.01 0.00 0.00 0.00 0.00 0.00 0.00 0.01 0.00 0.00 0.00 0.00 0.00 0.00 0.00 0.00 0.00 0.00 0.00 0.00 0.00 0.00 0.00 0.00 0.00 0.00 0.00 0.00 0.00 0.00 0.00 0.00 0.00 0.00 0.01 0.01 0.01 0.02 0.02 0.01 0.01 0.02

GEFSCGP_prec_meanprecacc_090.txt.gz
Total_Precipitation_Accumulation
0.08 0.10 0.14 0.19 0.22 0.24 0.19 0.13 0.10 0.10 0.11 0.11 0.11 0.12 0.14 0.14 0.13 0.12 0.12 0.12 0.13 0.12 0.13 0.15 0.19 0.22 0.22 0.22 0.25 0.31 0.34 0.42 0.50 0.58 0.73 0.95 1.22 1.33 1.42 1.38 1.20 1.15 1.27 1.51
0.12 0.08 0.10 0.15 0.19 0.22 0.19 0.13 0.09 0.07 0.07 0.07 0.08 0.09 0.09 0.11 0.13 0.12 0.11 0.11 0.10 0.09 0.07 0.07 0.10 0.13 0.15 0.15 0.17 0.22 0.30 0.39 0.48 0.57 0.75 0.91 1.06 1.07 1.24 1.40 1.37 1.28 1.28 1.41
0.12 0.09 0.11 0.14 0.14 0.15 0.14 0.12 0.12 0.12 0.08 0.06 0.07 0.09 0.08 0.09 0.11 0.11 0.12 0.11 0.10 0.08 0.06 0.06 0.06 0.08 0.09 0.10 0.12 0.15 0.22 0.32 0.45 0.61 0.85 1.07 1.26 1.34 1.40 1.33 1.42 1.42 1.35 1.37
0.20 0.14 0.10 0.12 0.11 0.10 0.11 0.07 0.07 0.10 0.14 0.14 0.15 0.19 0.14 0.15 0.19 0.18 0.18 0.15 0.14 0.12 0.09 0.06 0.06 0.07 0.07 0.08 0.09 0.12 0.20 0.35 0.56 0.78 1.04 1.30 1.50 1.54 1.43 1.47 1.50 1.38 1.30 1.26
0.16 0.12 0.08 0.08 0.06 0.06 0.05 0.03 0.04 0.07 0.12 0.11 0.10 0.17 0.16 0.22 0.30 0.32 0.30 0.26 0.20 0.16 0.13 0.12 0.11 0.12 0.13 0.14 0.16 0.23 0.43 0.68 0.93 1.14 1.41 1.70 1.70 1.59 1.50 1.50 1.46 1.40 1.40 1.38
0.13 0.09 0.07 0.05 0.04 0.03 0.04 0.04 0.06 0.08 0.12 0.07 0.06 0.13 0.24 0.28 0.33 0.37 0.36 0.30 0.23 0.19 0.22 0.27 0.31 0.37 0.41 0.44 0.58 0.79 1.05 1.24 1.33 1.46 1.61 1.73 1.71 1.72 1.66 1.48 1.38 1.37 1.41 1.47
0.09 0.06 0.05 0.04 0.04 0.02 0.03 0.05 0.11 0.12 0.14 0.12 0.12 0.27 0.38 0.34 0.29 0.29 0.30 0.25 0.20 0.24 0.33 0.45 0.61 0.74 0.84 0.96 1.08 1.22 1.42 1.56 1.50 1.47 1.52 1.56 1.57 1.57 1.56 1.50 1.40 1.34 1.35 1.37
0.07 0.04 0.03 0.02 0.02 0.02 0.03 0.07 0.18 0.23 0.21 0.23 0.27 0.47 0.52 0.41 0.31 0.22 0.17 0.16 0.24 0.38 0.52 0.63 0.72 0.83 1.00 1.14 1.19 1.19 1.30 1.40 1.36 1.33 1.31 1.28 1.34 1.37 1.34 1.26 1.25 1.28 1.34 1.32
0.04 0.02 0.01 0.01 0.01 0.03 0.04 0.06 0.14 0.27 0.23 0.23 0.35 0.61 0.57 0.37 0.31 0.25 0.22 0.25 0.38 0.58 0.79 0.94 1.04 1.17 1.21 1.25 1.30 1.22 1.21 1.25 1.25 1.17 1.09 1.09 1.15 1.20 1.23 1.18 1.19 1.17 1.16 1.08
0.03 0.02 0.01 0.00 0.01 0.03 0.09 0.16 0.24 0.42 0.46 0.45 0.54 0.65 0.58 0.46 0.43 0.45 0.52 0.61 0.67 0.78 1.03 1.32 1.57 1.74 1.57 1.30 1.18 1.13 1.06 1.06 1.14 1.11 1.04 1.01 1.10 1.11 1.10 1.13 1.10 1.10 1.09 1.00
0.02 0.03 0.01 0.01 0.03 0.08 0.15 0.26 0.34 0.46 0.56 0.70 0.88 0.97 0.83 0.86 0.88 0.95 1.06 1.10 1.10 1.21 1.19 1.34 1.53 1.70 1.60 1.28 1.05 1.05 1.06 1.01 0.99 0.99 1.01 1.00 0.99 0.90 0.89 0.94 0.95 0.94 0.95 0.98
0.01 0.04 0.02 0.02 0.08 0.16 0.27 0.38 0.52 0.69 0.63 0.69 0.89 1.06 0.95 0.94 0.96 1.05 1.23 1.30 1.29 1.20 1.10 1.09 1.13 1.20 1.21 1.06 0.87 0.83 0.96 1.01 0.95 0.92 0.95 0.94 0.85 0.81 0.77 0.76 0.73 0.66 0.64 0.67
0.02 0.09 0.10 0.09 0.23 0.35 0.53 0.60 0.48 0.46 0.51 0.61 0.83 0.83 0.62 0.57 0.73 0.89 1.04 1.13 1.05 1.00 1.07 1.03 0.95 0.88 0.91 0.88 0.80 0.76 0.89 1.03 1.05 1.00 0.86 0.78 0.74 0.71 0.69 0.61 0.57 0.55 0.50 0.50
0.01 0.08 0.13 0.20 0.29 0.41 0.62 0.71 0.55 0.44 0.49 0.50 0.56 0.50 0.36 0.42 0.58 0.65 0.69 0.70 0.70 0.74 0.77 0.71 0.66 0.61 0.60 0.63 0.67 0.73 0.83 0.90 1.02 1.11 1.01 0.86 0.77 0.70 0.64 0.57 0.54 0.51 0.49 0.51
0.00 0.01 0.03 0.06 0.08 0.17 0.36 0.47 0.38 0.27 0.24 0.31 0.32 0.33 0.37 0.45 0.55 0.53 0.48 0.42 0.40 0.41 0.38 0.37 0.36 0.34 0.33 0.33 0.34 0.43 0.55 0.70 0.89 1.09 1.07 0.92 0.86 0.78 0.65 0.60 0.60 0.58 0.61 0.57
0.00 0.00 0.00 0.02 0.04 0.07 0.17 0.20 0.16 0.09 0.12 0.23 0.29 0.35 0.40 0.46 0.53 0.50 0.42 0.34 0.27 0.26 0.25 0.24 0.22 0.20 0.16 0.14 0.16 0.17 0.25 0.42 0.59 0.75 0.81 0.77 0.69 0.61 0.58 0.57 0.55 0.52 0.51 0.47
0.00 0.00 0.01 0.01 0.02 0.04 0.11 0.11 0.12 0.15 0.15 0.16 0.25 0.37 0.46 0.58 0.76 0.67 0.49 0.41 0.28 0.20 0.19 0.18 0.19 0.18 0.17 0.16 0.14 0.14 0.17 0.24 0.35 0.47 0.56 0.55 0.49 0.43 0.40 0.45 0.45 0.43 0.39 0.40
0.00 0.02 0.06 0.05 0.08 0.19 0.24 0.19 0.26 0.34 0.26 0.21 0.28 0.36 0.50 0.83 1.03 0.65 0.42 0.38 0.31 0.21 0.18 0.16 0.16 0.15 0.13 0.12 0.11 0.11 0.14 0.17 0.18 0.22 0.26 0.27 0.28 0.27 0.29 0.31 0.32 0.33 0.32 0.30
0.00 0.03 0.08 0.10 0.13 0.39 0.36 0.18 0.31 0.36 0.30 0.24 0.31 0.37 0.39 0.45 0.41 0.24 0.14 0.16 0.18 0.12 0.09 0.08 0.07 0.06 0.05 0.04 0.04 0.04 0.05 0.05 0.05 0.06 0.08 0.10 0.12 0.14 0.17 0.18 0.21 0.30 0.33 0.34
0.00 0.02 0.06 0.07 0.08 0.23 0.27 0.10 0.17 0.25 0.30 0.12 0.14 0.16 0.11 0.07 0.08 0.10 0.09 0.06 0.05 0.03 0.02 0.02 0.01 0.01 0.01 0.00 0.00 0.00 0.00 0.00 0.00 0.00 0.00 0.01 0.01 0.02 0.05 0.08 0.11 0.17 0.24 0.31
0.00 0.01 0.02 0.02 0.04 0.07 0.05 0.05 0.10 0.24 0.27 0.07 0.04 0.03 0.01 0.00 0.01 0.05 0.09 0.05 0.03 0.01 0.00 0.00 0.00 0.00 0.00 0.00 0.00 0.00 0.00 0.00 0.00 0.00 0.00 0.00 0.00 0.00 0.01 0.02 0.03 0.06 0.11 0.15
0.00 0.01 0.01 0.01 0.02 0.03 0.01 0.04 0.10 0.10 0.05 0.02 0.01 0.01 0.00 0.00 0.00 0.02 0.05 0.03 0.02 0.00 0.00 0.00 0.00 0.00 0.00 0.00 0.00 0.00 0.00 0.00 0.00 0.00 0.00 0.00 0.00 0.00 0.01 0.01 0.02 0.02 0.04 0.06
0.00 0.01 0.01 0.01 0.02 0.01 0.01 0.02 0.03 0.02 0.01 0.00 0.00 0.00 0.00 0.00 0.00 0.00 0.01 0.02 0.01 0.00 0.00 0.00 0.00 0.00 0.00 0.00 0.00 0.00 0.00 0.00 0.00 0.00 0.00 0.00 0.00 0.01 0.01 0.01 0.01 0.02 0.03 0.06
0.00 0.00 0.01 0.01 0.01 0.00 0.00 0.01 0.00 0.01 0.01 0.00 0.00 0.00 0.00 0.00 0.00 0.00 0.00 0.01 0.01 0.00 0.00 0.00 0.00 0.00 0.00 0.00 0.00 0.00 0.00 0.00 0.00 0.00 0.00 0.00 0.01 0.01 0.01 0.01 0.02 0.02 0.02 0.05
0.00 0.01 0.01 0.01 0.00 0.00 0.00 0.00 0.00 0.00 0.00 0.00 0.00 0.00 0.00 0.00 0.00 0.00 0.00 0.01 0.00 0.00 0.00 0.00 0.00 0.00 0.00 0.00 0.00 0.00 0.00 0.00 0.00 0.00 0.00 0.00 0.01 0.01 0.01 0.01 0.01 0.02 0.02 0.04
0.00 0.00 0.01 0.00 0.00 0.00 0.00 0.00 0.00 0.01 0.00 0.00 0.00 0.00 0.00 0.00 0.00 0.00 0.00 0.00 0.00 0.00 0.00 0.00 0.00 0.00 0.00 0.00 0.00 0.00 0.00 0.00 0.00 0.00 0.00 0.00 0.01 0.01 0.01 0.02 0.02 0.01 0.01 0.02

GEFSCGP_prec_meanprecacc_096.txt.gz
Total_Precipitation_Accumulation
0.11 0.13 0.18 0.22 0.26 0.28 0.22 0.14 0.11 0.11 0.12 0.12 0.12 0.12 0.14 0.14 0.13 0.12 0.12 0.12 0.13 0.12 0.13 0.15 0.19 0.22 0.22 0.22 0.25 0.31 0.34 0.42 0.50 0.58 0.73 0.95 1.22 1.33 1.42 1.38 1.21 1.16 1.28 1.51
0.15 0.10 0.11 0.18 0.23 0.26 0.21 0.15 0.11 0.08 0.08 0.08 0.08 0.09 0.09 0.11 0.13 0.12 0.11 0.11 0.10 0.09 0.07 0.07 0.10 0.13 0.15 0.15 0.17 0.22 0.30 0.39 0.48 0.57 0.75 0.91 1.06 1.07 1.24 1.40 1.38 1.29 1.28 1.42
0.13 0.10 0.12 0.16 0.16 0.19 0.17 0.15 0.14 0.13 0.09 0.06 0.07 0.09 0.08 0.09 0.11 0.11 0.12 0.11 0.10 0.08 0.06 0.06 0.06 0.08 0.09 0.10 0.12 0.15 0.22 0.32 0.45 0.61 0.85 1.07 1.26 1.34 1.41 1.34 1.42 1.43 1.35 1.38
0.21 0.15 0.11 0.13 0.12 0.12 0.14 0.09 0.09 0.12 0.15 0.15 0.16 0.20 0.14 0.15 0.19 0.18 0.18 0.15 0.14 0.12 0.09 0.06 0.06 0.07 0.07 0.08 0.09 0.12 0.20 0.35 0.56 0.78 1.04 1.30 1.50 1.54 1.43 1.47 1.50 1.38 1.30 1.27
0.17 0.13 0.10 0.09 0.08 0.09 0.10 0.06 0.06 0.09 0.13 0.11 0.10 0.17 0.16 0.22 0.30 0.32 0.30 0.26 0.20 0.16 0.13 0.12 0.11 0.12 0.13 0.14 0.16 0.23 0.43 0.68 0.93 1.14 1.41 1.70 1.70 1.59 1.50 1.50 1.46 1.40 1.40 1.38
0.14 0.10 0.09 0.08 0.08 0.07 0.09 0.07 0.07 0.09 0.12 0.08 0.06 0.13 0.24 0.28 0.33 0.37 0.36 0.30 0.23 0.19 0.22 0.27 0.31 0.37 0.41 0.44 0.58 0.79 1.05 1.24 1.33 1.46 1.61 1.73 1.71 1.72 1.66 1.48 1.39 1.38 1.42 1.48
0.10 0.08 0.07 0.06 0.07 0.05 0.06 0.07 0.11 0.13 0.14 0.12 0.12 0.27 0.38 0.34 0.29 0.29 0.30 0.25 0.20 0.24 0.33 0.45 0.61 0.74 0.84 0.96 1.08 1.22 1.42 1.56 1.50 1.47 1.52 1.56 1.57 1.57 1.56 1.50 1.40 1.34 1.35 1.37
0.08 0.05 0.04 0.03 0.03 0.03 0.04 0.08 0.19 0.23 0.21 0.23 0.27 0.47 0.52 0.41 0.31 0.22 0.17 0.16 0.24 0.38 0.52 0.63 0.72 0.83 1.00 1.14 1.19 1.19 1.30 1.40 1.36 1.33 1.31 1.28 1.34 1.37 1.34 1.26 1.25 1.28 1.35 1.32
0.05 0.03 0.02 0.01 0.02 0.03 0.05 0.07 0.14 0.27 0.23 0.23 0.35 0.61 0.57 0.37 0.31 0.25 0.22 0.25 0.38 0.58 0.79 0.94 1.04 1.17 1.21 1.25 1.30 1.22 1.21 1.25 1.25 1.17 1.09 1.09 1.15 1.20 1.23 1.18 1.19 1.17 1.16 1.08
0.04 0.02 0.01 0.01 0.01 0.03 0.09 0.16 0.25 0.42 0.46 0.45 0.54 0.65 0.58 0.46 0.43 0.45 0.52 0.61 0.67 0.78 1.03 1.32 1.57 1.74 1.57 1.30 1.18 1.13 1.06 1.06 1.14 1.11 1.04 1.01 1.10 1.11 1.10 1.13 1.10 1.10 1.09 1.00
0.02 0.03 0.01 0.01 0.04 0.08 0.15 0.26 0.34 0.46 0.56 0.70 0.88 0.97 0.83 0.86 0.88 0.95 1.06 1.10 1.10 1.21 1.19 1.34 1.53 1.70 1.60 1.28 1.05 1.05 1.06 1.01 0.99 0.99 1.01 1.00 0.99 0.90 0.89 0.94 0.95 0.94 0.95 0.98
0.01 0.04 0.02 0.02 0.08 0.16 0.27 0.38 0.52 0.69 0.63 0.69 0.89 1.06 0.95 0.94 0.96 1.05 1.23 1.30 1.29 1.20 1.10 1.09 1.13 1.20 1.21 1.06 0.87 0.83 0.96 1.01 0.95 0.92 0.95 0.94 0.85 0.81 0.77 0.76 0.73 0.66 0.64 0.67
0.02 0.09 0.10 0.09 0.23 0.35 0.53 0.60 0.48 0.46 0.51 0.61 0.83 0.83 0.62 0.57 0.73 0.89 1.04 1.13 1.05 1.00 1.07 1.03 0.95 0.88 0.91 0.88 0.80 0.76 0.89 1.03 1.05 1.00 0.86 0.78 0.74 0.71 0.69 0.61 0.57 0.55 0.50 0.50
0.02 0.08 0.13 0.21 0.29 0.41 0.62 0.71 0.55 0.44 0.49 0.50 0.56 0.50 0.36 0.42 0.58 0.65 0.69 0.70 0.70 0.74 0.77 0.71 0.66 0.61 0.60 0.63 0.67 0.73 0.83 0.90 1.02 1.11 1.01 0.86 0.77 0.70 0.64 0.57 0.54 0.51 0.49 0.51
0.00 0.01 0.03 0.06 0.08 0.17 0.36 0.47 0.38 0.27 0.24 0.31 0.32 0.33 0.37 0.45 0.55 0.53 0.48 0.42 0.40 0.41 0.38 0.37 0.36 0.34 0.33 0.33 0.34 0.43 0.55 0.70 0.89 1.09 1.07 0.92 0.86 0.78 0.65 0.60 0.60 0.58 0.61 0.57
0.00 0.00 0.00 0.02 0.04 0.07 0.17 0.20 0.16 0.09 0.12 0.23 0.29 0.35 0.40 0.46 0.53 0.50 0.42 0.34 0.27 0.26 0.25 0.24 0.22 0.20 0.16 0.14 0.16 0.17 0.25 0.42 0.59 0.75 0.81 0.77 0.69 0.61 0.58 0.57 0.55 0.52 0.51 0.47
0.00 0.00 0.01 0.01 0.02 0.04 0.11 0.11 0.12 0.15 0.15 0.16 0.25 0.37 0.46 0.58 0.76 0.67 0.49 0.41 0.28 0.20 0.19 0.18 0.19 0.18 0.17 0.16 0.14 0.14 0.17 0.24 0.35 0.47 0.56 0.55 0.49 0.43 0.40 0.45 0.45 0.43 0.39 0.40
0.00 0.02 0.06 0.05 0.08 0.19 0.24 0.19 0.26 0.34 0.26 0.21 0.28 0.36 0.50 0.83 1.03 0.65 0.42 0.38 0.31 0.21 0.18 0.16 0.16 0.15 0.13 0.12 0.11 0.11 0.14 0.17 0.18 0.22 0.26 0.27 0.28 0.27 0.29 0.31 0.32 0.33 0.32 0.30
0.00 0.03 0.08 0.10 0.13 0.39 0.36 0.18 0.31 0.36 0.30 0.24 0.31 0.37 0.39 0.45 0.41 0.24 0.14 0.16 0.18 0.12 0.09 0.08 0.07 0.06 0.05 0.04 0.04 0.04 0.05 0.05 0.05 0.06 0.08 0.10 0.12 0.14 0.17 0.18 0.21 0.30 0.33 0.34
0.00 0.02 0.06 0.07 0.08 0.23 0.27 0.10 0.17 0.25 0.30 0.12 0.14 0.16 0.11 0.07 0.08 0.10 0.09 0.06 0.05 0.03 0.02 0.02 0.01 0.01 0.01 0.00 0.00 0.00 0.00 0.00 0.00 0.00 0.00 0.01 0.01 0.02 0.05 0.08 0.11 0.17 0.24 0.31
0.00 0.01 0.02 0.02 0.04 0.07 0.05 0.05 0.10 0.24 0.27 0.07 0.04 0.03 0.01 0.00 0.01 0.05 0.09 0.05 0.03 0.01 0.00 0.00 0.00 0.00 0.00 0.00 0.00 0.00 0.00 0.00 0.00 0.00 0.00 0.00 0.00 0.00 0.01 0.02 0.03 0.06 0.11 0.15
0.00 0.01 0.01 0.01 0.02 0.03 0.01 0.04 0.10 0.10 0.05 0.02 0.01 0.01 0.00 0.00 0.00 0.02 0.05 0.03 0.02 0.00 0.00 0.00 0.00 0.00 0.00 0.00 0.00 0.00 0.00 0.00 0.00 0.00 0.00 0.00 0.00 0.00 0.01 0.01 0.02 0.02 0.04 0.06
0.00 0.01 0.01 0.01 0.02 0.01 0.01 0.02 0.03 0.02 0.01 0.00 0.00 0.00 0.00 0.00 0.00 0.00 0.01 0.02 0.01 0.00 0.00 0.00 0.00 0.00 0.00 0.00 0.00 0.00 0.00 0.00 0.00 0.00 0.00 0.00 0.00 0.01 0.01 0.01 0.01 0.02 0.03 0.06
0.00 0.00 0.01 0.01 0.01 0.00 0.00 0.01 0.00 0.01 0.01 0.00 0.00 0.00 0.00 0.00 0.00 0.00 0.00 0.01 0.01 0.00 0.00 0.00 0.00 0.00 0.00 0.00 0.00 0.00 0.00 0.00 0.00 0.00 0.00 0.00 0.01 0.01 0.01 0.01 0.02 0.02 0.02 0.05
0.00 0.01 0.01 0.01 0.00 0.00 0.00 0.00 0.00 0.00 0.00 0.00 0.00 0.00 0.00 0.00 0.00 0.00 0.00 0.01 0.00 0.00 0.00 0.00 0.00 0.00 0.00 0.00 0.00 0.00 0.00 0.00 0.00 0.00 0.00 0.00 0.01 0.01 0.01 0.01 0.01 0.02 0.02 0.04
0.00 0.00 0.01 0.00 0.00 0.00 0.00 0.00 0.00 0.01 0.00 0.00 0.00 0.00 0.00 0.00 0.00 0.00 0.00 0.00 0.00 0.00 0.00 0.00 0.00 0.00 0.00 0.00 0.00 0.00 0.00 0.00 0.00 0.00 0.00 0.00 0.01 0.01 0.01 0.02 0.02 0.01 0.01 0.02

GEFSCGP_prec_meanprecacc_102.txt.gz
Total_Precipitation_Accumulation
0.15 0.20 0.26 0.25 0.29 0.31 0.25 0.18 0.15 0.17 0.16 0.14 0.13 0.14 0.15 0.14 0.13 0.13 0.12 0.12 0.13 0.12 0.13 0.15 0.19 0.22 0.22 0.22 0.25 0.31 0.34 0.42 0.50 0.58 0.73 0.95 1.22 1.33 1.43 1.39 1.21 1.16 1.28 1.52
0.19 0.13 0.12 0.19 0.24 0.28 0.25 0.20 0.15 0.15 0.10 0.09 0.09 0.10 0.10 0.11 0.13 0.13 0.11 0.11 0.10 0.09 0.08 0.07 0.10 0.13 0.15 0.15 0.17 0.22 0.30 0.39 0.48 0.57 0.75 0.91 1.06 1.07 1.24 1.40 1.38 1.30 1.29 1.43
0.15 0.12 0.14 0.16 0.17 0.21 0.21 0.18 0.17 0.18 0.12 0.07 0.08 0.09 0.08 0.10 0.12 0.12 0.12 0.11 0.10 0.08 0.07 0.06 0.06 0.08 0.09 0.10 0.12 0.15 0.22 0.32 0.45 0.61 0.85 1.07 1.26 1.34 1.41 1.34 1.43 1.44 1.37 1.40
0.22 0.16 0.12 0.14 0.14 0.13 0.16 0.12 0.11 0.14 0.19 0.18 0.17 0.20 0.14 0.15 0.19 0.19 0.19 0.16 0.14 0.12 0.09 0.07 0.06 0.07 0.07 0.08 0.09 0.12 0.20 0.35 0.56 0.78 1.04 1.30 1.50 1.54 1.43 1.48 1.51 1.39 1.33 1.29
0.19 0.14 0.10 0.10 0.10 0.10 0.14 0.10 0.07 0.10 0.14 0.12 0.11 0.17 0.16 0.22 0.30 0.32 0.30 0.26 0.20 0.16 0.14 0.12 0.11 0.12 0.13 0.14 0.16 0.23 0.43 0.68 0.93 1.14 1.41 1.70 1.70 1.59 1.50 1.50 1.47 1.42 1.43 1.39
0.15 0.10 0.10 0.09 0.10 0.09 0.11 0.08 0.07 0.09 0.12 0.08 0.06 0.13 0.24 0.29 0.33 0.37 0.36 0.30 0.23 0.19 0.22 0.27 0.31 0.37 0.41 0.44 0.58 0.79 1.05 1.24 1.33 1.46 1.61 1.73 1.71 1.72 1.67 1.49 1.39 1.39 1.43 1.49
0.10 0.08 0.07 0.07 0.07 0.05 0.06 0.08 0.13 0.15 0.16 0.13 0.12 0.27 0.38 0.34 0.29 0.29 0.30 0.25 0.20 0.24 0.33 0.45 0.61 0.74 0.84 0.96 1.08 1.22 1.42 1.56 1.50 1.47 1.52 1.56 1.57 1.57 1.56 1.50 1.40 1.35 1.35 1.37
0.08 0.05 0.04 0.03 0.03 0.03 0.04 0.08 0.22 0.28 0.24 0.24 0.27 0.47 0.52 0.41 0.31 0.22 0.17 0.16 0.24 0.38 0.52 0.63 0.72 0.83 1.00 1.14 1.19 1.19 1.30 1.40 1.36 1.33 1.31 1.28 1.34 1.37 1.34 1.26 1.25 1.28 1.35 1.33
0.05 0.03 0.02 0.01 0.02 0.03 0.05 0.07 0.15 0.28 0.24 0.23 0.36 0.61 0.57 0.37 0.31 0.25 0.22 0.25 0.38 0.58 0.79 0.94 1.04 1.17 1.21 1.25 1.30 1.22 1.21 1.25 1.25 1.17 1.09 1.09 1.15 1.20 1.23 1.18 1.19 1.17 1.16 1.08
0.04 0.03 0.01 0.01 0.01 0.03 0.09 0.16 0.25 0.43 0.47 0.46 0.54 0.65 0.58 0.46 0.43 0.45 0.52 0.61 0.67 0.78 1.03 1.32 1.57 1.74 1.57 1.30 1.18 1.13 1.06 1.06 1.14 1.11 1.04 1.01 1.10 1.11 1.10 1.13 1.10 1.10 1.09 1.00
0.02 0.03 0.01 0.01 0.04 0.08 0.15 0.26 0.34 0.46 0.56 0.71 0.88 0.98 0.83 0.86 0.88 0.95 1.06 1.10 1.10 1.21 1.19 1.34 1.53 1.70 1.60 1.28 1.05 1.05 1.06 1.01 0.99 0.99 1.01 1.00 0.99 0.90 0.89 0.94 0.95 0.94 0.95 0.98
0.01 0.04 0.02 0.02 0.08 0.16 0.27 0.38 0.52 0.69 0.64 0.69 0.89 1.06 0.95 0.94 0.96 1.05 1.23 1.30 1.29 1.20 1.10 1.09 1.13 1.20 1.21 1.06 0.87 0.83 0.96 1.01 0.95 0.92 0.95 0.94 0.85 0.81 0.77 0.76 0.73 0.66 0.64 0.67
0.02 0.09 0.11 0.11 0.24 0.35 0.53 0.60 0.48 0.46 0.51 0.61 0.83 0.83 0.62 0.57 0.73 0.89 1.04 1.13 1.05 1.00 1.07 1.03 0.95 0.88 0.91 0.88 0.80 0.76 0.89 1.03 1.05 1.00 0.86 0.78 0.74 0.71 0.69 0.61 0.57 0.55 0.50 0.50
0.02 0.08 0.14 0.23 0.30 0.41 0.62 0.71 0.55 0.44 0.49 0.50 0.56 0.50 0.36 0.42 0.58 0.65 0.69 0.70 0.70 0.74 0.77 0.71 0.66 0.61 0.60 0.63 0.67 0.73 0.83 0.90 1.02 1.11 1.01 0.86 0.77 0.70 0.64 0.57 0.54 0.51 0.49 0.52
0.00 0.01 0.03 0.06 0.09 0.17 0.36 0.47 0.38 0.27 0.24 0.31 0.32 0.33 0.37 0.45 0.55 0.53 0.48 0.42 0.40 0.41 0.38 0.37 0.36 0.34 0.33 0.33 0.34 0.43 0.55 0.70 0.89 1.09 1.07 0.92 0.86 0.78 0.65 0.60 0.60 0.58 0.61 0.57
0.00 0.00 0.00 0.02 0.04 0.07 0.17 0.20 0.16 0.09 0.12 0.23 0.29 0.35 0.40 0.46 0.53 0.50 0.42 0.34 0.27 0.26 0.25 0.24 0.22 0.20 0.16 0.14 0.16 0.17 0.25 0.42 0.59 0.75 0.81 0.77 0.69 0.61 0.58 0.57 0.55 0.52 0.51 0.47
0.00 0.00 0.01 0.01 0.02 0.04 0.11 0.11 0.12 0.15 0.15 0.16 0.25 0.37 0.46 0.58 0.76 0.67 0.49 0.41 0.28 0.20 0.19 0.18 0.19 0.18 0.17 0.16 0.14 0.14 0.17 0.24 0.35 0.47 0.56 0.55 0.49 0.43 0.40 0.45 0.45 0.43 0.39 0.40
0.00 0.02 0.06 0.05 0.08 0.19 0.24 0.19 0.26 0.34 0.26 0.21 0.28 0.36 0.50 0.83 1.03 0.65 0.42 0.38 0.31 0.21 0.18 0.16 0.16 0.15 0.13 0.12 0.11 0.11 0.14 0.17 0.18 0.22 0.26 0.27 0.28 0.27 0.29 0.31 0.32 0.33 0.32 0.30
0.00 0.03 0.08 0.10 0.13 0.39 0.36 0.18 0.31 0.36 0.30 0.24 0.31 0.37 0.39 0.45 0.41 0.24 0.14 0.16 0.18 0.12 0.09 0.08 0.07 0.06 0.05 0.04 0.04 0.04 0.05 0.05 0.05 0.06 0.08 0.10 0.12 0.14 0.17 0.18 0.21 0.30 0.33 0.34
0.00 0.02 0.06 0.07 0.08 0.23 0.27 0.10 0.17 0.25 0.30 0.12 0.14 0.16 0.11 0.07 0.08 0.10 0.09 0.06 0.05 0.03 0.02 0.02 0.01 0.01 0.01 0.00 0.00 0.00 0.00 0.00 0.00 0.00 0.00 0.01 0.01 0.02 0.05 0.08 0.11 0.17 0.24 0.31
0.00 0.01 0.02 0.02 0.04 0.07 0.05 0.05 0.10 0.24 0.27 0.07 0.04 0.03 0.01 0.00 0.01 0.05 0.09 0.05 0.03 0.01 0.00 0.00 0.00 0.00 0.00 0.00 0.00 0.00 0.00 0.00 0.00 0.00 0.00 0.00 0.00 0.00 0.01 0.02 0.03 0.06 0.11 0.15
0.00 0.01 0.01 0.01 0.02 0.03 0.01 0.04 0.10 0.10 0.05 0.02 0.01 0.01 0.00 0.00 0.00 0.02 0.05 0.03 0.02 0.00 0.00 0.00 0.00 0.00 0.00 0.00 0.00 0.00 0.00 0.00 0.00 0.00 0.00 0.00 0.00 0.00 0.01 0.01 0.02 0.02 0.04 0.06
0.00 0.01 0.01 0.01 0.02 0.01 0.01 0.02 0.03 0.02 0.01 0.00 0.00 0.00 0.00 0.00 0.00 0.00 0.01 0.02 0.01 0.00 0.00 0.00 0.00 0.00 0.00 0.00 0.00 0.00 0.00 0.00 0.00 0.00 0.00 0.00 0.00 0.01 0.01 0.01 0.01 0.02 0.03 0.06
0.00 0.00 0.01 0.01 0.01 0.00 0.00 0.01 0.00 0.01 0.01 0.00 0.00 0.00 0.00 0.00 0.00 0.00 0.00 0.01 0.01 0.00 0.00 0.00 0.00 0.00 0.00 0.00 0.00 0.00 0.00 0.00 0.00 0.00 0.00 0.00 0.01 0.01 0.01 0.01 0.02 0.02 0.02 0.05
0.00 0.01 0.01 0.01 0.00 0.00 0.00 0.00 0.00 0.00 0.00 0.00 0.00 0.00 0.00 0.00 0.00 0.00 0.00 0.01 0.00 0.00 0.00 0.00 0.00 0.00 0.00 0.00 0.00 0.00 0.00 0.00 0.00 0.00 0.00 0.00 0.01 0.01 0.01 0.01 0.01 0.02 0.02 0.04
0.00 0.00 0.01 0.00 0.00 0.00 0.00 0.00 0.00 0.01 0.00 0.00 0.00 0.00 0.00 0.00 0.00 0.00 0.00 0.00 0.00 0.00 0.00 0.00 0.00 0.00 0.00 0.00 0.00 0.00 0.00 0.00 0.00 0.00 0.00 0.00 0.01 0.01 0.01 0.02 0.02 0.01 0.01 0.02

GEFSCGP_prec_meanprecacc_108.txt.gz
Total_Precipitation_Accumulation
0.23 0.31 0.43 0.41 0.40 0.42 0.36 0.28 0.25 0.23 0.21 0.20 0.17 0.16 0.17 0.16 0.15 0.14 0.13 0.14 0.15 0.14 0.14 0.16 0.19 0.22 0.22 0.22 0.25 0.31 0.34 0.42 0.50 0.58 0.73 0.95 1.22 1.33 1.43 1.39 1.21 1.16 1.28 1.52
0.26 0.19 0.20 0.27 0.32 0.38 0.34 0.29 0.23 0.22 0.16 0.12 0.11 0.11 0.11 0.13 0.14 0.14 0.13 0.12 0.12 0.11 0.10 0.09 0.10 0.13 0.15 0.15 0.17 0.22 0.30 0.39 0.48 0.57 0.75 0.91 1.06 1.07 1.24 1.40 1.38 1.30 1.29 1.43
0.20 0.14 0.17 0.21 0.26 0.29 0.30 0.26 0.25 0.26 0.17 0.10 0.09 0.10 0.09 0.10 0.12 0.13 0.13 0.12 0.12 0.11 0.09 0.07 0.07 0.08 0.09 0.10 0.12 0.15 0.22 0.32 0.45 0.61 0.85 1.07 1.26 1.34 1.41 1.34 1.43 1.44 1.37 1.41
0.27 0.19 0.16 0.20 0.21 0.18 0.23 0.17 0.14 0.18 0.23 0.21 0.18 0.21 0.14 0.15 0.19 0.20 0.20 0.17 0.15 0.13 0.10 0.08 0.06 0.07 0.07 0.08 0.09 0.12 0.20 0.35 0.56 0.78 1.04 1.30 1.50 1.54 1.43 1.48 1.51 1.39 1.33 1.30
0.23 0.17 0.12 0.13 0.12 0.12 0.17 0.11 0.07 0.10 0.15 0.12 0.11 0.18 0.16 0.22 0.30 0.32 0.30 0.26 0.20 0.16 0.14 0.12 0.11 0.12 0.13 0.14 0.16 0.23 0.43 0.68 0.93 1.14 1.41 1.70 1.70 1.59 1.50 1.50 1.47 1.42 1.43 1.40
0.18 0.13 0.11 0.11 0.11 0.10 0.12 0.08 0.08 0.10 0.13 0.09 0.06 0.14 0.24 0.29 0.33 0.37 0.36 0.30 0.23 0.19 0.22 0.27 0.31 0.37 0.41 0.44 0.58 0.79 1.05 1.24 1.33 1.46 1.61 1.73 1.71 1.72 1.67 1.49 1.39 1.39 1.43 1.49
0.11 0.09 0.08 0.07 0.08 0.06 0.06 0.08 0.14 0.16 0.17 0.14 0.12 0.27 0.38 0.34 0.29 0.29 0.30 0.25 0.20 0.24 0.34 0.45 0.61 0.74 0.84 0.96 1.08 1.22 1.42 1.56 1.50 1.47 1.52 1.56 1.57 1.57 1.56 1.50 1.40 1.35 1.35 1.37
0.08 0.05 0.04 0.03 0.03 0.03 0.04 0.09 0.24 0.30 0.25 0.24 0.28 0.47 0.52 0.41 0.31 0.22 0.17 0.16 0.24 0.38 0.52 0.63 0.72 0.83 1.00 1.14 1.19 1.19 1.30 1.40 1.36 1.33 1.31 1.28 1.34 1.37 1.34 1.26 1.25 1.28 1.35 1.33
0.06 0.04 0.02 0.02 0.02 0.03 0.05 0.07 0.15 0.28 0.24 0.24 0.36 0.61 0.57 0.37 0.31 0.25 0.22 0.25 0.38 0.58 0.79 0.94 1.04 1.17 1.21 1.25 1.30 1.22 1.21 1.25 1.25 1.17 1.09 1.09 1.15 1.20 1.23 1.18 1.19 1.17 1.16 1.09
0.04 0.03 0.02 0.01 0.01 0.03 0.09 0.16 0.25 0.43 0.47 0.47 0.55 0.66 0.58 0.46 0.43 0.45 0.52 0.61 0.67 0.78 1.03 1.32 1.57 1.74 1.57 1.30 1.18 1.13 1.06 1.06 1.14 1.11 1.04 1.01 1.10 1.11 1.10 1.13 1.10 1.10 1.09 1.00
0.02 0.03 0.02 0.01 0.04 0.08 0.15 0.26 0.34 0.46 0.56 0.71 0.89 0.99 0.84 0.86 0.88 0.95 1.06 1.10 1.10 1.21 1.19 1.34 1.53 1.70 1.60 1.28 1.05 1.05 1.06 1.01 0.99 0.99 1.01 1.00 0.99 0.90 0.89 0.94 0.95 0.94 0.95 0.98
0.01 0.04 0.03 0.02 0.09 0.16 0.28 0.38 0.52 0.69 0.64 0.69 0.90 1.06 0.95 0.94 0.96 1.05 1.23 1.30 1.29 1.20 1.10 1.09 1.13 1.20 1.21 1.06 0.87 0.83 0.96 1.01 0.95 0.92 0.95 0.94 0.85 0.81 0.77 0.76 0.73 0.66 0.64 0.67
0.02 0.09 0.12 0.12 0.24 0.35 0.53 0.60 0.48 0.46 0.52 0.61 0.84 0.84 0.62 0.58 0.73 0.89 1.04 1.13 1.05 1.00 1.07 1.03 0.95 0.88 0.91 0.88 0.80 0.76 0.89 1.03 1.05 1.00 0.86 0.78 0.74 0.71 0.69 0.61 0.57 0.55 0.50 0.50
0.02 0.08 0.14 0.24 0.31 0.41 0.63 0.71 0.55 0.44 0.50 0.50 0.56 0.50 0.36 0.42 0.58 0.65 0.69 0.70 0.70 0.74 0.77 0.71 0.66 0.61 0.60 0.63 0.67 0.73 0.83 0.90 1.02 1.11 1.01 0.86 0.77 0.70 0.64 0.57 0.54 0.51 0.49 0.52
0.00 0.01 0.03 0.06 0.09 0.17 0.36 0.47 0.38 0.27 0.25 0.31 0.32 0.33 0.37 0.45 0.55 0.53 0.48 0.42 0.40 0.41 0.38 0.37 0.36 0.34 0.33 0.33 0.34 0.43 0.55 0.70 0.89 1.09 1.07 0.92 0.86 0.78 0.65 0.60 0.60 0.58 0.61 0.57
0.00 0.00 0.00 0.02 0.04 0.07 0.17 0.20 0.16 0.09 0.12 0.23 0.29 0.36 0.40 0.46 0.53 0.50 0.42 0.35 0.27 0.26 0.25 0.24 0.22 0.20 0.16 0.14 0.16 0.17 0.25 0.42 0.59 0.75 0.81 0.77 0.69 0.61 0.58 0.57 0.55 0.52 0.51 0.47
0.00 0.00 0.01 0.01 0.02 0.04 0.11 0.11 0.12 0.15 0.15 0.16 0.25 0.37 0.46 0.58 0.76 0.67 0.50 0.41 0.28 0.20 0.19 0.18 0.19 0.18 0.17 0.16 0.14 0.14 0.17 0.24 0.35 0.47 0.56 0.55 0.49 0.43 0.40 0.45 0.45 0.43 0.39 0.40
0.00 0.02 0.06 0.05 0.08 0.19 0.24 0.19 0.26 0.34 0.26 0.21 0.28 0.36 0.50 0.83 1.03 0.65 0.42 0.38 0.31 0.21 0.18 0.17 0.16 0.15 0.13 0.12 0.11 0.11 0.14 0.17 0.18 0.22 0.26 0.27 0.28 0.27 0.29 0.31 0.32 0.33 0.32 0.30
0.00 0.03 0.08 0.10 0.13 0.39 0.36 0.19 0.31 0.36 0.30 0.24 0.32 0.37 0.40 0.45 0.41 0.24 0.14 0.16 0.18 0.12 0.09 0.08 0.07 0.06 0.05 0.04 0.04 0.04 0.05 0.05 0.05 0.06 0.08 0.10 0.12 0.14 0.17 0.18 0.21 0.30 0.33 0.34
0.00 0.02 0.06 0.07 0.08 0.24 0.27 0.10 0.17 0.26 0.30 0.12 0.14 0.16 0.11 0.07 0.08 0.11 0.10 0.06 0.05 0.03 0.02 0.02 0.01 0.01 0.01 0.00 0.00 0.00 0.00 0.00 0.00 0.00 0.00 0.01 0.01 0.02 0.05 0.08 0.11 0.17 0.24 0.31
0.00 0.01 0.02 0.02 0.04 0.07 0.05 0.05 0.10 0.25 0.28 0.07 0.04 0.03 0.01 0.00 0.01 0.05 0.09 0.05 0.03 0.01 0.00 0.00 0.00 0.00 0.00 0.00 0.00 0.00 0.00 0.00 0.00 0.00 0.00 0.00 0.00 0.00 0.01 0.02 0.03 0.06 0.11 0.15
0.00 0.01 0.01 0.01 0.02 0.03 0.01 0.05 0.11 0.11 0.05 0.02 0.01 0.01 0.00 0.00 0.00 0.02 0.05 0.03 0.02 0.00 0.00 0.00 0.00 0.00 0.00 0.00 0.00 0.00 0.00 0.00 0.00 0.00 0.00 0.00 0.00 0.00 0.01 0.01 0.02 0.02 0.04 0.06
0.00 0.01 0.01 0.01 0.02 0.01 0.01 0.02 0.03 0.02 0.01 0.00 0.00 0.00 0.00 0.00 0.00 0.00 0.01 0.02 0.01 0.00 0.00 0.00 0.00 0.00 0.00 0.00 0.00 0.00 0.00 0.00 0.00 0.00 0.00 0.00 0.00 0.01 0.01 0.01 0.01 0.02 0.03 0.06
0.00 0.00 0.01 0.01 0.01 0.00 0.00 0.01 0.00 0.01 0.01 0.00 0.00 0.00 0.00 0.00 0.00 0.00 0.00 0.01 0.01 0.00 0.00 0.00 0.00 0.00 0.00 0.00 0.00 0.00 0.00 0.00 0.00 0.00 0.00 0.00 0.01 0.01 0.01 0.01 0.02 0.02 0.02 0.05
0.00 0.01 0.01 0.01 0.00 0.00 0.00 0.00 0.00 0.00 0.00 0.00 0.00 0.00 0.00 0.00 0.00 0.00 0.00 0.01 0.00 0.00 0.00 0.00 0.00 0.00 0.00 0.00 0.00 0.00 0.00 0.00 0.00 0.00 0.00 0.00 0.01 0.01 0.01 0.01 0.01 0.02 0.02 0.04
0.00 0.00 0.01 0.00 0.00 0.00 0.00 0.00 0.00 0.01 0.00 0.00 0.00 0.00 0.00 0.00 0.00 0.00 0.00 0.00 0.00 0.00 0.00 0.00 0.00 0.00 0.00 0.00 0.00 0.00 0.00 0.00 0.00 0.00 0.00 0.00 0.01 0.01 0.02 0.02 0.02 0.01 0.01 0.02

GEFSCGP_prec_meanprecacc_114.txt.gz
Total_Precipitation_Accumulation
0.23 0.32 0.43 0.43 0.42 0.45 0.38 0.30 0.27 0.26 0.22 0.21 0.18 0.17 0.18 0.16 0.15 0.14 0.14 0.15 0.16 0.15 0.15 0.16 0.20 0.22 0.22 0.22 0.25 0.31 0.34 0.42 0.50 0.58 0.73 0.95 1.22 1.33 1.43 1.39 1.21 1.16 1.28 1.52
0.27 0.19 0.21 0.28 0.34 0.40 0.36 0.31 0.24 0.25 0.16 0.13 0.11 0.12 0.12 0.13 0.14 0.14 0.13 0.12 0.12 0.12 0.10 0.09 0.10 0.13 0.15 0.16 0.17 0.22 0.30 0.39 0.48 0.57 0.75 0.91 1.06 1.07 1.24 1.40 1.38 1.30 1.29 1.43
0.20 0.15 0.17 0.23 0.29 0.33 0.32 0.27 0.26 0.27 0.17 0.10 0.09 0.11 0.09 0.10 0.12 0.13 0.14 0.12 0.12 0.11 0.09 0.08 0.07 0.08 0.09 0.10 0.12 0.15 0.22 0.32 0.45 0.61 0.85 1.07 1.26 1.34 1.41 1.34 1.43 1.44 1.37 1.41
0.27 0.20 0.17 0.22 0.23 0.21 0.24 0.17 0.15 0.18 0.23 0.21 0.19 0.21 0.14 0.15 0.19 0.20 0.20 0.17 0.15 0.14 0.10 0.08 0.07 0.07 0.08 0.08 0.09 0.12 0.20 0.35 0.56 0.78 1.04 1.30 1.50 1.54 1.43 1.48 1.51 1.39 1.33 1.30
0.25 0.19 0.14 0.14 0.14 0.13 0.17 0.12 0.08 0.10 0.15 0.12 0.11 0.18 0.16 0.22 0.30 0.32 0.30 0.26 0.20 0.17 0.14 0.13 0.11 0.13 0.13 0.14 0.16 0.23 0.43 0.68 0.93 1.14 1.41 1.70 1.70 1.59 1.50 1.50 1.47 1.42 1.43 1.40
0.21 0.15 0.13 0.12 0.12 0.11 0.12 0.09 0.08 0.10 0.13 0.09 0.06 0.14 0.24 0.29 0.33 0.37 0.36 0.30 0.23 0.19 0.22 0.27 0.31 0.37 0.41 0.44 0.58 0.79 1.05 1.24 1.33 1.46 1.61 1.73 1.71 1.72 1.67 1.49 1.39 1.39 1.43 1.49
0.12 0.10 0.09 0.08 0.09 0.06 0.06 0.08 0.14 0.16 0.17 0.14 0.12 0.27 0.38 0.34 0.29 0.29 0.30 0.25 0.20 0.24 0.34 0.45 0.61 0.74 0.84 0.96 1.08 1.22 1.42 1.56 1.50 1.47 1.52 1.56 1.57 1.57 1.56 1.50 1.40 1.35 1.36 1.37
0.09 0.05 0.05 0.03 0.03 0.03 0.04 0.09 0.24 0.30 0.25 0.24 0.28 0.47 0.52 0.42 0.31 0.23 0.17 0.16 0.24 0.38 0.52 0.63 0.72 0.83 1.00 1.14 1.19 1.19 1.30 1.40 1.36 1.33 1.31 1.28 1.34 1.37 1.34 1.26 1.25 1.28 1.35 1.33
0.06 0.04 0.02 0.02 0.02 0.03 0.05 0.07 0.15 0.28 0.24 0.24 0.36 0.62 0.57 0.37 0.31 0.25 0.22 0.25 0.38 0.58 0.79 0.94 1.04 1.17 1.21 1.25 1.30 1.22 1.21 1.25 1.25 1.17 1.09 1.09 1.15 1.20 1.23 1.18 1.19 1.17 1.17 1.09
0.04 0.03 0.02 0.01 0.01 0.03 0.09 0.16 0.25 0.43 0.47 0.47 0.55 0.66 0.58 0.46 0.43 0.45 0.52 0.61 0.67 0.78 1.03 1.32 1.57 1.74 1.57 1.30 1.18 1.13 1.06 1.06 1.14 1.11 1.04 1.01 1.10 1.11 1.10 1.13 1.10 1.10 1.09 1.01
0.02 0.03 0.02 0.01 0.04 0.08 0.15 0.26 0.34 0.46 0.56 0.71 0.89 0.99 0.84 0.86 0.88 0.95 1.06 1.10 1.10 1.21 1.19 1.34 1.54 1.71 1.60 1.29 1.05 1.05 1.06 1.01 0.99 0.99 1.01 1.00 0.99 0.90 0.89 0.94 0.95 0.94 0.95 0.99
0.01 0.04 0.03 0.02 0.09 0.16 0.28 0.38 0.52 0.69 0.64 0.70 0.90 1.07 0.95 0.94 0.96 1.05 1.23 1.30 1.29 1.20 1.10 1.09 1.14 1.20 1.21 1.06 0.87 0.83 0.96 1.01 0.95 0.92 0.95 0.94 0.85 0.81 0.77 0.76 0.73 0.66 0.64 0.67
0.02 0.09 0.12 0.12 0.24 0.35 0.53 0.60 0.48 0.46 0.52 0.61 0.84 0.84 0.63 0.58 0.73 0.89 1.04 1.13 1.05 1.00 1.07 1.03 0.95 0.89 0.91 0.88 0.80 0.77 0.89 1.03 1.05 1.00 0.86 0.78 0.74 0.71 0.69 0.61 0.57 0.55 0.50 0.50
0.02 0.08 0.14 0.24 0.31 0.41 0.63 0.71 0.55 0.44 0.50 0.50 0.57 0.51 0.36 0.42 0.59 0.66 0.69 0.70 0.70 0.74 0.77 0.71 0.66 0.61 0.60 0.63 0.67 0.73 0.83 0.91 1.02 1.12 1.01 0.86 0.77 0.70 0.64 0.57 0.54 0.51 0.49 0.52
0.00 0.01 0.03 0.06 0.09 0.17 0.36 0.47 0.38 0.27 0.25 0.31 0.33 0.34 0.37 0.46 0.55 0.54 0.48 0.42 0.40 0.41 0.38 0.37 0.36 0.34 0.33 0.33 0.34 0.44 0.55 0.71 0.89 1.09 1.07 0.92 0.86 0.78 0.65 0.60 0.60 0.58 0.61 0.57
0.00 0.00 0.00 0.02 0.04 0.07 0.17 0.20 0.16 0.09 0.12 0.23 0.29 0.36 0.40 0.46 0.53 0.50 0.42 0.35 0.27 0.26 0.25 0.24 0.22 0.20 0.16 0.14 0.16 0.17 0.25 0.42 0.59 0.75 0.81 0.77 0.69 0.61 0.58 0.57 0.55 0.52 0.51 0.47
0.00 0.00 0.01 0.01 0.02 0.04 0.11 0.11 0.12 0.15 0.15 0.16 0.26 0.38 0.46 0.58 0.76 0.67 0.50 0.41 0.28 0.21 0.19 0.18 0.19 0.18 0.17 0.16 0.14 0.14 0.17 0.24 0.35 0.47 0.56 0.55 0.49 0.43 0.40 0.45 0.45 0.43 0.39 0.40
0.00 0.02 0.06 0.05 0.08 0.19 0.24 0.19 0.26 0.34 0.26 0.22 0.29 0.37 0.50 0.83 1.03 0.65 0.42 0.38 0.31 0.21 0.18 0.17 0.16 0.15 0.13 0.12 0.11 0.11 0.14 0.17 0.18 0.22 0.26 0.27 0.28 0.27 0.29 0.31 0.32 0.33 0.32 0.30
0.00 0.03 0.08 0.10 0.13 0.39 0.36 0.19 0.31 0.36 0.31 0.24 0.32 0.37 0.40 0.45 0.41 0.25 0.14 0.16 0.18 0.12 0.09 0.08 0.07 0.06 0.05 0.04 0.04 0.04 0.05 0.05 0.05 0.06 0.08 0.10 0.12 0.14 0.17 0.18 0.21 0.30 0.33 0.34
0.00 0.02 0.06 0.07 0.08 0.24 0.27 0.10 0.17 0.26 0.31 0.13 0.14 0.16 0.11 0.07 0.08 0.11 0.10 0.06 0.05 0.03 0.02 0.02 0.01 0.01 0.01 0.00 0.00 0.00 0.00 0.00 0.00 0.00 0.00 0.01 0.02 0.02 0.05 0.08 0.11 0.17 0.24 0.31
0.00 0.01 0.02 0.02 0.04 0.07 0.05 0.05 0.10 0.25 0.28 0.07 0.04 0.03 0.01 0.01 0.01 0.05 0.10 0.06 0.03 0.01 0.00 0.00 0.00 0.00 0.00 0.00 0.00 0.00 0.00 0.00 0.00 0.00 0.00 0.00 0.00 0.00 0.01 0.02 0.03 0.06 0.11 0.15
0.00 0.01 0.01 0.01 0.02 0.03 0.01 0.05 0.11 0.11 0.05 0.02 0.01 0.01 0.00 0.00 0.00 0.02 0.05 0.03 0.02 0.01 0.00 0.00 0.00 0.00 0.00 0.00 0.00 0.00 0.00 0.00 0.00 0.00 0.00 0.00 0.00 0.00 0.01 0.02 0.02 0.02 0.04 0.07
0.00 0.01 0.01 0.01 0.02 0.02 0.01 0.03 0.03 0.02 0.01 0.00 0.00 0.00 0.00 0.00 0.00 0.00 0.01 0.02 0.01 0.00 0.00 0.00 0.00 0.00 0.00 0.00 0.00 0.00 0.00 0.00 0.00 0.00 0.00 0.00 0.00 0.01 0.01 0.01 0.02 0.02 0.03 0.06
0.00 0.00 0.01 0.01 0.01 0.00 0.00 0.01 0.00 0.01 0.01 0.00 0.00 0.00 0.00 0.00 0.00 0.00 0.00 0.01 0.01 0.00 0.00 0.00 0.00 0.00 0.00 0.00 0.00 0.00 0.00 0.00 0.00 0.00 0.00 0.00 0.01 0.01 0.01 0.01 0.02 0.02 0.03 0.05
0.00 0.01 0.01 0.01 0.00 0.00 0.00 0.00 0.00 0.00 0.00 0.00 0.00 0.00 0.00 0.00 0.00 0.00 0.00 0.01 0.00 0.00 0.00 0.00 0.00 0.01 0.00 0.00 0.00 0.00 0.00 0.00 0.00 0.00 0.00 0.00 0.01 0.02 0.02 0.01 0.01 0.02 0.02 0.05
0.00 0.00 0.01 0.00 0.00 0.00 0.00 0.00 0.00 0.01 0.00 0.00 0.00 0.00 0.00 0.00 0.00 0.00 0.00 0.00 0.00 0.00 0.00 0.00 0.00 0.00 0.00 0.00 0.00 0.00 0.00 0.00 0.00 0.00 0.00 0.00 0.01 0.02 0.02 0.03 0.02 0.02 0.01 0.02

GEFSCGP_prec_meanprecacc_120.txt.gz
Total_Precipitation_Accumulation
0.24 0.33 0.44 0.43 0.42 0.46 0.39 0.31 0.28 0.27 0.23 0.21 0.19 0.18 0.18 0.16 0.15 0.15 0.14 0.15 0.16 0.15 0.15 0.16 0.20 0.22 0.23 0.22 0.25 0.31 0.35 0.42 0.51 0.58 0.73 0.95 1.22 1.33 1.43 1.39 1.21 1.16 1.28 1.52
0.27 0.20 0.21 0.28 0.34 0.40 0.37 0.33 0.26 0.26 0.16 0.13 0.12 0.12 0.12 0.13 0.14 0.14 0.13 0.12 0.12 0.12 0.10 0.09 0.10 0.13 0.15 0.16 0.17 0.22 0.31 0.40 0.48 0.57 0.75 0.91 1.06 1.07 1.24 1.40 1.38 1.30 1.29 1.43
0.20 0.15 0.17 0.23 0.29 0.33 0.33 0.29 0.28 0.28 0.17 0.11 0.10 0.11 0.09 0.11 0.13 0.13 0.14 0.12 0.12 0.11 0.09 0.08 0.07 0.08 0.10 0.11 0.12 0.16 0.23 0.33 0.45 0.61 0.85 1.07 1.26 1.34 1.41 1.34 1.43 1.44 1.37 1.41
0.28 0.20 0.18 0.22 0.24 0.21 0.25 0.18 0.15 0.18 0.23 0.21 0.19 0.22 0.14 0.15 0.19 0.20 0.20 0.17 0.15 0.14 0.10 0.08 0.07 0.08 0.08 0.09 0.09 0.12 0.21 0.36 0.57 0.78 1.04 1.30 1.50 1.54 1.43 1.48 1.51 1.39 1.33 1.30
0.26 0.19 0.15 0.15 0.15 0.14 0.18 0.12 0.08 0.11 0.15 0.13 0.11 0.18 0.16 0.22 0.30 0.32 0.30 0.26 0.20 0.17 0.14 0.13 0.11 0.13 0.14 0.14 0.16 0.24 0.44 0.68 0.93 1.14 1.41 1.70 1.70 1.59 1.50 1.50 1.47 1.42 1.43 1.40
0.22 0.16 0.14 0.13 0.13 0.11 0.13 0.09 0.08 0.10 0.13 0.09 0.06 0.14 0.24 0.29 0.33 0.37 0.36 0.30 0.23 0.19 0.22 0.27 0.31 0.37 0.42 0.44 0.58 0.79 1.06 1.25 1.33 1.46 1.61 1.73 1.71 1.72 1.67 1.49 1.39 1.39 1.43 1.49
0.14 0.11 0.10 0.09 0.10 0.07 0.07 0.08 0.14 0.16 0.17 0.14 0.12 0.27 0.38 0.34 0.29 0.29 0.30 0.25 0.20 0.24 0.34 0.45 0.61 0.74 0.84 0.96 1.08 1.22 1.42 1.56 1.51 1.48 1.52 1.56 1.57 1.57 1.56 1.50 1.40 1.35 1.36 1.37
0.09 0.06 0.05 0.04 0.03 0.03 0.04 0.09 0.24 0.31 0.26 0.25 0.28 0.47 0.52 0.42 0.31 0.23 0.17 0.16 0.24 0.38 0.52 0.63 0.72 0.83 1.00 1.14 1.19 1.19 1.30 1.41 1.36 1.33 1.31 1.28 1.34 1.37 1.34 1.26 1.25 1.28 1.35 1.33
0.06 0.04 0.03 0.02 0.02 0.03 0.05 0.07 0.15 0.28 0.24 0.24 0.36 0.62 0.58 0.37 0.31 0.25 0.22 0.25 0.39 0.58 0.79 0.94 1.04 1.17 1.21 1.25 1.30 1.22 1.21 1.26 1.26 1.18 1.09 1.09 1.15 1.20 1.23 1.18 1.19 1.17 1.17 1.09
0.04 0.03 0.02 0.01 0.01 0.03 0.09 0.16 0.25 0.43 0.48 0.47 0.55 0.66 0.59 0.47 0.43 0.45 0.52 0.61 0.67 0.78 1.03 1.33 1.57 1.75 1.57 1.30 1.19 1.14 1.07 1.07 1.15 1.11 1.04 1.01 1.10 1.11 1.10 1.13 1.10 1.10 1.09 1.01
0.02 0.03 0.02 0.01 0.04 0.08 0.15 0.26 0.34 0.46 0.56 0.71 0.89 0.99 0.84 0.86 0.88 0.95 1.06 1.10 1.10 1.21 1.19 1.34 1.54 1.71 1.61 1.30 1.06 1.06 1.07 1.02 1.00 0.99 1.01 1.00 0.99 0.90 0.89 0.94 0.95 0.94 0.95 0.99
0.01 0.04 0.03 0.02 0.09 0.16 0.28 0.38 0.52 0.69 0.64 0.70 0.90 1.07 0.95 0.94 0.96 1.05 1.23 1.30 1.29 1.20 1.10 1.09 1.14 1.20 1.22 1.07 0.88 0.85 0.97 1.02 0.95 0.92 0.95 0.94 0.85 0.81 0.78 0.76 0.73 0.66 0.64 0.67
0.02 0.09 0.12 0.12 0.24 0.35 0.53 0.60 0.48 0.46 0.52 0.61 0.84 0.85 0.63 0.58 0.73 0.89 1.05 1.13 1.06 1.00 1.07 1.03 0.95 0.89 0.91 0.89 0.81 0.78 0.90 1.03 1.05 1.00 0.86 0.78 0.74 0.71 0.69 0.61 0.57 0.55 0.50 0.50
0.02 0.08 0.14 0.24 0.31 0.41 0.63 0.71 0.55 0.44 0.50 0.50 0.57 0.51 0.36 0.42 0.59 0.66 0.69 0.70 0.70 0.75 0.77 0.72 0.66 0.61 0.60 0.64 0.67 0.73 0.83 0.91 1.02 1.12 1.01 0.86 0.77 0.70 0.64 0.57 0.54 0.51 0.49 0.52
0.00 0.01 0.03 0.06 0.09 0.17 0.36 0.47 0.38 0.27 0.25 0.31 0.33 0.34 0.37 0.46 0.55 0.54 0.48 0.42 0.41 0.41 0.39 0.38 0.37 0.34 0.33 0.33 0.35 0.44 0.56 0.71 0.89 1.09 1.07 0.92 0.86 0.79 0.65 0.60 0.60 0.58 0.61 0.57
0.00 0.00 0.00 0.02 0.04 0.07 0.17 0.20 0.16 0.09 0.12 0.23 0.29 0.36 0.40 0.46 0.53 0.50 0.42 0.35 0.28 0.26 0.26 0.25 0.23 0.21 0.16 0.14 0.16 0.17 0.25 0.42 0.59 0.75 0.82 0.77 0.69 0.61 0.58 0.57 0.55 0.52 0.51 0.47
0.00 0.00 0.01 0.01 0.02 0.04 0.11 0.11 0.12 0.15 0.15 0.16 0.26 0.38 0.46 0.58 0.76 0.67 0.50 0.41 0.28 0.21 0.20 0.19 0.20 0.19 0.17 0.16 0.14 0.14 0.17 0.24 0.35 0.47 0.56 0.55 0.49 0.43 0.40 0.45 0.45 0.43 0.39 0.40
0.00 0.02 0.06 0.05 0.08 0.19 0.24 0.19 0.26 0.34 0.26 0.22 0.29 0.37 0.50 0.83 1.03 0.66 0.42 0.38 0.31 0.21 0.18 0.17 0.17 0.15 0.14 0.13 0.11 0.11 0.14 0.17 0.18 0.22 0.26 0.27 0.28 0.27 0.29 0.31 0.32 0.33 0.32 0.30
0.00 0.03 0.08 0.10 0.13 0.39 0.36 0.19 0.31 0.36 0.31 0.24 0.32 0.37 0.40 0.45 0.41 0.25 0.15 0.16 0.18 0.13 0.10 0.08 0.08 0.06 0.05 0.04 0.04 0.04 0.05 0.05 0.05 0.06 0.08 0.10 0.12 0.14 0.17 0.18 0.21 0.30 0.33 0.34
0.00 0.02 0.06 0.07 0.08 0.24 0.27 0.10 0.17 0.26 0.31 0.13 0.14 0.16 0.11 0.07 0.08 0.11 0.10 0.06 0.05 0.03 0.02 0.02 0.02 0.01 0.01 0.00 0.00 0.00 0.00 0.00 0.00 0.00 0.00 0.01 0.02 0.03 0.05 0.08 0.11 0.17 0.24 0.31
0.00 0.01 0.02 0.02 0.04 0.07 0.05 0.05 0.10 0.25 0.28 0.07 0.04 0.03 0.01 0.01 0.01 0.05 0.10 0.06 0.03 0.01 0.00 0.00 0.00 0.00 0.00 0.00 0.00 0.00 0.00 0.00 0.00 0.00 0.00 0.00 0.00 0.00 0.01 0.02 0.03 0.06 0.11 0.15
0.00 0.01 0.01 0.01 0.02 0.03 0.01 0.05 0.11 0.11 0.05 0.02 0.01 0.01 0.00 0.00 0.00 0.02 0.05 0.03 0.02 0.01 0.00 0.00 0.01 0.00 0.00 0.00 0.00 0.00 0.00 0.00 0.00 0.00 0.00 0.01 0.01 0.00 0.01 0.02 0.02 0.02 0.04 0.07
0.00 0.01 0.01 0.01 0.02 0.02 0.01 0.03 0.03 0.02 0.01 0.00 0.00 0.00 0.00 0.00 0.00 0.00 0.01 0.02 0.01 0.00 0.00 0.00 0.01 0.01 0.00 0.00 0.00 0.00 0.00 0.00 0.00 0.00 0.00 0.00 0.01 0.01 0.01 0.01 0.02 0.02 0.03 0.06
0.00 0.00 0.01 0.01 0.01 0.00 0.00 0.01 0.00 0.01 0.01 0.00 0.00 0.00 0.00 0.00 0.00 0.00 0.00 0.01 0.01 0.00 0.00 0.00 0.00 0.01 0.01 0.00 0.00 0.00 0.00 0.00 0.00 0.00 0.00 0.00 0.01 0.01 0.01 0.02 0.02 0.03 0.03 0.05
0.00 0.01 0.01 0.01 0.00 0.00 0.00 0.00 0.00 0.00 0.00 0.00 0.00 0.00 0.00 0.00 0.00 0.00 0.00 0.01 0.00 0.00 0.00 0.00 0.00 0.01 0.00 0.00 0.00 0.00 0.00 0.00 0.00 0.00 0.00 0.01 0.01 0.02 0.02 0.02 0.02 0.03 0.03 0.05
0.00 0.00 0.01 0.00 0.00 0.00 0.00 0.00 0.00 0.01 0.00 0.00 0.00 0.00 0.00 0.00 0.00 0.00 0.00 0.00 0.00 0.00 0.00 0.00 0.00 0.00 0.01 0.00 0.00 0.00 0.00 0.00 0.00 0.00 0.00 0.00 0.01 0.02 0.02 0.03 0.03 0.02 0.02 0.03

GEFSCGP_prec_meanprecacc_126.txt.gz
Total_Precipitation_Accumulation
0.24 0.35 0.46 0.44 0.43 0.47 0.40 0.34 0.32 0.30 0.24 0.23 0.23 0.21 0.20 0.18 0.17 0.16 0.14 0.15 0.17 0.18 0.16 0.17 0.20 0.22 0.23 0.22 0.26 0.31 0.36 0.43 0.51 0.59 0.73 0.95 1.23 1.33 1.43 1.39 1.21 1.16 1.28 1.52
0.28 0.22 0.21 0.28 0.35 0.43 0.39 0.36 0.31 0.29 0.18 0.15 0.17 0.15 0.14 0.14 0.15 0.15 0.13 0.13 0.13 0.12 0.11 0.09 0.11 0.13 0.15 0.16 0.17 0.23 0.31 0.41 0.50 0.58 0.76 0.91 1.06 1.07 1.24 1.40 1.38 1.30 1.29 1.44
0.23 0.16 0.18 0.23 0.30 0.34 0.36 0.32 0.33 0.31 0.19 0.12 0.13 0.15 0.11 0.11 0.13 0.14 0.14 0.13 0.12 0.12 0.10 0.08 0.08 0.09 0.10 0.11 0.12 0.16 0.24 0.35 0.47 0.62 0.86 1.07 1.26 1.35 1.41 1.34 1.43 1.44 1.37 1.41
0.30 0.21 0.18 0.23 0.25 0.24 0.29 0.19 0.17 0.20 0.25 0.23 0.22 0.25 0.15 0.16 0.20 0.20 0.20 0.17 0.15 0.14 0.11 0.09 0.07 0.08 0.08 0.09 0.09 0.13 0.22 0.37 0.58 0.79 1.04 1.30 1.50 1.54 1.43 1.48 1.51 1.39 1.33 1.30
0.29 0.20 0.16 0.17 0.16 0.15 0.19 0.13 0.09 0.11 0.17 0.15 0.14 0.20 0.17 0.22 0.31 0.32 0.30 0.26 0.20 0.17 0.14 0.13 0.12 0.14 0.15 0.15 0.17 0.24 0.45 0.70 0.95 1.16 1.42 1.71 1.70 1.59 1.50 1.50 1.47 1.42 1.43 1.40
0.24 0.16 0.16 0.15 0.14 0.13 0.14 0.10 0.09 0.10 0.14 0.11 0.08 0.16 0.25 0.29 0.33 0.37 0.36 0.30 0.23 0.19 0.22 0.27 0.31 0.38 0.43 0.46 0.60 0.80 1.07 1.26 1.34 1.47 1.62 1.74 1.71 1.72 1.67 1.49 1.39 1.39 1.43 1.49
0.15 0.12 0.11 0.10 0.10 0.08 0.08 0.10 0.18 0.20 0.21 0.15 0.13 0.28 0.39 0.34 0.29 0.29 0.30 0.25 0.20 0.24 0.34 0.45 0.61 0.74 0.85 0.97 1.10 1.23 1.42 1.58 1.52 1.49 1.54 1.57 1.58 1.57 1.56 1.50 1.40 1.35 1.36 1.37
0.13 0.10 0.07 0.06 0.05 0.06 0.07 0.14 0.29 0.35 0.29 0.25 0.28 0.48 0.52 0.42 0.31 0.23 0.17 0.17 0.24 0.38 0.52 0.63 0.72 0.83 1.00 1.14 1.19 1.20 1.31 1.42 1.39 1.36 1.32 1.29 1.35 1.37 1.34 1.26 1.25 1.28 1.35 1.33
0.09 0.06 0.04 0.03 0.03 0.04 0.07 0.09 0.16 0.29 0.25 0.24 0.37 0.62 0.58 0.37 0.31 0.25 0.22 0.25 0.39 0.58 0.80 0.94 1.05 1.17 1.21 1.25 1.30 1.22 1.22 1.27 1.28 1.20 1.11 1.10 1.16 1.20 1.23 1.18 1.19 1.17 1.17 1.09
0.06 0.04 0.02 0.01 0.01 0.04 0.10 0.17 0.25 0.43 0.48 0.47 0.55 0.66 0.59 0.47 0.43 0.45 0.52 0.62 0.67 0.78 1.04 1.33 1.58 1.75 1.57 1.30 1.19 1.15 1.07 1.08 1.16 1.13 1.05 1.01 1.10 1.11 1.10 1.13 1.10 1.10 1.10 1.01
0.03 0.04 0.02 0.01 0.04 0.08 0.16 0.26 0.35 0.46 0.57 0.72 0.90 1.00 0.84 0.86 0.88 0.96 1.06 1.10 1.10 1.21 1.19 1.35 1.54 1.71 1.61 1.30 1.06 1.07 1.08 1.03 1.01 1.01 1.02 1.01 0.99 0.90 0.89 0.94 0.95 0.94 0.95 0.99
0.01 0.05 0.03 0.02 0.09 0.16 0.28 0.38 0.52 0.70 0.64 0.70 0.90 1.08 0.95 0.94 0.96 1.05 1.23 1.30 1.29 1.20 1.10 1.09 1.14 1.21 1.22 1.07 0.89 0.85 0.98 1.02 0.96 0.93 0.96 0.95 0.85 0.81 0.78 0.76 0.73 0.66 0.64 0.67
0.02 0.10 0.12 0.12 0.24 0.35 0.53 0.60 0.48 0.46 0.52 0.61 0.84 0.85 0.63 0.58 0.73 0.89 1.05 1.13 1.06 1.00 1.08 1.04 0.96 0.90 0.92 0.89 0.81 0.78 0.91 1.04 1.06 1.01 0.87 0.78 0.74 0.71 0.69 0.61 0.57 0.55 0.50 0.50
0.02 0.08 0.15 0.24 0.31 0.41 0.63 0.71 0.55 0.44 0.50 0.50 0.57 0.51 0.36 0.42 0.59 0.66 0.69 0.70 0.70 0.75 0.78 0.72 0.67 0.62 0.61 0.64 0.68 0.73 0.84 0.91 1.02 1.12 1.01 0.86 0.77 0.70 0.64 0.57 0.54 0.51 0.49 0.52
0.00 0.01 0.03 0.06 0.09 0.17 0.36 0.47 0.38 0.27 0.25 0.31 0.33 0.34 0.37 0.46 0.55 0.54 0.48 0.42 0.41 0.41 0.39 0.38 0.38 0.36 0.34 0.34 0.35 0.44 0.56 0.71 0.89 1.09 1.08 0.92 0.86 0.79 0.65 0.60 0.60 0.58 0.61 0.57
0.00 0.00 0.00 0.02 0.04 0.07 0.17 0.20 0.16 0.09 0.12 0.23 0.29 0.36 0.40 0.46 0.53 0.50 0.42 0.35 0.28 0.26 0.26 0.25 0.23 0.22 0.17 0.15 0.17 0.18 0.26 0.43 0.59 0.75 0.82 0.78 0.69 0.61 0.58 0.57 0.55 0.52 0.51 0.47
0.00 0.00 0.01 0.01 0.02 0.04 0.11 0.11 0.12 0.15 0.15 0.16 0.26 0.38 0.46 0.58 0.76 0.67 0.50 0.41 0.28 0.21 0.20 0.19 0.20 0.19 0.18 0.16 0.15 0.15 0.18 0.25 0.35 0.47 0.56 0.55 0.49 0.43 0.41 0.45 0.45 0.43 0.39 0.40
0.00 0.02 0.06 0.05 0.08 0.19 0.24 0.19 0.26 0.34 0.26 0.22 0.29 0.37 0.50 0.83 1.03 0.66 0.42 0.38 0.31 0.21 0.18 0.17 0.17 0.15 0.14 0.13 0.12 0.12 0.15 0.18 0.19 0.23 0.26 0.28 0.28 0.27 0.29 0.31 0.32 0.33 0.32 0.30
0.00 0.03 0.08 0.10 0.13 0.39 0.36 0.19 0.31 0.36 0.31 0.24 0.32 0.37 0.40 0.45 0.41 0.25 0.15 0.16 0.18 0.13 0.10 0.08 0.08 0.06 0.05 0.05 0.04 0.05 0.06 0.06 0.06 0.06 0.08 0.10 0.12 0.14 0.17 0.18 0.21 0.30 0.33 0.34
0.00 0.02 0.06 0.07 0.08 0.24 0.27 0.10 0.17 0.26 0.31 0.13 0.14 0.16 0.11 0.07 0.08 0.11 0.10 0.06 0.05 0.03 0.02 0.02 0.02 0.01 0.01 0.00 0.01 0.01 0.01 0.01 0.01 0.00 0.00 0.01 0.02 0.03 0.05 0.08 0.11 0.17 0.24 0.31
0.00 0.01 0.02 0.02 0.04 0.07 0.05 0.05 0.10 0.25 0.28 0.07 0.04 0.03 0.01 0.01 0.01 0.05 0.10 0.06 0.03 0.01 0.00 0.00 0.00 0.00 0.00 0.00 0.00 0.00 0.00 0.01 0.01 0.00 0.00 0.00 0.00 0.00 0.01 0.02 0.03 0.06 0.11 0.15
0.00 0.01 0.01 0.01 0.02 0.03 0.01 0.05 0.11 0.11 0.05 0.02 0.01 0.01 0.00 0.00 0.00 0.02 0.05 0.03 0.02 0.01 0.00 0.00 0.01 0.00 0.00 0.00 0.00 0.00 0.00 0.00 0.01 0.00 0.00 0.01 0.01 0.00 0.01 0.02 0.02 0.02 0.04 0.07
0.00 0.01 0.01 0.01 0.02 0.02 0.01 0.03 0.03 0.02 0.01 0.00 0.00 0.00 0.00 0.00 0.00 0.00 0.01 0.02 0.01 0.00 0.00 0.00 0.01 0.01 0.00 0.00 0.00 0.00 0.00 0.00 0.00 0.00 0.00 0.00 0.01 0.01 0.01 0.01 0.02 0.02 0.03 0.06
0.00 0.00 0.01 0.01 0.01 0.00 0.00 0.01 0.00 0.01 0.01 0.00 0.00 0.00 0.00 0.00 0.00 0.00 0.00 0.01 0.01 0.00 0.00 0.00 0.00 0.01 0.01 0.00 0.00 0.00 0.00 0.00 0.00 0.00 0.00 0.00 0.01 0.01 0.01 0.02 0.02 0.03 0.03 0.06
0.00 0.01 0.01 0.01 0.00 0.00 0.00 0.00 0.00 0.00 0.00 0.00 0.00 0.00 0.00 0.00 0.00 0.00 0.00 0.01 0.00 0.00 0.00 0.00 0.00 0.01 0.00 0.00 0.00 0.00 0.00 0.00 0.00 0.00 0.00 0.01 0.01 0.02 0.02 0.02 0.02 0.03 0.03 0.06
0.00 0.00 0.01 0.00 0.00 0.00 0.00 0.00 0.00 0.01 0.00 0.00 0.00 0.00 0.00 0.00 0.00 0.00 0.00 0.00 0.00 0.00 0.00 0.00 0.00 0.00 0.01 0.00 0.00 0.00 0.00 0.00 0.00 0.00 0.00 0.00 0.01 0.02 0.03 0.04 0.03 0.02 0.02 0.03

GEFSCGP_prec_meanprecacc_132.txt.gz
Total_Precipitation_Accumulation
0.26 0.38 0.50 0.48 0.47 0.51 0.44 0.41 0.39 0.37 0.30 0.28 0.28 0.25 0.23 0.20 0.21 0.19 0.17 0.17 0.18 0.18 0.16 0.17 0.21 0.23 0.23 0.23 0.26 0.32 0.36 0.44 0.53 0.61 0.75 0.96 1.23 1.33 1.43 1.39 1.21 1.16 1.28 1.52
0.31 0.26 0.24 0.32 0.38 0.47 0.45 0.46 0.42 0.39 0.25 0.21 0.24 0.20 0.18 0.17 0.20 0.20 0.16 0.15 0.14 0.13 0.11 0.10 0.12 0.14 0.16 0.16 0.17 0.23 0.32 0.42 0.51 0.60 0.77 0.94 1.08 1.07 1.24 1.40 1.38 1.30 1.29 1.44
0.27 0.20 0.21 0.27 0.35 0.43 0.44 0.40 0.41 0.41 0.27 0.18 0.19 0.21 0.15 0.14 0.16 0.17 0.16 0.15 0.14 0.13 0.10 0.09 0.09 0.10 0.10 0.11 0.13 0.17 0.24 0.35 0.48 0.64 0.87 1.09 1.27 1.35 1.41 1.34 1.43 1.44 1.37 1.41
0.33 0.24 0.21 0.28 0.33 0.33 0.36 0.24 0.22 0.25 0.31 0.28 0.26 0.29 0.17 0.17 0.21 0.22 0.22 0.19 0.16 0.15 0.11 0.09 0.08 0.10 0.10 0.10 0.10 0.13 0.22 0.38 0.59 0.80 1.05 1.31 1.51 1.55 1.43 1.48 1.51 1.39 1.33 1.30
0.31 0.23 0.20 0.23 0.22 0.21 0.25 0.18 0.13 0.15 0.22 0.19 0.18 0.23 0.19 0.23 0.31 0.33 0.31 0.27 0.21 0.17 0.15 0.14 0.13 0.16 0.16 0.16 0.18 0.25 0.45 0.70 0.96 1.17 1.43 1.72 1.72 1.60 1.51 1.50 1.47 1.42 1.43 1.40
0.27 0.20 0.20 0.18 0.16 0.15 0.18 0.15 0.14 0.16 0.20 0.17 0.12 0.19 0.27 0.30 0.34 0.37 0.37 0.31 0.23 0.19 0.23 0.28 0.32 0.39 0.44 0.47 0.61 0.80 1.07 1.27 1.35 1.48 1.64 1.76 1.73 1.74 1.67 1.49 1.39 1.39 1.43 1.49
0.19 0.16 0.13 0.12 0.13 0.11 0.11 0.14 0.23 0.26 0.27 0.21 0.15 0.30 0.39 0.34 0.30 0.29 0.30 0.25 0.20 0.24 0.34 0.46 0.61 0.74 0.85 0.97 1.11 1.24 1.43 1.58 1.53 1.50 1.55 1.59 1.59 1.58 1.57 1.50 1.40 1.35 1.36 1.37
0.18 0.14 0.09 0.09 0.09 0.09 0.10 0.17 0.35 0.42 0.32 0.27 0.29 0.49 0.53 0.42 0.31 0.23 0.17 0.17 0.25 0.38 0.52 0.63 0.72 0.83 1.00 1.14 1.20 1.20 1.31 1.42 1.40 1.37 1.34 1.31 1.37 1.39 1.34 1.26 1.25 1.28 1.35 1.33
0.13 0.09 0.05 0.05 0.06 0.07 0.09 0.13 0.19 0.33 0.27 0.25 0.38 0.64 0.58 0.38 0.32 0.25 0.22 0.25 0.39 0.58 0.80 0.94 1.05 1.17 1.22 1.25 1.30 1.23 1.22 1.28 1.28 1.22 1.14 1.12 1.17 1.23 1.24 1.18 1.19 1.17 1.17 1.09
0.08 0.06 0.03 0.03 0.03 0.06 0.12 0.18 0.27 0.46 0.50 0.48 0.56 0.67 0.59 0.47 0.43 0.45 0.52 0.62 0.67 0.78 1.04 1.33 1.58 1.75 1.57 1.30 1.19 1.15 1.08 1.09 1.17 1.14 1.08 1.04 1.11 1.12 1.11 1.13 1.11 1.10 1.10 1.01
0.05 0.05 0.03 0.02 0.05 0.10 0.16 0.27 0.36 0.48 0.59 0.73 0.90 1.00 0.84 0.86 0.88 0.96 1.06 1.10 1.10 1.21 1.19 1.35 1.54 1.71 1.61 1.30 1.07 1.07 1.08 1.04 1.01 1.01 1.03 1.03 1.01 0.91 0.90 0.95 0.95 0.94 0.95 0.99
0.03 0.06 0.04 0.03 0.09 0.16 0.28 0.40 0.53 0.71 0.65 0.70 0.91 1.08 0.95 0.94 0.96 1.05 1.23 1.30 1.29 1.20 1.10 1.09 1.14 1.21 1.23 1.08 0.90 0.86 0.99 1.03 0.97 0.94 0.97 0.96 0.87 0.82 0.78 0.77 0.74 0.66 0.64 0.67
0.03 0.10 0.13 0.13 0.24 0.35 0.53 0.61 0.49 0.47 0.53 0.62 0.84 0.85 0.63 0.58 0.73 0.89 1.05 1.13 1.06 1.00 1.08 1.04 0.96 0.90 0.93 0.89 0.82 0.79 0.92 1.05 1.06 1.02 0.87 0.79 0.75 0.72 0.70 0.61 0.57 0.55 0.50 0.50
0.02 0.08 0.15 0.25 0.31 0.41 0.63 0.71 0.55 0.44 0.51 0.50 0.57 0.51 0.36 0.42 0.59 0.66 0.69 0.70 0.70 0.75 0.78 0.72 0.67 0.62 0.61 0.65 0.69 0.74 0.85 0.92 1.03 1.13 1.02 0.87 0.77 0.70 0.64 0.57 0.54 0.51 0.49 0.52
0.01 0.01 0.03 0.07 0.09 0.17 0.36 0.47 0.38 0.27 0.25 0.31 0.33 0.34 0.37 0.46 0.55 0.54 0.48 0.42 0.41 0.41 0.39 0.38 0.38 0.36 0.35 0.35 0.36 0.45 0.56 0.72 0.90 1.10 1.08 0.92 0.86 0.79 0.65 0.60 0.61 0.58 0.61 0.57
0.00 0.00 0.00 0.02 0.04 0.07 0.17 0.20 0.16 0.09 0.12 0.23 0.29 0.36 0.40 0.46 0.53 0.50 0.42 0.35 0.28 0.26 0.26 0.25 0.23 0.22 0.17 0.16 0.18 0.19 0.26 0.43 0.60 0.76 0.83 0.78 0.70 0.61 0.58 0.57 0.55 0.52 0.51 0.47
0.00 0.00 0.01 0.01 0.02 0.04 0.11 0.11 0.12 0.15 0.15 0.16 0.26 0.38 0.46 0.58 0.76 0.67 0.50 0.41 0.28 0.21 0.20 0.19 0.20 0.19 0.18 0.17 0.16 0.15 0.18 0.25 0.35 0.48 0.57 0.56 0.50 0.44 0.41 0.45 0.46 0.43 0.39 0.40
0.00 0.02 0.06 0.05 0.08 0.19 0.24 0.19 0.26 0.34 0.26 0.22 0.29 0.37 0.50 0.83 1.03 0.66 0.42 0.38 0.31 0.21 0.18 0.17 0.17 0.16 0.14 0.13 0.12 0.12 0.15 0.18 0.19 0.23 0.27 0.28 0.29 0.28 0.29 0.31 0.32 0.33 0.32 0.30
0.00 0.03 0.08 0.10 0.13 0.39 0.36 0.19 0.31 0.36 0.31 0.24 0.32 0.37 0.40 0.45 0.41 0.25 0.15 0.16 0.18 0.13 0.10 0.08 0.08 0.07 0.05 0.05 0.04 0.05 0.06 0.07 0.06 0.07 0.08 0.11 0.13 0.15 0.17 0.18 0.21 0.30 0.33 0.34
0.00 0.02 0.06 0.07 0.08 0.24 0.27 0.10 0.17 0.26 0.31 0.13 0.14 0.16 0.11 0.07 0.08 0.11 0.10 0.06 0.05 0.03 0.02 0.02 0.02 0.01 0.01 0.01 0.01 0.01 0.01 0.01 0.02 0.01 0.01 0.01 0.02 0.03 0.06 0.08 0.11 0.17 0.24 0.31
0.00 0.01 0.02 0.02 0.04 0.07 0.05 0.05 0.10 0.25 0.28 0.07 0.04 0.03 0.01 0.01 0.01 0.05 0.10 0.06 0.03 0.01 0.00 0.00 0.00 0.00 0.00 0.00 0.00 0.00 0.00 0.01 0.01 0.01 0.01 0.01 0.01 0.01 0.01 0.02 0.03 0.06 0.11 0.15
0.00 0.01 0.01 0.01 0.02 0.03 0.01 0.05 0.11 0.11 0.05 0.02 0.01 0.01 0.00 0.00 0.00 0.02 0.05 0.03 0.02 0.01 0.00 0.00 0.01 0.00 0.00 0.00 0.00 0.00 0.00 0.00 0.01 0.01 0.01 0.01 0.01 0.01 0.01 0.02 0.02 0.02 0.04 0.07
0.00 0.01 0.01 0.01 0.02 0.02 0.01 0.03 0.03 0.02 0.01 0.00 0.00 0.00 0.00 0.00 0.00 0.00 0.01 0.02 0.01 0.00 0.00 0.00 0.01 0.01 0.00 0.00 0.00 0.00 0.00 0.00 0.00 0.01 0.01 0.01 0.01 0.01 0.01 0.02 0.02 0.02 0.03 0.06
0.00 0.00 0.01 0.01 0.01 0.00 0.00 0.01 0.00 0.01 0.01 0.00 0.00 0.00 0.00 0.00 0.00 0.00 0.00 0.01 0.01 0.00 0.00 0.00 0.00 0.01 0.01 0.00 0.00 0.00 0.00 0.00 0.00 0.00 0.01 0.01 0.01 0.02 0.01 0.02 0.02 0.03 0.03 0.06
0.00 0.01 0.01 0.01 0.00 0.00 0.00 0.00 0.00 0.00 0.00 0.00 0.00 0.00 0.00 0.00 0.00 0.00 0.00 0.01 0.00 0.00 0.00 0.00 0.00 0.01 0.00 0.00 0.00 0.00 0.00 0.00 0.00 0.00 0.00 0.01 0.01 0.02 0.02 0.02 0.02 0.03 0.03 0.06
0.00 0.00 0.01 0.00 0.00 0.00 0.00 0.00 0.00 0.01 0.00 0.00 0.00 0.00 0.00 0.00 0.00 0.00 0.00 0.00 0.00 0.00 0.00 0.00 0.00 0.00 0.01 0.00 0.00 0.00 0.00 0.00 0.00 0.00 0.00 0.01 0.01 0.02 0.03 0.04 0.03 0.02 0.02 0.03

GEFSCGP_prec_meanprecacc_138.txt.gz
Total_Precipitation_Accumulation
0.29 0.41 0.53 0.51 0.52 0.56 0.50 0.46 0.44 0.42 0.35 0.33 0.31 0.27 0.25 0.23 0.23 0.21 0.18 0.18 0.18 0.19 0.17 0.18 0.22 0.23 0.24 0.23 0.26 0.32 0.36 0.44 0.53 0.61 0.75 0.96 1.24 1.35 1.44 1.40 1.22 1.16 1.28 1.52
0.34 0.29 0.27 0.33 0.41 0.51 0.50 0.51 0.46 0.43 0.29 0.26 0.27 0.23 0.20 0.19 0.22 0.21 0.17 0.16 0.14 0.13 0.11 0.10 0.12 0.15 0.16 0.16 0.18 0.24 0.32 0.42 0.51 0.60 0.77 0.94 1.08 1.08 1.26 1.41 1.39 1.30 1.29 1.44
0.30 0.23 0.22 0.30 0.39 0.49 0.49 0.45 0.45 0.45 0.30 0.22 0.22 0.23 0.16 0.15 0.18 0.18 0.17 0.15 0.14 0.13 0.10 0.09 0.09 0.10 0.10 0.12 0.13 0.17 0.24 0.35 0.48 0.64 0.87 1.09 1.27 1.36 1.42 1.35 1.43 1.44 1.37 1.41
0.35 0.26 0.23 0.31 0.37 0.38 0.43 0.28 0.25 0.28 0.33 0.30 0.28 0.31 0.19 0.19 0.23 0.24 0.23 0.19 0.17 0.15 0.11 0.10 0.09 0.10 0.10 0.10 0.10 0.14 0.23 0.38 0.59 0.80 1.06 1.31 1.51 1.55 1.44 1.48 1.51 1.39 1.33 1.30
0.34 0.25 0.22 0.25 0.26 0.25 0.30 0.22 0.16 0.20 0.25 0.21 0.20 0.26 0.21 0.25 0.33 0.34 0.31 0.27 0.21 0.18 0.15 0.14 0.13 0.16 0.17 0.17 0.18 0.25 0.45 0.70 0.96 1.17 1.43 1.72 1.72 1.61 1.51 1.51 1.47 1.42 1.43 1.40
0.29 0.23 0.23 0.20 0.20 0.19 0.22 0.19 0.18 0.20 0.23 0.19 0.14 0.21 0.28 0.30 0.34 0.38 0.37 0.31 0.24 0.20 0.23 0.28 0.33 0.39 0.44 0.47 0.61 0.81 1.08 1.27 1.36 1.48 1.64 1.76 1.73 1.74 1.68 1.49 1.40 1.39 1.43 1.49
0.22 0.21 0.18 0.14 0.16 0.16 0.16 0.18 0.27 0.30 0.29 0.23 0.16 0.30 0.39 0.35 0.30 0.30 0.31 0.26 0.20 0.24 0.34 0.46 0.61 0.74 0.85 0.97 1.11 1.24 1.43 1.59 1.54 1.51 1.55 1.59 1.60 1.59 1.57 1.51 1.41 1.35 1.36 1.37
0.22 0.20 0.14 0.11 0.12 0.12 0.13 0.19 0.36 0.44 0.34 0.29 0.29 0.49 0.53 0.42 0.31 0.23 0.18 0.17 0.25 0.38 0.52 0.63 0.72 0.83 1.00 1.14 1.20 1.21 1.32 1.43 1.40 1.38 1.34 1.31 1.37 1.40 1.35 1.27 1.25 1.28 1.35 1.33
0.16 0.11 0.08 0.07 0.08 0.08 0.11 0.14 0.20 0.33 0.27 0.26 0.38 0.64 0.58 0.38 0.32 0.26 0.22 0.26 0.39 0.58 0.80 0.94 1.05 1.17 1.22 1.25 1.31 1.23 1.23 1.28 1.29 1.23 1.14 1.13 1.18 1.23 1.25 1.19 1.20 1.18 1.17 1.09
0.09 0.07 0.05 0.04 0.05 0.07 0.13 0.19 0.28 0.46 0.51 0.49 0.56 0.67 0.59 0.47 0.43 0.45 0.52 0.62 0.68 0.78 1.04 1.33 1.58 1.75 1.57 1.31 1.20 1.15 1.08 1.09 1.18 1.16 1.09 1.04 1.12 1.13 1.11 1.14 1.11 1.10 1.10 1.01
0.06 0.06 0.04 0.03 0.06 0.10 0.17 0.28 0.36 0.49 0.59 0.73 0.90 1.00 0.84 0.86 0.88 0.96 1.06 1.10 1.11 1.21 1.19 1.35 1.54 1.71 1.61 1.30 1.07 1.08 1.09 1.05 1.03 1.03 1.05 1.04 1.01 0.91 0.90 0.95 0.96 0.95 0.95 0.99
0.03 0.07 0.04 0.04 0.09 0.17 0.29 0.40 0.53 0.71 0.65 0.70 0.91 1.08 0.95 0.94 0.96 1.05 1.23 1.31 1.29 1.20 1.10 1.09 1.14 1.21 1.23 1.08 0.90 0.86 1.00 1.05 0.99 0.96 0.98 0.97 0.88 0.82 0.79 0.77 0.74 0.66 0.64 0.67
0.03 0.11 0.14 0.13 0.25 0.35 0.54 0.61 0.49 0.47 0.53 0.62 0.84 0.85 0.63 0.58 0.73 0.89 1.05 1.13 1.06 1.00 1.08 1.04 0.96 0.90 0.93 0.89 0.82 0.79 0.93 1.06 1.08 1.05 0.89 0.80 0.76 0.72 0.71 0.62 0.58 0.55 0.50 0.50
0.02 0.09 0.15 0.25 0.31 0.41 0.63 0.71 0.55 0.44 0.51 0.50 0.57 0.51 0.36 0.42 0.59 0.66 0.69 0.70 0.70 0.75 0.78 0.72 0.67 0.62 0.61 0.65 0.69 0.75 0.86 0.93 1.05 1.16 1.03 0.87 0.78 0.70 0.65 0.58 0.55 0.51 0.49 0.52
0.01 0.01 0.03 0.07 0.09 0.17 0.36 0.47 0.38 0.27 0.25 0.31 0.33 0.34 0.37 0.46 0.55 0.54 0.48 0.42 0.41 0.41 0.39 0.38 0.38 0.36 0.35 0.35 0.36 0.45 0.58 0.74 0.92 1.11 1.09 0.93 0.86 0.79 0.66 0.60 0.61 0.58 0.61 0.57
0.00 0.00 0.01 0.02 0.04 0.08 0.17 0.20 0.16 0.09 0.12 0.23 0.29 0.36 0.40 0.46 0.53 0.50 0.42 0.35 0.28 0.26 0.26 0.25 0.23 0.22 0.17 0.16 0.18 0.20 0.28 0.45 0.61 0.76 0.83 0.79 0.70 0.61 0.58 0.58 0.56 0.52 0.51 0.47
0.00 0.00 0.02 0.01 0.02 0.04 0.11 0.11 0.12 0.15 0.15 0.16 0.26 0.38 0.46 0.58 0.76 0.67 0.50 0.41 0.28 0.21 0.20 0.19 0.20 0.19 0.18 0.17 0.16 0.16 0.20 0.26 0.35 0.48 0.57 0.56 0.50 0.44 0.41 0.45 0.46 0.43 0.39 0.40
0.00 0.02 0.06 0.05 0.08 0.19 0.24 0.19 0.26 0.34 0.26 0.22 0.29 0.37 0.50 0.83 1.03 0.66 0.42 0.38 0.31 0.21 0.18 0.17 0.17 0.16 0.15 0.13 0.12 0.13 0.16 0.18 0.19 0.23 0.27 0.29 0.29 0.28 0.29 0.32 0.32 0.33 0.32 0.30
0.00 0.03 0.08 0.10 0.13 0.39 0.36 0.19 0.31 0.36 0.31 0.24 0.32 0.37 0.40 0.45 0.41 0.25 0.15 0.16 0.18 0.13 0.10 0.08 0.08 0.07 0.05 0.05 0.04 0.05 0.06 0.07 0.07 0.07 0.09 0.11 0.13 0.15 0.18 0.19 0.22 0.30 0.33 0.34
0.00 0.02 0.06 0.07 0.08 0.24 0.27 0.10 0.17 0.26 0.31 0.13 0.14 0.16 0.11 0.07 0.08 0.11 0.10 0.06 0.05 0.03 0.02 0.02 0.02 0.02 0.01 0.01 0.01 0.01 0.01 0.01 0.02 0.01 0.01 0.02 0.02 0.03 0.06 0.09 0.11 0.17 0.24 0.31
0.00 0.01 0.02 0.02 0.04 0.07 0.05 0.05 0.10 0.25 0.28 0.07 0.04 0.03 0.01 0.01 0.01 0.05 0.10 0.06 0.03 0.01 0.00 0.00 0.00 0.00 0.00 0.00 0.00 0.00 0.00 0.01 0.01 0.01 0.01 0.01 0.01 0.01 0.01 0.02 0.03 0.06 0.11 0.15
0.00 0.01 0.01 0.01 0.02 0.03 0.01 0.05 0.11 0.11 0.05 0.02 0.01 0.01 0.00 0.00 0.00 0.02 0.05 0.03 0.02 0.01 0.00 0.00 0.01 0.00 0.00 0.00 0.00 0.00 0.00 0.00 0.01 0.01 0.01 0.01 0.01 0.01 0.01 0.02 0.02 0.02 0.04 0.07
0.00 0.01 0.01 0.01 0.02 0.02 0.01 0.03 0.03 0.02 0.01 0.00 0.00 0.00 0.00 0.00 0.00 0.00 0.01 0.02 0.01 0.00 0.00 0.00 0.01 0.01 0.00 0.00 0.00 0.00 0.00 0.00 0.00 0.01 0.01 0.01 0.01 0.01 0.01 0.02 0.02 0.02 0.04 0.06
0.00 0.00 0.01 0.01 0.01 0.00 0.00 0.01 0.00 0.01 0.01 0.00 0.00 0.00 0.00 0.00 0.00 0.00 0.00 0.01 0.01 0.00 0.00 0.00 0.00 0.01 0.01 0.00 0.00 0.00 0.00 0.00 0.00 0.00 0.01 0.01 0.01 0.02 0.01 0.02 0.03 0.03 0.03 0.06
0.00 0.01 0.01 0.01 0.00 0.00 0.00 0.00 0.00 0.00 0.00 0.00 0.00 0.00 0.00 0.00 0.00 0.00 0.00 0.01 0.00 0.00 0.00 0.00 0.00 0.01 0.00 0.00 0.00 0.00 0.00 0.00 0.00 0.00 0.00 0.01 0.01 0.02 0.02 0.02 0.02 0.03 0.03 0.06
0.00 0.00 0.01 0.00 0.00 0.00 0.00 0.00 0.00 0.01 0.00 0.00 0.00 0.00 0.00 0.00 0.00 0.00 0.00 0.00 0.00 0.00 0.00 0.00 0.00 0.00 0.01 0.00 0.00 0.00 0.00 0.00 0.00 0.00 0.00 0.01 0.01 0.02 0.03 0.04 0.03 0.02 0.02 0.04

GEFSCGP_prec_meanprecacc_144.txt.gz
Total_Precipitation_Accumulation
0.33 0.46 0.60 0.58 0.55 0.58 0.54 0.52 0.52 0.51 0.42 0.38 0.36 0.31 0.31 0.29 0.28 0.25 0.22 0.20 0.19 0.20 0.17 0.18 0.22 0.24 0.24 0.23 0.26 0.32 0.36 0.44 0.53 0.61 0.75 0.96 1.24 1.35 1.44 1.40 1.22 1.16 1.28 1.52
0.37 0.34 0.32 0.36 0.42 0.53 0.54 0.58 0.54 0.51 0.36 0.31 0.31 0.26 0.25 0.25 0.27 0.25 0.20 0.18 0.15 0.14 0.11 0.10 0.12 0.15 0.16 0.16 0.18 0.24 0.32 0.42 0.51 0.60 0.77 0.94 1.08 1.08 1.26 1.41 1.39 1.30 1.29 1.44
0.33 0.26 0.25 0.32 0.42 0.52 0.53 0.50 0.51 0.51 0.36 0.27 0.26 0.27 0.20 0.19 0.21 0.20 0.19 0.16 0.15 0.14 0.11 0.09 0.10 0.10 0.11 0.12 0.13 0.17 0.24 0.35 0.48 0.64 0.87 1.09 1.27 1.36 1.42 1.35 1.43 1.44 1.37 1.41
0.37 0.28 0.25 0.33 0.40 0.41 0.46 0.32 0.29 0.33 0.39 0.36 0.32 0.36 0.22 0.22 0.27 0.26 0.24 0.20 0.17 0.16 0.12 0.10 0.09 0.10 0.10 0.11 0.10 0.14 0.23 0.38 0.59 0.80 1.06 1.31 1.51 1.55 1.44 1.48 1.51 1.39 1.34 1.30
0.35 0.26 0.24 0.27 0.28 0.27 0.32 0.25 0.20 0.24 0.30 0.26 0.22 0.30 0.25 0.27 0.37 0.37 0.32 0.28 0.22 0.18 0.16 0.15 0.13 0.16 0.17 0.17 0.18 0.25 0.45 0.70 0.96 1.17 1.43 1.72 1.72 1.61 1.51 1.51 1.48 1.42 1.43 1.40
0.30 0.23 0.24 0.22 0.21 0.21 0.24 0.23 0.23 0.24 0.26 0.23 0.16 0.24 0.32 0.32 0.36 0.39 0.38 0.32 0.24 0.20 0.23 0.28 0.33 0.39 0.44 0.47 0.61 0.81 1.08 1.27 1.36 1.49 1.64 1.76 1.73 1.74 1.68 1.50 1.40 1.39 1.44 1.49
0.24 0.22 0.18 0.15 0.18 0.19 0.19 0.23 0.32 0.35 0.34 0.25 0.17 0.32 0.41 0.36 0.30 0.30 0.31 0.26 0.21 0.25 0.34 0.46 0.61 0.74 0.85 0.97 1.11 1.24 1.43 1.59 1.54 1.51 1.56 1.59 1.60 1.59 1.57 1.51 1.41 1.35 1.36 1.37
0.23 0.21 0.15 0.12 0.13 0.14 0.16 0.22 0.39 0.46 0.36 0.30 0.30 0.50 0.54 0.43 0.32 0.23 0.18 0.17 0.25 0.38 0.52 0.63 0.72 0.83 1.00 1.14 1.20 1.21 1.32 1.43 1.40 1.38 1.35 1.32 1.37 1.40 1.35 1.27 1.26 1.29 1.36 1.33
0.16 0.13 0.09 0.08 0.09 0.10 0.13 0.16 0.21 0.34 0.28 0.27 0.39 0.64 0.58 0.38 0.32 0.26 0.22 0.26 0.40 0.58 0.80 0.94 1.05 1.17 1.22 1.25 1.31 1.23 1.23 1.28 1.29 1.23 1.15 1.13 1.18 1.24 1.25 1.19 1.20 1.18 1.18 1.10
0.10 0.08 0.06 0.06 0.07 0.08 0.14 0.21 0.28 0.47 0.51 0.49 0.56 0.67 0.59 0.47 0.43 0.45 0.52 0.62 0.68 0.78 1.04 1.33 1.58 1.75 1.57 1.31 1.20 1.15 1.08 1.09 1.18 1.16 1.09 1.05 1.13 1.13 1.12 1.15 1.12 1.11 1.10 1.01
0.06 0.07 0.05 0.04 0.07 0.11 0.18 0.29 0.37 0.49 0.59 0.73 0.90 1.00 0.84 0.86 0.88 0.96 1.06 1.11 1.11 1.21 1.19 1.35 1.54 1.71 1.61 1.30 1.07 1.08 1.09 1.05 1.03 1.03 1.05 1.05 1.03 0.93 0.91 0.96 0.97 0.96 0.96 1.00
0.04 0.07 0.05 0.04 0.10 0.17 0.29 0.41 0.54 0.72 0.65 0.71 0.91 1.08 0.95 0.94 0.96 1.05 1.23 1.31 1.30 1.20 1.10 1.09 1.14 1.21 1.23 1.08 0.90 0.86 1.00 1.05 1.00 0.97 0.99 0.99 0.90 0.84 0.81 0.79 0.76 0.67 0.64 0.67
0.03 0.11 0.14 0.14 0.25 0.36 0.54 0.61 0.49 0.47 0.53 0.62 0.84 0.85 0.63 0.58 0.73 0.89 1.05 1.13 1.06 1.00 1.08 1.04 0.96 0.90 0.93 0.90 0.82 0.79 0.93 1.07 1.10 1.07 0.91 0.82 0.78 0.75 0.73 0.64 0.59 0.56 0.50 0.50
0.03 0.09 0.15 0.25 0.31 0.41 0.63 0.71 0.55 0.44 0.51 0.50 0.57 0.51 0.36 0.42 0.59 0.66 0.69 0.70 0.71 0.75 0.78 0.72 0.67 0.62 0.61 0.65 0.69 0.75 0.86 0.94 1.06 1.18 1.06 0.91 0.81 0.73 0.68 0.60 0.55 0.52 0.49 0.52
0.01 0.01 0.03 0.07 0.10 0.18 0.36 0.47 0.38 0.27 0.25 0.31 0.33 0.34 0.38 0.46 0.55 0.54 0.48 0.42 0.41 0.41 0.39 0.38 0.38 0.36 0.35 0.35 0.36 0.45 0.59 0.74 0.93 1.14 1.13 0.97 0.90 0.83 0.69 0.62 0.61 0.58 0.61 0.57
0.00 0.00 0.01 0.02 0.04 0.08 0.17 0.20 0.16 0.09 0.12 0.23 0.29 0.36 0.40 0.46 0.53 0.50 0.42 0.35 0.28 0.26 0.26 0.25 0.23 0.22 0.17 0.16 0.18 0.20 0.29 0.45 0.63 0.79 0.87 0.83 0.73 0.64 0.60 0.59 0.56 0.53 0.51 0.47
0.00 0.00 0.02 0.01 0.02 0.04 0.11 0.11 0.12 0.15 0.15 0.16 0.26 0.38 0.46 0.58 0.76 0.67 0.50 0.41 0.28 0.21 0.20 0.19 0.20 0.19 0.18 0.17 0.16 0.17 0.21 0.27 0.37 0.50 0.60 0.58 0.52 0.45 0.42 0.46 0.46 0.44 0.39 0.40
0.00 0.03 0.06 0.05 0.08 0.19 0.24 0.19 0.26 0.34 0.26 0.22 0.29 0.37 0.50 0.83 1.03 0.66 0.42 0.38 0.31 0.21 0.18 0.17 0.17 0.16 0.15 0.13 0.12 0.13 0.16 0.18 0.19 0.24 0.29 0.30 0.30 0.29 0.30 0.32 0.33 0.33 0.32 0.30
0.00 0.04 0.08 0.10 0.13 0.39 0.36 0.19 0.31 0.36 0.31 0.24 0.32 0.37 0.40 0.45 0.41 0.25 0.15 0.16 0.18 0.13 0.10 0.08 0.08 0.07 0.05 0.05 0.04 0.05 0.06 0.07 0.07 0.07 0.09 0.11 0.13 0.16 0.18 0.19 0.22 0.30 0.33 0.34
0.00 0.02 0.06 0.07 0.08 0.24 0.27 0.10 0.17 0.26 0.31 0.13 0.14 0.16 0.11 0.07 0.08 0.11 0.10 0.06 0.05 0.03 0.02 0.02 0.02 0.02 0.01 0.01 0.01 0.01 0.01 0.01 0.02 0.01 0.01 0.02 0.03 0.04 0.06 0.09 0.12 0.17 0.24 0.31
0.00 0.01 0.02 0.02 0.04 0.07 0.05 0.05 0.10 0.25 0.28 0.07 0.04 0.03 0.01 0.01 0.01 0.05 0.10 0.06 0.03 0.01 0.00 0.00 0.00 0.00 0.00 0.00 0.00 0.00 0.00 0.01 0.01 0.01 0.01 0.01 0.01 0.01 0.02 0.03 0.04 0.06 0.11 0.15
0.00 0.01 0.01 0.01 0.02 0.03 0.01 0.05 0.11 0.11 0.05 0.02 0.01 0.01 0.00 0.00 0.00 0.02 0.05 0.03 0.02 0.01 0.00 0.00 0.01 0.00 0.00 0.00 0.00 0.00 0.00 0.00 0.01 0.01 0.01 0.01 0.01 0.01 0.01 0.02 0.03 0.02 0.04 0.07
0.00 0.01 0.01 0.01 0.02 0.02 0.01 0.03 0.03 0.02 0.01 0.00 0.00 0.00 0.00 0.00 0.00 0.00 0.01 0.02 0.01 0.00 0.00 0.00 0.01 0.01 0.00 0.00 0.00 0.00 0.00 0.00 0.00 0.01 0.01 0.01 0.01 0.01 0.01 0.02 0.03 0.02 0.04 0.06
0.00 0.00 0.01 0.01 0.01 0.00 0.00 0.01 0.00 0.01 0.01 0.00 0.00 0.00 0.00 0.00 0.00 0.00 0.00 0.01 0.01 0.00 0.00 0.00 0.00 0.01 0.01 0.00 0.00 0.00 0.00 0.00 0.00 0.00 0.01 0.01 0.01 0.02 0.02 0.02 0.03 0.03 0.03 0.06
0.00 0.01 0.01 0.01 0.00 0.00 0.00 0.00 0.00 0.00 0.00 0.00 0.00 0.00 0.00 0.00 0.00 0.00 0.00 0.01 0.00 0.00 0.00 0.00 0.00 0.01 0.00 0.00 0.00 0.00 0.00 0.00 0.00 0.00 0.00 0.01 0.01 0.02 0.02 0.02 0.02 0.03 0.04 0.06
0.00 0.00 0.01 0.00 0.00 0.00 0.00 0.00 0.00 0.01 0.00 0.00 0.00 0.00 0.00 0.00 0.00 0.00 0.00 0.00 0.00 0.00 0.00 0.00 0.00 0.00 0.01 0.00 0.00 0.00 0.00 0.00 0.00 0.00 0.00 0.01 0.01 0.02 0.03 0.04 0.03 0.02 0.03 0.04

GEFSCGP_prec_meanprecacc_150.txt.gz
Total_Precipitation_Accumulation
0.36 0.53 0.73 0.68 0.63 0.65 0.62 0.63 0.65 0.60 0.46 0.46 0.46 0.40 0.36 0.32 0.31 0.31 0.28 0.24 0.22 0.21 0.18 0.18 0.22 0.24 0.24 0.23 0.26 0.32 0.36 0.44 0.53 0.61 0.75 0.96 1.24 1.35 1.44 1.40 1.22 1.16 1.28 1.52
0.43 0.45 0.40 0.40 0.45 0.57 0.60 0.68 0.67 0.61 0.40 0.37 0.38 0.33 0.29 0.28 0.30 0.29 0.26 0.23 0.18 0.16 0.12 0.10 0.13 0.15 0.16 0.17 0.18 0.24 0.32 0.42 0.51 0.60 0.77 0.94 1.08 1.08 1.26 1.41 1.39 1.30 1.29 1.44
0.42 0.35 0.28 0.34 0.44 0.57 0.60 0.59 0.59 0.59 0.42 0.34 0.34 0.35 0.26 0.23 0.23 0.23 0.23 0.20 0.19 0.16 0.11 0.10 0.10 0.10 0.11 0.12 0.13 0.17 0.24 0.35 0.48 0.64 0.87 1.09 1.27 1.36 1.42 1.35 1.43 1.44 1.37 1.41
0.42 0.31 0.27 0.35 0.43 0.45 0.54 0.36 0.33 0.38 0.45 0.45 0.40 0.47 0.29 0.26 0.30 0.29 0.26 0.22 0.20 0.19 0.13 0.11 0.09 0.10 0.10 0.11 0.10 0.14 0.23 0.38 0.59 0.80 1.06 1.31 1.51 1.55 1.44 1.48 1.51 1.39 1.34 1.30
0.37 0.28 0.26 0.30 0.30 0.28 0.34 0.27 0.23 0.28 0.36 0.33 0.26 0.36 0.31 0.31 0.41 0.39 0.33 0.29 0.23 0.20 0.17 0.15 0.14 0.16 0.17 0.17 0.18 0.25 0.45 0.70 0.96 1.17 1.43 1.72 1.72 1.61 1.51 1.51 1.48 1.42 1.43 1.40
0.31 0.24 0.26 0.23 0.22 0.22 0.25 0.24 0.25 0.28 0.33 0.31 0.21 0.28 0.35 0.34 0.39 0.41 0.39 0.32 0.25 0.21 0.24 0.29 0.34 0.39 0.44 0.47 0.61 0.81 1.08 1.27 1.36 1.49 1.64 1.76 1.73 1.74 1.68 1.50 1.40 1.39 1.44 1.49
0.26 0.23 0.19 0.16 0.19 0.20 0.19 0.26 0.41 0.45 0.45 0.33 0.20 0.36 0.44 0.37 0.32 0.31 0.32 0.27 0.21 0.25 0.35 0.47 0.62 0.74 0.85 0.97 1.11 1.24 1.43 1.59 1.54 1.51 1.56 1.59 1.60 1.59 1.57 1.51 1.41 1.36 1.36 1.38
0.26 0.25 0.17 0.13 0.14 0.15 0.17 0.25 0.48 0.57 0.46 0.36 0.32 0.52 0.55 0.44 0.33 0.24 0.18 0.18 0.26 0.39 0.53 0.64 0.72 0.84 1.00 1.14 1.20 1.21 1.32 1.43 1.40 1.38 1.35 1.32 1.37 1.40 1.35 1.28 1.26 1.29 1.36 1.34
0.19 0.16 0.09 0.08 0.10 0.11 0.14 0.17 0.24 0.39 0.31 0.31 0.41 0.65 0.59 0.39 0.33 0.26 0.23 0.26 0.40 0.59 0.80 0.95 1.05 1.17 1.22 1.25 1.31 1.23 1.23 1.28 1.29 1.23 1.15 1.13 1.18 1.24 1.25 1.19 1.20 1.19 1.18 1.10
0.11 0.10 0.06 0.06 0.07 0.08 0.15 0.21 0.29 0.49 0.55 0.55 0.59 0.68 0.60 0.47 0.44 0.46 0.53 0.63 0.68 0.78 1.04 1.33 1.58 1.75 1.57 1.31 1.20 1.15 1.08 1.09 1.18 1.17 1.10 1.06 1.13 1.13 1.12 1.15 1.12 1.11 1.11 1.02
0.07 0.09 0.06 0.05 0.08 0.12 0.18 0.29 0.37 0.50 0.61 0.76 0.94 1.01 0.84 0.86 0.88 0.96 1.07 1.11 1.11 1.21 1.19 1.35 1.54 1.71 1.61 1.30 1.07 1.08 1.09 1.06 1.04 1.04 1.06 1.06 1.04 0.93 0.92 0.96 0.97 0.96 0.96 1.01
0.04 0.08 0.07 0.05 0.11 0.17 0.29 0.41 0.54 0.73 0.67 0.71 0.92 1.09 0.95 0.94 0.96 1.05 1.23 1.31 1.30 1.20 1.10 1.09 1.14 1.21 1.23 1.08 0.90 0.86 1.00 1.05 1.01 0.99 1.01 1.00 0.91 0.85 0.81 0.79 0.76 0.68 0.65 0.68
0.03 0.12 0.18 0.17 0.27 0.36 0.54 0.61 0.49 0.47 0.53 0.62 0.85 0.85 0.63 0.58 0.73 0.89 1.05 1.13 1.06 1.00 1.08 1.04 0.96 0.90 0.93 0.90 0.82 0.79 0.93 1.07 1.11 1.08 0.93 0.83 0.79 0.75 0.73 0.65 0.60 0.57 0.51 0.52
0.03 0.09 0.17 0.28 0.33 0.41 0.63 0.71 0.55 0.44 0.51 0.51 0.57 0.51 0.36 0.42 0.59 0.66 0.69 0.70 0.71 0.75 0.78 0.72 0.67 0.62 0.62 0.65 0.69 0.75 0.86 0.94 1.07 1.19 1.08 0.93 0.83 0.75 0.70 0.62 0.57 0.53 0.51 0.54
0.01 0.01 0.04 0.07 0.10 0.18 0.36 0.47 0.38 0.27 0.25 0.32 0.33 0.34 0.38 0.46 0.55 0.54 0.48 0.42 0.41 0.41 0.39 0.38 0.38 0.36 0.35 0.35 0.36 0.46 0.59 0.74 0.94 1.16 1.16 1.00 0.93 0.85 0.72 0.65 0.64 0.61 0.64 0.59
0.00 0.00 0.01 0.02 0.04 0.08 0.17 0.20 0.16 0.09 0.12 0.23 0.29 0.36 0.40 0.46 0.53 0.50 0.42 0.35 0.28 0.26 0.26 0.25 0.23 0.22 0.17 0.16 0.18 0.20 0.29 0.46 0.64 0.81 0.89 0.85 0.76 0.66 0.63 0.61 0.59 0.55 0.52 0.48
0.00 0.01 0.02 0.02 0.02 0.04 0.11 0.11 0.12 0.15 0.15 0.16 0.26 0.38 0.46 0.58 0.76 0.67 0.50 0.41 0.28 0.21 0.20 0.19 0.20 0.19 0.18 0.17 0.16 0.17 0.21 0.27 0.37 0.51 0.61 0.60 0.54 0.47 0.44 0.47 0.47 0.44 0.39 0.40
0.00 0.03 0.06 0.06 0.08 0.19 0.24 0.19 0.26 0.34 0.26 0.22 0.29 0.37 0.50 0.83 1.03 0.66 0.42 0.38 0.31 0.21 0.18 0.17 0.17 0.16 0.15 0.13 0.12 0.13 0.16 0.19 0.20 0.25 0.30 0.31 0.31 0.30 0.31 0.33 0.34 0.33 0.32 0.30
0.00 0.04 0.08 0.10 0.14 0.40 0.36 0.19 0.31 0.36 0.31 0.24 0.32 0.37 0.40 0.45 0.41 0.25 0.15 0.16 0.18 0.13 0.10 0.08 0.08 0.07 0.05 0.05 0.04 0.05 0.06 0.07 0.07 0.08 0.10 0.12 0.15 0.17 0.19 0.19 0.22 0.30 0.34 0.34
0.00 0.02 0.06 0.07 0.09 0.24 0.27 0.10 0.17 0.26 0.31 0.13 0.14 0.16 0.11 0.07 0.08 0.11 0.10 0.06 0.05 0.03 0.02 0.02 0.02 0.02 0.01 0.01 0.01 0.01 0.01 0.01 0.02 0.02 0.02 0.03 0.04 0.05 0.07 0.10 0.12 0.18 0.24 0.31
0.00 0.01 0.02 0.02 0.05 0.07 0.05 0.05 0.10 0.25 0.28 0.07 0.04 0.03 0.01 0.01 0.01 0.05 0.10 0.06 0.03 0.01 0.00 0.00 0.00 0.00 0.00 0.00 0.00 0.00 0.00 0.01 0.01 0.01 0.02 0.02 0.02 0.01 0.02 0.03 0.04 0.06 0.11 0.15
0.00 0.01 0.01 0.01 0.02 0.03 0.02 0.05 0.11 0.11 0.05 0.02 0.01 0.01 0.00 0.00 0.00 0.02 0.05 0.03 0.02 0.01 0.00 0.00 0.01 0.00 0.00 0.00 0.00 0.00 0.00 0.00 0.01 0.01 0.01 0.01 0.01 0.01 0.01 0.03 0.03 0.03 0.04 0.07
0.00 0.01 0.01 0.01 0.02 0.02 0.01 0.03 0.03 0.02 0.01 0.00 0.00 0.00 0.00 0.00 0.00 0.00 0.01 0.02 0.01 0.00 0.00 0.00 0.01 0.01 0.00 0.00 0.00 0.00 0.00 0.00 0.00 0.01 0.01 0.01 0.01 0.01 0.01 0.02 0.03 0.02 0.04 0.06
0.00 0.00 0.01 0.01 0.01 0.00 0.00 0.01 0.00 0.01 0.01 0.00 0.00 0.00 0.00 0.00 0.00 0.00 0.00 0.01 0.01 0.00 0.00 0.00 0.00 0.01 0.01 0.00 0.00 0.00 0.00 0.00 0.00 0.00 0.01 0.01 0.01 0.02 0.02 0.02 0.03 0.03 0.03 0.06
0.00 0.01 0.01 0.01 0.00 0.00 0.00 0.00 0.00 0.00 0.00 0.00 0.00 0.00 0.00 0.00 0.00 0.00 0.00 0.01 0.00 0.00 0.00 0.00 0.00 0.01 0.00 0.00 0.00 0.00 0.00 0.00 0.00 0.00 0.00 0.01 0.01 0.02 0.02 0.02 0.02 0.03 0.04 0.06
0.00 0.00 0.01 0.00 0.00 0.00 0.00 0.00 0.00 0.01 0.00 0.00 0.00 0.00 0.00 0.00 0.00 0.00 0.00 0.00 0.00 0.00 0.00 0.00 0.00 0.00 0.01 0.00 0.00 0.00 0.00 0.00 0.00 0.00 0.00 0.01 0.01 0.02 0.03 0.04 0.03 0.02 0.03 0.04

GEFSCGP_prec_meanprecacc_156.txt.gz
Total_Precipitation_Accumulation
0.40 0.60 0.83 0.77 0.72 0.74 0.75 0.77 0.80 0.71 0.53 0.52 0.51 0.43 0.39 0.36 0.35 0.35 0.31 0.25 0.23 0.22 0.18 0.18 0.22 0.24 0.24 0.23 0.26 0.32 0.36 0.44 0.53 0.61 0.75 0.96 1.24 1.35 1.44 1.40 1.22 1.16 1.28 1.52
0.47 0.53 0.49 0.45 0.51 0.65 0.72 0.83 0.83 0.72 0.47 0.42 0.42 0.35 0.31 0.31 0.34 0.32 0.30 0.26 0.19 0.17 0.12 0.11 0.13 0.15 0.16 0.17 0.18 0.24 0.32 0.42 0.51 0.60 0.77 0.94 1.08 1.08 1.26 1.41 1.39 1.30 1.29 1.44
0.46 0.42 0.35 0.39 0.50 0.66 0.70 0.69 0.70 0.69 0.52 0.41 0.38 0.37 0.28 0.24 0.25 0.26 0.26 0.24 0.21 0.17 0.12 0.10 0.10 0.10 0.11 0.12 0.13 0.17 0.24 0.35 0.48 0.64 0.87 1.09 1.27 1.36 1.42 1.35 1.43 1.44 1.37 1.41
0.47 0.37 0.34 0.41 0.48 0.53 0.62 0.41 0.38 0.44 0.53 0.53 0.45 0.51 0.31 0.27 0.31 0.30 0.28 0.24 0.22 0.20 0.14 0.11 0.09 0.11 0.10 0.11 0.10 0.14 0.23 0.38 0.59 0.80 1.06 1.31 1.51 1.55 1.44 1.48 1.51 1.39 1.34 1.30
0.41 0.32 0.31 0.37 0.35 0.32 0.38 0.31 0.28 0.34 0.42 0.39 0.32 0.40 0.33 0.32 0.42 0.39 0.34 0.30 0.24 0.21 0.18 0.16 0.14 0.16 0.17 0.17 0.18 0.25 0.45 0.70 0.96 1.17 1.43 1.72 1.72 1.61 1.51 1.51 1.48 1.42 1.43 1.40
0.34 0.27 0.29 0.27 0.25 0.24 0.27 0.29 0.30 0.33 0.39 0.37 0.26 0.32 0.38 0.35 0.39 0.42 0.40 0.33 0.25 0.21 0.25 0.30 0.34 0.39 0.44 0.47 0.61 0.81 1.08 1.27 1.36 1.49 1.64 1.76 1.73 1.74 1.68 1.50 1.40 1.40 1.44 1.49
0.28 0.25 0.21 0.18 0.21 0.22 0.21 0.29 0.46 0.50 0.50 0.38 0.23 0.38 0.46 0.37 0.32 0.32 0.33 0.28 0.22 0.26 0.35 0.48 0.62 0.74 0.85 0.97 1.11 1.25 1.43 1.59 1.54 1.51 1.56 1.59 1.60 1.59 1.57 1.51 1.41 1.36 1.37 1.38
0.28 0.28 0.18 0.14 0.15 0.16 0.18 0.27 0.53 0.64 0.51 0.39 0.35 0.55 0.56 0.44 0.33 0.25 0.19 0.19 0.27 0.40 0.53 0.64 0.73 0.84 1.00 1.14 1.20 1.21 1.32 1.43 1.40 1.38 1.35 1.32 1.37 1.40 1.35 1.28 1.26 1.29 1.36 1.34
0.20 0.17 0.10 0.09 0.10 0.11 0.15 0.19 0.27 0.43 0.34 0.33 0.44 0.67 0.60 0.39 0.33 0.27 0.23 0.27 0.42 0.60 0.81 0.95 1.05 1.17 1.22 1.25 1.31 1.23 1.23 1.28 1.29 1.23 1.15 1.13 1.18 1.24 1.25 1.19 1.20 1.19 1.18 1.11
0.12 0.12 0.07 0.06 0.08 0.09 0.17 0.25 0.33 0.51 0.57 0.58 0.61 0.69 0.60 0.47 0.44 0.47 0.53 0.63 0.69 0.79 1.04 1.34 1.58 1.75 1.58 1.31 1.20 1.16 1.09 1.10 1.18 1.17 1.10 1.06 1.13 1.14 1.12 1.15 1.12 1.11 1.11 1.02
0.08 0.11 0.07 0.05 0.08 0.12 0.19 0.31 0.40 0.52 0.63 0.79 0.95 1.02 0.85 0.86 0.88 0.96 1.07 1.11 1.12 1.21 1.19 1.35 1.54 1.71 1.61 1.30 1.07 1.08 1.10 1.06 1.04 1.04 1.06 1.06 1.04 0.93 0.92 0.97 0.97 0.96 0.96 1.01
0.05 0.10 0.08 0.06 0.11 0.18 0.30 0.42 0.55 0.75 0.69 0.73 0.93 1.09 0.95 0.94 0.96 1.05 1.23 1.31 1.30 1.21 1.11 1.09 1.14 1.21 1.23 1.08 0.90 0.86 1.00 1.06 1.02 0.99 1.01 1.00 0.91 0.85 0.81 0.79 0.76 0.68 0.66 0.68
0.04 0.13 0.20 0.19 0.29 0.37 0.55 0.62 0.50 0.49 0.55 0.64 0.86 0.86 0.63 0.58 0.74 0.89 1.05 1.13 1.06 1.01 1.08 1.04 0.96 0.90 0.93 0.90 0.82 0.80 0.93 1.07 1.12 1.09 0.94 0.84 0.79 0.75 0.74 0.65 0.60 0.57 0.51 0.52
0.03 0.10 0.19 0.30 0.34 0.42 0.63 0.72 0.56 0.46 0.52 0.52 0.58 0.51 0.37 0.42 0.59 0.66 0.69 0.70 0.71 0.75 0.78 0.72 0.67 0.62 0.62 0.65 0.69 0.75 0.86 0.95 1.08 1.19 1.09 0.93 0.83 0.75 0.70 0.62 0.57 0.53 0.51 0.54
0.01 0.02 0.06 0.09 0.11 0.19 0.37 0.47 0.39 0.28 0.25 0.32 0.33 0.34 0.38 0.46 0.56 0.54 0.48 0.42 0.41 0.41 0.39 0.38 0.38 0.36 0.35 0.35 0.36 0.46 0.59 0.75 0.94 1.16 1.16 1.01 0.94 0.86 0.72 0.65 0.64 0.61 0.64 0.61
0.01 0.01 0.02 0.04 0.05 0.08 0.18 0.21 0.16 0.09 0.12 0.23 0.30 0.36 0.40 0.46 0.53 0.50 0.42 0.35 0.28 0.26 0.26 0.25 0.24 0.22 0.17 0.16 0.18 0.20 0.29 0.46 0.64 0.81 0.90 0.87 0.77 0.67 0.63 0.62 0.60 0.56 0.54 0.50
0.01 0.02 0.03 0.03 0.03 0.05 0.12 0.12 0.12 0.16 0.15 0.16 0.26 0.38 0.46 0.58 0.76 0.67 0.50 0.41 0.28 0.21 0.20 0.19 0.20 0.19 0.18 0.17 0.16 0.17 0.21 0.27 0.38 0.51 0.61 0.61 0.55 0.48 0.45 0.49 0.49 0.45 0.41 0.42
0.01 0.04 0.07 0.07 0.08 0.19 0.24 0.19 0.26 0.34 0.26 0.22 0.29 0.37 0.50 0.83 1.03 0.66 0.42 0.38 0.31 0.21 0.18 0.17 0.17 0.16 0.15 0.13 0.12 0.13 0.16 0.19 0.20 0.25 0.30 0.31 0.31 0.30 0.32 0.34 0.34 0.34 0.33 0.31
0.01 0.04 0.08 0.10 0.14 0.40 0.36 0.19 0.31 0.36 0.31 0.24 0.32 0.37 0.40 0.46 0.41 0.25 0.15 0.16 0.18 0.13 0.10 0.08 0.08 0.07 0.05 0.05 0.04 0.05 0.06 0.07 0.07 0.08 0.10 0.13 0.15 0.17 0.19 0.20 0.22 0.30 0.34 0.34
0.00 0.02 0.06 0.07 0.09 0.24 0.27 0.10 0.17 0.26 0.31 0.13 0.14 0.16 0.11 0.07 0.08 0.11 0.10 0.06 0.05 0.03 0.02 0.02 0.02 0.02 0.01 0.01 0.01 0.01 0.01 0.01 0.02 0.02 0.02 0.03 0.04 0.05 0.07 0.10 0.12 0.18 0.24 0.31
0.00 0.01 0.02 0.02 0.05 0.07 0.05 0.05 0.11 0.25 0.28 0.07 0.04 0.03 0.01 0.01 0.01 0.05 0.10 0.06 0.03 0.01 0.00 0.00 0.00 0.00 0.00 0.00 0.00 0.00 0.00 0.01 0.01 0.02 0.02 0.02 0.02 0.01 0.02 0.03 0.04 0.06 0.11 0.15
0.01 0.01 0.01 0.01 0.02 0.03 0.02 0.05 0.11 0.11 0.05 0.02 0.01 0.01 0.00 0.00 0.00 0.02 0.05 0.03 0.02 0.01 0.00 0.00 0.01 0.00 0.00 0.00 0.00 0.00 0.00 0.00 0.01 0.01 0.01 0.01 0.01 0.01 0.01 0.03 0.03 0.03 0.04 0.07
0.00 0.01 0.01 0.01 0.02 0.02 0.01 0.03 0.03 0.02 0.01 0.00 0.00 0.00 0.00 0.00 0.00 0.00 0.01 0.02 0.01 0.00 0.00 0.00 0.01 0.01 0.00 0.00 0.00 0.00 0.00 0.00 0.01 0.01 0.01 0.01 0.01 0.01 0.01 0.02 0.03 0.02 0.04 0.06
0.00 0.00 0.01 0.01 0.01 0.01 0.01 0.01 0.01 0.01 0.01 0.00 0.00 0.00 0.00 0.00 0.00 0.00 0.00 0.01 0.01 0.00 0.00 0.00 0.00 0.01 0.01 0.00 0.00 0.00 0.00 0.00 0.00 0.00 0.01 0.01 0.01 0.02 0.02 0.02 0.03 0.03 0.03 0.06
0.00 0.01 0.01 0.01 0.00 0.00 0.00 0.00 0.00 0.00 0.00 0.00 0.00 0.00 0.00 0.00 0.00 0.00 0.00 0.01 0.00 0.00 0.00 0.00 0.00 0.01 0.00 0.00 0.00 0.00 0.00 0.00 0.00 0.00 0.01 0.01 0.01 0.02 0.02 0.02 0.02 0.03 0.04 0.06
0.00 0.01 0.01 0.00 0.00 0.00 0.00 0.00 0.00 0.01 0.00 0.00 0.00 0.00 0.00 0.00 0.00 0.00 0.00 0.00 0.00 0.00 0.00 0.00 0.00 0.00 0.01 0.00 0.00 0.00 0.00 0.00 0.00 0.00 0.00 0.01 0.01 0.02 0.03 0.04 0.03 0.02 0.03 0.04

GEFSCGP_prec_meanprecacc_162.txt.gz
Total_Precipitation_Accumulation
0.43 0.64 0.86 0.80 0.75 0.80 0.82 0.84 0.87 0.79 0.58 0.58 0.55 0.46 0.42 0.40 0.38 0.37 0.33 0.26 0.24 0.22 0.18 0.18 0.23 0.25 0.24 0.23 0.26 0.32 0.36 0.44 0.53 0.61 0.75 0.96 1.24 1.35 1.44 1.40 1.22 1.16 1.28 1.52
0.49 0.55 0.51 0.47 0.55 0.71 0.79 0.90 0.88 0.79 0.53 0.47 0.46 0.38 0.34 0.35 0.38 0.34 0.32 0.26 0.20 0.17 0.12 0.11 0.13 0.15 0.16 0.17 0.18 0.24 0.32 0.42 0.51 0.60 0.77 0.94 1.08 1.08 1.26 1.41 1.39 1.30 1.29 1.44
0.47 0.43 0.36 0.42 0.53 0.71 0.75 0.74 0.75 0.74 0.56 0.46 0.41 0.40 0.29 0.27 0.31 0.29 0.27 0.24 0.21 0.18 0.12 0.10 0.11 0.10 0.11 0.12 0.13 0.17 0.24 0.35 0.48 0.64 0.87 1.09 1.27 1.36 1.42 1.35 1.43 1.44 1.37 1.41
0.48 0.38 0.35 0.44 0.51 0.56 0.65 0.44 0.42 0.47 0.58 0.57 0.48 0.52 0.31 0.28 0.34 0.34 0.30 0.24 0.22 0.20 0.14 0.12 0.10 0.11 0.11 0.11 0.10 0.14 0.23 0.38 0.59 0.80 1.06 1.31 1.51 1.55 1.44 1.48 1.51 1.39 1.34 1.30
0.42 0.34 0.33 0.39 0.38 0.35 0.41 0.34 0.31 0.37 0.46 0.43 0.34 0.41 0.33 0.32 0.42 0.40 0.35 0.30 0.24 0.21 0.19 0.17 0.15 0.17 0.18 0.17 0.19 0.25 0.46 0.71 0.96 1.17 1.43 1.72 1.72 1.61 1.51 1.51 1.48 1.42 1.43 1.40
0.35 0.29 0.31 0.30 0.28 0.27 0.30 0.32 0.34 0.37 0.43 0.42 0.28 0.33 0.39 0.35 0.39 0.42 0.40 0.34 0.26 0.22 0.26 0.31 0.34 0.39 0.44 0.48 0.62 0.81 1.08 1.27 1.36 1.49 1.64 1.76 1.73 1.74 1.68 1.50 1.40 1.40 1.44 1.49
0.30 0.27 0.22 0.20 0.24 0.24 0.23 0.34 0.52 0.55 0.55 0.41 0.25 0.39 0.46 0.37 0.32 0.32 0.33 0.28 0.23 0.27 0.36 0.48 0.62 0.74 0.86 0.98 1.12 1.25 1.43 1.59 1.54 1.51 1.56 1.59 1.60 1.59 1.57 1.51 1.41 1.36 1.37 1.38
0.30 0.30 0.19 0.15 0.17 0.18 0.20 0.29 0.56 0.67 0.54 0.40 0.36 0.56 0.56 0.44 0.33 0.25 0.19 0.19 0.28 0.41 0.54 0.65 0.73 0.84 1.01 1.15 1.21 1.21 1.32 1.43 1.40 1.38 1.35 1.32 1.37 1.40 1.35 1.28 1.26 1.29 1.36 1.34
0.20 0.18 0.10 0.09 0.11 0.12 0.16 0.20 0.28 0.43 0.34 0.34 0.45 0.68 0.60 0.39 0.33 0.27 0.23 0.27 0.42 0.61 0.81 0.96 1.06 1.18 1.22 1.26 1.32 1.24 1.23 1.29 1.30 1.24 1.15 1.13 1.18 1.24 1.25 1.19 1.20 1.19 1.18 1.11
0.12 0.12 0.07 0.06 0.08 0.10 0.17 0.25 0.33 0.52 0.58 0.58 0.61 0.70 0.60 0.47 0.44 0.47 0.53 0.64 0.69 0.80 1.05 1.34 1.59 1.76 1.58 1.31 1.21 1.17 1.09 1.10 1.19 1.17 1.10 1.06 1.13 1.14 1.12 1.15 1.12 1.11 1.11 1.03
0.08 0.11 0.07 0.06 0.09 0.13 0.20 0.32 0.40 0.53 0.63 0.79 0.96 1.03 0.85 0.86 0.88 0.96 1.07 1.11 1.12 1.21 1.20 1.35 1.55 1.72 1.62 1.31 1.08 1.09 1.10 1.06 1.04 1.05 1.07 1.07 1.04 0.93 0.92 0.97 0.97 0.96 0.96 1.01
0.05 0.10 0.09 0.06 0.11 0.19 0.31 0.42 0.56 0.76 0.69 0.73 0.93 1.09 0.95 0.94 0.96 1.06 1.23 1.31 1.30 1.21 1.11 1.09 1.15 1.21 1.23 1.09 0.90 0.87 1.00 1.06 1.02 0.99 1.02 1.01 0.91 0.85 0.81 0.80 0.77 0.68 0.66 0.68
0.04 0.14 0.21 0.19 0.29 0.38 0.55 0.63 0.51 0.50 0.56 0.64 0.86 0.86 0.63 0.58 0.74 0.89 1.05 1.13 1.06 1.01 1.08 1.05 0.96 0.90 0.93 0.90 0.83 0.80 0.93 1.08 1.12 1.10 0.94 0.84 0.79 0.75 0.74 0.65 0.61 0.57 0.51 0.52
0.03 0.10 0.19 0.30 0.35 0.43 0.64 0.73 0.57 0.46 0.52 0.53 0.58 0.51 0.37 0.42 0.59 0.66 0.69 0.70 0.71 0.75 0.78 0.72 0.67 0.62 0.62 0.65 0.69 0.75 0.86 0.95 1.08 1.20 1.09 0.94 0.83 0.75 0.70 0.62 0.58 0.53 0.51 0.54
0.02 0.02 0.06 0.09 0.12 0.19 0.37 0.48 0.39 0.28 0.25 0.32 0.33 0.34 0.38 0.46 0.56 0.54 0.48 0.42 0.41 0.41 0.39 0.38 0.38 0.36 0.35 0.35 0.36 0.46 0.59 0.75 0.94 1.16 1.17 1.02 0.94 0.86 0.72 0.65 0.64 0.61 0.64 0.61
0.01 0.01 0.02 0.04 0.05 0.09 0.18 0.21 0.16 0.10 0.13 0.24 0.30 0.36 0.40 0.46 0.53 0.51 0.43 0.35 0.28 0.26 0.26 0.26 0.24 0.22 0.17 0.16 0.18 0.20 0.29 0.46 0.64 0.81 0.90 0.87 0.78 0.67 0.63 0.62 0.60 0.56 0.54 0.50
0.01 0.02 0.04 0.03 0.04 0.05 0.12 0.12 0.12 0.16 0.15 0.16 0.26 0.38 0.46 0.58 0.76 0.67 0.50 0.41 0.28 0.21 0.20 0.19 0.20 0.20 0.18 0.17 0.16 0.17 0.21 0.27 0.38 0.51 0.61 0.61 0.56 0.49 0.45 0.49 0.49 0.46 0.41 0.42
0.02 0.05 0.08 0.07 0.09 0.19 0.24 0.19 0.26 0.34 0.26 0.22 0.29 0.37 0.50 0.83 1.03 0.66 0.43 0.38 0.31 0.21 0.18 0.18 0.18 0.16 0.15 0.13 0.12 0.13 0.16 0.19 0.21 0.26 0.30 0.32 0.32 0.31 0.32 0.34 0.34 0.34 0.33 0.31
0.01 0.05 0.09 0.11 0.14 0.40 0.36 0.19 0.31 0.36 0.31 0.24 0.32 0.37 0.40 0.46 0.41 0.25 0.15 0.16 0.18 0.13 0.10 0.08 0.08 0.07 0.05 0.05 0.04 0.05 0.06 0.07 0.08 0.08 0.10 0.13 0.15 0.18 0.20 0.20 0.23 0.31 0.34 0.35
0.01 0.03 0.07 0.07 0.09 0.24 0.27 0.10 0.17 0.26 0.31 0.13 0.14 0.16 0.11 0.07 0.08 0.11 0.10 0.07 0.05 0.03 0.02 0.02 0.02 0.02 0.01 0.01 0.01 0.01 0.01 0.01 0.02 0.02 0.02 0.03 0.04 0.05 0.08 0.11 0.13 0.18 0.25 0.32
0.00 0.01 0.02 0.02 0.05 0.08 0.05 0.05 0.11 0.25 0.28 0.07 0.04 0.03 0.01 0.01 0.01 0.05 0.10 0.06 0.03 0.01 0.00 0.00 0.00 0.00 0.00 0.00 0.00 0.00 0.00 0.01 0.02 0.03 0.03 0.03 0.02 0.01 0.02 0.03 0.04 0.07 0.12 0.16
0.01 0.01 0.01 0.01 0.02 0.03 0.02 0.05 0.11 0.11 0.05 0.02 0.01 0.01 0.00 0.00 0.00 0.02 0.05 0.03 0.02 0.01 0.00 0.00 0.01 0.00 0.00 0.00 0.00 0.00 0.00 0.00 0.01 0.02 0.03 0.02 0.01 0.01 0.01 0.03 0.03 0.03 0.04 0.07
0.00 0.01 0.01 0.01 0.02 0.02 0.02 0.03 0.03 0.03 0.02 0.00 0.00 0.00 0.00 0.00 0.00 0.00 0.01 0.02 0.01 0.00 0.00 0.00 0.01 0.01 0.00 0.00 0.00 0.00 0.00 0.00 0.01 0.02 0.02 0.02 0.02 0.02 0.02 0.02 0.03 0.02 0.04 0.06
0.00 0.00 0.01 0.01 0.01 0.01 0.01 0.01 0.01 0.01 0.01 0.00 0.00 0.00 0.00 0.00 0.00 0.00 0.00 0.01 0.01 0.00 0.00 0.00 0.00 0.01 0.01 0.00 0.00 0.00 0.01 0.01 0.01 0.01 0.01 0.01 0.02 0.02 0.02 0.03 0.03 0.03 0.03 0.06
0.00 0.01 0.01 0.01 0.00 0.00 0.01 0.01 0.00 0.01 0.01 0.00 0.00 0.00 0.00 0.00 0.00 0.00 0.00 0.01 0.01 0.00 0.00 0.00 0.00 0.01 0.00 0.00 0.00 0.01 0.01 0.01 0.00 0.01 0.01 0.01 0.02 0.03 0.03 0.02 0.02 0.03 0.04 0.06
0.00 0.01 0.01 0.00 0.00 0.00 0.00 0.00 0.00 0.01 0.00 0.00 0.00 0.00 0.00 0.00 0.00 0.00 0.00 0.00 0.00 0.00 0.00 0.00 0.00 0.00 0.01 0.00 0.00 0.00 0.00 0.00 0.00 0.01 0.00 0.01 0.01 0.02 0.03 0.04 0.03 0.03 0.03 0.04

GEFSCGP_prec_meanprecacc_168.txt.gz
Total_Precipitation_Accumulation
0.45 0.68 0.90 0.84 0.78 0.84 0.86 0.90 0.93 0.84 0.63 0.63 0.58 0.48 0.44 0.45 0.44 0.41 0.37 0.29 0.25 0.23 0.18 0.18 0.23 0.25 0.24 0.23 0.26 0.32 0.36 0.44 0.53 0.61 0.75 0.96 1.24 1.35 1.44 1.40 1.22 1.16 1.28 1.52
0.52 0.59 0.55 0.50 0.57 0.74 0.83 0.96 0.95 0.85 0.58 0.52 0.50 0.41 0.36 0.38 0.41 0.37 0.35 0.31 0.21 0.17 0.12 0.11 0.13 0.15 0.16 0.17 0.18 0.24 0.32 0.42 0.51 0.60 0.77 0.94 1.08 1.08 1.26 1.41 1.39 1.30 1.29 1.44
0.50 0.47 0.39 0.44 0.55 0.74 0.80 0.79 0.80 0.79 0.60 0.50 0.45 0.44 0.32 0.30 0.34 0.31 0.29 0.29 0.24 0.18 0.12 0.10 0.11 0.11 0.11 0.12 0.13 0.17 0.24 0.35 0.48 0.64 0.87 1.09 1.27 1.36 1.42 1.35 1.43 1.44 1.37 1.41
0.50 0.41 0.37 0.45 0.53 0.59 0.69 0.48 0.46 0.52 0.62 0.61 0.51 0.56 0.34 0.30 0.37 0.36 0.32 0.27 0.25 0.21 0.15 0.12 0.10 0.11 0.11 0.11 0.10 0.14 0.23 0.38 0.59 0.80 1.06 1.31 1.51 1.55 1.44 1.48 1.51 1.39 1.34 1.31
0.44 0.36 0.35 0.41 0.39 0.37 0.44 0.36 0.35 0.41 0.50 0.46 0.36 0.43 0.35 0.33 0.43 0.42 0.37 0.32 0.26 0.22 0.19 0.17 0.15 0.17 0.18 0.17 0.19 0.26 0.46 0.71 0.96 1.17 1.43 1.72 1.72 1.61 1.51 1.51 1.48 1.42 1.43 1.40
0.36 0.30 0.32 0.31 0.29 0.28 0.31 0.34 0.37 0.40 0.46 0.44 0.29 0.34 0.40 0.35 0.39 0.42 0.41 0.34 0.26 0.22 0.26 0.31 0.34 0.40 0.45 0.48 0.62 0.82 1.09 1.27 1.36 1.49 1.64 1.76 1.73 1.74 1.68 1.50 1.40 1.40 1.44 1.49
0.31 0.28 0.24 0.21 0.27 0.26 0.25 0.36 0.55 0.59 0.59 0.43 0.26 0.39 0.47 0.38 0.32 0.32 0.33 0.29 0.23 0.27 0.36 0.48 0.62 0.75 0.86 0.99 1.13 1.26 1.44 1.59 1.54 1.51 1.56 1.59 1.60 1.59 1.57 1.51 1.41 1.36 1.37 1.38
0.31 0.31 0.21 0.16 0.19 0.21 0.22 0.31 0.58 0.69 0.56 0.41 0.36 0.56 0.57 0.44 0.33 0.25 0.19 0.19 0.28 0.41 0.54 0.65 0.73 0.84 1.01 1.15 1.21 1.22 1.33 1.43 1.40 1.38 1.35 1.32 1.37 1.40 1.35 1.28 1.26 1.29 1.36 1.34
0.21 0.19 0.11 0.10 0.12 0.14 0.19 0.22 0.28 0.44 0.35 0.35 0.46 0.68 0.60 0.39 0.33 0.27 0.23 0.27 0.42 0.61 0.81 0.96 1.06 1.18 1.23 1.26 1.32 1.24 1.24 1.30 1.31 1.24 1.15 1.13 1.18 1.24 1.25 1.19 1.20 1.19 1.18 1.11
0.12 0.13 0.08 0.07 0.09 0.11 0.18 0.26 0.34 0.53 0.59 0.59 0.62 0.70 0.61 0.48 0.44 0.47 0.53 0.64 0.69 0.80 1.05 1.34 1.59 1.76 1.59 1.32 1.22 1.18 1.11 1.12 1.20 1.18 1.10 1.06 1.13 1.14 1.12 1.15 1.12 1.11 1.11 1.03
0.08 0.11 0.08 0.06 0.10 0.13 0.20 0.32 0.41 0.54 0.64 0.80 0.97 1.03 0.85 0.86 0.88 0.96 1.07 1.11 1.12 1.21 1.20 1.35 1.55 1.72 1.63 1.32 1.09 1.10 1.12 1.09 1.07 1.06 1.07 1.07 1.04 0.94 0.92 0.97 0.97 0.96 0.96 1.01
0.05 0.11 0.09 0.06 0.11 0.19 0.31 0.43 0.57 0.77 0.70 0.74 0.94 1.10 0.96 0.94 0.96 1.06 1.24 1.31 1.30 1.21 1.11 1.09 1.15 1.21 1.24 1.10 0.91 0.88 1.03 1.09 1.04 1.01 1.03 1.01 0.92 0.86 0.82 0.80 0.77 0.68 0.66 0.69
0.05 0.14 0.21 0.20 0.30 0.38 0.56 0.63 0.52 0.50 0.56 0.65 0.86 0.86 0.64 0.58 0.74 0.89 1.05 1.13 1.06 1.01 1.08 1.05 0.97 0.90 0.93 0.90 0.83 0.80 0.93 1.08 1.13 1.10 0.94 0.84 0.80 0.76 0.74 0.65 0.61 0.57 0.51 0.52
0.04 0.11 0.19 0.31 0.35 0.43 0.64 0.74 0.57 0.47 0.52 0.53 0.58 0.51 0.37 0.43 0.59 0.66 0.69 0.70 0.71 0.75 0.78 0.72 0.67 0.62 0.62 0.65 0.69 0.75 0.86 0.95 1.08 1.20 1.09 0.94 0.83 0.75 0.70 0.62 0.58 0.54 0.51 0.54
0.02 0.03 0.06 0.10 0.12 0.19 0.37 0.49 0.40 0.28 0.25 0.32 0.34 0.34 0.38 0.46 0.56 0.54 0.48 0.43 0.41 0.41 0.39 0.38 0.38 0.36 0.35 0.35 0.36 0.46 0.59 0.75 0.94 1.16 1.17 1.02 0.94 0.86 0.72 0.65 0.64 0.61 0.64 0.61
0.02 0.02 0.03 0.04 0.05 0.09 0.18 0.22 0.17 0.10 0.13 0.24 0.30 0.36 0.40 0.46 0.53 0.51 0.43 0.35 0.28 0.26 0.26 0.26 0.24 0.22 0.17 0.16 0.18 0.20 0.29 0.46 0.64 0.81 0.90 0.87 0.78 0.67 0.63 0.62 0.60 0.56 0.55 0.51
0.01 0.03 0.05 0.03 0.04 0.06 0.13 0.13 0.13 0.16 0.15 0.16 0.26 0.38 0.46 0.58 0.76 0.67 0.50 0.41 0.28 0.21 0.20 0.19 0.20 0.20 0.18 0.17 0.16 0.17 0.21 0.27 0.38 0.51 0.61 0.61 0.56 0.49 0.45 0.49 0.49 0.46 0.41 0.42
0.02 0.05 0.09 0.07 0.09 0.20 0.24 0.19 0.27 0.34 0.26 0.22 0.29 0.37 0.50 0.83 1.03 0.66 0.43 0.38 0.31 0.21 0.18 0.18 0.18 0.16 0.15 0.13 0.12 0.13 0.16 0.19 0.21 0.26 0.31 0.32 0.33 0.32 0.33 0.34 0.34 0.34 0.33 0.31
0.02 0.06 0.10 0.11 0.15 0.40 0.36 0.19 0.31 0.36 0.31 0.24 0.32 0.37 0.40 0.46 0.41 0.25 0.15 0.16 0.18 0.13 0.10 0.08 0.08 0.07 0.05 0.05 0.05 0.05 0.06 0.07 0.08 0.09 0.11 0.13 0.15 0.19 0.21 0.22 0.24 0.31 0.34 0.35
0.01 0.04 0.07 0.08 0.10 0.24 0.27 0.10 0.17 0.26 0.31 0.13 0.14 0.16 0.11 0.07 0.08 0.11 0.10 0.07 0.05 0.03 0.02 0.02 0.02 0.02 0.01 0.01 0.01 0.01 0.01 0.01 0.02 0.02 0.02 0.04 0.04 0.05 0.08 0.12 0.15 0.19 0.25 0.32
0.01 0.02 0.03 0.03 0.05 0.08 0.05 0.05 0.11 0.25 0.28 0.07 0.04 0.03 0.01 0.01 0.01 0.05 0.10 0.06 0.03 0.01 0.00 0.00 0.00 0.00 0.00 0.00 0.00 0.00 0.00 0.01 0.02 0.03 0.04 0.04 0.03 0.02 0.03 0.04 0.05 0.08 0.13 0.16
0.01 0.01 0.01 0.01 0.02 0.03 0.02 0.05 0.11 0.11 0.05 0.02 0.01 0.01 0.00 0.00 0.00 0.02 0.05 0.03 0.02 0.01 0.00 0.00 0.01 0.00 0.00 0.00 0.00 0.00 0.00 0.01 0.01 0.02 0.04 0.03 0.03 0.02 0.02 0.03 0.03 0.03 0.05 0.08
0.00 0.01 0.01 0.01 0.02 0.02 0.02 0.03 0.03 0.03 0.02 0.00 0.00 0.00 0.01 0.00 0.00 0.00 0.01 0.02 0.01 0.00 0.00 0.00 0.01 0.01 0.00 0.00 0.01 0.01 0.01 0.01 0.01 0.02 0.03 0.03 0.03 0.03 0.02 0.03 0.03 0.03 0.04 0.06
0.00 0.00 0.01 0.01 0.01 0.01 0.01 0.01 0.01 0.01 0.01 0.00 0.00 0.01 0.01 0.00 0.00 0.00 0.00 0.01 0.01 0.00 0.00 0.00 0.00 0.01 0.01 0.01 0.01 0.01 0.01 0.02 0.02 0.02 0.02 0.02 0.03 0.04 0.03 0.04 0.04 0.04 0.04 0.06
0.01 0.01 0.01 0.01 0.00 0.00 0.01 0.01 0.00 0.01 0.01 0.00 0.00 0.00 0.00 0.00 0.00 0.00 0.00 0.01 0.01 0.00 0.00 0.00 0.00 0.01 0.00 0.01 0.01 0.01 0.01 0.01 0.01 0.01 0.01 0.02 0.03 0.03 0.03 0.03 0.03 0.04 0.04 0.07
0.00 0.01 0.01 0.00 0.00 0.00 0.00 0.00 0.00 0.01 0.00 0.00 0.00 0.00 0.00 0.00 0.00 0.00 0.00 0.00 0.00 0.00 0.00 0.00 0.00 0.00 0.01 0.01 0.00 0.00 0.01 0.01 0.01 0.01 0.01 0.01 0.02 0.03 0.03 0.05 0.04 0.03 0.03 0.04

GEFSCGP_prec_meanprecacc_174.txt.gz
Total_Precipitation_Accumulation
0.46 0.70 0.94 0.87 0.82 0.88 0.90 0.94 0.97 0.87 0.66 0.66 0.62 0.52 0.48 0.48 0.48 0.45 0.40 0.32 0.28 0.24 0.19 0.19 0.23 0.25 0.24 0.23 0.26 0.32 0.36 0.44 0.53 0.61 0.75 0.96 1.24 1.35 1.44 1.40 1.22 1.16 1.28 1.52
0.55 0.62 0.56 0.51 0.59 0.76 0.86 1.00 1.00 0.88 0.61 0.56 0.53 0.44 0.39 0.40 0.44 0.39 0.37 0.33 0.24 0.18 0.13 0.11 0.13 0.15 0.16 0.17 0.18 0.24 0.32 0.42 0.51 0.60 0.77 0.94 1.08 1.08 1.26 1.41 1.39 1.30 1.29 1.44
0.53 0.49 0.40 0.45 0.57 0.76 0.82 0.83 0.84 0.83 0.64 0.52 0.47 0.47 0.34 0.32 0.36 0.32 0.30 0.29 0.25 0.19 0.13 0.11 0.11 0.11 0.11 0.12 0.13 0.17 0.24 0.35 0.48 0.64 0.87 1.09 1.27 1.36 1.42 1.35 1.43 1.44 1.37 1.41
0.51 0.42 0.38 0.47 0.54 0.60 0.72 0.50 0.48 0.55 0.66 0.66 0.54 0.61 0.37 0.32 0.38 0.37 0.32 0.28 0.26 0.21 0.15 0.12 0.10 0.11 0.11 0.11 0.10 0.14 0.23 0.38 0.59 0.80 1.06 1.31 1.51 1.55 1.44 1.48 1.51 1.39 1.34 1.31
0.45 0.38 0.37 0.44 0.41 0.40 0.47 0.38 0.36 0.43 0.54 0.51 0.39 0.47 0.38 0.34 0.45 0.43 0.37 0.32 0.26 0.22 0.19 0.17 0.15 0.17 0.18 0.17 0.19 0.26 0.46 0.71 0.96 1.17 1.43 1.72 1.72 1.61 1.51 1.51 1.48 1.42 1.43 1.40
0.38 0.31 0.34 0.33 0.31 0.29 0.33 0.36 0.39 0.42 0.50 0.50 0.32 0.37 0.42 0.36 0.40 0.43 0.41 0.34 0.27 0.22 0.26 0.31 0.34 0.40 0.45 0.48 0.62 0.82 1.09 1.27 1.36 1.49 1.64 1.76 1.73 1.74 1.68 1.50 1.40 1.40 1.44 1.49
0.35 0.31 0.25 0.22 0.28 0.27 0.27 0.41 0.62 0.66 0.67 0.50 0.27 0.42 0.49 0.38 0.32 0.32 0.33 0.29 0.23 0.27 0.36 0.48 0.62 0.75 0.86 0.99 1.13 1.26 1.44 1.59 1.54 1.51 1.56 1.59 1.60 1.59 1.57 1.51 1.41 1.36 1.37 1.38
0.35 0.35 0.22 0.17 0.21 0.23 0.24 0.35 0.66 0.77 0.63 0.45 0.37 0.58 0.57 0.44 0.33 0.25 0.19 0.19 0.28 0.41 0.54 0.65 0.73 0.84 1.01 1.15 1.21 1.22 1.33 1.43 1.40 1.38 1.35 1.32 1.37 1.40 1.35 1.28 1.26 1.29 1.36 1.34
0.23 0.23 0.12 0.11 0.12 0.14 0.20 0.24 0.30 0.47 0.38 0.38 0.47 0.69 0.60 0.39 0.33 0.27 0.23 0.27 0.42 0.61 0.81 0.96 1.06 1.18 1.23 1.27 1.32 1.25 1.24 1.30 1.31 1.25 1.16 1.14 1.19 1.24 1.25 1.19 1.20 1.19 1.18 1.11
0.13 0.15 0.09 0.07 0.09 0.11 0.19 0.27 0.35 0.56 0.65 0.66 0.65 0.72 0.62 0.49 0.44 0.47 0.53 0.64 0.69 0.80 1.05 1.34 1.59 1.76 1.59 1.33 1.22 1.19 1.12 1.13 1.23 1.20 1.12 1.07 1.14 1.14 1.12 1.15 1.12 1.11 1.11 1.03
0.09 0.13 0.09 0.07 0.11 0.15 0.21 0.33 0.42 0.57 0.68 0.88 1.03 1.06 0.86 0.87 0.88 0.96 1.07 1.11 1.12 1.21 1.20 1.35 1.55 1.73 1.63 1.32 1.10 1.11 1.13 1.11 1.10 1.09 1.09 1.08 1.05 0.94 0.92 0.97 0.97 0.96 0.96 1.01
0.05 0.11 0.10 0.07 0.12 0.19 0.31 0.43 0.58 0.81 0.74 0.78 1.00 1.13 0.96 0.95 0.97 1.06 1.24 1.31 1.30 1.21 1.11 1.09 1.15 1.21 1.24 1.10 0.92 0.88 1.03 1.10 1.06 1.02 1.03 1.02 0.92 0.86 0.82 0.80 0.77 0.69 0.66 0.69
0.05 0.15 0.24 0.23 0.32 0.39 0.56 0.63 0.52 0.51 0.58 0.68 0.91 0.89 0.64 0.58 0.74 0.90 1.05 1.13 1.06 1.01 1.08 1.05 0.97 0.90 0.93 0.90 0.83 0.80 0.93 1.08 1.13 1.10 0.95 0.84 0.80 0.76 0.74 0.65 0.61 0.57 0.52 0.52
0.04 0.11 0.21 0.34 0.38 0.44 0.65 0.74 0.57 0.48 0.55 0.56 0.60 0.53 0.37 0.43 0.60 0.66 0.69 0.70 0.71 0.75 0.78 0.72 0.67 0.62 0.62 0.65 0.69 0.75 0.86 0.95 1.08 1.20 1.09 0.94 0.83 0.75 0.70 0.62 0.58 0.54 0.51 0.54
0.02 0.03 0.06 0.10 0.12 0.19 0.37 0.49 0.40 0.29 0.26 0.34 0.35 0.35 0.38 0.46 0.56 0.54 0.48 0.43 0.41 0.42 0.39 0.38 0.38 0.36 0.35 0.35 0.37 0.46 0.59 0.75 0.94 1.17 1.17 1.02 0.94 0.86 0.72 0.66 0.64 0.61 0.64 0.61
0.02 0.02 0.03 0.04 0.05 0.09 0.18 0.22 0.17 0.10 0.13 0.24 0.30 0.36 0.41 0.47 0.54 0.51 0.43 0.35 0.28 0.26 0.26 0.26 0.24 0.22 0.17 0.16 0.18 0.20 0.29 0.46 0.64 0.81 0.90 0.87 0.78 0.67 0.63 0.62 0.60 0.56 0.55 0.51
0.02 0.03 0.05 0.04 0.04 0.06 0.13 0.13 0.13 0.16 0.15 0.16 0.26 0.38 0.46 0.58 0.76 0.67 0.50 0.41 0.28 0.21 0.20 0.19 0.20 0.20 0.18 0.17 0.16 0.17 0.21 0.27 0.38 0.51 0.62 0.62 0.56 0.49 0.45 0.49 0.49 0.46 0.41 0.42
0.02 0.06 0.10 0.09 0.11 0.22 0.25 0.19 0.27 0.34 0.26 0.22 0.29 0.37 0.50 0.83 1.03 0.66 0.43 0.38 0.32 0.21 0.18 0.18 0.18 0.16 0.15 0.14 0.13 0.14 0.16 0.19 0.21 0.26 0.31 0.32 0.33 0.33 0.33 0.35 0.35 0.34 0.33 0.31
0.02 0.06 0.11 0.13 0.17 0.41 0.36 0.19 0.31 0.36 0.31 0.24 0.32 0.37 0.40 0.46 0.41 0.25 0.15 0.16 0.18 0.13 0.10 0.09 0.08 0.07 0.05 0.05 0.05 0.06 0.06 0.08 0.08 0.09 0.11 0.13 0.16 0.19 0.22 0.22 0.24 0.31 0.34 0.35
0.01 0.04 0.09 0.09 0.12 0.26 0.27 0.10 0.17 0.26 0.31 0.13 0.14 0.16 0.11 0.07 0.08 0.11 0.10 0.07 0.05 0.03 0.02 0.02 0.02 0.02 0.01 0.01 0.01 0.01 0.01 0.02 0.03 0.02 0.03 0.04 0.05 0.06 0.09 0.13 0.16 0.21 0.25 0.32
0.01 0.02 0.04 0.04 0.06 0.08 0.05 0.05 0.11 0.25 0.28 0.07 0.04 0.03 0.01 0.01 0.01 0.05 0.10 0.06 0.03 0.01 0.00 0.00 0.00 0.00 0.00 0.00 0.00 0.00 0.01 0.01 0.02 0.03 0.04 0.04 0.04 0.03 0.04 0.05 0.06 0.10 0.14 0.17
0.01 0.02 0.01 0.02 0.03 0.04 0.02 0.05 0.11 0.11 0.05 0.02 0.01 0.01 0.00 0.00 0.00 0.02 0.05 0.03 0.02 0.01 0.00 0.00 0.01 0.00 0.00 0.00 0.00 0.00 0.00 0.01 0.01 0.02 0.04 0.04 0.03 0.03 0.03 0.03 0.04 0.04 0.06 0.10
0.01 0.01 0.01 0.02 0.02 0.02 0.02 0.03 0.03 0.03 0.02 0.00 0.00 0.00 0.01 0.00 0.00 0.00 0.01 0.02 0.01 0.00 0.00 0.00 0.01 0.01 0.00 0.01 0.01 0.01 0.01 0.01 0.01 0.02 0.04 0.04 0.04 0.03 0.02 0.03 0.03 0.03 0.04 0.07
0.00 0.01 0.01 0.01 0.01 0.01 0.01 0.01 0.01 0.01 0.01 0.00 0.00 0.01 0.01 0.00 0.00 0.00 0.00 0.01 0.01 0.00 0.00 0.00 0.00 0.01 0.01 0.01 0.01 0.01 0.01 0.02 0.02 0.02 0.02 0.03 0.04 0.04 0.04 0.04 0.04 0.04 0.04 0.07
0.01 0.01 0.01 0.01 0.01 0.00 0.01 0.01 0.00 0.01 0.01 0.00 0.00 0.00 0.00 0.00 0.00 0.00 0.00 0.01 0.01 0.00 0.00 0.00 0.00 0.01 0.01 0.01 0.01 0.01 0.01 0.01 0.01 0.01 0.02 0.03 0.04 0.05 0.04 0.03 0.04 0.05 0.05 0.07
0.01 0.01 0.01 0.01 0.01 0.00 0.00 0.00 0.00 0.01 0.00 0.00 0.00 0.00 0.00 0.00 0.00 0.00 0.00 0.00 0.00 0.00 0.00 0.00 0.00 0.00 0.01 0.01 0.01 0.01 0.01 0.01 0.01 0.01 0.01 0.02 0.03 0.03 0.04 0.05 0.04 0.04 0.04 0.05

GEFSCGP_prec_meanprecacc_180.txt.gz
Total_Precipitation_Accumulation
0.48 0.71 0.95 0.88 0.82 0.89 0.92 0.97 0.98 0.87 0.67 0.68 0.65 0.54 0.51 0.52 0.51 0.47 0.41 0.33 0.29 0.26 0.20 0.20 0.24 0.25 0.24 0.24 0.27 0.33 0.37 0.44 0.53 0.61 0.75 0.96 1.24 1.35 1.44 1.40 1.22 1.16 1.28 1.52
0.56 0.62 0.56 0.51 0.60 0.77 0.88 1.02 1.01 0.89 0.62 0.57 0.55 0.46 0.41 0.43 0.46 0.40 0.38 0.33 0.24 0.19 0.14 0.12 0.15 0.16 0.16 0.17 0.18 0.24 0.32 0.42 0.51 0.60 0.77 0.94 1.08 1.08 1.26 1.41 1.39 1.30 1.29 1.44
0.54 0.50 0.41 0.45 0.57 0.77 0.83 0.84 0.85 0.84 0.66 0.54 0.50 0.49 0.37 0.34 0.37 0.34 0.30 0.29 0.26 0.19 0.13 0.11 0.11 0.11 0.11 0.12 0.13 0.18 0.25 0.35 0.48 0.64 0.87 1.09 1.27 1.36 1.42 1.35 1.43 1.44 1.37 1.41
0.52 0.42 0.38 0.47 0.55 0.62 0.74 0.51 0.49 0.56 0.68 0.69 0.56 0.63 0.39 0.33 0.40 0.38 0.33 0.28 0.26 0.21 0.15 0.12 0.10 0.11 0.11 0.11 0.10 0.14 0.23 0.38 0.59 0.80 1.06 1.31 1.51 1.55 1.44 1.48 1.51 1.40 1.34 1.31
0.47 0.38 0.37 0.44 0.42 0.41 0.48 0.39 0.38 0.45 0.57 0.53 0.41 0.48 0.39 0.35 0.46 0.44 0.37 0.32 0.27 0.22 0.19 0.17 0.15 0.17 0.18 0.18 0.19 0.26 0.46 0.71 0.96 1.18 1.43 1.72 1.72 1.61 1.51 1.51 1.48 1.42 1.43 1.40
0.39 0.31 0.34 0.34 0.31 0.30 0.33 0.36 0.41 0.45 0.53 0.52 0.33 0.39 0.43 0.37 0.40 0.43 0.41 0.35 0.27 0.22 0.26 0.31 0.35 0.40 0.45 0.48 0.62 0.82 1.09 1.28 1.36 1.49 1.64 1.76 1.73 1.74 1.68 1.50 1.40 1.40 1.44 1.49
0.37 0.31 0.25 0.22 0.29 0.28 0.28 0.42 0.65 0.70 0.70 0.52 0.29 0.44 0.50 0.38 0.32 0.32 0.34 0.29 0.23 0.27 0.36 0.48 0.63 0.75 0.86 1.00 1.13 1.26 1.44 1.60 1.55 1.51 1.56 1.59 1.60 1.59 1.57 1.51 1.41 1.36 1.37 1.39
0.37 0.36 0.23 0.17 0.22 0.25 0.26 0.37 0.70 0.83 0.67 0.48 0.40 0.61 0.58 0.45 0.33 0.25 0.19 0.19 0.28 0.41 0.54 0.65 0.73 0.85 1.01 1.16 1.22 1.23 1.33 1.43 1.41 1.39 1.35 1.32 1.38 1.40 1.36 1.28 1.26 1.30 1.37 1.35
0.25 0.24 0.13 0.11 0.13 0.16 0.23 0.25 0.31 0.50 0.41 0.41 0.50 0.71 0.61 0.40 0.34 0.28 0.24 0.28 0.42 0.61 0.81 0.96 1.06 1.18 1.23 1.27 1.33 1.25 1.25 1.30 1.31 1.26 1.17 1.15 1.19 1.24 1.26 1.20 1.21 1.19 1.19 1.11
0.14 0.16 0.09 0.08 0.10 0.13 0.22 0.29 0.37 0.59 0.70 0.72 0.69 0.74 0.63 0.49 0.45 0.47 0.55 0.65 0.70 0.80 1.05 1.35 1.59 1.76 1.59 1.33 1.23 1.19 1.12 1.13 1.23 1.21 1.14 1.08 1.15 1.15 1.13 1.16 1.13 1.12 1.12 1.03
0.10 0.14 0.10 0.08 0.12 0.15 0.22 0.34 0.43 0.59 0.71 0.94 1.11 1.10 0.87 0.87 0.89 0.96 1.07 1.12 1.12 1.22 1.20 1.35 1.55 1.73 1.63 1.33 1.10 1.12 1.14 1.12 1.11 1.10 1.10 1.09 1.06 0.95 0.93 0.98 0.98 0.97 0.97 1.01
0.06 0.13 0.12 0.09 0.13 0.20 0.32 0.44 0.58 0.83 0.77 0.80 1.05 1.17 0.97 0.95 0.97 1.06 1.24 1.32 1.30 1.21 1.11 1.10 1.15 1.21 1.24 1.11 0.92 0.89 1.04 1.11 1.06 1.02 1.04 1.03 0.92 0.86 0.82 0.80 0.77 0.69 0.66 0.69
0.05 0.16 0.25 0.25 0.34 0.40 0.56 0.63 0.52 0.52 0.60 0.70 0.95 0.93 0.64 0.59 0.74 0.90 1.05 1.14 1.06 1.01 1.08 1.05 0.97 0.90 0.93 0.90 0.83 0.80 0.94 1.08 1.13 1.10 0.95 0.84 0.80 0.76 0.74 0.66 0.61 0.58 0.52 0.52
0.04 0.11 0.22 0.35 0.39 0.44 0.65 0.74 0.58 0.49 0.58 0.58 0.62 0.55 0.38 0.43 0.60 0.67 0.70 0.71 0.71 0.75 0.78 0.73 0.67 0.62 0.62 0.65 0.69 0.75 0.86 0.95 1.08 1.20 1.09 0.94 0.84 0.76 0.71 0.63 0.58 0.54 0.52 0.54
0.03 0.03 0.06 0.10 0.12 0.20 0.38 0.49 0.41 0.30 0.27 0.35 0.36 0.35 0.39 0.47 0.57 0.55 0.49 0.43 0.41 0.42 0.40 0.39 0.38 0.36 0.35 0.35 0.37 0.46 0.59 0.75 0.95 1.17 1.17 1.03 0.95 0.86 0.73 0.66 0.64 0.61 0.64 0.61
0.03 0.03 0.03 0.05 0.05 0.09 0.19 0.22 0.17 0.10 0.13 0.25 0.31 0.37 0.41 0.47 0.54 0.52 0.44 0.36 0.28 0.27 0.26 0.26 0.24 0.22 0.17 0.16 0.18 0.20 0.29 0.47 0.64 0.81 0.91 0.88 0.78 0.68 0.64 0.62 0.60 0.56 0.55 0.51
0.03 0.04 0.07 0.04 0.04 0.06 0.14 0.13 0.13 0.16 0.15 0.17 0.27 0.38 0.46 0.59 0.77 0.68 0.51 0.42 0.29 0.22 0.20 0.20 0.20 0.20 0.18 0.17 0.16 0.17 0.22 0.28 0.38 0.51 0.62 0.62 0.56 0.49 0.45 0.49 0.49 0.46 0.41 0.42
0.03 0.08 0.12 0.10 0.11 0.23 0.25 0.20 0.27 0.34 0.26 0.22 0.29 0.37 0.50 0.84 1.04 0.66 0.43 0.39 0.32 0.22 0.19 0.18 0.18 0.16 0.15 0.14 0.13 0.14 0.17 0.19 0.21 0.27 0.31 0.32 0.33 0.33 0.33 0.35 0.35 0.35 0.33 0.31
0.02 0.07 0.13 0.14 0.17 0.42 0.37 0.19 0.31 0.36 0.31 0.25 0.32 0.37 0.40 0.46 0.41 0.25 0.15 0.16 0.18 0.13 0.10 0.09 0.08 0.07 0.05 0.05 0.05 0.06 0.07 0.08 0.09 0.09 0.11 0.13 0.16 0.19 0.22 0.23 0.25 0.32 0.35 0.35
0.02 0.05 0.10 0.10 0.13 0.27 0.28 0.11 0.17 0.26 0.31 0.13 0.14 0.16 0.11 0.07 0.09 0.11 0.10 0.07 0.06 0.03 0.02 0.02 0.02 0.02 0.01 0.01 0.01 0.02 0.03 0.03 0.04 0.05 0.05 0.06 0.06 0.07 0.10 0.14 0.17 0.21 0.26 0.32
0.03 0.04 0.05 0.06 0.07 0.08 0.06 0.05 0.11 0.26 0.28 0.07 0.04 0.03 0.01 0.01 0.01 0.05 0.10 0.06 0.03 0.01 0.00 0.00 0.01 0.01 0.00 0.00 0.00 0.01 0.01 0.01 0.03 0.05 0.06 0.06 0.06 0.05 0.05 0.06 0.07 0.10 0.15 0.17
0.03 0.04 0.03 0.02 0.04 0.04 0.02 0.05 0.11 0.11 0.05 0.02 0.01 0.01 0.00 0.01 0.00 0.02 0.05 0.03 0.02 0.01 0.00 0.00 0.01 0.00 0.00 0.01 0.01 0.01 0.01 0.01 0.02 0.03 0.05 0.05 0.04 0.04 0.03 0.03 0.04 0.04 0.07 0.10
0.02 0.03 0.03 0.03 0.03 0.03 0.02 0.04 0.03 0.03 0.02 0.00 0.00 0.00 0.01 0.00 0.00 0.00 0.01 0.02 0.01 0.00 0.00 0.00 0.01 0.01 0.01 0.01 0.01 0.01 0.02 0.02 0.02 0.03 0.05 0.05 0.05 0.06 0.04 0.04 0.04 0.03 0.05 0.08
0.01 0.02 0.03 0.03 0.02 0.03 0.03 0.02 0.01 0.01 0.01 0.00 0.00 0.01 0.01 0.00 0.00 0.00 0.01 0.01 0.01 0.00 0.00 0.00 0.01 0.01 0.01 0.01 0.01 0.02 0.03 0.03 0.04 0.03 0.03 0.04 0.05 0.07 0.05 0.05 0.05 0.04 0.04 0.07
0.01 0.02 0.03 0.03 0.02 0.03 0.03 0.02 0.01 0.01 0.01 0.00 0.00 0.00 0.00 0.00 0.00 0.00 0.00 0.01 0.01 0.00 0.00 0.00 0.00 0.01 0.01 0.01 0.01 0.02 0.02 0.02 0.02 0.03 0.03 0.04 0.06 0.07 0.05 0.04 0.04 0.05 0.05 0.07
0.02 0.02 0.03 0.03 0.03 0.03 0.02 0.02 0.01 0.01 0.01 0.00 0.00 0.00 0.00 0.00 0.00 0.00 0.00 0.00 0.00 0.00 0.00 0.00 0.00 0.00 0.01 0.01 0.01 0.01 0.02 0.02 0.02 0.03 0.03 0.04 0.05 0.05 0.05 0.06 0.05 0.04 0.04 0.05

GEFSCGP_prec_meanprecacc_186.txt.gz
Total_Precipitation_Accumulation
0.48 0.72 0.95 0.88 0.82 0.89 0.93 0.99 0.99 0.90 0.69 0.69 0.66 0.54 0.51 0.52 0.51 0.47 0.43 0.36 0.33 0.29 0.23 0.22 0.25 0.26 0.25 0.25 0.28 0.34 0.38 0.46 0.53 0.61 0.75 0.96 1.24 1.35 1.44 1.40 1.22 1.16 1.28 1.52
0.56 0.62 0.56 0.51 0.60 0.77 0.88 1.03 1.02 0.91 0.63 0.58 0.56 0.47 0.42 0.43 0.47 0.41 0.38 0.35 0.27 0.23 0.16 0.14 0.16 0.17 0.17 0.17 0.19 0.25 0.33 0.43 0.51 0.60 0.78 0.94 1.08 1.08 1.26 1.41 1.39 1.30 1.29 1.44
0.55 0.50 0.41 0.45 0.58 0.77 0.83 0.84 0.85 0.85 0.66 0.55 0.51 0.50 0.37 0.34 0.38 0.34 0.31 0.30 0.27 0.21 0.17 0.15 0.14 0.13 0.12 0.13 0.14 0.18 0.25 0.36 0.49 0.64 0.87 1.09 1.27 1.36 1.42 1.35 1.43 1.44 1.37 1.41
0.53 0.43 0.39 0.48 0.55 0.62 0.75 0.52 0.49 0.56 0.69 0.70 0.58 0.64 0.39 0.34 0.40 0.38 0.33 0.28 0.26 0.22 0.17 0.16 0.13 0.14 0.13 0.12 0.11 0.15 0.24 0.39 0.60 0.81 1.06 1.31 1.51 1.55 1.44 1.48 1.51 1.40 1.34 1.31
0.48 0.38 0.38 0.44 0.42 0.41 0.49 0.40 0.39 0.46 0.57 0.54 0.41 0.49 0.40 0.36 0.46 0.44 0.38 0.33 0.27 0.22 0.20 0.18 0.16 0.19 0.19 0.19 0.20 0.27 0.47 0.72 0.97 1.19 1.44 1.72 1.72 1.61 1.51 1.51 1.48 1.42 1.44 1.40
0.41 0.32 0.35 0.34 0.31 0.31 0.34 0.38 0.42 0.46 0.54 0.53 0.34 0.40 0.44 0.37 0.40 0.43 0.42 0.35 0.28 0.23 0.26 0.31 0.35 0.41 0.46 0.49 0.64 0.83 1.10 1.28 1.37 1.49 1.65 1.76 1.73 1.74 1.68 1.50 1.40 1.40 1.44 1.49
0.40 0.32 0.26 0.22 0.29 0.29 0.29 0.43 0.66 0.71 0.71 0.53 0.30 0.45 0.51 0.38 0.32 0.32 0.34 0.29 0.24 0.28 0.36 0.48 0.63 0.76 0.87 1.00 1.14 1.27 1.45 1.60 1.55 1.52 1.56 1.60 1.60 1.59 1.58 1.52 1.42 1.36 1.37 1.39
0.41 0.38 0.24 0.18 0.22 0.26 0.26 0.38 0.71 0.84 0.69 0.50 0.42 0.62 0.59 0.45 0.33 0.25 0.19 0.19 0.29 0.42 0.55 0.65 0.74 0.85 1.01 1.16 1.22 1.23 1.34 1.44 1.42 1.40 1.36 1.32 1.38 1.40 1.36 1.28 1.26 1.30 1.37 1.35
0.27 0.26 0.13 0.11 0.13 0.17 0.24 0.26 0.33 0.52 0.43 0.43 0.51 0.71 0.61 0.40 0.34 0.28 0.24 0.28 0.43 0.62 0.81 0.96 1.07 1.19 1.24 1.27 1.33 1.25 1.25 1.31 1.32 1.26 1.17 1.15 1.19 1.25 1.26 1.20 1.21 1.19 1.19 1.12
0.15 0.17 0.10 0.08 0.11 0.14 0.23 0.30 0.38 0.60 0.71 0.73 0.70 0.74 0.63 0.49 0.45 0.48 0.55 0.65 0.70 0.80 1.05 1.35 1.59 1.76 1.60 1.33 1.23 1.19 1.12 1.14 1.23 1.22 1.14 1.08 1.15 1.15 1.13 1.16 1.13 1.12 1.12 1.03
0.10 0.15 0.11 0.09 0.13 0.16 0.23 0.35 0.45 0.60 0.72 0.94 1.11 1.10 0.87 0.87 0.89 0.96 1.07 1.12 1.12 1.22 1.20 1.36 1.55 1.73 1.63 1.33 1.10 1.12 1.14 1.12 1.11 1.10 1.10 1.09 1.06 0.95 0.93 0.98 0.98 0.97 0.97 1.01
0.07 0.14 0.13 0.10 0.15 0.21 0.33 0.45 0.59 0.84 0.78 0.81 1.06 1.18 0.97 0.95 0.97 1.06 1.24 1.32 1.30 1.21 1.11 1.10 1.15 1.22 1.24 1.11 0.92 0.89 1.04 1.11 1.07 1.03 1.04 1.03 0.92 0.86 0.82 0.80 0.77 0.69 0.66 0.69
0.06 0.17 0.26 0.26 0.35 0.41 0.57 0.64 0.53 0.53 0.61 0.70 0.95 0.94 0.64 0.59 0.74 0.90 1.05 1.14 1.06 1.01 1.09 1.05 0.97 0.91 0.93 0.91 0.83 0.80 0.94 1.09 1.13 1.10 0.95 0.85 0.80 0.76 0.74 0.66 0.61 0.58 0.52 0.52
0.06 0.12 0.23 0.36 0.40 0.45 0.65 0.74 0.58 0.49 0.58 0.58 0.62 0.55 0.38 0.43 0.60 0.67 0.70 0.71 0.71 0.75 0.78 0.73 0.67 0.62 0.62 0.66 0.69 0.75 0.86 0.95 1.08 1.20 1.09 0.94 0.84 0.76 0.71 0.63 0.58 0.54 0.52 0.55
0.04 0.04 0.07 0.10 0.13 0.20 0.38 0.49 0.41 0.30 0.27 0.35 0.36 0.35 0.39 0.47 0.57 0.55 0.49 0.43 0.41 0.42 0.40 0.39 0.39 0.36 0.35 0.36 0.37 0.46 0.60 0.76 0.95 1.17 1.18 1.03 0.95 0.86 0.73 0.66 0.64 0.61 0.64 0.61
0.04 0.03 0.03 0.05 0.06 0.09 0.19 0.22 0.17 0.10 0.13 0.25 0.31 0.37 0.41 0.47 0.54 0.52 0.44 0.36 0.28 0.27 0.27 0.26 0.25 0.23 0.17 0.16 0.19 0.21 0.30 0.47 0.65 0.82 0.91 0.88 0.78 0.68 0.64 0.63 0.60 0.56 0.55 0.51
0.03 0.05 0.07 0.05 0.04 0.07 0.14 0.13 0.13 0.16 0.15 0.17 0.27 0.38 0.46 0.59 0.77 0.68 0.51 0.42 0.29 0.22 0.21 0.21 0.21 0.20 0.19 0.18 0.17 0.18 0.22 0.28 0.38 0.52 0.62 0.62 0.56 0.50 0.46 0.49 0.49 0.46 0.41 0.42
0.03 0.08 0.12 0.10 0.12 0.23 0.25 0.20 0.27 0.34 0.26 0.22 0.29 0.37 0.50 0.84 1.04 0.66 0.43 0.39 0.32 0.22 0.20 0.19 0.19 0.17 0.15 0.15 0.13 0.15 0.17 0.20 0.21 0.27 0.31 0.33 0.34 0.33 0.34 0.36 0.36 0.36 0.35 0.33
0.03 0.08 0.13 0.15 0.18 0.42 0.37 0.19 0.31 0.37 0.31 0.25 0.32 0.37 0.40 0.46 0.41 0.25 0.15 0.16 0.18 0.13 0.10 0.10 0.09 0.08 0.06 0.06 0.06 0.07 0.08 0.09 0.10 0.10 0.12 0.14 0.17 0.21 0.25 0.26 0.29 0.36 0.38 0.37
0.02 0.05 0.10 0.11 0.14 0.27 0.28 0.11 0.17 0.26 0.31 0.13 0.14 0.16 0.11 0.07 0.09 0.11 0.10 0.07 0.06 0.03 0.03 0.03 0.03 0.02 0.01 0.01 0.02 0.02 0.03 0.04 0.05 0.05 0.06 0.08 0.10 0.12 0.15 0.19 0.22 0.24 0.27 0.33
0.03 0.04 0.06 0.06 0.08 0.08 0.06 0.06 0.11 0.26 0.29 0.08 0.04 0.03 0.01 0.01 0.01 0.06 0.10 0.06 0.03 0.02 0.01 0.01 0.01 0.01 0.01 0.01 0.01 0.01 0.02 0.02 0.03 0.05 0.08 0.10 0.11 0.10 0.10 0.09 0.08 0.11 0.16 0.18
0.03 0.05 0.04 0.03 0.05 0.04 0.03 0.06 0.11 0.11 0.05 0.03 0.01 0.01 0.00 0.01 0.00 0.02 0.05 0.03 0.02 0.01 0.01 0.01 0.01 0.01 0.00 0.01 0.01 0.01 0.02 0.02 0.02 0.04 0.07 0.08 0.07 0.06 0.06 0.06 0.05 0.05 0.08 0.11
0.02 0.03 0.03 0.04 0.04 0.03 0.03 0.04 0.04 0.03 0.02 0.01 0.00 0.01 0.01 0.00 0.00 0.00 0.02 0.02 0.01 0.00 0.00 0.01 0.01 0.01 0.01 0.01 0.01 0.02 0.02 0.02 0.03 0.04 0.05 0.06 0.06 0.07 0.05 0.05 0.05 0.05 0.06 0.08
0.01 0.02 0.03 0.03 0.02 0.03 0.03 0.03 0.02 0.01 0.01 0.01 0.01 0.01 0.01 0.00 0.00 0.00 0.01 0.02 0.01 0.00 0.00 0.00 0.01 0.01 0.01 0.01 0.01 0.02 0.03 0.03 0.04 0.04 0.05 0.06 0.06 0.08 0.06 0.06 0.06 0.06 0.05 0.08
0.02 0.02 0.03 0.03 0.02 0.03 0.03 0.02 0.01 0.01 0.01 0.00 0.00 0.00 0.00 0.00 0.00 0.00 0.01 0.01 0.01 0.00 0.00 0.00 0.00 0.01 0.01 0.01 0.01 0.02 0.02 0.02 0.02 0.03 0.05 0.05 0.07 0.08 0.05 0.05 0.05 0.05 0.06 0.08
0.02 0.02 0.03 0.03 0.03 0.03 0.02 0.02 0.02 0.02 0.01 0.00 0.00 0.00 0.00 0.00 0.00 0.00 0.00 0.00 0.00 0.00 0.00 0.00 0.00 0.01 0.01 0.01 0.01 0.02 0.03 0.03 0.03 0.03 0.04 0.05 0.05 0.05 0.05 0.06 0.05 0.04 0.04 0.05

GEFSCGP_prec_meanprecacc_192.txt.gz
Total_Precipitation_Accumulation
0.48 0.72 0.96 0.89 0.83 0.90 0.93 0.99 1.00 0.92 0.72 0.70 0.66 0.55 0.52 0.53 0.52 0.49 0.44 0.37 0.34 0.32 0.28 0.27 0.30 0.31 0.28 0.27 0.30 0.35 0.39 0.47 0.54 0.61 0.75 0.96 1.24 1.35 1.44 1.40 1.22 1.16 1.28 1.52
0.57 0.63 0.57 0.52 0.60 0.77 0.88 1.03 1.02 0.92 0.65 0.59 0.56 0.47 0.42 0.43 0.47 0.41 0.40 0.36 0.28 0.26 0.19 0.17 0.19 0.20 0.20 0.19 0.20 0.26 0.34 0.44 0.52 0.60 0.78 0.94 1.08 1.08 1.26 1.41 1.39 1.30 1.29 1.44
0.55 0.51 0.41 0.46 0.58 0.78 0.84 0.85 0.86 0.86 0.67 0.55 0.51 0.50 0.37 0.34 0.38 0.34 0.31 0.31 0.27 0.24 0.20 0.17 0.16 0.15 0.15 0.15 0.16 0.19 0.27 0.37 0.50 0.65 0.88 1.09 1.27 1.36 1.42 1.35 1.43 1.44 1.37 1.41
0.53 0.43 0.39 0.48 0.56 0.63 0.75 0.52 0.49 0.57 0.70 0.71 0.58 0.65 0.40 0.34 0.40 0.38 0.33 0.28 0.26 0.22 0.19 0.19 0.18 0.18 0.17 0.16 0.15 0.17 0.26 0.40 0.61 0.82 1.06 1.31 1.52 1.55 1.44 1.48 1.51 1.40 1.34 1.31
0.48 0.39 0.38 0.45 0.43 0.42 0.50 0.41 0.39 0.47 0.59 0.55 0.42 0.50 0.40 0.36 0.46 0.44 0.38 0.33 0.27 0.22 0.20 0.19 0.19 0.22 0.23 0.22 0.22 0.28 0.48 0.72 0.98 1.20 1.45 1.73 1.72 1.61 1.51 1.51 1.48 1.42 1.44 1.40
0.41 0.32 0.35 0.35 0.32 0.31 0.35 0.39 0.44 0.48 0.57 0.55 0.35 0.41 0.45 0.38 0.41 0.43 0.42 0.35 0.28 0.23 0.26 0.32 0.36 0.43 0.48 0.51 0.65 0.84 1.10 1.29 1.37 1.50 1.67 1.78 1.74 1.75 1.68 1.50 1.40 1.40 1.45 1.50
0.41 0.33 0.26 0.23 0.30 0.29 0.30 0.46 0.68 0.73 0.74 0.55 0.31 0.46 0.52 0.38 0.32 0.32 0.34 0.29 0.24 0.28 0.36 0.49 0.63 0.76 0.87 1.01 1.14 1.28 1.46 1.61 1.56 1.52 1.57 1.62 1.61 1.60 1.58 1.52 1.42 1.36 1.38 1.39
0.43 0.40 0.25 0.18 0.22 0.26 0.27 0.39 0.73 0.86 0.71 0.51 0.43 0.63 0.59 0.45 0.33 0.25 0.19 0.19 0.29 0.42 0.55 0.66 0.74 0.85 1.02 1.16 1.22 1.23 1.34 1.45 1.43 1.41 1.37 1.34 1.39 1.41 1.36 1.29 1.27 1.30 1.37 1.35
0.29 0.28 0.15 0.12 0.14 0.17 0.25 0.28 0.34 0.54 0.45 0.44 0.52 0.71 0.61 0.40 0.34 0.28 0.24 0.28 0.43 0.62 0.83 0.97 1.07 1.19 1.24 1.27 1.33 1.26 1.26 1.31 1.33 1.27 1.18 1.16 1.21 1.25 1.26 1.21 1.21 1.19 1.20 1.12
0.15 0.18 0.11 0.09 0.12 0.14 0.23 0.31 0.39 0.63 0.73 0.74 0.71 0.74 0.63 0.49 0.45 0.48 0.55 0.65 0.71 0.81 1.07 1.36 1.60 1.77 1.60 1.34 1.23 1.20 1.13 1.14 1.24 1.23 1.15 1.10 1.16 1.15 1.14 1.16 1.13 1.13 1.12 1.03
0.10 0.15 0.11 0.10 0.14 0.16 0.23 0.36 0.46 0.61 0.74 0.96 1.13 1.11 0.87 0.87 0.89 0.96 1.07 1.12 1.13 1.22 1.21 1.36 1.56 1.74 1.64 1.34 1.11 1.12 1.14 1.12 1.12 1.11 1.12 1.11 1.07 0.95 0.93 0.99 0.99 0.97 0.97 1.01
0.07 0.14 0.13 0.10 0.15 0.21 0.33 0.45 0.60 0.86 0.80 0.82 1.07 1.19 0.97 0.95 0.97 1.06 1.24 1.32 1.30 1.21 1.12 1.10 1.15 1.23 1.25 1.11 0.93 0.90 1.04 1.11 1.07 1.03 1.06 1.05 0.94 0.87 0.83 0.80 0.77 0.69 0.66 0.69
0.07 0.18 0.27 0.27 0.36 0.42 0.57 0.64 0.53 0.54 0.62 0.71 0.96 0.94 0.65 0.59 0.74 0.90 1.05 1.14 1.06 1.01 1.09 1.05 0.98 0.91 0.94 0.91 0.83 0.80 0.94 1.09 1.13 1.11 0.96 0.86 0.81 0.76 0.75 0.66 0.61 0.58 0.52 0.52
0.07 0.13 0.24 0.38 0.40 0.45 0.65 0.74 0.58 0.49 0.59 0.59 0.62 0.55 0.38 0.43 0.60 0.67 0.70 0.71 0.71 0.76 0.79 0.73 0.68 0.63 0.63 0.66 0.70 0.75 0.87 0.96 1.09 1.20 1.10 0.95 0.84 0.76 0.71 0.63 0.58 0.54 0.52 0.55
0.06 0.05 0.07 0.11 0.13 0.20 0.38 0.49 0.41 0.30 0.28 0.36 0.36 0.35 0.39 0.47 0.57 0.55 0.49 0.43 0.41 0.42 0.40 0.39 0.39 0.36 0.35 0.36 0.37 0.46 0.60 0.76 0.95 1.17 1.18 1.03 0.95 0.87 0.73 0.66 0.65 0.61 0.64 0.61
0.04 0.04 0.04 0.05 0.06 0.09 0.19 0.22 0.17 0.10 0.13 0.25 0.31 0.37 0.41 0.48 0.54 0.52 0.44 0.36 0.29 0.27 0.27 0.27 0.25 0.23 0.18 0.16 0.19 0.21 0.30 0.47 0.65 0.82 0.91 0.88 0.79 0.68 0.64 0.63 0.60 0.57 0.55 0.51
0.04 0.05 0.07 0.05 0.04 0.07 0.14 0.13 0.13 0.16 0.15 0.17 0.27 0.38 0.46 0.59 0.77 0.68 0.51 0.42 0.29 0.22 0.22 0.21 0.21 0.21 0.19 0.18 0.17 0.18 0.23 0.28 0.38 0.52 0.62 0.62 0.57 0.50 0.46 0.50 0.49 0.47 0.42 0.43
0.04 0.09 0.13 0.10 0.12 0.24 0.26 0.20 0.27 0.34 0.26 0.22 0.29 0.37 0.50 0.84 1.04 0.66 0.43 0.39 0.32 0.22 0.20 0.20 0.20 0.18 0.16 0.15 0.14 0.15 0.18 0.20 0.22 0.27 0.32 0.33 0.34 0.34 0.34 0.36 0.37 0.37 0.36 0.35
0.03 0.08 0.14 0.15 0.18 0.42 0.37 0.19 0.31 0.37 0.31 0.25 0.32 0.37 0.40 0.46 0.41 0.25 0.15 0.16 0.18 0.13 0.11 0.10 0.10 0.09 0.07 0.06 0.06 0.07 0.08 0.09 0.10 0.11 0.13 0.15 0.18 0.22 0.27 0.29 0.33 0.41 0.43 0.40
0.03 0.06 0.11 0.12 0.14 0.27 0.28 0.11 0.17 0.26 0.31 0.14 0.14 0.16 0.11 0.07 0.09 0.11 0.10 0.07 0.06 0.04 0.03 0.03 0.03 0.02 0.02 0.02 0.02 0.02 0.03 0.04 0.05 0.06 0.06 0.09 0.11 0.13 0.17 0.23 0.26 0.27 0.29 0.34
0.03 0.05 0.06 0.07 0.08 0.09 0.06 0.06 0.11 0.26 0.29 0.08 0.04 0.03 0.01 0.01 0.01 0.06 0.10 0.06 0.03 0.02 0.01 0.01 0.01 0.01 0.01 0.01 0.01 0.01 0.02 0.03 0.03 0.05 0.08 0.10 0.11 0.11 0.12 0.10 0.09 0.11 0.17 0.19
0.03 0.05 0.04 0.04 0.05 0.04 0.03 0.06 0.12 0.11 0.05 0.03 0.01 0.01 0.01 0.01 0.01 0.02 0.05 0.04 0.02 0.01 0.01 0.01 0.01 0.01 0.01 0.01 0.01 0.02 0.02 0.02 0.02 0.04 0.07 0.08 0.07 0.06 0.06 0.07 0.06 0.06 0.09 0.11
0.02 0.04 0.04 0.04 0.04 0.03 0.03 0.04 0.04 0.03 0.02 0.01 0.01 0.01 0.01 0.01 0.00 0.00 0.02 0.02 0.01 0.00 0.01 0.01 0.01 0.01 0.01 0.01 0.02 0.02 0.02 0.02 0.03 0.04 0.06 0.06 0.06 0.07 0.06 0.05 0.05 0.05 0.06 0.08
0.01 0.02 0.03 0.03 0.03 0.03 0.03 0.03 0.02 0.02 0.02 0.01 0.01 0.01 0.01 0.01 0.00 0.00 0.01 0.02 0.01 0.00 0.00 0.01 0.01 0.01 0.02 0.02 0.02 0.03 0.03 0.03 0.04 0.04 0.05 0.06 0.07 0.08 0.06 0.06 0.07 0.06 0.06 0.08
0.02 0.02 0.03 0.03 0.02 0.03 0.03 0.02 0.01 0.01 0.01 0.00 0.00 0.00 0.00 0.00 0.00 0.00 0.01 0.01 0.01 0.01 0.01 0.00 0.01 0.01 0.02 0.02 0.02 0.02 0.03 0.02 0.02 0.04 0.05 0.06 0.08 0.08 0.06 0.05 0.06 0.06 0.06 0.09
0.02 0.03 0.03 0.03 0.03 0.03 0.02 0.02 0.02 0.02 0.01 0.01 0.01 0.00 0.00 0.00 0.00 0.01 0.00 0.01 0.01 0.01 0.01 0.01 0.01 0.01 0.02 0.03 0.02 0.02 0.03 0.03 0.03 0.03 0.04 0.05 0.06 0.05 0.06 0.06 0.05 0.04 0.05 0.06

GEFSCGP_prec_meanprecacc_198.txt.gz
Total_Precipitation_Accumulation
0.50 0.73 0.97 0.90 0.84 0.91 0.95 1.01 1.02 0.93 0.72 0.72 0.67 0.55 0.52 0.53 0.53 0.50 0.45 0.38 0.36 0.34 0.30 0.30 0.32 0.32 0.30 0.29 0.32 0.37 0.40 0.47 0.54 0.61 0.75 0.97 1.24 1.35 1.44 1.40 1.22 1.16 1.28 1.52
0.58 0.64 0.58 0.52 0.61 0.79 0.90 1.05 1.03 0.92 0.66 0.59 0.57 0.47 0.42 0.44 0.48 0.42 0.40 0.38 0.30 0.27 0.20 0.19 0.21 0.22 0.22 0.21 0.23 0.28 0.35 0.45 0.52 0.60 0.78 0.94 1.08 1.08 1.26 1.41 1.39 1.30 1.29 1.44
0.56 0.52 0.42 0.46 0.59 0.79 0.85 0.86 0.87 0.86 0.68 0.56 0.52 0.51 0.38 0.35 0.39 0.35 0.32 0.32 0.28 0.25 0.21 0.18 0.17 0.16 0.16 0.16 0.17 0.21 0.28 0.39 0.51 0.65 0.88 1.09 1.28 1.36 1.42 1.35 1.43 1.44 1.37 1.41
0.54 0.43 0.39 0.49 0.57 0.64 0.77 0.53 0.50 0.57 0.72 0.73 0.60 0.69 0.44 0.37 0.42 0.39 0.33 0.28 0.27 0.23 0.19 0.20 0.19 0.20 0.18 0.17 0.16 0.20 0.28 0.42 0.62 0.83 1.07 1.31 1.52 1.56 1.44 1.48 1.51 1.40 1.34 1.31
0.49 0.39 0.39 0.46 0.44 0.42 0.51 0.41 0.39 0.47 0.61 0.58 0.45 0.55 0.45 0.39 0.49 0.46 0.39 0.33 0.27 0.22 0.20 0.20 0.21 0.24 0.24 0.24 0.24 0.32 0.51 0.75 1.00 1.21 1.46 1.73 1.72 1.61 1.51 1.51 1.48 1.43 1.44 1.40
0.42 0.33 0.36 0.35 0.33 0.31 0.35 0.39 0.44 0.49 0.61 0.62 0.40 0.46 0.50 0.39 0.42 0.45 0.42 0.36 0.28 0.23 0.26 0.33 0.38 0.44 0.49 0.53 0.66 0.86 1.13 1.32 1.41 1.53 1.68 1.79 1.74 1.75 1.68 1.50 1.40 1.40 1.45 1.51
0.43 0.34 0.26 0.23 0.30 0.29 0.30 0.49 0.74 0.79 0.81 0.61 0.34 0.50 0.56 0.39 0.33 0.33 0.34 0.30 0.25 0.28 0.37 0.49 0.64 0.76 0.88 1.01 1.15 1.29 1.47 1.62 1.58 1.55 1.60 1.64 1.63 1.60 1.58 1.52 1.42 1.37 1.39 1.41
0.45 0.41 0.25 0.18 0.22 0.27 0.28 0.43 0.81 0.95 0.79 0.58 0.45 0.66 0.61 0.45 0.33 0.25 0.19 0.20 0.29 0.42 0.55 0.66 0.74 0.85 1.02 1.16 1.22 1.24 1.34 1.45 1.43 1.41 1.38 1.35 1.42 1.43 1.37 1.29 1.27 1.31 1.38 1.36
0.30 0.30 0.15 0.12 0.14 0.17 0.26 0.30 0.37 0.60 0.50 0.50 0.57 0.74 0.62 0.40 0.34 0.28 0.24 0.28 0.43 0.63 0.83 0.98 1.08 1.20 1.24 1.28 1.34 1.26 1.26 1.32 1.33 1.28 1.19 1.17 1.22 1.28 1.28 1.22 1.22 1.20 1.20 1.12
0.16 0.19 0.11 0.10 0.12 0.14 0.23 0.32 0.42 0.68 0.80 0.82 0.78 0.80 0.66 0.50 0.45 0.48 0.55 0.65 0.71 0.81 1.08 1.37 1.61 1.79 1.62 1.35 1.25 1.21 1.14 1.15 1.25 1.24 1.16 1.10 1.17 1.17 1.16 1.18 1.15 1.13 1.12 1.04
0.10 0.16 0.12 0.10 0.14 0.17 0.23 0.37 0.48 0.65 0.77 1.02 1.21 1.17 0.89 0.89 0.90 0.97 1.07 1.12 1.13 1.23 1.22 1.37 1.57 1.75 1.66 1.35 1.12 1.14 1.16 1.14 1.13 1.12 1.13 1.12 1.08 0.97 0.96 1.01 0.99 0.97 0.97 1.01
0.07 0.15 0.14 0.11 0.15 0.21 0.33 0.45 0.61 0.90 0.84 0.85 1.12 1.22 0.98 0.96 0.98 1.06 1.24 1.32 1.31 1.22 1.13 1.11 1.16 1.23 1.26 1.12 0.93 0.90 1.05 1.12 1.08 1.04 1.06 1.05 0.95 0.88 0.85 0.83 0.79 0.70 0.67 0.69
0.07 0.19 0.28 0.29 0.37 0.42 0.57 0.64 0.53 0.55 0.64 0.73 0.99 0.96 0.65 0.59 0.75 0.91 1.06 1.14 1.07 1.02 1.10 1.07 0.98 0.92 0.95 0.92 0.84 0.81 0.94 1.09 1.14 1.11 0.96 0.86 0.82 0.79 0.77 0.68 0.63 0.59 0.52 0.52
0.07 0.14 0.24 0.39 0.42 0.45 0.65 0.74 0.58 0.50 0.61 0.60 0.63 0.56 0.38 0.43 0.61 0.67 0.70 0.71 0.71 0.76 0.79 0.74 0.68 0.64 0.64 0.67 0.70 0.76 0.87 0.96 1.09 1.20 1.10 0.95 0.85 0.78 0.73 0.65 0.60 0.55 0.52 0.55
0.06 0.05 0.08 0.11 0.14 0.20 0.38 0.50 0.41 0.31 0.28 0.36 0.36 0.36 0.40 0.47 0.58 0.56 0.49 0.44 0.42 0.42 0.40 0.40 0.39 0.36 0.36 0.37 0.38 0.47 0.61 0.76 0.96 1.17 1.18 1.03 0.95 0.87 0.74 0.68 0.66 0.62 0.65 0.61
0.05 0.05 0.04 0.05 0.06 0.10 0.19 0.22 0.17 0.10 0.14 0.25 0.31 0.38 0.42 0.48 0.55 0.52 0.44 0.36 0.29 0.27 0.27 0.27 0.25 0.23 0.18 0.17 0.19 0.21 0.31 0.48 0.65 0.82 0.91 0.88 0.79 0.68 0.65 0.63 0.60 0.57 0.55 0.51
0.04 0.06 0.08 0.06 0.05 0.07 0.14 0.13 0.13 0.16 0.15 0.17 0.27 0.39 0.46 0.59 0.77 0.68 0.51 0.42 0.29 0.22 0.22 0.22 0.21 0.21 0.19 0.18 0.18 0.18 0.23 0.29 0.39 0.52 0.62 0.63 0.57 0.50 0.47 0.50 0.50 0.47 0.42 0.44
0.04 0.09 0.14 0.12 0.13 0.25 0.26 0.20 0.27 0.34 0.26 0.22 0.29 0.37 0.50 0.84 1.04 0.66 0.43 0.39 0.32 0.22 0.20 0.20 0.20 0.19 0.16 0.15 0.14 0.16 0.18 0.20 0.22 0.27 0.32 0.34 0.35 0.35 0.35 0.37 0.37 0.37 0.37 0.37
0.03 0.09 0.15 0.17 0.20 0.43 0.37 0.19 0.31 0.37 0.31 0.25 0.32 0.37 0.40 0.46 0.41 0.25 0.15 0.16 0.18 0.13 0.11 0.10 0.10 0.09 0.07 0.07 0.07 0.08 0.09 0.10 0.10 0.11 0.14 0.16 0.19 0.22 0.27 0.29 0.33 0.42 0.44 0.41
0.03 0.06 0.12 0.13 0.16 0.28 0.28 0.11 0.17 0.26 0.32 0.14 0.14 0.16 0.11 0.07 0.09 0.11 0.10 0.07 0.06 0.04 0.03 0.03 0.03 0.03 0.02 0.02 0.03 0.03 0.04 0.05 0.06 0.06 0.07 0.09 0.11 0.13 0.18 0.23 0.26 0.27 0.29 0.34
0.04 0.06 0.08 0.08 0.10 0.10 0.06 0.06 0.11 0.26 0.29 0.08 0.04 0.03 0.01 0.01 0.01 0.06 0.10 0.06 0.03 0.02 0.01 0.01 0.01 0.01 0.01 0.01 0.02 0.02 0.02 0.03 0.04 0.06 0.08 0.11 0.11 0.11 0.12 0.11 0.09 0.12 0.17 0.19
0.04 0.06 0.05 0.05 0.07 0.05 0.03 0.06 0.12 0.11 0.06 0.03 0.02 0.01 0.01 0.01 0.01 0.02 0.05 0.04 0.02 0.01 0.01 0.01 0.01 0.01 0.01 0.01 0.01 0.02 0.02 0.03 0.03 0.05 0.07 0.08 0.07 0.06 0.07 0.07 0.06 0.07 0.10 0.12
0.03 0.04 0.04 0.04 0.05 0.04 0.03 0.05 0.04 0.03 0.02 0.01 0.01 0.01 0.01 0.01 0.00 0.00 0.02 0.02 0.01 0.00 0.01 0.01 0.01 0.02 0.01 0.02 0.02 0.02 0.03 0.03 0.03 0.04 0.06 0.06 0.06 0.07 0.06 0.05 0.06 0.06 0.07 0.09
0.02 0.02 0.04 0.04 0.03 0.03 0.03 0.03 0.02 0.02 0.02 0.01 0.01 0.01 0.01 0.01 0.00 0.00 0.01 0.02 0.01 0.00 0.01 0.01 0.01 0.02 0.02 0.02 0.03 0.03 0.04 0.04 0.05 0.05 0.05 0.07 0.07 0.08 0.07 0.06 0.07 0.06 0.06 0.08
0.02 0.03 0.04 0.03 0.03 0.03 0.03 0.02 0.01 0.01 0.01 0.00 0.01 0.01 0.00 0.00 0.00 0.00 0.01 0.01 0.01 0.01 0.01 0.01 0.01 0.01 0.02 0.03 0.03 0.03 0.04 0.03 0.03 0.04 0.06 0.06 0.08 0.09 0.06 0.05 0.06 0.06 0.06 0.09
0.02 0.03 0.04 0.04 0.03 0.03 0.03 0.02 0.02 0.02 0.01 0.01 0.01 0.01 0.01 0.00 0.01 0.01 0.00 0.01 0.01 0.01 0.01 0.01 0.01 0.01 0.02 0.03 0.03 0.04 0.04 0.04 0.03 0.04 0.05 0.06 0.06 0.06 0.06 0.07 0.06 0.05 0.05 0.06

GEFSCGP_prec_meanprecacc_204.txt.gz
Total_Precipitation_Accumulation
0.53 0.76 1.00 0.93 0.86 0.93 0.96 1.02 1.03 0.94 0.73 0.72 0.68 0.56 0.53 0.54 0.56 0.52 0.48 0.40 0.38 0.36 0.34 0.33 0.35 0.36 0.35 0.33 0.34 0.39 0.42 0.50 0.56 0.62 0.75 0.97 1.24 1.35 1.44 1.40 1.22 1.16 1.28 1.52
0.60 0.67 0.60 0.55 0.63 0.82 0.92 1.07 1.05 0.94 0.66 0.60 0.58 0.48 0.43 0.45 0.51 0.46 0.44 0.40 0.32 0.29 0.24 0.22 0.24 0.25 0.25 0.23 0.25 0.30 0.37 0.47 0.54 0.61 0.78 0.94 1.08 1.08 1.26 1.41 1.39 1.30 1.30 1.45
0.57 0.54 0.43 0.48 0.61 0.82 0.89 0.89 0.88 0.87 0.69 0.57 0.53 0.53 0.40 0.37 0.42 0.39 0.34 0.33 0.30 0.28 0.25 0.23 0.21 0.19 0.19 0.19 0.20 0.23 0.29 0.40 0.53 0.66 0.88 1.09 1.28 1.36 1.42 1.35 1.43 1.44 1.37 1.41
0.55 0.44 0.40 0.50 0.58 0.66 0.81 0.55 0.51 0.58 0.73 0.74 0.62 0.73 0.47 0.41 0.45 0.40 0.35 0.30 0.28 0.27 0.25 0.27 0.24 0.26 0.24 0.20 0.18 0.21 0.29 0.43 0.63 0.84 1.07 1.32 1.52 1.56 1.44 1.48 1.51 1.40 1.34 1.31
0.50 0.40 0.39 0.47 0.45 0.43 0.53 0.43 0.41 0.48 0.62 0.60 0.46 0.57 0.49 0.41 0.50 0.47 0.39 0.35 0.30 0.25 0.24 0.24 0.24 0.27 0.27 0.26 0.25 0.32 0.52 0.76 1.00 1.22 1.46 1.73 1.72 1.61 1.52 1.51 1.48 1.43 1.44 1.41
0.42 0.33 0.36 0.36 0.33 0.32 0.36 0.41 0.46 0.52 0.64 0.64 0.41 0.47 0.52 0.41 0.43 0.47 0.45 0.37 0.30 0.25 0.29 0.35 0.40 0.46 0.51 0.54 0.67 0.86 1.13 1.32 1.43 1.54 1.69 1.79 1.75 1.75 1.69 1.50 1.41 1.40 1.46 1.52
0.43 0.34 0.27 0.23 0.31 0.30 0.31 0.52 0.78 0.84 0.85 0.64 0.35 0.51 0.57 0.40 0.33 0.33 0.36 0.31 0.26 0.30 0.39 0.51 0.65 0.77 0.88 1.02 1.15 1.29 1.47 1.62 1.58 1.56 1.61 1.65 1.64 1.61 1.59 1.53 1.43 1.37 1.39 1.42
0.46 0.42 0.25 0.19 0.23 0.29 0.30 0.46 0.84 0.97 0.82 0.60 0.47 0.68 0.63 0.46 0.34 0.25 0.20 0.20 0.30 0.44 0.57 0.68 0.76 0.86 1.02 1.17 1.23 1.24 1.35 1.45 1.43 1.42 1.39 1.36 1.43 1.44 1.38 1.30 1.28 1.32 1.39 1.37
0.31 0.30 0.15 0.13 0.14 0.18 0.27 0.31 0.39 0.61 0.52 0.52 0.60 0.77 0.66 0.41 0.35 0.28 0.24 0.29 0.44 0.64 0.85 1.00 1.10 1.21 1.25 1.28 1.34 1.27 1.26 1.32 1.34 1.28 1.19 1.17 1.23 1.29 1.29 1.22 1.22 1.21 1.21 1.13
0.17 0.20 0.11 0.10 0.12 0.14 0.24 0.33 0.43 0.70 0.82 0.84 0.81 0.84 0.72 0.52 0.46 0.48 0.55 0.66 0.71 0.83 1.10 1.38 1.62 1.79 1.62 1.35 1.26 1.22 1.15 1.16 1.25 1.25 1.17 1.11 1.18 1.18 1.16 1.19 1.15 1.14 1.14 1.05
0.11 0.17 0.12 0.10 0.14 0.17 0.24 0.37 0.49 0.66 0.79 1.04 1.24 1.19 0.91 0.91 0.92 0.98 1.08 1.12 1.13 1.23 1.23 1.39 1.58 1.76 1.66 1.35 1.13 1.15 1.17 1.14 1.14 1.13 1.14 1.13 1.09 0.98 0.97 1.01 1.01 0.99 0.98 1.02
0.08 0.15 0.14 0.11 0.15 0.22 0.34 0.46 0.62 0.91 0.85 0.87 1.14 1.24 0.99 0.97 0.98 1.08 1.26 1.32 1.31 1.23 1.14 1.13 1.18 1.25 1.27 1.13 0.94 0.91 1.06 1.13 1.09 1.05 1.07 1.06 0.96 0.89 0.86 0.84 0.80 0.71 0.67 0.69
0.08 0.20 0.29 0.29 0.37 0.43 0.58 0.65 0.54 0.55 0.65 0.74 1.01 0.97 0.65 0.60 0.75 0.91 1.07 1.15 1.08 1.03 1.12 1.08 1.00 0.94 0.97 0.93 0.85 0.82 0.95 1.10 1.14 1.12 0.97 0.87 0.83 0.79 0.78 0.69 0.64 0.61 0.54 0.53
0.08 0.15 0.25 0.40 0.42 0.46 0.66 0.74 0.58 0.50 0.61 0.61 0.64 0.56 0.39 0.44 0.61 0.68 0.73 0.73 0.74 0.78 0.81 0.75 0.70 0.65 0.65 0.68 0.71 0.77 0.88 0.96 1.09 1.21 1.10 0.96 0.86 0.79 0.74 0.66 0.61 0.56 0.53 0.55
0.07 0.06 0.08 0.12 0.14 0.21 0.38 0.50 0.41 0.31 0.29 0.37 0.37 0.36 0.40 0.48 0.58 0.56 0.50 0.48 0.47 0.46 0.42 0.41 0.40 0.38 0.38 0.38 0.39 0.48 0.62 0.78 0.96 1.18 1.18 1.03 0.96 0.88 0.74 0.68 0.67 0.62 0.65 0.62
0.06 0.05 0.05 0.06 0.07 0.10 0.20 0.23 0.17 0.11 0.15 0.26 0.31 0.38 0.42 0.49 0.56 0.52 0.44 0.37 0.31 0.29 0.28 0.28 0.26 0.24 0.19 0.18 0.20 0.22 0.31 0.49 0.66 0.83 0.92 0.89 0.79 0.69 0.65 0.64 0.61 0.57 0.56 0.52
0.06 0.07 0.09 0.07 0.06 0.08 0.15 0.14 0.13 0.16 0.16 0.17 0.27 0.39 0.47 0.59 0.77 0.68 0.51 0.42 0.30 0.23 0.23 0.22 0.22 0.21 0.20 0.18 0.18 0.19 0.24 0.30 0.40 0.54 0.64 0.64 0.58 0.51 0.47 0.50 0.50 0.47 0.43 0.44
0.06 0.11 0.15 0.13 0.15 0.26 0.26 0.20 0.27 0.35 0.26 0.22 0.29 0.37 0.51 0.84 1.04 0.67 0.44 0.40 0.33 0.23 0.21 0.21 0.21 0.19 0.17 0.16 0.15 0.16 0.19 0.22 0.23 0.29 0.34 0.36 0.36 0.36 0.36 0.37 0.37 0.37 0.37 0.37
0.04 0.11 0.18 0.19 0.22 0.44 0.37 0.19 0.31 0.37 0.31 0.25 0.32 0.37 0.40 0.46 0.42 0.25 0.15 0.16 0.18 0.13 0.11 0.10 0.11 0.10 0.08 0.07 0.07 0.08 0.10 0.12 0.12 0.12 0.15 0.17 0.19 0.23 0.27 0.29 0.33 0.42 0.44 0.41
0.04 0.08 0.15 0.16 0.19 0.30 0.29 0.11 0.17 0.26 0.32 0.14 0.15 0.16 0.11 0.07 0.09 0.12 0.11 0.07 0.06 0.04 0.03 0.03 0.03 0.03 0.02 0.03 0.04 0.03 0.05 0.06 0.07 0.07 0.08 0.10 0.12 0.14 0.18 0.24 0.26 0.27 0.29 0.34
0.05 0.08 0.10 0.11 0.13 0.13 0.08 0.07 0.12 0.26 0.29 0.08 0.04 0.04 0.01 0.01 0.01 0.06 0.10 0.06 0.03 0.02 0.02 0.01 0.01 0.01 0.02 0.02 0.02 0.02 0.03 0.05 0.06 0.08 0.10 0.12 0.12 0.12 0.13 0.11 0.09 0.12 0.17 0.20
0.06 0.08 0.08 0.07 0.10 0.09 0.05 0.07 0.12 0.12 0.06 0.03 0.02 0.01 0.01 0.01 0.01 0.02 0.05 0.04 0.02 0.01 0.01 0.01 0.01 0.02 0.02 0.02 0.02 0.02 0.03 0.04 0.05 0.07 0.09 0.10 0.08 0.07 0.07 0.07 0.07 0.07 0.10 0.13
0.06 0.07 0.07 0.07 0.07 0.07 0.06 0.05 0.05 0.03 0.02 0.01 0.02 0.01 0.01 0.01 0.01 0.01 0.02 0.02 0.01 0.00 0.01 0.01 0.01 0.02 0.02 0.02 0.02 0.03 0.04 0.05 0.06 0.06 0.08 0.08 0.07 0.08 0.07 0.06 0.06 0.07 0.08 0.10
0.05 0.04 0.07 0.06 0.04 0.05 0.05 0.03 0.02 0.02 0.02 0.01 0.02 0.01 0.01 0.01 0.01 0.00 0.01 0.02 0.01 0.01 0.01 0.01 0.02 0.02 0.03 0.03 0.03 0.04 0.05 0.05 0.06 0.06 0.07 0.08 0.09 0.09 0.08 0.07 0.08 0.07 0.07 0.09
0.04 0.05 0.07 0.06 0.04 0.04 0.04 0.03 0.02 0.01 0.01 0.01 0.01 0.01 0.00 0.01 0.01 0.01 0.01 0.01 0.01 0.01 0.01 0.01 0.01 0.02 0.03 0.04 0.03 0.04 0.04 0.04 0.04 0.05 0.07 0.08 0.10 0.10 0.07 0.06 0.07 0.07 0.07 0.10
0.04 0.05 0.07 0.06 0.04 0.03 0.03 0.03 0.02 0.02 0.01 0.01 0.01 0.01 0.01 0.00 0.01 0.01 0.01 0.01 0.01 0.01 0.01 0.01 0.01 0.01 0.03 0.03 0.04 0.04 0.05 0.05 0.04 0.05 0.06 0.07 0.07 0.07 0.07 0.08 0.07 0.06 0.07 0.07

GEFSCGP_prec_meanprecacc_210.txt.gz
Total_Precipitation_Accumulation
0.54 0.77 1.01 0.94 0.87 0.93 0.97 1.03 1.04 0.95 0.74 0.74 0.70 0.57 0.53 0.55 0.57 0.54 0.49 0.41 0.39 0.40 0.38 0.38 0.38 0.40 0.39 0.38 0.41 0.45 0.48 0.56 0.60 0.64 0.77 0.98 1.24 1.35 1.44 1.40 1.22 1.17 1.29 1.53
0.61 0.69 0.61 0.56 0.64 0.83 0.94 1.08 1.06 0.95 0.68 0.62 0.60 0.49 0.43 0.45 0.52 0.47 0.44 0.41 0.35 0.34 0.29 0.27 0.27 0.30 0.31 0.31 0.32 0.36 0.42 0.52 0.58 0.62 0.79 0.95 1.09 1.09 1.26 1.41 1.39 1.31 1.30 1.45
0.58 0.55 0.45 0.49 0.63 0.84 0.91 0.91 0.90 0.88 0.70 0.57 0.54 0.53 0.40 0.37 0.42 0.39 0.35 0.35 0.32 0.30 0.28 0.27 0.26 0.24 0.26 0.27 0.25 0.27 0.32 0.42 0.55 0.68 0.89 1.10 1.28 1.36 1.42 1.35 1.43 1.45 1.38 1.42
0.56 0.46 0.41 0.51 0.60 0.68 0.84 0.59 0.53 0.59 0.73 0.75 0.62 0.74 0.48 0.41 0.45 0.41 0.35 0.30 0.29 0.27 0.27 0.31 0.28 0.30 0.28 0.25 0.21 0.23 0.31 0.44 0.64 0.86 1.08 1.32 1.53 1.56 1.44 1.48 1.51 1.41 1.35 1.31
0.51 0.41 0.40 0.48 0.46 0.45 0.55 0.45 0.42 0.49 0.63 0.60 0.46 0.57 0.50 0.41 0.50 0.47 0.40 0.35 0.30 0.26 0.27 0.28 0.26 0.29 0.29 0.27 0.27 0.33 0.52 0.76 1.01 1.23 1.48 1.74 1.73 1.61 1.52 1.51 1.48 1.43 1.45 1.42
0.42 0.34 0.37 0.37 0.34 0.33 0.36 0.42 0.47 0.52 0.65 0.65 0.41 0.47 0.52 0.41 0.43 0.47 0.45 0.37 0.31 0.26 0.30 0.37 0.41 0.47 0.52 0.55 0.68 0.87 1.14 1.33 1.43 1.55 1.70 1.81 1.76 1.76 1.70 1.51 1.41 1.41 1.47 1.53
0.44 0.35 0.27 0.24 0.31 0.31 0.32 0.53 0.80 0.85 0.86 0.64 0.35 0.51 0.57 0.41 0.33 0.34 0.36 0.31 0.26 0.30 0.39 0.52 0.66 0.77 0.89 1.03 1.16 1.30 1.47 1.62 1.59 1.57 1.62 1.66 1.65 1.62 1.60 1.53 1.43 1.38 1.40 1.43
0.46 0.43 0.26 0.20 0.24 0.29 0.31 0.47 0.85 0.98 0.82 0.60 0.47 0.68 0.63 0.46 0.34 0.26 0.20 0.20 0.31 0.44 0.57 0.69 0.76 0.87 1.02 1.17 1.24 1.24 1.35 1.46 1.44 1.42 1.39 1.37 1.44 1.45 1.39 1.31 1.28 1.32 1.40 1.37
0.31 0.31 0.16 0.13 0.15 0.19 0.28 0.32 0.39 0.62 0.52 0.52 0.60 0.77 0.66 0.42 0.35 0.29 0.25 0.29 0.44 0.64 0.85 1.00 1.11 1.21 1.25 1.29 1.35 1.27 1.27 1.33 1.34 1.28 1.20 1.18 1.24 1.29 1.30 1.23 1.23 1.22 1.22 1.14
0.18 0.21 0.12 0.11 0.13 0.15 0.24 0.33 0.44 0.71 0.82 0.84 0.82 0.84 0.72 0.53 0.46 0.48 0.55 0.66 0.72 0.83 1.10 1.39 1.63 1.79 1.62 1.35 1.27 1.24 1.16 1.17 1.26 1.25 1.17 1.12 1.19 1.19 1.17 1.19 1.16 1.15 1.15 1.05
0.12 0.18 0.13 0.11 0.15 0.18 0.25 0.38 0.50 0.67 0.79 1.04 1.24 1.19 0.91 0.91 0.92 0.98 1.08 1.13 1.13 1.23 1.23 1.39 1.58 1.76 1.67 1.36 1.13 1.16 1.18 1.15 1.15 1.14 1.15 1.14 1.10 0.99 0.98 1.02 1.01 1.00 0.99 1.03
0.09 0.16 0.14 0.11 0.16 0.24 0.35 0.47 0.63 0.91 0.85 0.87 1.14 1.24 0.99 0.97 0.99 1.08 1.26 1.32 1.31 1.23 1.14 1.13 1.18 1.25 1.28 1.13 0.95 0.92 1.07 1.14 1.10 1.06 1.08 1.07 0.97 0.91 0.87 0.85 0.81 0.71 0.68 0.70
0.09 0.20 0.30 0.30 0.38 0.44 0.59 0.65 0.54 0.56 0.65 0.75 1.01 0.98 0.65 0.60 0.75 0.91 1.07 1.15 1.08 1.03 1.12 1.08 1.00 0.94 0.97 0.94 0.85 0.82 0.95 1.11 1.16 1.13 0.97 0.88 0.84 0.80 0.79 0.71 0.66 0.63 0.55 0.54
0.09 0.15 0.26 0.40 0.42 0.46 0.66 0.75 0.59 0.51 0.62 0.61 0.64 0.56 0.39 0.44 0.61 0.68 0.73 0.73 0.74 0.78 0.81 0.76 0.70 0.65 0.66 0.69 0.72 0.77 0.88 0.97 1.10 1.21 1.11 0.96 0.86 0.80 0.76 0.70 0.67 0.62 0.59 0.59
0.08 0.07 0.09 0.12 0.15 0.21 0.39 0.50 0.42 0.31 0.29 0.37 0.37 0.36 0.40 0.48 0.58 0.56 0.50 0.48 0.48 0.46 0.42 0.41 0.41 0.39 0.39 0.39 0.39 0.49 0.63 0.78 0.97 1.18 1.19 1.04 0.96 0.89 0.76 0.70 0.69 0.66 0.70 0.66
0.06 0.06 0.05 0.06 0.07 0.11 0.20 0.24 0.19 0.12 0.16 0.26 0.32 0.38 0.42 0.49 0.56 0.52 0.44 0.37 0.31 0.29 0.28 0.28 0.26 0.24 0.20 0.19 0.21 0.22 0.32 0.50 0.67 0.84 0.93 0.90 0.80 0.70 0.66 0.65 0.62 0.59 0.58 0.54
0.06 0.08 0.09 0.07 0.06 0.08 0.16 0.15 0.16 0.18 0.16 0.17 0.27 0.39 0.47 0.59 0.78 0.69 0.51 0.42 0.30 0.23 0.23 0.22 0.22 0.22 0.20 0.20 0.19 0.20 0.24 0.32 0.42 0.56 0.66 0.66 0.61 0.53 0.50 0.53 0.52 0.48 0.43 0.44
0.06 0.12 0.16 0.14 0.15 0.27 0.27 0.21 0.28 0.36 0.27 0.23 0.30 0.38 0.51 0.84 1.04 0.67 0.44 0.40 0.33 0.23 0.21 0.21 0.21 0.19 0.17 0.17 0.16 0.18 0.20 0.22 0.25 0.31 0.37 0.39 0.39 0.38 0.38 0.39 0.39 0.38 0.38 0.37
0.04 0.12 0.19 0.20 0.23 0.45 0.37 0.19 0.32 0.38 0.31 0.25 0.33 0.38 0.40 0.46 0.42 0.25 0.15 0.16 0.19 0.14 0.11 0.11 0.11 0.10 0.08 0.08 0.09 0.10 0.11 0.13 0.14 0.14 0.16 0.19 0.21 0.24 0.28 0.30 0.34 0.43 0.44 0.42
0.04 0.09 0.16 0.17 0.20 0.31 0.29 0.11 0.18 0.27 0.32 0.14 0.15 0.16 0.11 0.07 0.09 0.12 0.11 0.07 0.06 0.04 0.04 0.04 0.03 0.03 0.02 0.03 0.04 0.04 0.06 0.07 0.08 0.08 0.09 0.11 0.13 0.15 0.20 0.25 0.28 0.29 0.30 0.35
0.06 0.09 0.11 0.12 0.14 0.13 0.08 0.08 0.12 0.27 0.30 0.09 0.05 0.04 0.01 0.01 0.01 0.06 0.11 0.06 0.04 0.03 0.02 0.02 0.02 0.02 0.02 0.02 0.02 0.02 0.04 0.05 0.07 0.08 0.11 0.13 0.13 0.13 0.14 0.12 0.11 0.13 0.18 0.21
0.07 0.10 0.09 0.09 0.12 0.11 0.06 0.09 0.13 0.13 0.07 0.04 0.03 0.02 0.01 0.01 0.01 0.03 0.06 0.04 0.03 0.02 0.02 0.02 0.01 0.02 0.02 0.02 0.02 0.03 0.03 0.05 0.06 0.07 0.09 0.10 0.09 0.08 0.08 0.08 0.08 0.08 0.11 0.14
0.08 0.09 0.10 0.10 0.11 0.10 0.08 0.07 0.05 0.04 0.03 0.02 0.02 0.01 0.01 0.01 0.01 0.01 0.02 0.02 0.01 0.01 0.02 0.02 0.02 0.02 0.03 0.03 0.03 0.03 0.04 0.06 0.07 0.07 0.09 0.10 0.09 0.09 0.07 0.06 0.07 0.08 0.09 0.10
0.06 0.07 0.10 0.11 0.08 0.07 0.07 0.05 0.03 0.02 0.02 0.02 0.02 0.01 0.01 0.01 0.01 0.01 0.01 0.02 0.01 0.01 0.02 0.03 0.03 0.03 0.04 0.04 0.04 0.04 0.05 0.06 0.07 0.07 0.08 0.09 0.10 0.11 0.08 0.08 0.08 0.08 0.07 0.09
0.05 0.07 0.09 0.09 0.06 0.05 0.05 0.04 0.02 0.02 0.01 0.01 0.02 0.01 0.01 0.01 0.01 0.01 0.01 0.01 0.01 0.01 0.01 0.02 0.02 0.03 0.04 0.04 0.04 0.05 0.06 0.05 0.05 0.06 0.08 0.09 0.11 0.11 0.08 0.07 0.07 0.08 0.08 0.11
0.05 0.06 0.08 0.07 0.05 0.04 0.04 0.03 0.02 0.02 0.01 0.02 0.02 0.02 0.01 0.01 0.01 0.01 0.01 0.01 0.01 0.01 0.01 0.02 0.02 0.02 0.04 0.04 0.04 0.05 0.05 0.05 0.05 0.05 0.07 0.08 0.08 0.08 0.08 0.09 0.07 0.07 0.07 0.08

GEFSCGP_prec_meanprecacc_216.txt.gz
Total_Precipitation_Accumulation
0.54 0.77 1.02 0.95 0.88 0.94 0.98 1.04 1.05 0.97 0.76 0.75 0.72 0.59 0.55 0.56 0.58 0.55 0.49 0.42 0.40 0.42 0.40 0.38 0.39 0.42 0.41 0.42 0.44 0.47 0.49 0.58 0.63 0.67 0.79 0.99 1.25 1.35 1.44 1.40 1.22 1.17 1.29 1.54
0.62 0.70 0.62 0.56 0.65 0.84 0.95 1.10 1.08 0.97 0.69 0.63 0.61 0.51 0.45 0.46 0.52 0.48 0.45 0.42 0.35 0.36 0.31 0.28 0.28 0.31 0.33 0.34 0.36 0.40 0.44 0.53 0.59 0.64 0.81 0.96 1.10 1.09 1.26 1.42 1.40 1.31 1.30 1.45
0.59 0.56 0.45 0.50 0.64 0.85 0.93 0.93 0.91 0.89 0.71 0.59 0.55 0.55 0.41 0.38 0.42 0.40 0.36 0.36 0.32 0.30 0.29 0.28 0.26 0.25 0.27 0.29 0.29 0.30 0.34 0.43 0.56 0.69 0.90 1.11 1.29 1.36 1.42 1.35 1.44 1.46 1.38 1.42
0.56 0.46 0.42 0.52 0.61 0.69 0.86 0.60 0.55 0.60 0.75 0.76 0.63 0.75 0.49 0.41 0.45 0.41 0.35 0.30 0.29 0.28 0.28 0.32 0.28 0.31 0.30 0.26 0.24 0.25 0.33 0.45 0.66 0.87 1.09 1.32 1.53 1.56 1.45 1.49 1.52 1.42 1.35 1.31
0.51 0.42 0.42 0.51 0.48 0.46 0.57 0.46 0.43 0.49 0.63 0.61 0.47 0.58 0.50 0.42 0.51 0.47 0.40 0.35 0.30 0.27 0.27 0.29 0.27 0.30 0.30 0.29 0.29 0.35 0.54 0.77 1.02 1.24 1.48 1.75 1.73 1.62 1.52 1.52 1.49 1.44 1.45 1.42
0.43 0.35 0.39 0.39 0.36 0.35 0.38 0.43 0.48 0.53 0.65 0.65 0.42 0.47 0.53 0.41 0.44 0.47 0.45 0.38 0.31 0.26 0.30 0.37 0.42 0.48 0.53 0.56 0.69 0.88 1.15 1.34 1.43 1.55 1.70 1.81 1.76 1.76 1.70 1.52 1.42 1.41 1.47 1.54
0.44 0.36 0.29 0.25 0.33 0.32 0.33 0.54 0.81 0.86 0.86 0.64 0.35 0.51 0.57 0.41 0.33 0.34 0.36 0.31 0.27 0.31 0.39 0.52 0.66 0.78 0.89 1.03 1.17 1.31 1.49 1.64 1.59 1.57 1.62 1.67 1.66 1.63 1.60 1.54 1.44 1.39 1.41 1.46
0.46 0.43 0.27 0.20 0.25 0.30 0.31 0.47 0.86 0.99 0.83 0.60 0.47 0.68 0.64 0.47 0.34 0.26 0.20 0.20 0.31 0.45 0.57 0.69 0.76 0.87 1.02 1.17 1.24 1.25 1.36 1.46 1.44 1.42 1.39 1.37 1.44 1.45 1.40 1.32 1.29 1.33 1.42 1.40
0.32 0.31 0.16 0.14 0.16 0.20 0.29 0.33 0.40 0.62 0.52 0.52 0.60 0.77 0.66 0.42 0.35 0.29 0.25 0.29 0.44 0.65 0.85 1.01 1.11 1.21 1.25 1.29 1.35 1.27 1.27 1.33 1.34 1.28 1.20 1.18 1.24 1.30 1.30 1.23 1.24 1.23 1.23 1.15
0.19 0.21 0.13 0.11 0.14 0.15 0.25 0.34 0.45 0.71 0.83 0.84 0.82 0.84 0.72 0.53 0.46 0.48 0.55 0.66 0.72 0.83 1.10 1.39 1.63 1.79 1.62 1.35 1.27 1.24 1.17 1.17 1.26 1.25 1.18 1.12 1.19 1.19 1.17 1.20 1.17 1.16 1.16 1.06
0.13 0.19 0.14 0.12 0.15 0.18 0.25 0.39 0.51 0.68 0.80 1.05 1.24 1.20 0.91 0.91 0.92 0.98 1.08 1.13 1.13 1.23 1.23 1.39 1.58 1.76 1.67 1.36 1.13 1.16 1.19 1.16 1.15 1.15 1.15 1.14 1.10 0.99 0.98 1.03 1.03 1.01 1.00 1.03
0.09 0.17 0.15 0.12 0.17 0.24 0.36 0.48 0.63 0.92 0.86 0.87 1.15 1.24 0.99 0.97 0.99 1.08 1.26 1.32 1.31 1.23 1.14 1.13 1.18 1.25 1.28 1.13 0.95 0.92 1.07 1.14 1.10 1.07 1.08 1.08 0.98 0.91 0.88 0.86 0.83 0.73 0.69 0.70
0.10 0.22 0.30 0.30 0.39 0.44 0.60 0.66 0.54 0.56 0.66 0.75 1.02 0.98 0.65 0.60 0.75 0.91 1.07 1.15 1.08 1.03 1.12 1.08 1.00 0.94 0.97 0.94 0.86 0.82 0.96 1.11 1.16 1.13 0.98 0.88 0.84 0.81 0.80 0.72 0.68 0.65 0.57 0.55
0.10 0.16 0.26 0.41 0.43 0.46 0.66 0.75 0.59 0.51 0.63 0.62 0.64 0.56 0.39 0.44 0.61 0.68 0.73 0.73 0.74 0.78 0.81 0.76 0.70 0.65 0.66 0.69 0.72 0.78 0.88 0.97 1.10 1.22 1.11 0.96 0.86 0.80 0.76 0.70 0.68 0.64 0.60 0.61
0.08 0.07 0.09 0.13 0.15 0.22 0.40 0.52 0.43 0.32 0.30 0.38 0.37 0.36 0.40 0.48 0.58 0.56 0.50 0.48 0.48 0.47 0.42 0.41 0.41 0.39 0.39 0.39 0.39 0.49 0.63 0.78 0.97 1.19 1.19 1.04 0.96 0.89 0.76 0.70 0.70 0.67 0.71 0.68
0.07 0.06 0.05 0.06 0.08 0.11 0.21 0.25 0.20 0.14 0.17 0.26 0.32 0.38 0.42 0.49 0.56 0.52 0.44 0.37 0.31 0.29 0.29 0.28 0.26 0.24 0.20 0.19 0.21 0.22 0.32 0.50 0.67 0.84 0.93 0.90 0.81 0.71 0.67 0.66 0.63 0.60 0.59 0.55
0.06 0.08 0.10 0.07 0.06 0.09 0.17 0.16 0.17 0.20 0.18 0.19 0.28 0.40 0.47 0.59 0.78 0.69 0.51 0.43 0.30 0.24 0.23 0.23 0.22 0.22 0.20 0.20 0.19 0.20 0.25 0.32 0.42 0.56 0.67 0.67 0.61 0.54 0.51 0.54 0.53 0.49 0.44 0.45
0.06 0.12 0.16 0.14 0.15 0.27 0.27 0.21 0.29 0.38 0.30 0.25 0.32 0.39 0.51 0.84 1.04 0.67 0.44 0.40 0.33 0.24 0.22 0.21 0.21 0.19 0.18 0.17 0.17 0.18 0.21 0.23 0.25 0.32 0.39 0.41 0.40 0.38 0.38 0.39 0.40 0.39 0.38 0.37
0.04 0.12 0.19 0.20 0.23 0.45 0.38 0.20 0.32 0.39 0.34 0.26 0.34 0.39 0.41 0.46 0.42 0.25 0.15 0.16 0.19 0.14 0.12 0.11 0.11 0.10 0.08 0.08 0.09 0.11 0.12 0.13 0.14 0.15 0.18 0.20 0.21 0.25 0.29 0.31 0.35 0.43 0.45 0.42
0.04 0.09 0.17 0.17 0.21 0.31 0.29 0.11 0.18 0.27 0.34 0.15 0.15 0.17 0.12 0.08 0.09 0.12 0.11 0.07 0.06 0.05 0.05 0.05 0.04 0.03 0.02 0.03 0.04 0.05 0.07 0.08 0.09 0.09 0.10 0.12 0.14 0.17 0.21 0.25 0.28 0.29 0.30 0.35
0.06 0.09 0.12 0.12 0.15 0.14 0.08 0.08 0.12 0.28 0.31 0.10 0.06 0.05 0.02 0.02 0.02 0.07 0.11 0.06 0.04 0.03 0.03 0.03 0.02 0.02 0.02 0.02 0.03 0.03 0.05 0.06 0.08 0.10 0.12 0.14 0.14 0.15 0.16 0.14 0.11 0.14 0.19 0.21
0.08 0.10 0.09 0.09 0.13 0.11 0.06 0.09 0.14 0.14 0.08 0.05 0.04 0.03 0.02 0.01 0.01 0.03 0.06 0.04 0.03 0.02 0.02 0.02 0.02 0.03 0.03 0.02 0.03 0.03 0.04 0.06 0.08 0.09 0.10 0.11 0.10 0.09 0.09 0.09 0.08 0.09 0.12 0.14
0.09 0.10 0.10 0.11 0.11 0.11 0.08 0.08 0.06 0.04 0.04 0.03 0.03 0.02 0.02 0.02 0.01 0.01 0.02 0.02 0.01 0.02 0.03 0.03 0.04 0.06 0.06 0.03 0.03 0.04 0.05 0.08 0.08 0.09 0.10 0.10 0.09 0.10 0.08 0.07 0.07 0.08 0.09 0.11
0.07 0.07 0.10 0.11 0.08 0.07 0.07 0.05 0.03 0.02 0.02 0.02 0.03 0.02 0.01 0.01 0.01 0.01 0.01 0.02 0.01 0.01 0.03 0.04 0.07 0.10 0.10 0.05 0.05 0.05 0.06 0.07 0.09 0.09 0.09 0.10 0.10 0.11 0.09 0.08 0.08 0.08 0.07 0.10
0.06 0.07 0.09 0.09 0.06 0.05 0.05 0.04 0.02 0.02 0.01 0.02 0.02 0.01 0.01 0.01 0.01 0.01 0.01 0.01 0.01 0.01 0.02 0.04 0.08 0.09 0.09 0.08 0.07 0.07 0.07 0.06 0.06 0.07 0.09 0.09 0.12 0.12 0.09 0.07 0.07 0.08 0.08 0.11
0.06 0.06 0.08 0.07 0.05 0.05 0.04 0.03 0.02 0.02 0.02 0.02 0.03 0.02 0.01 0.01 0.01 0.01 0.01 0.01 0.01 0.01 0.01 0.02 0.04 0.05 0.07 0.08 0.07 0.07 0.07 0.06 0.05 0.06 0.07 0.08 0.08 0.08 0.08 0.09 0.08 0.08 0.08 0.09

GEFSCGP_prec_meanprecacc_222.txt.gz
Total_Precipitation_Accumulation
0.56 0.79 1.05 0.98 0.89 0.96 1.00 1.06 1.08 0.99 0.77 0.76 0.73 0.61 0.57 0.57 0.61 0.59 0.52 0.43 0.41 0.42 0.40 0.38 0.39 0.43 0.44 0.45 0.47 0.49 0.50 0.59 0.63 0.67 0.80 1.00 1.27 1.37 1.45 1.41 1.23 1.17 1.29 1.54
0.66 0.72 0.63 0.57 0.66 0.85 0.96 1.12 1.10 0.98 0.70 0.64 0.63 0.52 0.46 0.47 0.54 0.51 0.47 0.43 0.36 0.36 0.31 0.28 0.29 0.32 0.34 0.36 0.39 0.43 0.46 0.54 0.60 0.64 0.81 0.97 1.11 1.11 1.28 1.43 1.40 1.31 1.31 1.45
0.65 0.60 0.48 0.52 0.65 0.87 0.95 0.95 0.93 0.91 0.73 0.61 0.57 0.57 0.42 0.39 0.44 0.41 0.37 0.37 0.32 0.31 0.30 0.29 0.27 0.26 0.28 0.29 0.30 0.32 0.36 0.45 0.57 0.70 0.90 1.11 1.29 1.37 1.44 1.37 1.46 1.46 1.38 1.43
0.59 0.49 0.46 0.57 0.64 0.71 0.87 0.61 0.56 0.62 0.78 0.79 0.64 0.77 0.50 0.43 0.47 0.42 0.36 0.31 0.29 0.28 0.28 0.33 0.29 0.32 0.30 0.27 0.24 0.26 0.34 0.47 0.67 0.87 1.09 1.33 1.53 1.57 1.46 1.51 1.54 1.43 1.35 1.32
0.53 0.44 0.45 0.54 0.52 0.48 0.57 0.47 0.45 0.51 0.66 0.63 0.47 0.59 0.51 0.43 0.52 0.47 0.40 0.36 0.31 0.28 0.28 0.30 0.28 0.31 0.31 0.29 0.30 0.35 0.54 0.77 1.02 1.24 1.49 1.75 1.73 1.62 1.53 1.53 1.50 1.45 1.46 1.42
0.44 0.36 0.40 0.40 0.38 0.36 0.39 0.44 0.49 0.54 0.67 0.67 0.42 0.48 0.54 0.42 0.44 0.47 0.45 0.38 0.31 0.26 0.31 0.38 0.43 0.49 0.53 0.57 0.71 0.89 1.16 1.34 1.44 1.55 1.71 1.81 1.76 1.77 1.70 1.53 1.44 1.42 1.48 1.54
0.46 0.37 0.30 0.26 0.35 0.34 0.35 0.58 0.85 0.89 0.89 0.66 0.35 0.51 0.57 0.41 0.34 0.34 0.36 0.31 0.27 0.31 0.40 0.52 0.67 0.78 0.90 1.04 1.18 1.32 1.50 1.64 1.59 1.57 1.62 1.67 1.66 1.63 1.61 1.55 1.46 1.40 1.42 1.46
0.50 0.47 0.28 0.21 0.26 0.33 0.35 0.51 0.90 1.03 0.86 0.62 0.47 0.68 0.64 0.47 0.35 0.26 0.20 0.20 0.31 0.45 0.58 0.69 0.77 0.87 1.03 1.18 1.25 1.26 1.36 1.47 1.45 1.42 1.39 1.38 1.45 1.46 1.40 1.32 1.30 1.34 1.42 1.40
0.35 0.34 0.17 0.14 0.16 0.20 0.32 0.35 0.41 0.64 0.53 0.53 0.61 0.77 0.66 0.42 0.35 0.29 0.25 0.29 0.44 0.65 0.86 1.01 1.11 1.22 1.25 1.29 1.36 1.28 1.27 1.33 1.34 1.29 1.20 1.18 1.24 1.30 1.31 1.24 1.24 1.23 1.24 1.15
0.20 0.24 0.14 0.12 0.15 0.16 0.26 0.35 0.47 0.74 0.85 0.86 0.83 0.85 0.73 0.53 0.46 0.48 0.55 0.66 0.72 0.83 1.10 1.39 1.63 1.79 1.62 1.36 1.27 1.24 1.17 1.18 1.27 1.26 1.18 1.12 1.19 1.19 1.18 1.21 1.18 1.17 1.16 1.06
0.13 0.22 0.17 0.14 0.18 0.20 0.27 0.40 0.52 0.70 0.81 1.06 1.26 1.22 0.92 0.92 0.92 0.99 1.08 1.13 1.13 1.24 1.23 1.39 1.58 1.76 1.67 1.36 1.14 1.16 1.19 1.17 1.16 1.16 1.16 1.14 1.10 0.99 0.99 1.04 1.04 1.03 1.01 1.05
0.10 0.19 0.19 0.13 0.18 0.26 0.38 0.49 0.65 0.94 0.87 0.88 1.16 1.26 1.00 0.97 0.99 1.08 1.26 1.33 1.31 1.23 1.14 1.13 1.18 1.25 1.28 1.14 0.95 0.92 1.07 1.15 1.11 1.07 1.09 1.08 0.98 0.91 0.88 0.87 0.83 0.73 0.70 0.72
0.11 0.23 0.33 0.33 0.40 0.45 0.61 0.66 0.55 0.57 0.67 0.76 1.03 1.00 0.66 0.60 0.76 0.91 1.07 1.15 1.08 1.03 1.12 1.08 1.00 0.94 0.97 0.94 0.86 0.82 0.96 1.11 1.16 1.13 0.98 0.88 0.84 0.81 0.80 0.72 0.68 0.65 0.57 0.56
0.10 0.17 0.28 0.43 0.44 0.48 0.68 0.76 0.60 0.52 0.64 0.63 0.65 0.57 0.39 0.44 0.61 0.68 0.73 0.73 0.74 0.78 0.81 0.76 0.70 0.66 0.66 0.69 0.73 0.78 0.88 0.97 1.10 1.22 1.11 0.96 0.87 0.80 0.77 0.70 0.68 0.64 0.61 0.62
0.08 0.08 0.10 0.13 0.16 0.23 0.42 0.53 0.43 0.33 0.31 0.39 0.38 0.37 0.41 0.48 0.58 0.56 0.50 0.48 0.48 0.47 0.42 0.42 0.41 0.39 0.40 0.39 0.40 0.49 0.63 0.78 0.97 1.20 1.20 1.04 0.97 0.90 0.77 0.71 0.70 0.67 0.71 0.69
0.07 0.06 0.06 0.07 0.08 0.12 0.22 0.26 0.22 0.15 0.18 0.27 0.33 0.39 0.42 0.49 0.56 0.52 0.44 0.37 0.31 0.29 0.29 0.28 0.26 0.25 0.21 0.20 0.22 0.23 0.32 0.51 0.68 0.85 0.93 0.90 0.81 0.71 0.67 0.66 0.64 0.60 0.59 0.56
0.06 0.08 0.10 0.07 0.06 0.10 0.17 0.17 0.17 0.21 0.19 0.20 0.30 0.41 0.47 0.59 0.78 0.69 0.52 0.43 0.30 0.24 0.23 0.23 0.23 0.22 0.21 0.21 0.20 0.20 0.25 0.32 0.43 0.57 0.67 0.67 0.62 0.55 0.52 0.55 0.53 0.49 0.44 0.45
0.06 0.12 0.16 0.14 0.16 0.28 0.27 0.21 0.29 0.38 0.31 0.25 0.33 0.40 0.51 0.84 1.04 0.67 0.44 0.40 0.33 0.24 0.22 0.22 0.22 0.20 0.18 0.17 0.17 0.19 0.21 0.24 0.26 0.32 0.39 0.41 0.40 0.39 0.39 0.40 0.40 0.40 0.38 0.38
0.04 0.12 0.20 0.21 0.23 0.45 0.38 0.20 0.33 0.39 0.35 0.26 0.34 0.40 0.42 0.47 0.42 0.25 0.15 0.17 0.19 0.15 0.13 0.12 0.12 0.10 0.08 0.08 0.10 0.11 0.13 0.14 0.15 0.16 0.18 0.20 0.22 0.26 0.30 0.32 0.35 0.44 0.45 0.42
0.04 0.09 0.17 0.18 0.21 0.32 0.29 0.11 0.18 0.28 0.34 0.15 0.16 0.18 0.13 0.08 0.09 0.12 0.11 0.07 0.07 0.05 0.05 0.05 0.04 0.04 0.03 0.04 0.05 0.05 0.07 0.09 0.09 0.10 0.10 0.13 0.15 0.17 0.21 0.26 0.29 0.30 0.31 0.36
0.06 0.09 0.12 0.13 0.15 0.14 0.08 0.08 0.12 0.28 0.31 0.10 0.07 0.05 0.03 0.02 0.02 0.07 0.11 0.07 0.04 0.03 0.03 0.03 0.02 0.02 0.03 0.03 0.03 0.03 0.05 0.06 0.08 0.11 0.12 0.14 0.15 0.15 0.16 0.14 0.12 0.14 0.19 0.21
0.08 0.11 0.10 0.10 0.14 0.11 0.06 0.09 0.14 0.14 0.08 0.05 0.04 0.03 0.03 0.02 0.01 0.03 0.06 0.05 0.03 0.02 0.02 0.03 0.03 0.03 0.03 0.03 0.04 0.04 0.04 0.07 0.08 0.10 0.11 0.13 0.11 0.10 0.10 0.10 0.09 0.09 0.12 0.15
0.10 0.10 0.10 0.11 0.12 0.11 0.09 0.08 0.06 0.04 0.04 0.03 0.03 0.02 0.02 0.02 0.02 0.01 0.02 0.03 0.02 0.02 0.03 0.04 0.05 0.09 0.09 0.06 0.05 0.05 0.06 0.08 0.09 0.10 0.11 0.12 0.12 0.12 0.09 0.08 0.08 0.09 0.10 0.12
0.08 0.07 0.11 0.11 0.08 0.07 0.07 0.05 0.03 0.02 0.03 0.02 0.03 0.02 0.02 0.02 0.01 0.01 0.01 0.03 0.02 0.02 0.03 0.06 0.10 0.13 0.15 0.10 0.08 0.07 0.07 0.09 0.10 0.10 0.11 0.12 0.13 0.14 0.11 0.09 0.09 0.08 0.08 0.11
0.07 0.08 0.09 0.09 0.07 0.06 0.05 0.04 0.02 0.02 0.01 0.02 0.02 0.01 0.01 0.01 0.01 0.01 0.02 0.02 0.02 0.02 0.03 0.05 0.10 0.12 0.12 0.12 0.12 0.10 0.10 0.09 0.09 0.09 0.11 0.11 0.14 0.15 0.12 0.09 0.08 0.09 0.09 0.12
0.07 0.08 0.09 0.08 0.05 0.05 0.04 0.03 0.03 0.03 0.02 0.02 0.03 0.02 0.01 0.01 0.02 0.01 0.02 0.02 0.02 0.02 0.02 0.03 0.06 0.07 0.09 0.11 0.12 0.10 0.10 0.09 0.09 0.10 0.10 0.10 0.10 0.10 0.11 0.11 0.09 0.09 0.09 0.10

GEFSCGP_prec_meanprecacc_228.txt.gz
Total_Precipitation_Accumulation
0.57 0.80 1.05 0.99 0.91 0.97 1.01 1.08 1.09 1.00 0.78 0.78 0.75 0.62 0.58 0.59 0.63 0.61 0.54 0.46 0.43 0.44 0.41 0.40 0.41 0.45 0.46 0.49 0.52 0.51 0.51 0.59 0.63 0.67 0.80 1.01 1.28 1.39 1.47 1.41 1.23 1.18 1.30 1.55
0.67 0.73 0.63 0.57 0.67 0.86 0.98 1.14 1.11 1.00 0.71 0.65 0.64 0.53 0.46 0.48 0.56 0.52 0.49 0.45 0.38 0.37 0.32 0.30 0.31 0.34 0.36 0.38 0.45 0.47 0.47 0.55 0.60 0.65 0.81 0.97 1.11 1.11 1.28 1.43 1.41 1.32 1.31 1.47
0.66 0.61 0.49 0.52 0.66 0.87 0.96 0.97 0.95 0.93 0.75 0.63 0.57 0.58 0.43 0.41 0.45 0.42 0.39 0.38 0.33 0.31 0.30 0.30 0.29 0.28 0.29 0.30 0.31 0.33 0.37 0.45 0.57 0.70 0.91 1.11 1.29 1.38 1.44 1.38 1.46 1.47 1.39 1.44
0.60 0.50 0.47 0.58 0.66 0.72 0.88 0.63 0.58 0.64 0.80 0.81 0.65 0.78 0.51 0.44 0.48 0.43 0.37 0.32 0.30 0.29 0.29 0.35 0.31 0.34 0.31 0.27 0.25 0.26 0.34 0.48 0.67 0.88 1.10 1.33 1.53 1.57 1.46 1.52 1.55 1.44 1.36 1.33
0.54 0.44 0.46 0.56 0.54 0.50 0.59 0.49 0.46 0.53 0.69 0.66 0.49 0.59 0.51 0.43 0.53 0.48 0.41 0.37 0.32 0.29 0.29 0.31 0.30 0.33 0.32 0.30 0.31 0.36 0.54 0.78 1.03 1.25 1.50 1.76 1.74 1.63 1.53 1.54 1.52 1.46 1.47 1.43
0.45 0.36 0.40 0.41 0.39 0.37 0.40 0.46 0.51 0.57 0.71 0.70 0.43 0.49 0.54 0.42 0.45 0.48 0.46 0.39 0.32 0.27 0.32 0.39 0.45 0.53 0.56 0.58 0.72 0.90 1.16 1.34 1.45 1.56 1.71 1.82 1.77 1.77 1.71 1.54 1.45 1.43 1.49 1.55
0.47 0.38 0.30 0.27 0.35 0.35 0.38 0.63 0.89 0.92 0.92 0.68 0.36 0.52 0.58 0.41 0.35 0.35 0.37 0.32 0.27 0.31 0.40 0.53 0.69 0.82 0.92 1.06 1.19 1.34 1.51 1.65 1.60 1.58 1.63 1.67 1.66 1.63 1.61 1.55 1.47 1.41 1.43 1.47
0.51 0.48 0.29 0.22 0.27 0.35 0.38 0.56 0.94 1.07 0.89 0.64 0.48 0.70 0.65 0.48 0.36 0.27 0.21 0.21 0.31 0.45 0.58 0.69 0.77 0.89 1.05 1.20 1.26 1.27 1.38 1.48 1.45 1.43 1.40 1.38 1.45 1.46 1.41 1.32 1.30 1.34 1.43 1.42
0.36 0.36 0.18 0.16 0.18 0.22 0.33 0.37 0.43 0.66 0.55 0.55 0.62 0.79 0.68 0.44 0.36 0.30 0.25 0.29 0.44 0.65 0.86 1.01 1.12 1.22 1.26 1.30 1.37 1.29 1.28 1.34 1.35 1.29 1.21 1.20 1.25 1.31 1.31 1.24 1.24 1.23 1.24 1.16
0.21 0.25 0.15 0.13 0.16 0.17 0.27 0.37 0.49 0.76 0.87 0.88 0.85 0.88 0.77 0.57 0.48 0.49 0.56 0.67 0.72 0.83 1.10 1.39 1.63 1.80 1.63 1.37 1.28 1.26 1.18 1.19 1.28 1.27 1.19 1.13 1.20 1.20 1.19 1.22 1.19 1.18 1.18 1.08
0.14 0.23 0.19 0.15 0.19 0.22 0.29 0.42 0.54 0.71 0.83 1.08 1.28 1.27 0.99 0.98 0.96 1.00 1.09 1.13 1.14 1.24 1.23 1.39 1.59 1.77 1.68 1.37 1.14 1.17 1.21 1.19 1.19 1.18 1.17 1.15 1.11 1.01 1.00 1.05 1.05 1.03 1.03 1.07
0.11 0.20 0.20 0.15 0.19 0.27 0.40 0.52 0.68 0.97 0.90 0.90 1.17 1.29 1.04 1.03 1.04 1.10 1.27 1.33 1.32 1.23 1.15 1.13 1.19 1.26 1.29 1.14 0.96 0.93 1.09 1.16 1.13 1.10 1.11 1.09 0.98 0.92 0.89 0.87 0.83 0.73 0.70 0.73
0.11 0.24 0.35 0.35 0.42 0.45 0.62 0.68 0.57 0.59 0.69 0.78 1.04 1.01 0.67 0.62 0.78 0.94 1.08 1.16 1.09 1.04 1.12 1.09 1.01 0.95 0.98 0.94 0.87 0.83 0.97 1.12 1.18 1.15 1.00 0.89 0.85 0.82 0.81 0.73 0.69 0.65 0.58 0.57
0.10 0.18 0.30 0.44 0.46 0.48 0.68 0.76 0.61 0.54 0.65 0.64 0.65 0.57 0.40 0.45 0.62 0.70 0.74 0.74 0.75 0.79 0.82 0.77 0.71 0.66 0.66 0.70 0.73 0.79 0.90 0.98 1.12 1.24 1.13 0.98 0.88 0.81 0.78 0.71 0.68 0.64 0.62 0.63
0.09 0.09 0.11 0.14 0.16 0.23 0.42 0.53 0.44 0.34 0.31 0.39 0.38 0.37 0.41 0.48 0.58 0.57 0.51 0.49 0.48 0.47 0.43 0.42 0.42 0.40 0.40 0.40 0.40 0.49 0.64 0.79 0.98 1.22 1.21 1.06 0.98 0.91 0.78 0.71 0.71 0.69 0.73 0.70
0.07 0.07 0.06 0.07 0.09 0.12 0.22 0.26 0.22 0.15 0.19 0.28 0.34 0.39 0.43 0.50 0.57 0.53 0.45 0.38 0.32 0.30 0.29 0.29 0.27 0.26 0.22 0.21 0.22 0.23 0.33 0.52 0.70 0.88 0.96 0.92 0.82 0.72 0.68 0.67 0.65 0.62 0.62 0.57
0.07 0.09 0.10 0.07 0.07 0.10 0.18 0.17 0.17 0.21 0.20 0.21 0.32 0.43 0.47 0.60 0.79 0.70 0.53 0.43 0.30 0.24 0.24 0.24 0.23 0.23 0.22 0.21 0.21 0.21 0.26 0.33 0.45 0.59 0.68 0.68 0.62 0.56 0.53 0.56 0.55 0.51 0.45 0.46
0.07 0.13 0.17 0.15 0.16 0.28 0.28 0.21 0.29 0.38 0.31 0.26 0.34 0.42 0.52 0.85 1.06 0.69 0.45 0.41 0.34 0.24 0.22 0.22 0.22 0.20 0.18 0.18 0.19 0.21 0.23 0.25 0.28 0.35 0.41 0.42 0.41 0.41 0.41 0.42 0.42 0.40 0.39 0.38
0.05 0.13 0.21 0.22 0.24 0.45 0.38 0.20 0.33 0.40 0.35 0.27 0.34 0.41 0.43 0.47 0.43 0.27 0.17 0.17 0.20 0.15 0.13 0.12 0.12 0.11 0.09 0.09 0.11 0.12 0.14 0.15 0.17 0.18 0.20 0.22 0.23 0.27 0.32 0.33 0.37 0.45 0.46 0.43
0.05 0.10 0.18 0.19 0.22 0.32 0.29 0.11 0.18 0.28 0.34 0.16 0.16 0.18 0.14 0.10 0.11 0.14 0.12 0.08 0.07 0.06 0.06 0.05 0.04 0.04 0.04 0.05 0.06 0.07 0.09 0.10 0.10 0.11 0.11 0.14 0.16 0.19 0.23 0.28 0.31 0.32 0.32 0.37
0.07 0.10 0.13 0.13 0.16 0.14 0.08 0.08 0.12 0.28 0.31 0.10 0.07 0.06 0.03 0.03 0.04 0.08 0.12 0.07 0.05 0.04 0.04 0.04 0.03 0.03 0.04 0.04 0.05 0.05 0.06 0.08 0.09 0.12 0.13 0.15 0.17 0.17 0.19 0.17 0.14 0.16 0.21 0.23
0.09 0.11 0.11 0.11 0.15 0.12 0.06 0.09 0.14 0.14 0.08 0.05 0.04 0.03 0.03 0.02 0.02 0.04 0.07 0.05 0.04 0.03 0.03 0.04 0.04 0.04 0.04 0.04 0.05 0.05 0.06 0.08 0.09 0.10 0.12 0.13 0.12 0.12 0.13 0.13 0.11 0.11 0.15 0.18
0.11 0.11 0.12 0.13 0.12 0.11 0.09 0.08 0.06 0.04 0.04 0.03 0.03 0.03 0.03 0.02 0.02 0.01 0.03 0.03 0.02 0.02 0.04 0.05 0.07 0.11 0.11 0.07 0.06 0.06 0.07 0.09 0.10 0.10 0.12 0.13 0.12 0.12 0.10 0.09 0.10 0.11 0.13 0.16
0.10 0.08 0.12 0.12 0.08 0.08 0.07 0.05 0.03 0.02 0.03 0.02 0.03 0.02 0.02 0.02 0.02 0.01 0.02 0.03 0.02 0.02 0.05 0.08 0.12 0.15 0.17 0.12 0.10 0.09 0.09 0.10 0.11 0.11 0.11 0.12 0.14 0.15 0.11 0.10 0.10 0.10 0.11 0.14
0.09 0.10 0.10 0.10 0.07 0.06 0.06 0.04 0.03 0.02 0.01 0.02 0.02 0.01 0.01 0.01 0.01 0.01 0.02 0.02 0.02 0.03 0.03 0.07 0.13 0.14 0.14 0.14 0.13 0.12 0.12 0.10 0.10 0.10 0.12 0.12 0.15 0.16 0.13 0.10 0.09 0.10 0.10 0.14
0.08 0.09 0.10 0.09 0.06 0.05 0.04 0.03 0.03 0.03 0.02 0.02 0.03 0.02 0.01 0.01 0.02 0.01 0.02 0.02 0.02 0.02 0.03 0.05 0.08 0.10 0.11 0.12 0.13 0.11 0.11 0.11 0.11 0.12 0.12 0.12 0.11 0.11 0.13 0.14 0.11 0.10 0.10 0.12

GEFSCGP_prec_meanprecacc_234.txt.gz
Total_Precipitation_Accumulation
0.58 0.80 1.06 0.99 0.91 0.97 1.01 1.08 1.10 1.00 0.79 0.79 0.76 0.63 0.59 0.61 0.64 0.62 0.55 0.47 0.44 0.45 0.43 0.41 0.43 0.48 0.49 0.52 0.54 0.53 0.52 0.60 0.64 0.68 0.81 1.02 1.31 1.41 1.50 1.44 1.25 1.18 1.31 1.56
0.67 0.73 0.64 0.58 0.67 0.86 0.98 1.15 1.12 1.01 0.72 0.66 0.65 0.55 0.48 0.49 0.56 0.52 0.49 0.47 0.40 0.39 0.34 0.31 0.32 0.36 0.37 0.40 0.46 0.48 0.48 0.55 0.60 0.65 0.82 0.97 1.12 1.12 1.31 1.44 1.41 1.32 1.32 1.48
0.66 0.61 0.49 0.53 0.66 0.88 0.96 0.98 0.96 0.94 0.77 0.64 0.59 0.59 0.45 0.42 0.46 0.43 0.40 0.40 0.34 0.32 0.32 0.31 0.30 0.29 0.30 0.31 0.32 0.34 0.37 0.46 0.58 0.71 0.91 1.11 1.29 1.38 1.45 1.38 1.47 1.48 1.40 1.45
0.60 0.50 0.48 0.59 0.66 0.72 0.89 0.65 0.60 0.67 0.83 0.85 0.68 0.80 0.53 0.46 0.49 0.43 0.37 0.33 0.31 0.30 0.31 0.37 0.33 0.35 0.32 0.28 0.25 0.27 0.35 0.48 0.68 0.88 1.10 1.33 1.54 1.57 1.47 1.52 1.56 1.44 1.37 1.33
0.54 0.44 0.46 0.57 0.54 0.50 0.59 0.50 0.48 0.55 0.72 0.69 0.52 0.62 0.53 0.44 0.54 0.49 0.41 0.37 0.33 0.30 0.31 0.33 0.31 0.34 0.33 0.31 0.31 0.36 0.55 0.79 1.03 1.25 1.50 1.76 1.74 1.63 1.54 1.55 1.53 1.47 1.47 1.44
0.45 0.36 0.41 0.42 0.40 0.38 0.41 0.47 0.52 0.59 0.72 0.72 0.45 0.50 0.55 0.42 0.46 0.49 0.46 0.39 0.32 0.28 0.33 0.40 0.46 0.54 0.56 0.59 0.73 0.91 1.17 1.35 1.45 1.57 1.72 1.82 1.77 1.77 1.72 1.54 1.46 1.45 1.50 1.56
0.47 0.38 0.31 0.27 0.36 0.36 0.39 0.64 0.90 0.94 0.94 0.69 0.37 0.53 0.59 0.42 0.36 0.36 0.38 0.32 0.27 0.31 0.41 0.54 0.70 0.83 0.94 1.06 1.21 1.35 1.52 1.65 1.60 1.58 1.63 1.68 1.67 1.64 1.61 1.55 1.47 1.41 1.43 1.47
0.51 0.48 0.29 0.22 0.28 0.35 0.39 0.57 0.95 1.07 0.90 0.64 0.48 0.71 0.67 0.49 0.36 0.28 0.22 0.21 0.31 0.46 0.59 0.70 0.78 0.89 1.06 1.22 1.28 1.28 1.38 1.49 1.46 1.43 1.41 1.39 1.46 1.47 1.41 1.32 1.30 1.34 1.43 1.42
0.36 0.36 0.18 0.16 0.19 0.23 0.34 0.38 0.43 0.67 0.56 0.55 0.62 0.79 0.69 0.45 0.38 0.31 0.26 0.30 0.45 0.66 0.86 1.01 1.12 1.23 1.27 1.32 1.39 1.31 1.29 1.35 1.35 1.30 1.21 1.20 1.26 1.32 1.32 1.24 1.25 1.24 1.24 1.16
0.22 0.26 0.16 0.14 0.17 0.18 0.28 0.37 0.50 0.77 0.88 0.88 0.85 0.89 0.77 0.58 0.49 0.50 0.57 0.67 0.73 0.84 1.11 1.39 1.64 1.80 1.63 1.37 1.29 1.27 1.20 1.21 1.29 1.28 1.20 1.14 1.21 1.22 1.20 1.22 1.19 1.19 1.18 1.09
0.15 0.24 0.20 0.16 0.20 0.22 0.29 0.43 0.54 0.72 0.83 1.08 1.29 1.28 0.99 0.98 0.96 1.00 1.09 1.14 1.14 1.24 1.24 1.40 1.59 1.77 1.68 1.37 1.15 1.18 1.23 1.21 1.21 1.21 1.19 1.16 1.13 1.03 1.02 1.06 1.06 1.04 1.04 1.08
0.11 0.20 0.21 0.16 0.19 0.27 0.40 0.52 0.68 0.97 0.91 0.90 1.18 1.30 1.05 1.03 1.05 1.11 1.28 1.34 1.33 1.24 1.15 1.14 1.19 1.26 1.29 1.15 0.97 0.94 1.10 1.17 1.14 1.12 1.13 1.09 0.99 0.93 0.90 0.89 0.85 0.74 0.71 0.74
0.12 0.24 0.35 0.35 0.42 0.46 0.62 0.68 0.57 0.59 0.69 0.78 1.04 1.01 0.68 0.62 0.79 0.95 1.10 1.18 1.10 1.04 1.13 1.09 1.01 0.95 0.98 0.95 0.87 0.84 0.98 1.13 1.18 1.16 1.02 0.91 0.86 0.83 0.82 0.74 0.69 0.66 0.58 0.57
0.11 0.18 0.30 0.44 0.46 0.48 0.68 0.76 0.61 0.54 0.65 0.64 0.65 0.57 0.40 0.45 0.62 0.70 0.75 0.75 0.76 0.80 0.82 0.77 0.71 0.66 0.67 0.70 0.74 0.79 0.90 1.00 1.12 1.24 1.14 0.99 0.89 0.83 0.79 0.72 0.69 0.65 0.63 0.64
0.10 0.09 0.11 0.14 0.16 0.23 0.42 0.53 0.44 0.34 0.31 0.39 0.38 0.37 0.41 0.49 0.59 0.57 0.51 0.50 0.49 0.48 0.43 0.43 0.42 0.40 0.41 0.41 0.41 0.50 0.65 0.80 1.00 1.23 1.22 1.07 0.99 0.93 0.79 0.72 0.71 0.69 0.73 0.71
0.08 0.07 0.06 0.07 0.09 0.13 0.22 0.26 0.22 0.15 0.19 0.28 0.34 0.39 0.43 0.50 0.57 0.53 0.45 0.38 0.32 0.30 0.30 0.30 0.28 0.26 0.22 0.21 0.23 0.24 0.34 0.53 0.71 0.88 0.96 0.92 0.83 0.73 0.69 0.68 0.66 0.63 0.62 0.58
0.07 0.09 0.11 0.08 0.07 0.10 0.18 0.17 0.17 0.21 0.20 0.21 0.32 0.43 0.47 0.60 0.79 0.70 0.53 0.43 0.31 0.25 0.24 0.24 0.23 0.23 0.22 0.22 0.21 0.22 0.26 0.34 0.45 0.59 0.69 0.68 0.63 0.56 0.54 0.57 0.55 0.51 0.46 0.47
0.07 0.13 0.18 0.15 0.17 0.28 0.28 0.21 0.29 0.38 0.31 0.26 0.34 0.42 0.52 0.85 1.06 0.69 0.45 0.41 0.34 0.25 0.23 0.22 0.23 0.20 0.19 0.19 0.19 0.21 0.23 0.25 0.28 0.35 0.41 0.43 0.42 0.41 0.41 0.42 0.42 0.41 0.40 0.39
0.05 0.13 0.22 0.22 0.24 0.45 0.38 0.20 0.33 0.40 0.35 0.27 0.34 0.41 0.43 0.47 0.43 0.27 0.17 0.18 0.20 0.16 0.14 0.13 0.13 0.11 0.09 0.09 0.11 0.12 0.14 0.16 0.17 0.18 0.21 0.22 0.23 0.27 0.32 0.33 0.37 0.45 0.47 0.44
0.05 0.10 0.19 0.19 0.22 0.33 0.29 0.11 0.18 0.28 0.35 0.16 0.16 0.18 0.14 0.10 0.11 0.14 0.13 0.09 0.08 0.07 0.06 0.06 0.05 0.05 0.04 0.05 0.06 0.07 0.09 0.10 0.11 0.11 0.11 0.15 0.17 0.19 0.23 0.28 0.31 0.32 0.33 0.39
0.07 0.10 0.13 0.14 0.16 0.14 0.08 0.08 0.12 0.28 0.31 0.10 0.07 0.06 0.03 0.03 0.04 0.08 0.12 0.08 0.06 0.05 0.05 0.05 0.03 0.03 0.04 0.04 0.05 0.05 0.06 0.08 0.10 0.13 0.14 0.16 0.17 0.18 0.20 0.17 0.15 0.17 0.22 0.25
0.09 0.12 0.11 0.12 0.15 0.12 0.07 0.09 0.14 0.14 0.08 0.05 0.04 0.04 0.03 0.03 0.02 0.04 0.07 0.06 0.04 0.04 0.05 0.05 0.05 0.05 0.05 0.04 0.05 0.05 0.06 0.08 0.10 0.11 0.13 0.14 0.13 0.12 0.14 0.13 0.11 0.12 0.15 0.19
0.11 0.12 0.13 0.13 0.13 0.11 0.09 0.08 0.06 0.04 0.04 0.03 0.03 0.03 0.03 0.03 0.02 0.02 0.03 0.04 0.03 0.03 0.06 0.07 0.09 0.12 0.11 0.08 0.06 0.06 0.07 0.09 0.10 0.11 0.13 0.14 0.14 0.13 0.11 0.09 0.10 0.11 0.13 0.16
0.10 0.09 0.13 0.13 0.09 0.08 0.07 0.05 0.03 0.02 0.03 0.02 0.03 0.02 0.03 0.03 0.04 0.03 0.02 0.03 0.03 0.03 0.06 0.10 0.14 0.16 0.17 0.13 0.10 0.09 0.09 0.10 0.11 0.11 0.12 0.13 0.15 0.16 0.12 0.11 0.11 0.10 0.11 0.14
0.10 0.11 0.12 0.12 0.08 0.07 0.06 0.04 0.03 0.02 0.01 0.02 0.02 0.01 0.01 0.02 0.02 0.02 0.02 0.02 0.03 0.03 0.04 0.08 0.14 0.15 0.15 0.14 0.14 0.12 0.12 0.10 0.10 0.11 0.13 0.13 0.16 0.18 0.14 0.11 0.10 0.11 0.11 0.16
0.09 0.11 0.12 0.11 0.07 0.06 0.05 0.04 0.03 0.03 0.02 0.02 0.03 0.02 0.01 0.01 0.02 0.01 0.02 0.02 0.03 0.03 0.03 0.05 0.08 0.10 0.11 0.12 0.14 0.11 0.11 0.11 0.11 0.12 0.13 0.13 0.12 0.13 0.14 0.15 0.12 0.11 0.11 0.13

GEFSCGP_prec_meanprecacc_240.txt.gz
Total_Precipitation_Accumulation
0.59 0.81 1.06 1.00 0.91 0.98 1.02 1.09 1.11 1.02 0.80 0.80 0.77 0.64 0.60 0.62 0.65 0.63 0.55 0.48 0.46 0.47 0.45 0.43 0.45 0.50 0.52 0.54 0.55 0.54 0.54 0.62 0.65 0.69 0.82 1.03 1.32 1.43 1.53 1.46 1.26 1.19 1.31 1.57
0.68 0.73 0.64 0.58 0.68 0.86 0.99 1.16 1.13 1.02 0.73 0.67 0.66 0.56 0.49 0.50 0.57 0.53 0.50 0.47 0.40 0.40 0.35 0.32 0.33 0.37 0.39 0.42 0.48 0.49 0.49 0.57 0.61 0.66 0.83 0.98 1.14 1.16 1.33 1.45 1.42 1.33 1.33 1.48
0.66 0.61 0.49 0.53 0.67 0.89 0.97 0.99 0.97 0.95 0.77 0.65 0.60 0.60 0.46 0.42 0.46 0.44 0.40 0.40 0.35 0.34 0.33 0.32 0.31 0.30 0.31 0.33 0.33 0.35 0.39 0.47 0.58 0.71 0.92 1.12 1.31 1.40 1.47 1.40 1.48 1.49 1.41 1.46
0.60 0.50 0.48 0.59 0.67 0.73 0.90 0.66 0.61 0.68 0.85 0.87 0.70 0.81 0.53 0.46 0.49 0.44 0.38 0.33 0.31 0.31 0.32 0.37 0.34 0.36 0.33 0.29 0.26 0.28 0.36 0.50 0.68 0.89 1.11 1.34 1.54 1.58 1.48 1.53 1.57 1.45 1.37 1.34
0.54 0.45 0.46 0.58 0.55 0.52 0.60 0.51 0.49 0.56 0.73 0.70 0.53 0.63 0.54 0.44 0.54 0.49 0.42 0.38 0.33 0.30 0.31 0.34 0.32 0.35 0.34 0.32 0.32 0.37 0.56 0.80 1.04 1.26 1.51 1.77 1.75 1.63 1.54 1.55 1.54 1.48 1.48 1.44
0.45 0.37 0.41 0.43 0.41 0.39 0.42 0.49 0.53 0.59 0.73 0.73 0.46 0.51 0.56 0.43 0.46 0.49 0.46 0.39 0.32 0.28 0.33 0.41 0.46 0.54 0.57 0.60 0.73 0.91 1.17 1.36 1.46 1.57 1.72 1.83 1.77 1.78 1.72 1.55 1.47 1.46 1.51 1.57
0.48 0.38 0.31 0.28 0.37 0.37 0.40 0.65 0.91 0.95 0.95 0.70 0.37 0.53 0.59 0.42 0.36 0.36 0.38 0.32 0.27 0.31 0.41 0.54 0.70 0.83 0.94 1.08 1.23 1.37 1.53 1.66 1.61 1.58 1.64 1.68 1.67 1.64 1.62 1.56 1.48 1.42 1.44 1.48
0.52 0.49 0.29 0.22 0.28 0.36 0.40 0.58 0.96 1.08 0.91 0.65 0.49 0.71 0.67 0.49 0.37 0.29 0.23 0.22 0.31 0.46 0.59 0.70 0.78 0.90 1.06 1.23 1.30 1.30 1.40 1.50 1.47 1.44 1.42 1.40 1.47 1.47 1.41 1.32 1.30 1.35 1.44 1.44
0.37 0.37 0.19 0.17 0.19 0.23 0.35 0.38 0.44 0.67 0.57 0.56 0.63 0.80 0.70 0.46 0.39 0.32 0.27 0.31 0.45 0.66 0.87 1.02 1.12 1.23 1.27 1.33 1.40 1.32 1.30 1.35 1.36 1.31 1.23 1.23 1.27 1.33 1.32 1.24 1.25 1.24 1.25 1.18
0.23 0.27 0.17 0.15 0.17 0.18 0.28 0.38 0.50 0.78 0.89 0.89 0.86 0.89 0.78 0.59 0.52 0.53 0.60 0.70 0.74 0.84 1.11 1.39 1.64 1.80 1.63 1.37 1.29 1.28 1.21 1.21 1.30 1.28 1.21 1.15 1.22 1.24 1.22 1.22 1.19 1.20 1.19 1.09
0.16 0.25 0.21 0.18 0.22 0.23 0.30 0.44 0.55 0.72 0.84 1.09 1.29 1.28 1.00 0.99 0.98 1.02 1.11 1.15 1.15 1.26 1.25 1.40 1.59 1.77 1.68 1.37 1.15 1.18 1.23 1.21 1.22 1.22 1.21 1.18 1.14 1.05 1.05 1.08 1.07 1.06 1.05 1.09
0.13 0.22 0.22 0.17 0.20 0.27 0.41 0.53 0.68 0.98 0.91 0.91 1.18 1.30 1.05 1.03 1.05 1.12 1.28 1.35 1.33 1.24 1.15 1.14 1.20 1.26 1.29 1.15 0.97 0.94 1.10 1.18 1.15 1.13 1.14 1.11 1.01 0.95 0.94 0.92 0.86 0.76 0.72 0.74
0.15 0.26 0.36 0.36 0.43 0.46 0.63 0.69 0.57 0.60 0.70 0.79 1.05 1.02 0.68 0.62 0.79 0.95 1.10 1.18 1.10 1.05 1.13 1.10 1.01 0.95 0.98 0.95 0.87 0.84 0.98 1.13 1.19 1.17 1.03 0.92 0.87 0.84 0.84 0.76 0.71 0.68 0.60 0.58
0.14 0.21 0.31 0.45 0.47 0.49 0.68 0.77 0.61 0.55 0.66 0.64 0.65 0.57 0.40 0.45 0.62 0.71 0.75 0.75 0.76 0.80 0.83 0.78 0.72 0.67 0.67 0.70 0.74 0.79 0.91 1.00 1.12 1.24 1.14 1.00 0.90 0.83 0.80 0.73 0.70 0.66 0.63 0.65
0.11 0.11 0.12 0.14 0.17 0.23 0.42 0.53 0.44 0.34 0.31 0.39 0.38 0.37 0.41 0.49 0.59 0.57 0.52 0.50 0.49 0.48 0.43 0.43 0.42 0.41 0.41 0.41 0.41 0.50 0.65 0.80 1.00 1.23 1.22 1.07 1.00 0.93 0.80 0.73 0.72 0.70 0.74 0.71
0.09 0.09 0.08 0.08 0.09 0.13 0.22 0.27 0.22 0.15 0.19 0.28 0.34 0.39 0.43 0.50 0.57 0.53 0.45 0.38 0.32 0.31 0.30 0.30 0.28 0.27 0.23 0.21 0.23 0.24 0.34 0.53 0.71 0.88 0.96 0.93 0.84 0.73 0.70 0.69 0.67 0.63 0.62 0.58
0.08 0.11 0.12 0.09 0.08 0.11 0.18 0.17 0.18 0.21 0.20 0.21 0.32 0.43 0.47 0.60 0.80 0.70 0.53 0.43 0.31 0.25 0.24 0.24 0.23 0.23 0.22 0.22 0.21 0.22 0.26 0.34 0.45 0.60 0.69 0.69 0.63 0.56 0.54 0.58 0.56 0.52 0.46 0.47
0.08 0.14 0.19 0.16 0.18 0.29 0.28 0.21 0.29 0.38 0.31 0.26 0.34 0.42 0.52 0.85 1.06 0.69 0.45 0.41 0.34 0.25 0.23 0.22 0.23 0.21 0.19 0.19 0.19 0.21 0.23 0.25 0.28 0.35 0.41 0.43 0.42 0.41 0.42 0.43 0.42 0.41 0.40 0.39
0.05 0.14 0.23 0.24 0.26 0.46 0.38 0.20 0.33 0.40 0.35 0.27 0.34 0.41 0.43 0.48 0.43 0.27 0.17 0.18 0.21 0.16 0.14 0.13 0.13 0.11 0.10 0.10 0.11 0.12 0.14 0.16 0.17 0.18 0.21 0.22 0.23 0.27 0.32 0.33 0.37 0.45 0.47 0.44
0.06 0.11 0.20 0.21 0.24 0.33 0.29 0.11 0.18 0.28 0.35 0.16 0.16 0.18 0.14 0.10 0.11 0.14 0.13 0.09 0.08 0.07 0.07 0.06 0.05 0.05 0.05 0.05 0.07 0.07 0.09 0.11 0.11 0.11 0.12 0.15 0.17 0.20 0.24 0.28 0.31 0.32 0.33 0.39
0.08 0.11 0.15 0.16 0.19 0.15 0.08 0.08 0.12 0.28 0.31 0.10 0.07 0.06 0.03 0.04 0.04 0.09 0.13 0.09 0.06 0.05 0.06 0.05 0.04 0.04 0.04 0.05 0.05 0.05 0.06 0.08 0.11 0.14 0.15 0.16 0.18 0.19 0.21 0.18 0.15 0.17 0.22 0.25
0.10 0.13 0.12 0.13 0.17 0.13 0.07 0.09 0.14 0.14 0.08 0.05 0.04 0.04 0.03 0.03 0.03 0.04 0.08 0.06 0.05 0.04 0.05 0.05 0.06 0.06 0.05 0.05 0.06 0.06 0.07 0.09 0.11 0.12 0.13 0.15 0.14 0.13 0.14 0.14 0.12 0.12 0.15 0.19
0.12 0.12 0.13 0.14 0.15 0.12 0.09 0.08 0.06 0.04 0.04 0.03 0.03 0.03 0.03 0.03 0.03 0.02 0.04 0.04 0.03 0.03 0.06 0.07 0.10 0.13 0.12 0.08 0.07 0.08 0.10 0.11 0.11 0.11 0.13 0.14 0.14 0.14 0.11 0.10 0.11 0.12 0.14 0.16
0.12 0.09 0.13 0.14 0.10 0.09 0.08 0.05 0.03 0.02 0.03 0.02 0.03 0.02 0.03 0.03 0.04 0.03 0.02 0.04 0.03 0.03 0.06 0.10 0.14 0.17 0.19 0.15 0.11 0.10 0.10 0.11 0.12 0.11 0.13 0.14 0.15 0.16 0.13 0.12 0.11 0.11 0.12 0.14
0.11 0.12 0.12 0.12 0.08 0.07 0.06 0.05 0.03 0.02 0.01 0.02 0.02 0.01 0.01 0.02 0.02 0.02 0.02 0.02 0.03 0.03 0.04 0.08 0.15 0.17 0.16 0.16 0.15 0.13 0.13 0.11 0.11 0.11 0.13 0.13 0.16 0.18 0.15 0.11 0.10 0.11 0.12 0.16
0.10 0.12 0.13 0.12 0.08 0.07 0.06 0.04 0.03 0.03 0.02 0.02 0.03 0.02 0.01 0.02 0.02 0.02 0.02 0.03 0.03 0.03 0.04 0.06 0.09 0.11 0.12 0.13 0.14 0.12 0.12 0.12 0.11 0.12 0.13 0.13 0.13 0.13 0.14 0.15 0.13 0.12 0.12 0.14